<
# Wetter Temperatur Luftdruck Luftfeuchtigkeit Sichtweite Windgeschwindigkeit Windrichtung Zeit
1 Clear 12 1010 71 16093 6.7 250 07:36 14.07.2020
2 Clear 13 1009 66 16093 8.2 260 07:18 14.07.2020
3 Clear 13 1009 66 16093 6.7 260 06:27 14.07.2020
4 Clear 13 1009 66 16093 6.7 260 05:55 14.07.2020
5 Clear 14 1010 66 16093 9.3 250 04:54 14.07.2020
6 Clear 13 1010 66 16093 9.3 250 04:34 14.07.2020
7 Clear 14 1009 71 16093 8.7 270 03:34 14.07.2020
8 Clear 13 1009 71 16093 8.7 250 02:31 14.07.2020
9 Clear 14 1009 76 16093 8.2 250 01:45 14.07.2020
10 Clear 14 1009 76 16093 8.2 250 01:24 14.07.2020
11 Clear 14 1008 67 16093 7.2 260 00:46 14.07.2020
12 Clear 13 1008 67 16093 7.2 260 00:27 14.07.2020
13 Clear 14 1008 71 16093 5.1 260 23:40 13.07.2020
14 Clear 14 1008 71 16093 5.1 260 23:20 13.07.2020
15 Clear 14 1008 66 16093 3.1 240 22:58 13.07.2020
16 Clear 14 1008 66 16093 3.1 240 22:39 13.07.2020
17 Clear 14 1008 66 16093 3.1 240 22:20 13.07.2020
18 Clear 14 1008 66 16093 2.6 200 21:55 13.07.2020
19 Clear 14 1008 66 16093 2.6 200 21:37 13.07.2020
20 Clear 13 1008 66 16093 2.6 200 21:19 13.07.2020
21 Clear 13 1008 71 16093 1.5 200 20:56 13.07.2020
22 Clear 13 1008 71 16093 1.5 200 20:37 13.07.2020
23 Clear 12 1008 71 16093 1.5 200 20:19 13.07.2020
24 Clear 11 1008 81 16093 0.86 244 19:43 13.07.2020
25 Clear 11 1008 81 16093 0.45 286 19:25 13.07.2020
26 Clear 10 1007 81 16093 0.45 286 18:57 13.07.2020
27 Clear 10 1007 81 16093 0.45 286 18:38 13.07.2020
28 Clear 9 1007 81 16093 0.86 11 18:20 13.07.2020
29 Clear 8 1007 87 16093 0.86 11 17:56 13.07.2020
30 Clear 8 1007 87 16093 0.86 11 17:56 13.07.2020
31 Clear 8 1007 87 16093 0.86 11 17:37 13.07.2020
32 Clear 7 1007 87 16093 1.15 25 17:18 13.07.2020
33 Clear 7 1007 93 16093 1.15 25 16:55 13.07.2020
34 Clear 7 1007 93 16093 1.15 25 16:36 13.07.2020
35 Clear 7 1007 93 16093 1.68 16 16:18 13.07.2020
36 Clear 6 1007 81 16093 1.5 20 15:41 13.07.2020
37 Clear 6 1007 81 16093 1.5 20 15:21 13.07.2020
38 Clear 8 1007 87 16093 1.5 280 14:59 13.07.2020
39 Clear 8 1007 87 16093 1.5 280 14:39 13.07.2020
40 Clear 8 1007 87 16093 1.5 280 14:21 13.07.2020
41 Clear 9 1006 87 16093 2.1 30 13:56 13.07.2020
42 Clear 9 1006 87 16093 2.1 30 13:38 13.07.2020
43 Clear 9 1006 87 16093 2.1 30 13:20 13.07.2020
44 Clear 8 1006 76 16093 3.17 7 12:43 13.07.2020
45 Clear 9 1006 76 16093 2.73 4 12:23 13.07.2020
46 Clear 12 1006 58 16093 1.5 0 11:58 13.07.2020
47 Clear 11 1006 58 16093 1.5 0 11:39 13.07.2020
48 Clear 11 1006 58 16093 1.5 0 11:20 13.07.2020
49 Clear 13 1006 54 16093 4.1 280 10:40 13.07.2020
50 Clear 14 1006 54 16093 4.1 280 10:20 13.07.2020
51 Clear 16 1005 63 16093 5.1 250 09:43 13.07.2020
52 Clear 16 1005 63 16093 5.1 250 09:25 13.07.2020
53 Clear 17 1005 63 16093 7.2 260 08:54 13.07.2020
54 Clear 17 1005 63 16093 7.2 260 08:35 13.07.2020
55 Clear 18 1005 59 16093 7.2 260 07:52 13.07.2020
56 Clear 18 1005 59 16093 7.2 260 07:20 13.07.2020
57 Clear 18 1005 67 16093 9.3 250 06:45 13.07.2020
58 Clear 18 1005 67 16093 9.3 250 06:24 13.07.2020
59 Clear 19 1006 55 16093 9.3 260 04:57 13.07.2020
60 Clear 18 1006 72 16093 4.6 220 01:58 13.07.2020
61 Clear 18 1006 72 16093 4.6 220 01:40 13.07.2020
62 Clear 18 1006 72 16093 4.6 220 01:20 13.07.2020
63 Clear 17 1007 72 16093 3.6 210 00:38 13.07.2020
64 Clear 17 1007 67 16093 2.1 220 00:19 13.07.2020
65 Clear 17 1007 67 16093 2.1 220 23:41 12.07.2020
66 Clear 17 1007 67 16093 2.1 220 23:22 12.07.2020
67 Clear 16 1007 77 16093 3.1 200 22:56 12.07.2020
68 Clear 16 1007 77 16093 3.1 200 22:36 12.07.2020
69 Clear 16 1007 77 16093 3.1 200 22:36 12.07.2020
70 Clear 16 1007 77 16093 3.1 200 22:18 12.07.2020
71 Clear 16 1007 77 16093 4.1 210 21:55 12.07.2020
72 Clear 16 1007 77 16093 4.1 210 21:37 12.07.2020
73 Clear 16 1007 77 16093 4.1 210 21:19 12.07.2020
74 Clear 17 1007 59 16093 2.6 250 20:42 12.07.2020
75 Clear 16 1007 59 16093 2.6 250 20:20 12.07.2020
76 Clear 15 1007 67 16093 2.6 300 19:59 12.07.2020
77 Clear 14 1007 67 16093 2.6 300 19:39 12.07.2020
78 Clear 14 1007 67 16093 2.6 300 19:20 12.07.2020
79 Clear 13 1007 71 16093 0.89 83 18:54 12.07.2020
80 Clear 12 1007 71 16093 0.89 83 18:36 12.07.2020
81 Clear 12 1007 71 16093 1.92 12 18:18 12.07.2020
82 Clear 11 1007 71 16093 3.6 360 17:38 12.07.2020
83 Clear 11 1007 71 16093 3.6 360 17:20 12.07.2020
84 Clear 12 1007 71 16093 3.6 350 16:48 12.07.2020
85 Clear 12 1007 71 16093 3.6 350 16:22 12.07.2020
86 Clear 11 1007 76 16093 4.1 350 15:50 12.07.2020
87 Clear 11 1007 76 16093 4.1 350 15:30 12.07.2020
88 Clear 14 1008 67 16093 4.1 340 14:58 12.07.2020
89 Clear 14 1008 67 16093 4.1 340 14:40 12.07.2020
90 Clear 14 1008 67 16093 4.1 340 14:21 12.07.2020
91 Clear 13 1007 71 16093 4.6 350 13:40 12.07.2020
92 Clear 13 1007 71 16093 4.6 350 13:21 12.07.2020
93 Clear 13 1008 71 16093 5.1 360 12:57 12.07.2020
94 Clear 13 1008 71 16093 5.1 360 12:57 12.07.2020
95 Clear 13 1008 71 16093 5.1 360 12:38 12.07.2020
96 Clear 13 1008 71 16093 5.1 360 12:38 12.07.2020
97 Clear 13 1008 71 16093 5.1 360 12:18 12.07.2020
98 Clear 14 1008 71 16093 2.6 330 11:44 12.07.2020
99 Clear 14 1008 71 16093 2.6 330 11:21 12.07.2020
100 Clear 14 1007 63 16093 4.19 14 10:44 12.07.2020
101 Clear 14 1007 63 16093 4.57 23 10:23 12.07.2020
102 Clear 15 1007 67 16093 3.1 100 09:59 12.07.2020
103 Clear 16 1007 67 16093 3.1 100 09:40 12.07.2020
104 Clear 16 1007 67 16093 3.1 100 09:21 12.07.2020
105 Clouds 19 1007 45 16093 5.1 70 08:55 12.07.2020
106 Clouds 19 1007 45 16093 5.1 70 08:37 12.07.2020
107 Clouds 19 1007 45 16093 5.1 70 08:18 12.07.2020
108 Clouds 18 1007 67 16093 1.5 130 07:45 12.07.2020
109 Clouds 17 1007 67 16093 1.5 130 07:22 12.07.2020
110 Clouds 18 1007 67 16093 3.6 140 06:52 12.07.2020
111 Clouds 18 1007 67 16093 3.6 140 06:22 12.07.2020
112 Clouds 20 1007 37 16093 3.1 280 05:44 12.07.2020
113 Clouds 18 1007 67 16093 3.1 220 04:57 12.07.2020
114 Clouds 18 1007 67 16093 3.1 220 04:28 12.07.2020
115 Clouds 19 1007 59 16093 4.6 210 03:40 12.07.2020
116 Clouds 19 1007 59 16093 4.6 210 03:19 12.07.2020
117 Clear 19 1008 63 16093 4.6 200 01:46 12.07.2020
118 Clouds 19 1008 52 16093 3.6 200 00:54 12.07.2020
119 Clouds 19 1008 52 16093 3.6 200 00:24 12.07.2020
120 Clear 21 1008 37 16093 5.7 40 23:58 11.07.2020
121 Clear 21 1008 37 16093 5.7 40 23:39 11.07.2020
122 Clear 21 1008 35 16093 6.7 30 23:20 11.07.2020
123 Clear 18 1008 51 16093 2.1 220 22:55 11.07.2020
124 Clear 18 1008 51 16093 2.1 220 22:37 11.07.2020
125 Clear 18 1008 51 16093 2.1 220 22:37 11.07.2020
126 Clear 18 1008 51 16093 2.1 220 22:18 11.07.2020
127 Clear 18 1009 51 16093 1.5 260 21:42 11.07.2020
128 Clear 18 1009 51 16093 1.5 260 21:23 11.07.2020
129 Clear 16 1009 67 16093 2.1 230 20:58 11.07.2020
130 Clear 15 1009 67 16093 2.1 230 20:39 11.07.2020
131 Clear 15 1009 67 16093 2.1 230 20:39 11.07.2020
132 Clear 15 1009 67 16093 2.1 230 20:21 11.07.2020
133 Clear 14 1009 62 16093 1.5 300 19:58 11.07.2020
134 Clear 14 1009 62 16093 1.5 300 19:40 11.07.2020
135 Clear 13 1009 62 16093 1.5 300 19:21 11.07.2020
136 Clouds 13 1009 62 16093 2.6 310 18:56 11.07.2020
137 Clear 12 1009 58 16093 2.6 350 18:37 11.07.2020
138 Clear 11 1009 58 16093 2.6 350 18:19 11.07.2020
139 Clear 10 1009 66 16093 4.6 330 17:43 11.07.2020
140 Clear 9 1009 66 16093 4.6 330 17:22 11.07.2020
141 Clear 7 1009 75 16093 3.34 10 16:59 11.07.2020
142 Clear 7 1009 75 16093 3.34 10 16:39 11.07.2020
143 Clear 7 1009 75 16093 3.58 9 16:20 11.07.2020
144 Clear 10 1009 71 16093 2.1 350 15:57 11.07.2020
145 Clear 10 1009 71 16093 2.1 350 15:37 11.07.2020
146 Clear 10 1009 71 16093 2.1 350 15:19 11.07.2020
147 Clear 11 1009 66 16093 1.5 360 14:47 11.07.2020
148 Clear 11 1009 66 16093 1.5 360 14:24 11.07.2020
149 Clear 11 1009 71 16093 4.1 330 13:58 11.07.2020
150 Clear 11 1009 71 16093 4.1 330 13:40 11.07.2020
151 Clear 11 1009 71 16093 4.1 330 13:21 11.07.2020
152 Clear 11 1009 62 16093 4.1 330 12:45 11.07.2020
153 Clear 11 1009 62 16093 4.1 330 12:45 11.07.2020
154 Clear 13 1009 62 16093 4.1 330 12:23 11.07.2020
155 Clear 13 1009 62 16093 4.1 330 12:23 11.07.2020
156 Clear 12 1009 58 16093 4.6 340 11:59 11.07.2020
157 Clear 13 1009 58 16093 4.6 340 11:41 11.07.2020
158 Clear 13 1009 58 16093 4.6 340 11:20 11.07.2020
159 Clear 14 1009 51 16093 3.6 10 10:46 11.07.2020
160 Clear 15 1009 51 16093 3.6 10 10:28 11.07.2020
161 Clear 17 1009 42 16093 3.6 360 09:59 11.07.2020
162 Clear 17 1009 42 16093 3.6 360 09:37 11.07.2020
163 Clear 17 1009 42 16093 3.6 360 09:19 11.07.2020
164 Clear 20 1009 40 16093 6.2 350 08:43 11.07.2020
165 Clear 20 1009 40 16093 6.2 350 08:25 11.07.2020
166 Clear 21 1009 37 16093 6.7 360 07:55 11.07.2020
167 Clear 21 1009 37 16093 6.7 360 07:36 11.07.2020
168 Clear 21 1009 37 16093 6.7 360 07:18 11.07.2020
169 Clear 21 1009 43 16093 7.7 280 06:25 11.07.2020
170 Clear 22 1010 46 16093 7.7 280 05:54 11.07.2020
171 Clear 21 1010 46 16093 7.7 280 05:19 11.07.2020
172 Clear 21 1010 46 16093 6.7 270 04:39 11.07.2020
173 Clear 21 1010 46 16093 6.7 270 04:19 11.07.2020
174 Clouds 20 1012 63 16093 8.7 260 02:53 11.07.2020
175 Clouds 19 1012 67 16093 9.3 260 01:57 11.07.2020
176 Clouds 19 1012 67 16093 9.3 260 01:22 11.07.2020
177 Clear 18 1012 67 16093 7.7 260 00:55 11.07.2020
178 Clear 19 1012 67 16093 7.7 260 00:36 11.07.2020
179 Clear 19 1012 67 16093 7.7 260 00:18 11.07.2020
180 Clear 19 1013 67 16093 6.2 260 23:44 10.07.2020
181 Clear 18 1013 67 16093 6.2 260 23:26 10.07.2020
182 Clear 18 1013 63 16093 4.6 260 22:56 10.07.2020
183 Clear 18 1013 63 16093 4.6 260 22:38 10.07.2020
184 Clear 16 1013 63 16093 4.6 260 22:18 10.07.2020
185 Clear 17 1013 45 16093 3.6 310 21:38 10.07.2020
186 Clear 18 1013 45 16093 3.6 310 21:20 10.07.2020
187 Clear 17 1013 55 16093 2.6 220 20:56 10.07.2020
188 Clear 17 1013 55 16093 2.6 220 20:37 10.07.2020
189 Clear 16 1013 55 16093 2.6 220 20:19 10.07.2020
190 Clear 15 1014 58 16093 3.1 290 19:56 10.07.2020
191 Clear 15 1014 58 16093 3.1 290 19:38 10.07.2020
192 Clear 15 1014 58 16093 3.1 290 19:18 10.07.2020
193 Clear 13 1014 71 16093 2.6 300 18:41 10.07.2020
194 Clear 12 1014 71 16093 2.6 300 18:19 10.07.2020
195 Clear 11 1014 71 16093 5.7 330 17:55 10.07.2020
196 Clear 11 1014 71 16093 5.7 330 17:37 10.07.2020
197 Clear 11 1014 71 16093 5.7 330 17:18 10.07.2020
198 Clear 9 1014 81 16093 3.1 290 16:41 10.07.2020
199 Clear 9 1014 81 16093 3.1 290 16:20 10.07.2020
200 Clear 9 1014 81 16093 1.5 350 15:44 10.07.2020
201 Clear 9 1014 81 16093 1.5 350 15:22 10.07.2020
202 Clear 9 1015 87 16093 3.1 300 14:55 10.07.2020
203 Clear 9 1015 87 16093 3.1 300 14:37 10.07.2020
204 Clear 9 1015 87 16093 3.1 300 14:18 10.07.2020
205 Clear 10 1015 81 16093 3.6 300 13:56 10.07.2020
206 Clear 10 1015 81 16093 3.6 300 13:37 10.07.2020
207 Clear 10 1015 81 16093 3.6 300 13:19 10.07.2020
208 Clear 11 1015 76 16093 2.48 325 12:43 10.07.2020
209 Clear 12 1015 76 16093 2.51 317 12:24 10.07.2020
210 Clear 12 1015 67 16093 2.51 317 11:59 10.07.2020
211 Clear 12 1015 67 16093 2.51 317 11:38 10.07.2020
212 Clear 13 1015 67 16093 2.59 315 11:19 10.07.2020
213 Clear 14 1015 63 16093 3.6 360 10:54 10.07.2020
214 Clear 14 1014 70 0 1.34 353 10:36 10.07.2020
215 Clear 16 1015 52 16093 3.6 350 10:18 10.07.2020
216 Clear 17 1015 52 16093 3.6 350 09:37 10.07.2020
217 Clear 17 1015 52 16093 3.6 350 09:19 10.07.2020
218 Clear 18 1015 48 16093 4.6 340 08:57 10.07.2020
219 Clear 18 1015 48 16093 4.6 340 08:38 10.07.2020
220 Clear 18 1015 48 16093 4.6 340 08:20 10.07.2020
221 Clouds 19 1015 45 16093 5.1 340 07:42 10.07.2020
222 Clouds 19 1015 45 16093 5.1 340 07:22 10.07.2020
223 Clouds 18 1015 59 16093 4.1 260 06:49 10.07.2020
224 Clear 17 1015 63 16093 7.7 260 05:58 10.07.2020
225 Clouds 16 1016 63 16093 8.7 250 04:43 10.07.2020
226 Clear 16 1016 63 16093 5.7 250 03:38 10.07.2020
227 Clouds 14 1016 67 16093 6.7 240 02:52 10.07.2020
228 Clouds 15 1017 67 16093 6.2 250 01:50 10.07.2020
229 Clear 15 1017 67 16093 5.7 240 00:48 10.07.2020
230 Clear 15 1017 67 16093 5.7 240 00:20 10.07.2020
231 Clear 14 1018 67 16093 5.7 240 23:46 09.07.2020
232 Clear 14 1018 67 16093 5.7 240 23:23 09.07.2020
233 Clear 13 1018 76 16093 3.6 230 22:59 09.07.2020
234 Clear 13 1018 76 16093 3.6 230 22:41 09.07.2020
235 Clear 13 1018 76 16093 3.6 230 22:21 09.07.2020
236 Clear 13 1018 81 16093 3.1 190 21:57 09.07.2020
237 Clear 13 1018 81 16093 3.1 190 21:38 09.07.2020
238 Clear 13 1018 81 16093 3.1 190 21:38 09.07.2020
239 Clear 13 1018 81 16093 3.1 190 21:19 09.07.2020
240 Clear 13 1018 67 16093 1.32 0 20:45 09.07.2020
241 Clear 13 1018 67 16093 1.62 358 20:26 09.07.2020
242 Clear 13 1018 76 16093 2.1 330 19:59 09.07.2020
243 Clear 13 1018 76 16093 2.1 330 19:41 09.07.2020
244 Clear 13 1018 76 16093 2.1 330 19:21 09.07.2020
245 Clouds 11 1018 87 16093 3.1 320 18:43 09.07.2020
246 Clouds 11 1018 87 16093 3.1 320 18:24 09.07.2020
247 Clouds 10 1018 93 16093 3.6 320 17:56 09.07.2020
248 Clouds 9 1018 93 16093 3.6 320 17:38 09.07.2020
249 Clouds 9 1018 93 16093 3.6 320 17:20 09.07.2020
250 Clouds 8 1018 93 16093 1.5 290 16:56 09.07.2020
251 Clouds 8 1018 93 16093 1.5 290 16:37 09.07.2020
252 Clouds 8 1018 93 16093 1.5 290 16:19 09.07.2020
253 Clouds 8 1018 100 16093 2.28 11 15:55 09.07.2020
254 Clouds 8 1018 100 16093 2.28 11 15:36 09.07.2020
255 Clouds 8 1018 100 16093 2.02 16 15:18 09.07.2020
256 Clouds 8 1018 93 16093 2.02 16 14:57 09.07.2020
257 Clouds 8 1018 93 16093 2.02 16 14:39 09.07.2020
258 Clouds 8 1018 93 16093 1.94 357 14:19 09.07.2020
259 Clouds 9 1018 93 16093 1.94 357 13:55 09.07.2020
260 Clouds 9 1018 93 16093 1.94 357 13:36 09.07.2020
261 Clouds 9 1018 93 16093 2.01 353 13:18 09.07.2020
262 Clouds 9 1018 93 16093 2.01 353 12:40 09.07.2020
263 Clouds 9 1018 93 16093 2.01 336 12:21 09.07.2020
264 Clouds 9 1018 87 16093 3.1 270 11:56 09.07.2020
265 Clouds 9 1018 87 16093 3.1 270 11:37 09.07.2020
266 Clouds 10 1018 87 16093 3.1 270 11:18 09.07.2020
267 Clouds 10 1017 87 16093 3.6 270 10:55 09.07.2020
268 Clouds 10 1017 87 16093 3.6 270 10:37 09.07.2020
269 Clouds 10 1017 87 16093 3.6 270 10:18 09.07.2020
270 Clouds 10 1017 87 16093 6.7 260 09:41 09.07.2020
271 Clouds 10 1017 87 16093 6.7 260 09:22 09.07.2020
272 Clouds 10 1017 93 16093 7.7 250 08:49 09.07.2020
273 Clouds 10 1017 93 16093 7.7 250 08:26 09.07.2020
274 Clouds 11 1017 81 16093 7.7 260 07:50 09.07.2020
275 Clouds 11 1017 81 16093 7.7 260 07:26 09.07.2020
276 Clouds 11 1017 81 16093 7.7 260 06:57 09.07.2020
277 Clouds 11 1017 81 16093 7.7 260 06:20 09.07.2020
278 Clouds 11 1017 81 16093 8.2 250 05:46 09.07.2020
279 Clouds 11 1017 81 16093 7.7 250 04:28 09.07.2020
280 Clouds 11 1017 81 16093 7.7 250 02:37 09.07.2020
281 Clouds 10 1017 87 16093 7.2 260 01:40 09.07.2020
282 Clouds 11 1017 81 16093 6.7 260 00:56 09.07.2020
283 Clouds 11 1017 81 16093 6.7 260 00:37 09.07.2020
284 Clouds 11 1017 81 16093 6.7 260 00:18 09.07.2020
285 Clouds 11 1017 87 16093 5.1 260 23:43 08.07.2020
286 Clouds 11 1017 87 16093 5.1 260 23:24 08.07.2020
287 Clouds 11 1017 81 16093 4.6 250 22:55 08.07.2020
288 Clouds 11 1017 81 16093 4.6 250 22:36 08.07.2020
289 Clouds 11 1017 81 16093 4.6 250 22:18 08.07.2020
290 Clouds 10 1017 87 16093 3.1 270 21:39 08.07.2020
291 Clouds 10 1017 87 16093 3.1 270 21:21 08.07.2020
292 Clouds 9 1017 93 16093 3.1 260 20:58 08.07.2020
293 Clouds 9 1017 93 16093 3.1 260 20:58 08.07.2020
294 Clouds 9 1017 93 16093 3.1 260 20:40 08.07.2020
295 Clouds 9 1017 93 16093 3.1 260 20:22 08.07.2020
296 Clouds 9 1016 93 16093 1.5 280 19:43 08.07.2020
297 Clouds 9 1016 93 16093 1.5 280 19:25 08.07.2020
298 Clouds 8 1016 100 16093 1.5 290 18:59 08.07.2020
299 Clouds 8 1016 100 16093 1.5 290 18:40 08.07.2020
300 Clouds 8 1016 100 16093 1.5 290 18:21 08.07.2020
301 Clouds 8 1016 100 16093 1.5 270 17:57 08.07.2020
302 Clouds 8 1016 100 16093 1.5 270 17:38 08.07.2020
303 Clouds 8 1016 100 16093 1.5 270 17:38 08.07.2020
304 Clouds 8 1016 100 16093 0.28 277 17:20 08.07.2020
305 Clouds 8 1016 100 16093 0.28 277 17:20 08.07.2020
306 Clouds 8 1016 100 16093 0.28 277 16:56 08.07.2020
307 Mist 8 1016 100 6437 0.28 277 16:37 08.07.2020
308 Mist 8 1016 100 6437 0.5 247 16:18 08.07.2020
309 Mist 8 1016 100 8047 0.5 247 15:56 08.07.2020
310 Mist 8 1016 100 6437 0.5 247 15:38 08.07.2020
311 Mist 8 1016 100 6437 0.71 223 15:18 08.07.2020
312 Clouds 8 1016 100 16093 0.71 223 14:42 08.07.2020
313 Clouds 8 1016 100 16093 0.85 221 14:21 08.07.2020
314 Clouds 8 1016 93 16093 1.5 250 13:46 08.07.2020
315 Clouds 8 1016 93 16093 1.5 250 13:28 08.07.2020
316 Rain 8 1016 93 16093 2.1 200 12:58 08.07.2020
317 Rain 8 1016 93 16093 2.1 200 12:40 08.07.2020
318 Rain 8 1016 93 16093 2.1 200 12:19 08.07.2020
319 Clouds 8 1016 93 14484 1.28 212 11:39 08.07.2020
320 Rain 8 1016 100 16093 1.5 80 11:21 08.07.2020
321 Rain 8 1016 100 2816 2.1 140 10:59 08.07.2020
322 Rain 8 1016 100 2816 2.1 140 10:41 08.07.2020
323 Clouds 9 1016 93 16093 1.5 80 10:22 08.07.2020
324 Clouds 9 1016 93 16093 1.5 130 09:44 08.07.2020
325 Clouds 9 1016 93 12874 2.6 150 09:24 08.07.2020
326 Clouds 9 1016 87 16093 2.1 150 08:44 08.07.2020
327 Clouds 9 1016 93 16093 3.1 170 08:25 08.07.2020
328 Clouds 9 1016 93 16093 2.6 170 07:48 08.07.2020
329 Clouds 9 1016 93 16093 2.6 170 07:48 08.07.2020
330 Rain 9 1017 93 16093 3.1 160 07:24 08.07.2020
331 Rain 9 1017 93 6437 3.6 140 06:57 08.07.2020
332 Rain 9 1017 93 6437 3.6 130 06:37 08.07.2020
333 Rain 9 1017 93 6437 3.6 130 06:19 08.07.2020
334 Rain 9 1017 93 16093 3.1 150 05:38 08.07.2020
335 Rain 9 1017 93 16093 3.6 150 04:38 08.07.2020
336 Rain 9 1018 93 16093 2.6 190 02:55 08.07.2020
337 Rain 9 1018 93 12874 2.6 180 01:57 08.07.2020
338 Rain 9 1018 93 12874 2.6 180 01:37 08.07.2020
339 Rain 9 1018 87 16093 2.6 180 00:39 08.07.2020
340 Rain 9 1018 87 16093 2.6 180 00:19 08.07.2020
341 Rain 9 1018 87 16093 2.6 200 23:41 07.07.2020
342 Rain 9 1018 87 16093 2.6 200 23:21 07.07.2020
343 Rain 8 1018 93 4828 4.1 200 22:54 07.07.2020
344 Rain 8 1018 93 4828 4.1 200 22:36 07.07.2020
345 Rain 8 1018 93 4828 4.1 200 22:18 07.07.2020
346 Clouds 9 1018 87 16093 4.1 220 21:41 07.07.2020
347 Clouds 9 1018 87 16093 4.1 220 21:41 07.07.2020
348 Clouds 9 1018 87 16093 3.1 220 21:22 07.07.2020
349 Clouds 9 1018 93 16093 3.1 210 20:59 07.07.2020
350 Clouds 9 1018 93 16093 3.1 210 20:41 07.07.2020
351 Clouds 9 1018 93 16093 3.1 210 20:23 07.07.2020
352 Clouds 9 1018 93 16093 3.6 220 19:55 07.07.2020
353 Clouds 9 1018 93 16093 3.6 220 19:36 07.07.2020
354 Clouds 9 1018 93 16093 3.6 220 19:18 07.07.2020
355 Clouds 9 1018 87 16093 4.1 220 18:54 07.07.2020
356 Clouds 9 1018 87 16093 4.1 220 18:36 07.07.2020
357 Clouds 8 1018 87 16093 4.1 220 18:18 07.07.2020
358 Clouds 8 1018 87 16093 4.1 220 17:43 07.07.2020
359 Clouds 8 1018 87 16093 4.1 220 17:23 07.07.2020
360 Clouds 8 1018 93 16093 3.6 210 16:58 07.07.2020
361 Clouds 8 1018 93 16093 3.6 210 16:40 07.07.2020
362 Clouds 8 1018 93 16093 3.6 210 16:21 07.07.2020
363 Clouds 8 1018 87 16093 2.6 200 15:54 07.07.2020
364 Clouds 8 1018 87 16093 2.6 200 15:36 07.07.2020
365 Clouds 8 1018 87 16093 2.6 200 15:18 07.07.2020
366 Clouds 8 1019 87 16093 4.6 230 14:42 07.07.2020
367 Clouds 8 1019 87 16093 4.6 230 14:22 07.07.2020
368 Clouds 8 1018 87 16093 4.1 230 13:40 07.07.2020
369 Clouds 8 1018 87 16093 4.1 230 13:19 07.07.2020
370 Clouds 9 1018 87 16093 3.6 230 12:43 07.07.2020
371 Clouds 9 1018 87 16093 4.1 230 12:25 07.07.2020
372 Clouds 9 1018 93 16093 4.1 220 11:58 07.07.2020
373 Clouds 9 1018 93 16093 4.1 220 11:40 07.07.2020
374 Clouds 9 1018 93 16093 4.1 220 11:20 07.07.2020
375 Clouds 9 1018 87 16093 5.1 230 10:57 07.07.2020
376 Clouds 9 1018 87 16093 5.1 230 10:38 07.07.2020
377 Clouds 9 1018 87 16093 5.1 230 10:19 07.07.2020
378 Clouds 9 1018 87 12874 5.1 220 09:41 07.07.2020
379 Clouds 9 1018 87 12874 5.1 220 09:21 07.07.2020
380 Clouds 9 1018 87 16093 4.6 240 08:43 07.07.2020
381 Clouds 9 1018 87 16093 4.6 240 08:24 07.07.2020
382 Clouds 9 1018 87 16093 5.1 240 07:58 07.07.2020
383 Clouds 9 1018 87 16093 5.1 240 07:37 07.07.2020
384 Clouds 9 1018 87 16093 5.1 240 07:19 07.07.2020
385 Rain 9 1018 87 8047 5.1 260 06:40 07.07.2020
386 Rain 9 1018 87 8047 5.1 260 06:22 07.07.2020
387 Clouds 9 1018 81 16093 7.2 260 05:24 07.07.2020
388 Clouds 10 1018 81 16093 7.2 270 04:43 07.07.2020
389 Clouds 9 1018 81 16093 6.7 270 03:42 07.07.2020
390 Clouds 9 1018 81 16093 7.2 270 02:57 07.07.2020
391 Clouds 9 1018 81 16093 7.7 260 01:34 07.07.2020
392 Clouds 9 1018 81 16093 7.2 260 00:58 07.07.2020
393 Clouds 9 1018 81 16093 7.2 260 00:39 07.07.2020
394 Clouds 9 1018 81 16093 7.2 260 00:19 07.07.2020
395 Clouds 9 1018 87 16093 7.2 270 23:42 06.07.2020
396 Clouds 9 1018 87 16093 7.2 270 23:24 06.07.2020
397 Clouds 9 1017 87 16093 7.7 280 22:56 06.07.2020
398 Clouds 9 1017 87 16093 7.7 280 22:38 06.07.2020
399 Clouds 9 1017 87 16093 7.7 280 22:18 06.07.2020
400 Clouds 9 1017 93 16093 7.7 270 21:56 06.07.2020
401 Clouds 8 1017 93 16093 7.7 270 21:36 06.07.2020
402 Clouds 8 1017 93 16093 7.7 270 21:18 06.07.2020
403 Clouds 8 1017 93 16093 8.7 270 20:40 06.07.2020
404 Clouds 8 1017 93 16093 7.7 280 20:20 06.07.2020
405 Clouds 8 1017 93 14484 7.7 280 19:58 06.07.2020
406 Clouds 8 1017 93 14484 7.7 280 19:39 06.07.2020
407 Clouds 8 1017 93 14484 7.7 280 19:21 06.07.2020
408 Clouds 8 1017 93 16093 7.2 280 18:57 06.07.2020
409 Clouds 8 1017 93 16093 7.2 280 18:39 06.07.2020
410 Clouds 8 1017 93 16093 7.2 280 18:21 06.07.2020
411 Clouds 8 1017 93 16093 6.7 280 17:46 06.07.2020
412 Clouds 8 1017 93 16093 6.7 280 17:28 06.07.2020
413 Clouds 8 1016 93 16093 4.6 280 16:59 06.07.2020
414 Clouds 8 1016 93 16093 4.6 280 16:59 06.07.2020
415 Clouds 8 1016 93 16093 4.6 280 16:41 06.07.2020
416 Clouds 8 1016 93 16093 4.6 280 16:21 06.07.2020
417 Clouds 8 1016 87 16093 6.2 280 15:44 06.07.2020
418 Clouds 8 1016 87 16093 6.2 280 15:25 06.07.2020
419 Clouds 8 1016 87 16093 7.2 270 14:57 06.07.2020
420 Clouds 8 1016 87 16093 6.7 280 14:38 06.07.2020
421 Clouds 8 1016 87 16093 6.7 280 14:20 06.07.2020
422 Clouds 8 1016 87 16093 8.2 280 13:56 06.07.2020
423 Clouds 8 1016 87 16093 8.2 280 13:38 06.07.2020
424 Clouds 8 1016 87 16093 8.2 280 13:19 06.07.2020
425 Clouds 9 1016 87 16093 7.7 280 12:42 06.07.2020
426 Clouds 9 1016 87 16093 7.7 280 12:19 06.07.2020
427 Clouds 9 1016 87 16093 7.7 280 12:19 06.07.2020
428 Clouds 9 1016 93 16093 9.8 270 11:58 06.07.2020
429 Clouds 9 1016 93 16093 9.8 270 11:38 06.07.2020
430 Clouds 9 1016 93 16093 9.8 270 11:20 06.07.2020
431 Clouds 10 1016 93 16093 7.7 260 10:56 06.07.2020
432 Clouds 10 1016 93 16093 7.7 260 10:37 06.07.2020
433 Clouds 11 1016 93 16093 7.7 260 10:18 06.07.2020
434 Clouds 11 1016 93 16093 7.7 260 09:41 06.07.2020
435 Clouds 11 1015 93 16093 7.2 270 09:21 06.07.2020
436 Clouds 12 1016 87 16093 7.2 260 08:56 06.07.2020
437 Clouds 12 1016 87 16093 7.2 260 08:38 06.07.2020
438 Clouds 12 1016 87 16093 7.2 260 08:19 06.07.2020
439 Clouds 12 1016 87 16093 7.7 250 07:46 06.07.2020
440 Clouds 12 1016 87 16093 7.7 250 07:24 06.07.2020
441 Clouds 11 1016 87 16093 5.7 250 06:42 06.07.2020
442 Clouds 11 1016 87 16093 5.7 250 06:42 06.07.2020
443 Clouds 12 1016 87 16093 5.7 250 06:23 06.07.2020
444 Mist 11 1016 93 8047 5.1 260 05:41 06.07.2020
445 Mist 11 1016 93 9656 6.2 250 04:55 06.07.2020
446 Mist 12 1016 93 4023 5.1 250 03:44 06.07.2020
447 Fog 13 1016 100 805 4.1 180 02:24 06.07.2020
448 Mist 14 1016 100 2816 4.1 140 01:39 06.07.2020
449 Mist 14 1016 93 8047 4.6 90 00:39 06.07.2020
450 Mist 14 1016 93 8047 4.6 90 00:20 06.07.2020
451 Mist 14 1016 93 6437 5.1 80 23:44 05.07.2020
452 Mist 14 1016 93 6437 5.1 80 23:25 05.07.2020
453 Mist 14 1016 93 4828 4.1 90 22:59 05.07.2020
454 Mist 14 1016 93 4828 4.1 90 22:40 05.07.2020
455 Mist 14 1016 93 4828 4.1 90 22:20 05.07.2020
456 Mist 14 1016 93 4828 4.1 90 22:20 05.07.2020
457 Clouds 15 1016 72 16093 4.1 100 21:57 05.07.2020
458 Clouds 15 1016 72 16093 4.1 100 21:39 05.07.2020
459 Clouds 14 1016 76 16093 3.6 120 21:18 05.07.2020
460 Clouds 15 1016 62 16093 4.6 90 20:58 05.07.2020
461 Clouds 15 1016 62 16093 4.6 90 20:39 05.07.2020
462 Clouds 15 1016 62 16093 4.6 90 20:20 05.07.2020
463 Clouds 14 1016 62 16093 3.1 70 19:43 05.07.2020
464 Clouds 14 1016 62 16093 3.1 70 19:21 05.07.2020
465 Clouds 13 1016 67 16093 2.6 30 18:58 05.07.2020
466 Clouds 13 1016 67 16093 2.6 30 18:58 05.07.2020
467 Clouds 13 1016 67 16093 2.6 30 18:39 05.07.2020
468 Clouds 12 1016 67 16093 2.6 30 18:20 05.07.2020
469 Clouds 11 1016 71 16093 3.6 40 17:54 05.07.2020
470 Clouds 13 1016 71 16093 3.6 40 17:36 05.07.2020
471 Clouds 11 1016 71 16093 3.6 40 17:18 05.07.2020
472 Clouds 10 1017 76 16093 2.1 360 16:41 05.07.2020
473 Clouds 12 1017 76 16093 2.1 360 16:23 05.07.2020
474 Clouds 10 1017 81 16093 2.6 20 15:41 05.07.2020
475 Clouds 10 1017 81 16093 2.6 20 15:41 05.07.2020
476 Clouds 9 1017 81 16093 2.6 20 15:20 05.07.2020
477 Clear 11 1017 76 16093 3.6 40 14:59 05.07.2020
478 Clear 11 1017 76 16093 3.6 40 14:40 05.07.2020
479 Clear 9 1017 76 16093 3.6 40 14:20 05.07.2020
480 Clear 11 1018 76 16093 3.6 50 13:41 05.07.2020
481 Clear 9 1018 76 16093 3.6 50 13:23 05.07.2020
482 Clear 9 1018 76 16093 2.6 70 12:47 05.07.2020
483 Clear 10 1018 76 16093 2.6 70 12:26 05.07.2020
484 Clear 10 1018 81 16093 3.1 60 11:58 05.07.2020
485 Clear 9 1018 81 16093 3.1 60 11:40 05.07.2020
486 Clear 10 1018 81 16093 3.1 60 11:21 05.07.2020
487 Clear 11 1018 76 16093 2.1 100 10:58 05.07.2020
488 Clear 11 1018 76 16093 2.1 100 10:39 05.07.2020
489 Clear 12 1018 76 16093 2.1 100 10:19 05.07.2020
490 Clear 12 1018 76 16093 3.1 130 09:55 05.07.2020
491 Clear 12 1018 76 16093 3.1 130 09:37 05.07.2020
492 Clear 12 1018 76 16093 3.1 130 09:18 05.07.2020
493 Clear 13 1018 71 16093 4.1 140 08:43 05.07.2020
494 Clear 13 1018 71 16093 4.1 140 08:25 05.07.2020
495 Clear 13 1019 76 16093 3.6 130 07:46 05.07.2020
496 Clear 13 1019 76 16093 3.6 130 07:27 05.07.2020
497 Clear 13 1019 76 16093 4.1 150 06:50 05.07.2020
498 Clear 13 1019 76 16093 4.6 140 05:18 05.07.2020
499 Clear 13 1020 76 16093 6.2 160 03:24 05.07.2020
500 Clear 13 1020 76 16093 6.2 150 02:41 05.07.2020
501 Clouds 13 1020 81 16093 4.1 150 01:59 05.07.2020
502 Clouds 12 1020 81 16093 4.1 150 01:32 05.07.2020
503 Clouds 11 1020 87 16093 4.1 150 00:57 05.07.2020
504 Clouds 10 1021 87 16093 5.1 130 00:38 05.07.2020
505 Clouds 10 1021 87 16093 5.1 130 00:19 05.07.2020
506 Clouds 10 1021 87 16093 5.7 130 23:41 04.07.2020
507 Clouds 10 1021 87 16093 5.7 130 23:23 04.07.2020
508 Clouds 10 1021 87 16093 4.1 140 22:54 04.07.2020
509 Clouds 10 1021 87 16093 4.1 140 22:36 04.07.2020
510 Clouds 9 1021 87 16093 4.1 140 22:18 04.07.2020
511 Clouds 9 1021 87 16093 4.1 160 21:40 04.07.2020
512 Clouds 9 1021 87 16093 4.1 160 21:22 04.07.2020
513 Clouds 9 1021 87 16093 2.1 130 20:55 04.07.2020
514 Clouds 9 1021 87 16093 2.1 130 20:36 04.07.2020
515 Clouds 9 1021 87 16093 2.1 130 20:18 04.07.2020
516 Clouds 8 1021 93 16093 1.5 130 19:42 04.07.2020
517 Clouds 8 1021 87 16093 1.5 90 19:22 04.07.2020
518 Clouds 8 1021 87 16093 1.5 90 19:22 04.07.2020
519 Clouds 8 1021 87 16093 1.5 90 18:55 04.07.2020
520 Clouds 8 1021 87 16093 1.5 90 18:55 04.07.2020
521 Clouds 8 1021 87 16093 1.5 90 18:37 04.07.2020
522 Clouds 7 1022 100 16093 2.1 230 18:18 04.07.2020
523 Clouds 7 1022 100 16093 2.1 230 17:42 04.07.2020
524 Clouds 7 1022 100 16093 2.1 230 17:23 04.07.2020
525 Clouds 7 1021 100 11265 1.28 76 16:57 04.07.2020
526 Fog 7 1021 93 805 1.5 100 16:37 04.07.2020
527 Fog 7 1021 93 805 1.5 100 16:19 04.07.2020
528 Mist 7 1021 100 2816 1.05 101 15:46 04.07.2020
529 Mist 7 1021 100 2816 0.75 83 15:27 04.07.2020
530 Clouds 7 1022 100 11265 3.1 260 14:59 04.07.2020
531 Clouds 7 1022 100 11265 3.1 260 14:37 04.07.2020
532 Clouds 7 1022 100 11265 3.1 260 14:19 04.07.2020
533 Clouds 7 1022 100 16093 3.1 260 13:57 04.07.2020
534 Clouds 7 1022 100 16093 3.1 260 13:39 04.07.2020
535 Clouds 7 1022 100 16093 3.1 260 13:18 04.07.2020
536 Mist 7 1022 93 4023 2.6 280 12:42 04.07.2020
537 Mist 7 1022 93 4023 2.6 280 12:20 04.07.2020
538 Mist 7 1021 93 2816 3.1 270 11:46 04.07.2020
539 Mist 7 1021 93 9656 2.6 250 11:25 04.07.2020
540 Clouds 7 1021 93 16093 2.6 240 11:00 04.07.2020
541 Clouds 7 1021 93 16093 2.6 240 10:41 04.07.2020
542 Clouds 7 1021 93 16093 2.6 240 10:21 04.07.2020
543 Clouds 7 1021 93 16093 2.1 250 09:58 04.07.2020
544 Clouds 7 1021 93 16093 2.1 250 09:58 04.07.2020
545 Clouds 7 1021 93 16093 2.1 250 09:37 04.07.2020
546 Clouds 7 1021 93 16093 2.1 250 09:18 04.07.2020
547 Clouds 7 1021 93 16093 1.5 240 08:46 04.07.2020
548 Clouds 8 1021 93 16093 1.5 240 08:27 04.07.2020
549 Clouds 8 1021 93 16093 3.1 220 07:46 04.07.2020
550 Clouds 8 1021 93 16093 3.1 220 07:26 04.07.2020
551 Clouds 8 1021 93 16093 2.6 250 06:53 04.07.2020
552 Clouds 8 1021 93 16093 2.6 250 06:22 04.07.2020
553 Clouds 8 1021 93 16093 3.1 250 05:34 04.07.2020
554 Clouds 9 1021 93 16093 2.6 210 04:42 04.07.2020
555 Clouds 9 1021 93 16093 3.6 210 02:49 04.07.2020
556 Clouds 9 1021 93 16093 3.6 210 02:19 04.07.2020
557 Clouds 9 1021 93 16093 4.1 210 01:26 04.07.2020
558 Clouds 9 1020 93 16093 2.1 210 00:40 04.07.2020
559 Clouds 9 1020 93 16093 2.1 210 00:22 04.07.2020
560 Clouds 8 1020 100 16093 3.1 200 23:40 03.07.2020
561 Clouds 8 1020 100 16093 3.1 200 23:19 03.07.2020
562 Mist 8 1020 100 4828 2.6 220 22:55 03.07.2020
563 Mist 7 1020 100 4828 2.6 220 22:37 03.07.2020
564 Mist 7 1020 100 4828 2.6 220 22:18 03.07.2020
565 Mist 7 1020 100 1207 3.6 220 21:40 03.07.2020
566 Mist 7 1020 100 1609 2.1 220 21:20 03.07.2020
567 Mist 7 1020 100 2012 1.85 212 20:55 03.07.2020
568 Mist 7 1020 100 4828 1.5 190 20:37 03.07.2020
569 Mist 7 1020 100 4828 1.5 190 20:18 03.07.2020
570 Fog 6 1019 100 402 1.5 310 19:41 03.07.2020
571 Fog 5 1019 100 402 1.5 310 19:19 03.07.2020
572 Fog 5 1019 100 402 1.5 310 18:55 03.07.2020
573 Fog 5 1019 100 402 1.5 310 18:36 03.07.2020
574 Fog 6 1019 100 805 2.6 300 18:18 03.07.2020
575 Fog 6 1019 100 805 2.6 300 17:41 03.07.2020
576 Mist 6 1019 100 2414 3.1 310 17:22 03.07.2020
577 Mist 5 1019 100 1609 2.1 310 16:45 03.07.2020
578 Mist 6 1019 100 3219 2.1 330 16:26 03.07.2020
579 Mist 6 1019 100 4023 2.6 300 15:48 03.07.2020
580 Mist 6 1019 100 3219 2.6 290 15:25 03.07.2020
581 Fog 6 1019 93 805 3.6 330 14:58 03.07.2020
582 Fog 6 1019 93 805 3.6 330 14:40 03.07.2020
583 Mist 6 1019 100 4828 2.6 270 14:21 03.07.2020
584 Mist 6 1018 100 2414 1.33 276 13:48 03.07.2020
585 Mist 6 1018 100 1207 2.1 240 13:29 03.07.2020
586 Mist 6 1018 93 1609 2.1 270 12:57 03.07.2020
587 Mist 6 1018 100 1609 2.1 260 12:39 03.07.2020
588 Mist 7 1018 100 1609 2.1 260 12:20 03.07.2020
589 Mist 7 1018 100 9656 3.6 250 11:43 03.07.2020
590 Mist 7 1018 100 9656 3.6 250 11:25 03.07.2020
591 Clouds 8 1017 93 16093 4.1 230 10:58 03.07.2020
592 Clouds 8 1017 93 16093 4.1 230 10:39 03.07.2020
593 Mist 8 1017 93 2816 4.1 230 10:20 03.07.2020
594 Clouds 8 1017 93 16093 3.1 240 09:55 03.07.2020
595 Clouds 8 1017 93 16093 3.1 240 09:37 03.07.2020
596 Clouds 8 1017 93 16093 3.1 240 09:18 03.07.2020
597 Mist 8 1016 93 8047 3.6 230 08:40 03.07.2020
598 Mist 8 1016 93 8047 3.6 230 08:19 03.07.2020
599 Mist 8 1016 100 4828 3.6 230 07:49 03.07.2020
600 Mist 8 1016 100 4828 3.6 230 07:27 03.07.2020
601 Mist 8 1016 100 3219 3.1 230 06:54 03.07.2020
602 Mist 8 1016 100 3219 3.1 230 06:20 03.07.2020
603 Mist 8 1015 100 3219 3.6 210 04:56 03.07.2020
604 Mist 8 1015 100 3219 2.6 220 03:45 03.07.2020
605 Mist 8 1015 100 3219 4.1 230 02:49 03.07.2020
606 Mist 9 1014 93 4828 4.6 200 02:29 03.07.2020
607 Rain 9 1014 93 16093 4.1 190 01:29 03.07.2020
608 Rain 9 1014 93 6437 3.6 200 00:56 03.07.2020
609 Rain 9 1014 93 6437 3.6 200 00:36 03.07.2020
610 Rain 9 1014 100 3219 5.1 180 23:49 02.07.2020
611 Rain 9 1014 100 2816 5.1 180 23:21 02.07.2020
612 Rain 10 1013 93 1207 7.2 150 22:58 02.07.2020
613 Rain 10 1013 93 1207 7.2 150 22:40 02.07.2020
614 Rain 10 1013 100 3219 7.7 140 22:20 02.07.2020
615 Rain 10 1013 93 4023 7.2 130 21:57 02.07.2020
616 Rain 10 1013 93 4023 7.2 130 21:39 02.07.2020
617 Rain 10 1014 93 2816 8.2 130 21:19 02.07.2020
618 Rain 10 1014 93 6437 8.2 120 20:57 02.07.2020
619 Mist 10 1014 93 6437 8.2 120 20:39 02.07.2020
620 Mist 10 1014 93 6437 8.2 120 20:39 02.07.2020
621 Rain 10 1014 93 3219 8.2 120 20:18 02.07.2020
622 Rain 10 1015 93 2414 9.3 120 19:42 02.07.2020
623 Mist 10 1015 93 2414 9.3 120 19:23 02.07.2020
624 Mist 10 1015 93 2414 9.3 120 19:23 02.07.2020
625 Rain 10 1015 93 2816 9.3 120 18:58 02.07.2020
626 Rain 10 1015 93 2012 9.8 110 18:40 02.07.2020
627 Rain 10 1015 93 2012 9.8 110 18:21 02.07.2020
628 Rain 10 1016 93 4828 8.2 110 17:54 02.07.2020
629 Rain 10 1016 93 3219 9.3 110 17:36 02.07.2020
630 Rain 10 1016 93 3219 9.3 110 17:18 02.07.2020
631 Rain 10 1016 93 2414 9.3 110 16:41 02.07.2020
632 Rain 10 1016 93 3219 7.7 110 16:20 02.07.2020
633 Rain 11 1017 87 16093 9.3 110 15:55 02.07.2020
634 Rain 11 1017 87 16093 9.3 110 15:36 02.07.2020
635 Rain 11 1017 87 16093 9.3 110 15:18 02.07.2020
636 Clouds 11 1018 87 16093 8.2 110 14:44 02.07.2020
637 Clouds 11 1018 87 16093 8.2 110 14:44 02.07.2020
638 Clouds 11 1018 87 16093 8.2 110 14:22 02.07.2020
639 Clouds 11 1018 87 16093 7.7 110 13:56 02.07.2020
640 Rain 10 1018 93 16093 7.7 110 13:37 02.07.2020
641 Rain 10 1018 93 16093 7.7 110 13:18 02.07.2020
642 Clouds 10 1019 93 16093 6.2 120 12:41 02.07.2020
643 Clouds 10 1019 93 16093 6.2 120 12:22 02.07.2020
644 Rain 10 1019 93 12874 6.7 120 11:55 02.07.2020
645 Rain 10 1019 93 12874 6.7 120 11:37 02.07.2020
646 Rain 10 1019 93 12874 6.7 120 11:19 02.07.2020
647 Clouds 10 1019 93 16093 6.2 130 10:42 02.07.2020
648 Clouds 10 1019 93 16093 6.2 130 10:23 02.07.2020
649 Clouds 10 1020 93 16093 7.7 130 09:44 02.07.2020
650 Clouds 10 1020 93 16093 6.7 120 09:23 02.07.2020
651 Rain 10 1020 93 6437 6.2 140 08:59 02.07.2020
652 Rain 10 1020 93 6437 6.2 140 08:40 02.07.2020
653 Mist 10 1020 93 6437 6.2 140 08:20 02.07.2020
654 Rain 10 1020 93 3219 5.1 130 07:42 02.07.2020
655 Rain 10 1020 93 3219 5.1 130 07:22 02.07.2020
656 Rain 10 1021 93 3219 6.2 140 06:47 02.07.2020
657 Mist 10 1021 93 3219 6.2 140 06:27 02.07.2020
658 Mist 10 1021 93 4828 7.7 130 05:49 02.07.2020
659 Rain 10 1021 93 8047 6.2 120 04:55 02.07.2020
660 Rain 10 1021 93 4828 5.7 120 03:34 02.07.2020
661 Mist 10 1022 87 6437 7.7 120 01:51 02.07.2020
662 Clouds 11 1022 81 16093 6.2 130 00:44 02.07.2020
663 Clouds 11 1022 81 16093 6.2 130 00:18 02.07.2020
664 Clouds 10 1022 87 16093 5.7 120 23:43 01.07.2020
665 Clouds 10 1022 87 16093 5.7 120 23:22 01.07.2020
666 Clouds 10 1022 87 16093 6.2 130 22:55 01.07.2020
667 Clouds 10 1022 87 16093 6.2 130 22:37 01.07.2020
668 Clouds 10 1022 87 16093 6.2 130 22:18 01.07.2020
669 Clouds 10 1022 87 16093 6.7 120 21:56 01.07.2020
670 Clouds 10 1022 87 16093 6.7 120 21:38 01.07.2020
671 Clouds 10 1022 87 16093 6.7 120 21:19 01.07.2020
672 Clouds 10 1022 87 16093 5.7 130 20:46 01.07.2020
673 Clouds 10 1022 87 14484 6.2 120 20:26 01.07.2020
674 Clouds 9 1022 93 16093 4.1 90 19:57 01.07.2020
675 Clouds 9 1022 93 16093 4.1 90 19:39 01.07.2020
676 Clouds 9 1022 93 16093 4.1 90 19:20 01.07.2020
677 Clouds 9 1022 93 16093 4.1 90 18:55 01.07.2020
678 Clouds 9 1022 93 16093 4.1 90 18:37 01.07.2020
679 Clouds 9 1022 93 16093 4.1 90 18:19 01.07.2020
680 Clouds 9 1022 93 16093 4.1 80 17:41 01.07.2020
681 Clouds 8 1022 93 16093 3.6 90 17:20 01.07.2020
682 Clouds 8 1022 93 16093 4.1 90 16:49 01.07.2020
683 Clouds 8 1022 93 16093 3.1 90 16:29 01.07.2020
684 Clouds 8 1022 87 16093 3.6 120 15:59 01.07.2020
685 Clouds 8 1022 87 16093 3.6 120 15:41 01.07.2020
686 Clouds 8 1022 87 16093 3.6 120 15:22 01.07.2020
687 Clouds 8 1022 87 16093 4.6 150 14:55 01.07.2020
688 Clouds 8 1022 87 16093 4.6 150 14:37 01.07.2020
689 Clouds 8 1022 87 16093 4.6 150 14:19 01.07.2020
690 Clouds 8 1022 87 16093 4.6 150 13:40 01.07.2020
691 Clouds 9 1022 87 16093 4.6 150 13:21 01.07.2020
692 Clouds 9 1021 87 16093 5.1 150 12:59 01.07.2020
693 Clouds 8 1021 87 16093 5.1 150 12:39 01.07.2020
694 Clouds 9 1021 87 16093 5.1 150 12:21 01.07.2020
695 Clouds 9 1021 93 16093 3.6 150 11:56 01.07.2020
696 Clouds 9 1021 93 16093 3.6 150 11:37 01.07.2020
697 Clouds 9 1021 93 16093 3.6 150 11:18 01.07.2020
698 Clouds 8 1021 100 16093 3.1 160 10:42 01.07.2020
699 Clouds 9 1021 100 12874 3.1 150 10:23 01.07.2020
700 Mist 9 1021 100 4828 3.6 130 09:59 01.07.2020
701 Rain 9 1021 93 2012 5.7 130 09:37 01.07.2020
702 Rain 9 1021 93 2012 5.7 130 09:19 01.07.2020
703 Rain 9 1021 93 2012 6.2 120 08:41 01.07.2020
704 Rain 9 1021 93 2012 6.2 120 08:23 01.07.2020
705 Rain 9 1021 93 2012 6.7 120 07:58 01.07.2020
706 Mist 9 1021 93 2012 6.7 120 07:39 01.07.2020
707 Mist 9 1021 93 2012 6.7 120 07:20 01.07.2020
708 Clouds 9 1021 87 16093 5.1 90 06:50 01.07.2020
709 Clouds 9 1021 87 16093 5.1 90 06:28 01.07.2020
710 Rain 9 1021 87 14484 4.6 140 04:56 01.07.2020
711 Clouds 10 1021 81 16093 6.7 130 03:48 01.07.2020
712 Clouds 10 1021 81 16093 6.7 130 03:27 01.07.2020
713 Clouds 10 1021 81 16093 7.2 120 02:41 01.07.2020
714 Clouds 10 1021 81 16093 6.7 120 01:48 01.07.2020
715 Clouds 10 1021 81 16093 7.7 130 00:43 01.07.2020
716 Clouds 10 1021 81 16093 7.7 130 00:25 01.07.2020
717 Clouds 10 1021 81 16093 6.7 130 23:42 30.06.2020
718 Clouds 10 1021 81 16093 6.7 130 23:22 30.06.2020
719 Clouds 10 1021 87 16093 7.2 120 22:59 30.06.2020
720 Clouds 10 1021 87 16093 7.2 120 22:40 30.06.2020
721 Clouds 10 1021 87 16093 7.2 120 22:18 30.06.2020
722 Clouds 10 1021 81 16093 5.1 120 21:41 30.06.2020
723 Clouds 9 1021 81 16093 5.1 120 21:19 30.06.2020
724 Clouds 8 1021 87 16093 4.6 90 20:54 30.06.2020
725 Clouds 8 1021 87 16093 4.6 90 20:54 30.06.2020
726 Clouds 8 1021 87 16093 4.6 90 20:36 30.06.2020
727 Clouds 8 1021 87 16093 4.6 90 20:18 30.06.2020
728 Clouds 7 1021 81 16093 4.1 90 19:41 30.06.2020
729 Clouds 6 1021 81 16093 4.1 90 19:19 30.06.2020
730 Clouds 6 1020 87 16093 4.1 90 18:43 30.06.2020
731 Clouds 5 1020 87 16093 4.1 90 18:21 30.06.2020
732 Clouds 5 1020 87 16093 3.6 90 17:59 30.06.2020
733 Clouds 5 1020 87 16093 3.6 90 17:37 30.06.2020
734 Clouds 5 1020 87 16093 3.6 90 17:19 30.06.2020
735 Clouds 5 1020 87 16093 3.1 90 16:43 30.06.2020
736 Clouds 4 1020 87 16093 4.1 90 16:24 30.06.2020
737 Clouds 4 1020 87 16093 2.1 80 15:59 30.06.2020
738 Clouds 4 1020 87 16093 2.1 80 15:40 30.06.2020
739 Clouds 4 1020 87 16093 2.1 80 15:21 30.06.2020
740 Clouds 3 1020 86 16093 2.1 40 14:54 30.06.2020
741 Clouds 4 1020 86 16093 0.83 78 14:36 30.06.2020
742 Clouds 4 1020 86 16093 0.33 58 14:18 30.06.2020
743 Clouds 4 1020 93 16093 0.33 58 13:40 30.06.2020
744 Clouds 4 1020 93 16093 0.54 306 13:20 30.06.2020
745 Clear 4 1019 86 16093 1.5 50 12:57 30.06.2020
746 Clear 4 1019 86 16093 1.5 50 12:39 30.06.2020
747 Clear 4 1019 86 16093 1.5 50 12:20 30.06.2020
748 Clear 5 1019 80 16093 2.1 10 11:57 30.06.2020
749 Clear 5 1019 80 16093 2.1 10 11:38 30.06.2020
750 Clear 5 1019 80 16093 2.1 10 11:19 30.06.2020
751 Clear 7 1018 75 16093 3.1 270 10:56 30.06.2020
752 Rain 7 1004 100 12874 4.1 170 16:38 28.06.2020
753 Rain 7 1004 100 12874 4.1 170 16:19 28.06.2020
754 Rain 7 1004 100 11265 5.1 150 15:56 28.06.2020
755 Rain 7 1005 100 12874 4.6 140 15:37 28.06.2020
756 Rain 7 1005 100 12874 4.6 140 15:18 28.06.2020
757 Rain 7 1005 100 12874 4.6 140 15:18 28.06.2020
758 Rain 7 1005 100 11265 5.1 150 14:43 28.06.2020
759 Rain 7 1005 100 12874 5.1 130 14:24 28.06.2020
760 Mist 7 1006 93 9656 5.7 140 13:55 28.06.2020
761 Rain 7 1006 93 9656 5.7 140 13:36 28.06.2020
762 Rain 7 1006 93 9656 5.7 140 13:18 28.06.2020
763 Mist 7 1006 93 9656 6.7 150 12:55 28.06.2020
764 Rain 7 1006 93 9656 6.7 150 12:36 28.06.2020
765 Mist 7 1006 93 9656 6.7 150 12:18 28.06.2020
766 Rain 7 1006 93 12874 6.2 160 11:43 28.06.2020
767 Rain 7 1006 93 12874 8.2 160 11:21 28.06.2020
768 Rain 7 1006 93 12874 8.2 160 11:21 28.06.2020
769 Mist 7 1006 93 9656 7.2 150 10:59 28.06.2020
770 Rain 7 1006 93 9656 7.2 150 10:59 28.06.2020
771 Rain 7 1006 93 9656 7.2 150 10:40 28.06.2020
772 Rain 7 1006 93 9656 6.7 160 10:22 28.06.2020
773 Mist 7 1006 93 8047 6.7 160 09:42 28.06.2020
774 Rain 7 1007 93 6437 7.2 160 09:23 28.06.2020
775 Rain 7 1007 93 4828 7.7 170 08:57 28.06.2020
776 Rain 7 1007 93 4828 7.7 170 08:39 28.06.2020
777 Rain 7 1007 93 4828 7.7 170 08:20 28.06.2020
778 Rain 7 1007 93 4828 7.7 170 07:37 28.06.2020
779 Rain 7 1007 93 4828 8.7 160 06:57 28.06.2020
780 Rain 7 1007 93 4828 8.7 160 06:32 28.06.2020
781 Rain 7 1007 93 4828 10.3 170 05:54 28.06.2020
782 Rain 7 1007 93 4828 9.8 170 04:36 28.06.2020
783 Rain 7 1006 93 9656 10.3 170 03:18 28.06.2020
784 Rain 7 1006 93 4828 9.3 170 02:22 28.06.2020
785 Rain 7 1006 93 8047 8.7 160 01:46 28.06.2020
786 Rain 7 1006 93 8047 8.7 160 01:22 28.06.2020
787 Rain 7 1006 93 6437 10.3 170 00:31 28.06.2020
788 Rain 7 1006 93 16093 8.7 160 23:58 27.06.2020
789 Rain 7 1006 93 16093 8.7 160 23:40 27.06.2020
790 Rain 7 1006 93 16093 8.7 160 23:21 27.06.2020
791 Rain 7 1006 93 16093 9.8 160 22:54 27.06.2020
792 Clouds 7 1006 93 16093 10.3 160 22:36 27.06.2020
793 Clouds 7 1006 93 16093 10.3 160 22:18 27.06.2020
794 Mist 7 1006 93 4828 10.3 170 21:42 27.06.2020
795 Rain 7 1006 93 2012 9.8 170 21:20 27.06.2020
796 Rain 7 1006 100 4023 9.3 170 20:56 27.06.2020
797 Rain 7 1006 100 2414 9.8 170 20:37 27.06.2020
798 Rain 7 1006 100 2414 9.8 170 20:18 27.06.2020
799 Rain 7 1006 93 2012 9.8 170 19:38 27.06.2020
800 Rain 7 1006 93 2012 9.8 170 19:19 27.06.2020
801 Rain 7 1006 93 4023 8.2 170 18:57 27.06.2020
802 Rain 7 1006 93 4828 9.3 160 18:38 27.06.2020
803 Rain 7 1006 93 4828 9.3 160 18:38 27.06.2020
804 Rain 7 1006 93 4828 9.3 160 18:19 27.06.2020
805 Rain 6 1006 93 3219 8.7 160 17:41 27.06.2020
806 Rain 6 1006 93 3219 8.7 160 17:41 27.06.2020
807 Mist 6 1006 87 8047 9.3 170 17:21 27.06.2020
808 Rain 7 1006 93 11265 10.3 170 16:57 27.06.2020
809 Rain 7 1006 93 11265 10.3 170 16:38 27.06.2020
810 Rain 7 1006 93 8047 10.3 170 16:19 27.06.2020
811 Rain 7 1006 100 4828 9.3 170 15:43 27.06.2020
812 Rain 7 1006 100 4023 8.7 170 15:24 27.06.2020
813 Rain 7 1006 100 3219 8.7 170 14:57 27.06.2020
814 Rain 7 1006 100 3219 8.7 170 14:38 27.06.2020
815 Rain 7 1006 100 3219 8.7 170 14:19 27.06.2020
816 Rain 7 1007 100 8047 8.7 170 13:42 27.06.2020
817 Rain 7 1007 100 8047 8.7 170 13:20 27.06.2020
818 Mist 7 1007 100 8047 9.3 170 12:58 27.06.2020
819 Mist 7 1007 100 8047 9.3 170 12:40 27.06.2020
820 Mist 7 1007 100 8047 9.3 170 12:21 27.06.2020
821 Rain 7 1007 100 9656 8.7 170 11:57 27.06.2020
822 Mist 7 1007 100 3219 10.3 170 11:37 27.06.2020
823 Rain 7 1007 100 3219 10.3 170 11:37 27.06.2020
824 Mist 7 1007 100 3219 10.3 170 11:19 27.06.2020
825 Rain 7 1006 93 6437 9.3 170 10:40 27.06.2020
826 Rain 7 1006 93 6437 9.3 170 10:19 27.06.2020
827 Rain 7 1006 93 3219 8.7 170 09:57 27.06.2020
828 Rain 7 1006 93 3219 8.7 170 09:38 27.06.2020
829 Rain 7 1006 93 4828 9.3 170 09:20 27.06.2020
830 Clouds 7 1007 93 11265 8.7 170 08:42 27.06.2020
831 Rain 7 1007 93 9656 8.2 170 08:22 27.06.2020
832 Clouds 7 1007 93 16093 8.7 170 07:47 27.06.2020
833 Clouds 7 1007 93 16093 8.7 170 07:25 27.06.2020
834 Rain 7 1007 93 6437 9.3 170 06:51 27.06.2020
835 Rain 7 1007 93 8047 8.2 170 06:33 27.06.2020
836 Clouds 8 1007 81 16093 9.8 160 04:24 27.06.2020
837 Clouds 8 1007 81 16093 9.3 160 03:59 27.06.2020
838 Clouds 8 1007 81 16093 9.3 160 03:41 27.06.2020
839 Clouds 8 1008 75 16093 8.7 170 02:39 27.06.2020
840 Clouds 8 1008 75 16093 8.7 170 02:20 27.06.2020
841 Clouds 8 1008 75 16093 8.2 160 01:24 27.06.2020
842 Clouds 9 1008 76 16093 8.7 160 00:41 27.06.2020
843 Clouds 8 1008 81 16093 9.8 160 23:47 26.06.2020
844 Clouds 8 1008 81 16093 9.8 160 23:27 26.06.2020
845 Clouds 8 1008 75 16093 9.3 160 22:57 26.06.2020
846 Clouds 8 1008 75 16093 9.3 160 22:39 26.06.2020
847 Clouds 8 1008 75 16093 9.3 160 22:20 26.06.2020
848 Rain 8 1008 70 16093 7.7 160 21:57 26.06.2020
849 Rain 8 1008 70 16093 7.7 160 21:38 26.06.2020
850 Rain 8 1008 70 16093 7.7 160 21:20 26.06.2020
851 Rain 8 1008 70 16093 7.7 160 21:20 26.06.2020
852 Clouds 8 1009 65 16093 6.7 160 20:46 26.06.2020
853 Clouds 8 1009 65 16093 6.7 160 20:26 26.06.2020
854 Clouds 7 1009 70 16093 5.1 170 19:47 26.06.2020
855 Clouds 6 1009 70 16093 5.1 170 19:25 26.06.2020
856 Clouds 7 1009 70 16093 4.1 200 18:59 26.06.2020
857 Clouds 7 1009 70 16093 4.1 200 18:40 26.06.2020
858 Clouds 7 1009 70 16093 4.1 200 18:21 26.06.2020
859 Clouds 5 1009 80 16093 5.48 191 17:44 26.06.2020
860 Clouds 5 1009 80 16093 3.68 203 17:26 26.06.2020
861 Clouds 5 1009 86 16093 1.5 350 16:55 26.06.2020
862 Clouds 5 1009 86 16093 1.5 0 16:36 26.06.2020
863 Clouds 3 1009 86 16093 1.5 0 16:18 26.06.2020
864 Clear 3 1008 86 16093 2.82 228 15:41 26.06.2020
865 Clear 3 1008 86 16093 2.28 241 15:21 26.06.2020
866 Clear 3 1008 86 16093 2.28 241 14:57 26.06.2020
867 Clear 3 1008 86 16093 2.28 241 14:38 26.06.2020
868 Clear 3 1008 86 16093 2.21 231 14:20 26.06.2020
869 Clear 2 1008 86 16093 1.5 310 13:44 26.06.2020
870 Clear 3 1008 86 16093 1.5 310 13:23 26.06.2020
871 Clear 4 1008 86 16093 2.1 300 12:56 26.06.2020
872 Clear 4 1008 86 16093 2.1 300 12:38 26.06.2020
873 Clear 4 1008 86 16093 2.1 300 12:19 26.06.2020
874 Clouds 5 1008 81 16093 3.6 300 11:56 26.06.2020
875 Clouds 5 1008 81 16093 3.6 300 11:56 26.06.2020
876 Clouds 5 1008 81 16093 3.6 300 11:37 26.06.2020
877 Clouds 6 1008 81 16093 3.6 300 11:18 26.06.2020
878 Clouds 6 1007 75 16093 5.1 270 10:55 26.06.2020
879 Clouds 6 1007 75 16093 5.1 270 10:37 26.06.2020
880 Clouds 7 1007 75 16093 5.1 270 10:18 26.06.2020
881 Clouds 7 1007 65 16093 6.7 270 09:41 26.06.2020
882 Clouds 7 1007 65 16093 6.7 270 09:20 26.06.2020
883 Clear 7 1006 61 16093 8.2 270 08:45 26.06.2020
884 Clear 7 1006 61 16093 8.2 270 08:27 26.06.2020
885 Clear 8 1006 61 16093 8.7 260 07:48 26.06.2020
886 Clear 8 1006 61 16093 8.7 260 07:23 26.06.2020
887 Clear 8 1006 65 16093 9.8 270 06:52 26.06.2020
888 Clear 8 1006 65 16093 9.8 270 06:30 26.06.2020
889 Clouds 8 1005 61 16093 10.3 260 05:53 26.06.2020
890 Clouds 8 1005 61 16093 10.3 260 05:21 26.06.2020
891 Clouds 8 1004 57 16093 12.3 260 02:40 26.06.2020
892 Clouds 8 1004 45 16093 7.7 270 01:39 26.06.2020
893 Clouds 8 1003 49 16093 5.7 360 00:52 26.06.2020
894 Clouds 8 1003 49 16093 5.7 360 00:31 26.06.2020
895 Clouds 8 1003 49 16093 4.46 250 23:48 25.06.2020
896 Clouds 8 1003 49 16093 3.57 254 23:22 25.06.2020
897 Clouds 7 1003 56 16093 3.6 200 22:58 25.06.2020
898 Clouds 7 1003 56 16093 3.6 200 22:39 25.06.2020
899 Clouds 7 1003 56 16093 3.6 200 22:20 25.06.2020
900 Clouds 7 1003 52 16093 3.02 263 21:58 25.06.2020
901 Clouds 7 1003 52 16093 3.02 263 21:40 25.06.2020
902 Clouds 6 1003 52 16093 1.54 262 21:21 25.06.2020
903 Clear 6 1003 56 16093 1.5 320 20:57 25.06.2020
904 Clear 6 1003 56 16093 1.5 320 20:39 25.06.2020
905 Clear 6 1003 56 16093 1.5 320 20:21 25.06.2020
906 Clouds 5 1003 65 16093 3.1 350 19:54 25.06.2020
907 Clouds 5 1003 65 16093 3.1 350 19:36 25.06.2020
908 Clouds 4 1002 74 16093 2.6 330 19:18 25.06.2020
909 Clouds 3 1002 74 16093 2.6 330 18:39 25.06.2020
910 Clouds 2 1002 74 16093 2.6 330 18:21 25.06.2020
911 Clear 1 1002 74 16093 4.1 340 17:45 25.06.2020
912 Clear 1 1002 74 16093 4.1 340 17:20 25.06.2020
913 Clear 1 1002 74 16093 2.6 350 16:59 25.06.2020
914 Clear 1 1002 74 16093 2.6 350 16:40 25.06.2020
915 Clear 1 1002 74 16093 2.6 350 16:19 25.06.2020
916 Clear 2 1002 74 16093 4.1 330 15:43 25.06.2020
917 Clear 2 1002 74 16093 4.1 330 15:25 25.06.2020
918 Clear 2 1002 74 16093 4.1 350 14:56 25.06.2020
919 Clear 3 1002 74 16093 4.1 350 14:37 25.06.2020
920 Clear 2 1002 74 16093 4.1 350 14:19 25.06.2020
921 Clear 3 1002 64 16093 4.6 350 13:42 25.06.2020
922 Clear 3 1002 64 16093 4.6 350 13:20 25.06.2020
923 Clouds 4 1003 56 16093 5.7 360 12:59 25.06.2020
924 Clouds 4 1003 56 16093 5.7 360 12:59 25.06.2020
925 Clouds 4 1003 56 16093 5.7 360 12:40 25.06.2020
926 Clouds 4 1003 56 16093 5.7 360 12:20 25.06.2020
927 Clear 5 1003 56 16093 4.6 360 11:43 25.06.2020
928 Clear 5 1003 56 16093 4.6 360 11:22 25.06.2020
929 Clear 6 1002 56 16093 5.1 360 10:45 25.06.2020
930 Clear 6 1002 56 16093 5.1 360 10:26 25.06.2020
931 Clouds 7 1002 49 16093 6.7 360 09:59 25.06.2020
932 Clouds 7 1002 49 16093 6.7 360 09:40 25.06.2020
933 Clouds 7 1002 49 16093 6.7 360 09:20 25.06.2020
934 Clear 8 1002 45 16093 8.2 360 08:43 25.06.2020
935 Clear 9 1002 45 16093 8.2 360 08:19 25.06.2020
936 Clear 9 1002 43 16093 8.2 350 07:45 25.06.2020
937 Clear 10 1002 43 16093 8.2 350 07:26 25.06.2020
938 Clouds 10 1002 40 16093 3.6 50 06:48 25.06.2020
939 Clouds 10 1002 40 16093 3.6 50 06:26 25.06.2020
940 Clouds 11 1002 40 16093 5.36 14 05:51 25.06.2020
941 Clouds 9 1003 44 16093 7.2 230 03:56 25.06.2020
942 Clouds 9 1003 45 16093 7.2 230 03:29 25.06.2020
943 Clouds 9 1003 45 16093 6.2 230 02:42 25.06.2020
944 Clouds 8 1003 47 16093 6.2 230 01:55 25.06.2020
945 Clouds 8 1003 56 16093 3.6 210 01:19 25.06.2020
946 Clouds 7 1003 56 16093 3.6 210 00:42 25.06.2020
947 Clouds 7 1003 56 16093 3.6 210 00:20 25.06.2020
948 Clouds 8 1004 49 16093 2.6 70 23:44 24.06.2020
949 Clouds 8 1004 49 16093 2.6 70 23:25 24.06.2020
950 Clouds 7 1004 52 16093 4.74 17 22:57 24.06.2020
951 Clouds 7 1004 52 16093 4.74 17 22:38 24.06.2020
952 Clouds 7 1004 52 16093 4.29 19 22:19 24.06.2020
953 Clouds 7 1004 52 16093 2.6 70 21:55 24.06.2020
954 Clouds 7 1004 52 16093 2.6 70 21:36 24.06.2020
955 Clouds 7 1004 52 16093 2.6 70 21:18 24.06.2020
956 Clear 6 1004 56 16093 3.1 40 20:57 24.06.2020
957 Clear 6 1004 56 16093 3.1 40 20:57 24.06.2020
958 Clear 6 1004 56 16093 3.1 40 20:38 24.06.2020
959 Clear 6 1004 56 16093 3.1 40 20:19 24.06.2020
960 Clear 5 1004 65 16093 3.6 40 19:55 24.06.2020
961 Clear 5 1004 65 16093 3.6 40 19:36 24.06.2020
962 Clear 5 1004 65 16093 3.6 40 19:18 24.06.2020
963 Clear 4 1004 69 16093 4.1 360 18:57 24.06.2020
964 Clear 4 1004 69 16093 4.1 360 18:38 24.06.2020
965 Clear 4 1004 69 16093 4.1 360 18:19 24.06.2020
966 Clear 3 1004 74 16093 4.6 350 17:43 24.06.2020
967 Clear 3 1004 74 16093 4.6 350 17:21 24.06.2020
968 Clouds 3 1004 74 16093 4.6 360 16:59 24.06.2020
969 Clouds 3 1004 74 16093 4.6 360 16:40 24.06.2020
970 Clouds 3 1004 74 16093 4.6 360 16:22 24.06.2020
971 Clouds 3 1004 74 16093 4.6 350 15:58 24.06.2020
972 Clouds 2 1004 74 16093 4.6 350 15:39 24.06.2020
973 Clouds 2 1004 74 16093 4.6 350 15:39 24.06.2020
974 Clouds 2 1004 74 16093 4.6 350 15:20 24.06.2020
975 Clouds 2 1004 74 16093 2.1 350 14:54 24.06.2020
976 Clouds 3 1004 74 16093 2.1 350 14:36 24.06.2020
977 Clouds 2 1004 74 16093 2.1 350 14:18 24.06.2020
978 Clouds 3 1005 80 16093 6.7 360 13:41 24.06.2020
979 Clouds 3 1005 80 16093 6.7 360 13:20 24.06.2020
980 Clouds 4 1005 75 16093 5.1 350 12:41 24.06.2020
981 Clouds 5 1005 75 16093 5.1 350 12:21 24.06.2020
982 Clouds 6 1005 75 16093 3.1 10 11:57 24.06.2020
983 Clouds 6 1005 75 16093 3.1 10 11:39 24.06.2020
984 Clouds 6 1005 75 16093 3.1 10 11:21 24.06.2020
985 Rain 7 1005 75 16093 4.1 50 10:44 24.06.2020
986 Rain 7 1005 75 16093 4.1 50 10:19 24.06.2020
987 Rain 8 1004 87 16093 2.1 70 09:45 24.06.2020
988 Rain 8 1004 87 16093 2.1 70 09:23 24.06.2020
989 Rain 8 1005 76 16093 2.6 50 08:54 24.06.2020
990 Rain 9 1005 76 16093 3.6 40 08:36 24.06.2020
991 Rain 9 1005 76 16093 3.6 40 08:18 24.06.2020
992 Rain 10 1005 66 16093 5.1 220 07:42 24.06.2020
993 Rain 10 1005 66 16093 5.1 220 07:23 24.06.2020
994 Clouds 11 1004 58 16093 5.1 230 06:40 24.06.2020
995 Clouds 11 1004 58 16093 5.1 230 06:22 24.06.2020
996 Clouds 11 1005 54 16093 5.1 230 05:38 24.06.2020
997 Clouds 12 1005 54 16093 6.2 230 04:38 24.06.2020
998 Clouds 12 1005 54 16093 6.2 230 03:37 24.06.2020
999 Clouds 12 1005 54 16093 5.7 210 02:53 24.06.2020
1000 Clear 12 1005 50 16093 4.1 40 01:59 24.06.2020
1001 Clear 11 1005 53 16093 6.2 340 00:51 24.06.2020
1002 Clear 11 1005 53 16093 6.2 340 00:33 24.06.2020
1003 Clear 11 1005 53 16093 5.1 330 23:47 23.06.2020
1004 Clear 11 1005 53 16093 5.1 330 23:21 23.06.2020
1005 Clear 10 1005 53 16093 4.6 350 22:57 23.06.2020
1006 Clear 11 1005 53 16093 4.6 350 22:39 23.06.2020
1007 Clear 11 1005 57 16093 4.6 350 22:18 23.06.2020
1008 Clear 10 1004 46 16093 5.7 30 21:43 23.06.2020
1009 Clear 9 1004 46 16093 5.7 30 21:20 23.06.2020
1010 Clear 9 1004 49 16093 4.6 360 20:57 23.06.2020
1011 Clear 9 1004 49 16093 4.6 360 20:39 23.06.2020
1012 Clear 9 1004 49 16093 4.6 360 20:19 23.06.2020
1013 Clear 8 1004 52 16093 7.7 360 19:59 23.06.2020
1014 Clear 8 1004 52 16093 7.7 360 19:40 23.06.2020
1015 Clear 8 1004 52 16093 7.7 360 19:22 23.06.2020
1016 Clear 8 1004 49 16093 3.6 10 18:38 23.06.2020
1017 Clouds 7 1004 61 16093 3.1 20 18:18 23.06.2020
1018 Clouds 7 1004 61 16093 3.1 20 17:42 23.06.2020
1019 Clouds 7 1004 61 16093 3.1 20 17:23 23.06.2020
1020 Clouds 7 1004 65 16093 6.7 10 16:57 23.06.2020
1021 Clouds 7 1004 65 16093 6.7 10 16:57 23.06.2020
1022 Clouds 7 1004 65 16093 6.7 10 16:38 23.06.2020
1023 Clouds 8 1004 65 16093 6.7 10 16:20 23.06.2020
1024 Clouds 8 1004 70 16093 5.1 360 15:57 23.06.2020
1025 Clouds 7 1004 70 16093 5.1 360 15:39 23.06.2020
1026 Clouds 7 1004 70 16093 5.1 360 15:18 23.06.2020
1027 Clouds 8 1004 70 16093 3.6 350 14:43 23.06.2020
1028 Clouds 8 1004 70 16093 3.6 350 14:19 23.06.2020
1029 Clouds 8 1004 66 16093 6.2 360 13:57 23.06.2020
1030 Clouds 8 1004 70 16093 5.1 10 13:39 23.06.2020
1031 Clouds 9 1003 76 16093 6.2 20 13:20 23.06.2020
1032 Clouds 8 1003 76 16093 6.2 20 12:44 23.06.2020
1033 Clouds 9 1003 76 16093 6.2 20 12:23 23.06.2020
1034 Rain 9 1004 81 16093 3.6 30 11:58 23.06.2020
1035 Rain 9 1004 81 16093 3.6 30 11:40 23.06.2020
1036 Rain 8 1004 81 16093 3.6 30 11:19 23.06.2020
1037 Rain 8 1003 87 11265 5.1 40 10:56 23.06.2020
1038 Rain 9 1003 87 12874 6.2 20 10:38 23.06.2020
1039 Rain 9 1003 87 12874 6.2 20 10:20 23.06.2020
1040 Rain 10 1003 81 16093 3.6 330 09:42 23.06.2020
1041 Rain 11 1003 81 16093 3.6 330 09:20 23.06.2020
1042 Rain 12 1003 82 16093 4.6 330 08:58 23.06.2020
1043 Rain 12 1003 82 16093 4.6 330 08:39 23.06.2020
1044 Rain 12 1003 82 16093 4.6 330 08:20 23.06.2020
1045 Rain 13 1003 87 16093 3.1 110 07:40 23.06.2020
1046 Clouds 13 1003 87 16093 3.1 110 07:21 23.06.2020
1047 Clouds 13 1003 82 16093 2.6 170 06:49 23.06.2020
1048 Clouds 14 1003 82 16093 2.6 170 06:31 23.06.2020
1049 Clouds 15 1003 76 16093 2.1 220 05:41 23.06.2020
1050 Clouds 17 1003 62 16093 7.7 240 03:39 23.06.2020
1051 Clouds 16 1004 63 16093 6.7 230 02:56 23.06.2020
1052 Clouds 14 1004 63 16093 6.7 230 02:37 23.06.2020
1053 Clouds 14 1004 63 16093 6.7 230 02:19 23.06.2020
1054 Clear 13 1004 71 16093 8.7 240 01:37 23.06.2020
1055 Clear 13 1004 71 16093 8.7 240 01:18 23.06.2020
1056 Clear 13 1004 67 16093 6.7 230 00:24 23.06.2020
1057 Clear 14 1004 62 16093 6.7 240 23:57 22.06.2020
1058 Clear 14 1004 62 16093 6.7 240 23:38 22.06.2020
1059 Clear 16 1004 62 16093 6.7 240 23:19 22.06.2020
1060 Clear 16 1005 51 16093 6.7 250 22:57 22.06.2020
1061 Clear 16 1005 51 16093 6.7 250 22:38 22.06.2020
1062 Clear 16 1005 51 16093 6.7 250 22:19 22.06.2020
1063 Clear 16 1005 51 16093 6.7 260 21:57 22.06.2020
1064 Clear 16 1005 51 16093 6.7 260 21:38 22.06.2020
1065 Clear 16 1005 51 16093 6.7 260 21:20 22.06.2020
1066 Clear 16 1005 51 16093 6.7 260 21:20 22.06.2020
1067 Clear 16 1005 59 16093 5.1 270 20:41 22.06.2020
1068 Clear 16 1005 59 16093 5.1 270 20:23 22.06.2020
1069 Clear 15 1005 59 16093 1.5 290 19:56 22.06.2020
1070 Clear 15 1005 59 16093 1.5 290 19:37 22.06.2020
1071 Clear 15 1005 59 16093 1.5 290 19:18 22.06.2020
1072 Clear 13 1005 76 16093 2.06 286 18:40 22.06.2020
1073 Clear 12 1005 76 16093 2.28 288 18:22 22.06.2020
1074 Clear 12 1005 76 16093 2.1 340 17:57 22.06.2020
1075 Clear 11 1005 76 16093 2.1 340 17:38 22.06.2020
1076 Clear 11 1005 76 16093 2.1 340 17:20 22.06.2020
1077 Clear 10 1005 87 16093 2.64 290 16:55 22.06.2020
1078 Clear 10 1005 87 16093 2.64 290 16:37 22.06.2020
1079 Clear 10 1005 87 16093 1.99 298 16:18 22.06.2020
1080 Clear 11 1005 81 16093 1.99 298 15:44 22.06.2020
1081 Clear 11 1005 81 16093 1.9 320 15:25 22.06.2020
1082 Clear 11 1006 76 16093 1.9 320 14:57 22.06.2020
1083 Clear 11 1006 76 16093 1.23 352 14:36 22.06.2020
1084 Clear 11 1006 76 16093 1.87 347 14:18 22.06.2020
1085 Clear 13 1006 71 16093 1.5 0 13:40 22.06.2020
1086 Clear 13 1006 71 16093 1.5 0 13:21 22.06.2020
1087 Clear 13 1006 71 16093 1.5 0 13:21 22.06.2020
1088 Clear 16 1006 63 16093 4.1 320 12:59 22.06.2020
1089 Clear 16 1006 63 16093 4.1 320 12:59 22.06.2020
1090 Clear 14 1006 63 16093 4.1 320 12:40 22.06.2020
1091 Clear 16 1006 63 16093 4.1 320 12:22 22.06.2020
1092 Clear 16 1005 59 16093 4.1 290 11:38 22.06.2020
1093 Clear 16 1005 59 16093 4.1 290 11:19 22.06.2020
1094 Clouds 16 1006 55 16093 3.1 260 10:57 22.06.2020
1095 Clouds 17 1006 55 16093 3.1 260 10:38 22.06.2020
1096 Clouds 17 1006 55 16093 3.1 260 10:19 22.06.2020
1097 Clouds 18 1006 52 16093 4.6 280 09:57 22.06.2020
1098 Clouds 19 1006 52 16093 4.6 280 09:38 22.06.2020
1099 Clouds 19 1006 52 16093 4.6 280 09:19 22.06.2020
1100 Clouds 20 1006 52 16093 4.1 250 08:56 22.06.2020
1101 Clouds 20 1006 52 16093 4.1 250 08:37 22.06.2020
1102 Clouds 20 1006 52 16093 4.1 250 08:18 22.06.2020
1103 Clouds 20 1006 56 16093 5.1 260 07:46 22.06.2020
1104 Clouds 20 1006 56 16093 5.1 260 07:25 22.06.2020
1105 Rain 17 1006 77 16093 5.1 270 06:39 22.06.2020
1106 Rain 18 1006 77 16093 5.1 270 06:20 22.06.2020
1107 Clouds 19 1007 55 16093 6.2 260 05:42 22.06.2020
1108 Clouds 16 1007 67 16093 4.1 240 03:47 22.06.2020
1109 Clear 14 1008 67 16093 4.6 250 01:53 22.06.2020
1110 Clouds 16 1008 76 16093 4.6 250 00:58 22.06.2020
1111 Clouds 17 1008 76 16093 4.6 250 00:29 22.06.2020
1112 Clouds 18 1008 72 16093 5.7 240 23:56 21.06.2020
1113 Clouds 18 1008 72 16093 5.7 240 23:37 21.06.2020
1114 Clouds 18 1008 72 16093 5.7 240 23:19 21.06.2020
1115 Clear 18 1008 72 16093 4.6 250 22:55 21.06.2020
1116 Clear 18 1008 72 16093 4.6 250 22:36 21.06.2020
1117 Clear 18 1008 72 16093 4.6 250 22:18 21.06.2020
1118 Clouds 17 1008 77 16093 4.6 250 21:55 21.06.2020
1119 Clouds 16 1008 77 16093 4.6 250 21:37 21.06.2020
1120 Clouds 16 1008 77 16093 4.6 250 21:18 21.06.2020
1121 Clear 16 1008 77 16093 3.6 250 20:54 21.06.2020
1122 Clear 15 1008 77 16093 3.6 250 20:36 21.06.2020
1123 Clouds 15 1008 82 16093 2.1 260 20:18 21.06.2020
1124 Clouds 14 1008 82 16093 2.1 260 19:41 21.06.2020
1125 Clouds 14 1008 82 16093 2.1 260 19:20 21.06.2020
1126 Clouds 14 1008 82 16093 2.1 250 18:56 21.06.2020
1127 Clouds 14 1008 82 16093 2.1 250 18:38 21.06.2020
1128 Clouds 14 1008 82 16093 2.1 250 18:19 21.06.2020
1129 Clouds 14 1008 87 16093 1.5 270 17:55 21.06.2020
1130 Clouds 14 1008 87 16093 1.5 270 17:36 21.06.2020
1131 Clouds 14 1008 87 16093 1.5 270 17:18 21.06.2020
1132 Clouds 13 1007 93 16093 1.5 300 16:40 21.06.2020
1133 Clouds 13 1007 93 16093 1.5 300 16:22 21.06.2020
1134 Clouds 13 1007 93 16093 1.4 270 15:42 21.06.2020
1135 Clouds 13 1007 93 16093 1.5 251 15:24 21.06.2020
1136 Clouds 12 1007 93 16093 1.5 251 14:59 21.06.2020
1137 Clouds 12 1007 93 16093 1.5 251 14:59 21.06.2020
1138 Clouds 12 1007 93 16093 1.5 251 14:38 21.06.2020
1139 Clouds 12 1007 93 16093 1.32 225 14:20 21.06.2020
1140 Clouds 13 1007 87 16093 3.1 280 13:56 21.06.2020
1141 Clouds 13 1007 87 16093 3.1 280 13:38 21.06.2020
1142 Clouds 13 1007 87 16093 3.1 280 13:19 21.06.2020
1143 Clouds 14 1007 87 16093 1.5 200 12:44 21.06.2020
1144 Clouds 14 1007 87 16093 1.5 200 12:25 21.06.2020
1145 Rain 15 1006 82 16093 0.98 152 11:55 21.06.2020
1146 Rain 15 1006 82 16093 0.98 152 11:36 21.06.2020
1147 Rain 15 1006 82 16093 0.97 127 11:18 21.06.2020
1148 Clouds 15 1006 82 16093 0.97 127 10:54 21.06.2020
1149 Clouds 15 1006 82 16093 0.97 127 10:36 21.06.2020
1150 Clouds 15 1005 82 16093 2.6 80 10:18 21.06.2020
1151 Clouds 15 1005 82 16093 2.6 80 09:40 21.06.2020
1152 Clouds 15 1005 82 16093 3.1 110 09:19 21.06.2020
1153 Clouds 15 1005 82 16093 3.1 110 08:56 21.06.2020
1154 Clouds 15 1005 82 16093 3.1 110 08:37 21.06.2020
1155 Clouds 15 1005 82 16093 3.1 110 08:19 21.06.2020
1156 Rain 16 1005 82 16093 3.1 130 07:41 21.06.2020
1157 Rain 16 1005 82 16093 3.1 130 07:22 21.06.2020
1158 Clouds 16 1005 77 16093 4.1 130 06:49 21.06.2020
1159 Clouds 17 1004 77 16093 3.1 110 05:59 21.06.2020
1160 Clouds 17 1004 77 16093 3.1 110 05:31 21.06.2020
1161 Clouds 18 1003 68 16093 6.7 130 03:40 21.06.2020
1162 Clouds 20 1002 40 16093 9.3 20 03:18 21.06.2020
1163 Clouds 23 1002 40 16093 9.3 20 02:20 21.06.2020
1164 Clouds 22 1002 40 16093 8.7 40 01:32 21.06.2020
1165 Clouds 22 1002 43 16093 7.7 40 00:56 21.06.2020
1166 Clouds 22 1002 43 16093 7.7 40 00:38 21.06.2020
1167 Clouds 22 1002 43 16093 7.7 40 00:19 21.06.2020
1168 Clouds 20 1002 48 16093 6.2 40 23:44 20.06.2020
1169 Clouds 19 1002 48 16093 6.2 40 23:22 20.06.2020
1170 Clear 20 1002 37 16093 11.8 40 22:56 20.06.2020
1171 Clear 20 1002 37 16093 11.8 40 22:38 20.06.2020
1172 Clear 20 1002 37 16093 11.8 40 22:18 20.06.2020
1173 Clouds 20 1001 35 16093 9.3 30 21:56 20.06.2020
1174 Clouds 20 1001 35 16093 9.3 30 21:38 20.06.2020
1175 Clouds 20 1001 35 16093 9.3 30 21:19 20.06.2020
1176 Clear 19 1001 39 16093 8.2 360 20:57 20.06.2020
1177 Clear 19 1001 39 16093 8.2 360 20:38 20.06.2020
1178 Clear 19 1001 39 16093 8.2 360 20:19 20.06.2020
1179 Clear 18 1002 45 16093 7.7 360 19:44 20.06.2020
1180 Clear 18 1002 45 16093 7.7 360 19:23 20.06.2020
1181 Clear 17 1002 45 16093 7.2 360 18:55 20.06.2020
1182 Clear 17 1002 45 16093 7.2 360 18:37 20.06.2020
1183 Clear 17 1002 45 16093 7.2 360 18:19 20.06.2020
1184 Clear 14 1002 58 16093 5.1 350 17:56 20.06.2020
1185 Clear 14 1002 58 16093 5.1 350 17:37 20.06.2020
1186 Clear 14 1002 58 16093 5.1 350 17:18 20.06.2020
1187 Clear 15 1002 48 16093 7.2 20 16:40 20.06.2020
1188 Clear 15 1002 48 16093 7.2 20 16:19 20.06.2020
1189 Clear 15 1002 48 16093 7.2 20 16:19 20.06.2020
1190 Clear 12 1002 58 16093 3.6 340 15:57 20.06.2020
1191 Clear 12 1002 58 16093 3.6 340 15:38 20.06.2020
1192 Clear 10 1003 71 16093 4.1 300 15:18 20.06.2020
1193 Clear 10 1003 71 16093 4.1 300 14:42 20.06.2020
1194 Clear 11 1003 71 16093 4.1 300 14:20 20.06.2020
1195 Clear 12 1003 66 16093 3.6 320 13:42 20.06.2020
1196 Clear 12 1003 66 16093 3.6 320 13:20 20.06.2020
1197 Clear 13 1003 62 16093 2.1 320 12:56 20.06.2020
1198 Clear 13 1003 62 16093 2.1 320 12:38 20.06.2020
1199 Clear 13 1003 62 16093 2.1 320 12:19 20.06.2020
1200 Clear 14 1003 58 16093 3.6 360 11:40 20.06.2020
1201 Clear 12 1003 58 16093 3.6 360 11:21 20.06.2020
1202 Clear 15 1003 51 16093 5.1 360 10:58 20.06.2020
1203 Clear 15 1003 51 16093 5.1 360 10:40 20.06.2020
1204 Clear 16 1003 51 16093 5.1 360 10:20 20.06.2020
1205 Clear 17 1003 52 16093 6.7 360 09:43 20.06.2020
1206 Clear 17 1003 52 16093 6.7 360 09:25 20.06.2020
1207 Clear 19 1003 45 16093 5.7 360 08:58 20.06.2020
1208 Clear 20 1003 45 16093 5.7 360 08:39 20.06.2020
1209 Clear 20 1003 45 16093 5.7 360 08:21 20.06.2020
1210 Clear 21 1003 40 16093 7.7 360 07:50 20.06.2020
1211 Clear 21 1003 40 16093 7.7 360 07:25 20.06.2020
1212 Clouds 20 1004 55 16093 4.1 260 06:49 20.06.2020
1213 Clouds 20 1004 55 16093 4.1 260 06:21 20.06.2020
1214 Clouds 21 1004 59 16093 4.6 250 05:48 20.06.2020
1215 Clouds 19 1004 67 16093 4.1 240 04:29 20.06.2020
1216 Rain 18 1005 72 16093 2.1 230 01:58 20.06.2020
1217 Thunderstorm 18 1005 55 16093 1.5 70 01:39 20.06.2020
1218 Clouds 18 1005 67 16093 3.6 180 00:49 20.06.2020
1219 Clouds 18 1005 67 16093 3.6 180 00:20 20.06.2020
1220 Clouds 18 1005 67 16093 4.1 160 23:46 19.06.2020
1221 Clouds 17 1005 67 16093 4.1 160 23:21 19.06.2020
1222 Clear 17 1005 67 16093 4.1 140 22:57 19.06.2020
1223 Clear 17 1005 67 16093 4.1 140 22:38 19.06.2020
1224 Clear 17 1005 67 16093 4.1 140 22:20 19.06.2020
1225 Clear 16 1005 71 16093 3.1 160 21:55 19.06.2020
1226 Clear 16 1005 71 16093 3.1 160 21:37 19.06.2020
1227 Clear 15 1005 71 16093 3.1 160 21:18 19.06.2020
1228 Clear 15 1005 82 16093 2.6 180 20:56 19.06.2020
1229 Clear 15 1005 82 16093 2.6 180 20:38 19.06.2020
1230 Clear 15 1005 82 16093 2.6 180 20:20 19.06.2020
1231 Clear 15 1005 82 16093 2.1 260 19:54 19.06.2020
1232 Clear 15 1005 82 16093 2.1 260 19:36 19.06.2020
1233 Clear 14 1005 82 16093 2.1 260 19:18 19.06.2020
1234 Clouds 14 1005 82 16093 2.1 120 18:40 19.06.2020
1235 Clouds 13 1005 82 16093 2.1 120 18:21 19.06.2020
1236 Rain 13 1006 87 16093 1.41 14 17:43 19.06.2020
1237 Rain 13 1006 87 16093 1.97 17 17:25 19.06.2020
1238 Clouds 11 1006 87 16093 2.1 350 16:59 19.06.2020
1239 Clouds 11 1006 87 16093 2.1 350 16:41 19.06.2020
1240 Clouds 10 1006 87 16093 2.1 350 16:22 19.06.2020
1241 Clouds 10 1006 87 16093 2.08 12 15:54 19.06.2020
1242 Clouds 11 1006 87 16093 2.08 12 15:36 19.06.2020
1243 Clear 11 1007 81 16093 1.76 356 15:18 19.06.2020
1244 Clear 11 1007 81 16093 1.76 356 14:41 19.06.2020
1245 Clear 10 1007 81 16093 1.73 320 14:22 19.06.2020
1246 Clear 10 1007 81 16093 1.62 295 14:22 19.06.2020
1247 Clouds 11 1007 81 16093 1.62 295 13:59 19.06.2020
1248 Clouds 11 1007 81 16093 1.62 295 13:41 19.06.2020
1249 Clouds 11 1007 81 16093 2.08 284 13:23 19.06.2020
1250 Clouds 11 1007 81 16093 2.08 284 12:46 19.06.2020
1251 Clouds 11 1007 81 16093 2.01 270 12:22 19.06.2020
1252 Clouds 11 1007 87 16093 2.1 250 11:57 19.06.2020
1253 Clouds 11 1007 87 16093 2.1 250 11:37 19.06.2020
1254 Clouds 11 1007 87 16093 2.1 250 11:18 19.06.2020
1255 Clouds 12 1007 76 16093 1.5 220 10:45 19.06.2020
1256 Clouds 13 1007 76 16093 1.5 220 10:26 19.06.2020
1257 Clouds 13 1007 76 16093 3.1 240 09:57 19.06.2020
1258 Clouds 13 1007 76 16093 3.1 240 09:39 19.06.2020
1259 Clouds 13 1007 76 16093 3.1 240 09:19 19.06.2020
1260 Clouds 14 1007 76 16093 2.6 280 08:41 19.06.2020
1261 Clouds 14 1007 76 16093 2.6 280 08:23 19.06.2020
1262 Clouds 12 1007 76 16093 4.1 260 07:55 19.06.2020
1263 Clouds 13 1007 76 16093 4.1 260 07:36 19.06.2020
1264 Clouds 14 1007 76 16093 4.1 260 07:18 19.06.2020
1265 Clouds 12 1008 76 16093 4.1 260 06:23 19.06.2020
1266 Clouds 13 1008 76 16093 3.6 250 05:41 19.06.2020
1267 Clouds 12 1009 81 16093 4.1 230 04:23 19.06.2020
1268 Clear 12 1009 81 16093 2.6 200 02:33 19.06.2020
1269 Clouds 13 1009 81 16093 5.1 170 00:48 19.06.2020
1270 Clouds 12 1009 81 16093 5.1 170 00:22 19.06.2020
1271 Clouds 12 1008 76 16093 5.1 130 23:58 18.06.2020
1272 Clouds 13 1008 76 16093 5.1 130 23:40 18.06.2020
1273 Clouds 14 1008 76 16093 5.1 130 23:22 18.06.2020
1274 Clouds 14 1008 76 16093 6.7 140 22:58 18.06.2020
1275 Clouds 15 1008 76 16093 6.7 140 22:36 18.06.2020
1276 Clouds 13 1008 76 16093 6.7 140 22:18 18.06.2020
1277 Clear 14 1008 67 16093 5.1 130 21:38 18.06.2020
1278 Clear 14 1008 67 16093 5.1 130 21:19 18.06.2020
1279 Clouds 15 1008 67 16093 4.1 130 20:55 18.06.2020
1280 Clouds 15 1008 67 16093 4.1 130 20:36 18.06.2020
1281 Clear 15 1007 63 16093 4.1 100 20:18 18.06.2020
1282 Clear 15 1007 63 16093 4.1 100 19:42 18.06.2020
1283 Clear 15 1007 63 16093 4.1 100 19:42 18.06.2020
1284 Clear 15 1007 63 16093 4.1 100 19:20 18.06.2020
1285 Clear 15 1007 71 16093 4.1 80 18:57 18.06.2020
1286 Clear 14 1007 71 16093 4.1 80 18:37 18.06.2020
1287 Clear 14 1007 71 16093 4.1 80 18:18 18.06.2020
1288 Clear 13 1007 67 16093 2.1 50 17:45 18.06.2020
1289 Clear 13 1007 67 16093 2.1 50 17:25 18.06.2020
1290 Clear 13 1007 71 16093 3.1 60 16:56 18.06.2020
1291 Clear 13 1007 71 16093 3.1 60 16:37 18.06.2020
1292 Clear 14 1007 71 16093 3.1 60 16:18 18.06.2020
1293 Clear 15 1007 62 16093 4.1 70 15:55 18.06.2020
1294 Clear 14 1007 62 16093 4.1 70 15:37 18.06.2020
1295 Clear 14 1007 62 16093 4.1 350 15:18 18.06.2020
1296 Clear 14 1007 62 16093 4.1 350 14:41 18.06.2020
1297 Clear 15 1007 62 16093 4.1 350 14:23 18.06.2020
1298 Clear 15 1007 58 16093 4.6 340 13:58 18.06.2020
1299 Clear 16 1007 58 16093 4.6 340 13:40 18.06.2020
1300 Clear 16 1007 58 16093 4.6 340 13:40 18.06.2020
1301 Clear 14 1007 58 16093 4.6 340 13:19 18.06.2020
1302 Clear 15 1006 55 16093 3.6 350 12:55 18.06.2020
1303 Clear 16 1006 55 16093 3.6 350 12:37 18.06.2020
1304 Clear 16 1006 55 16093 3.6 350 12:19 18.06.2020
1305 Clear 17 1006 63 16093 2.6 360 11:46 18.06.2020
1306 Clear 17 1006 63 16093 2.6 360 11:21 18.06.2020
1307 Clear 18 1006 59 16093 4.1 340 10:41 18.06.2020
1308 Clear 18 1006 59 16093 4.1 340 10:20 18.06.2020
1309 Clear 20 1006 52 16093 2.6 340 09:59 18.06.2020
1310 Clear 20 1006 52 16093 2.6 340 09:41 18.06.2020
1311 Clear 20 1006 52 16093 2.6 340 09:22 18.06.2020
1312 Clouds 19 1005 55 16093 2.6 270 08:41 18.06.2020
1313 Clouds 19 1005 55 16093 2.6 270 08:23 18.06.2020
1314 Clouds 19 1006 59 16093 4.6 220 07:58 18.06.2020
1315 Clouds 19 1006 59 16093 4.6 220 07:40 18.06.2020
1316 Clouds 19 1006 59 16093 4.6 220 07:21 18.06.2020
1317 Clouds 20 1006 43 16093 4.6 300 06:22 18.06.2020
1318 Clouds 18 1006 71 16093 5.7 240 04:26 18.06.2020
1319 Clouds 21 1006 52 16093 5.7 250 03:26 18.06.2020
1320 Clear 19 1006 59 16093 5.7 250 01:39 18.06.2020
1321 Clear 19 1006 48 16093 5.7 250 01:18 18.06.2020
1322 Clear 19 1006 48 16093 5.7 250 00:48 18.06.2020
1323 Clear 16 1006 48 16093 5.7 250 00:24 18.06.2020
1324 Clear 18 1007 48 16093 5.1 240 23:46 17.06.2020
1325 Clear 18 1007 48 16093 5.1 240 23:22 17.06.2020
1326 Clouds 19 1007 52 16093 3.6 230 22:59 17.06.2020
1327 Clouds 18 1007 52 16093 3.6 230 22:40 17.06.2020
1328 Clouds 18 1007 52 16093 3.6 230 22:21 17.06.2020
1329 Clouds 18 1007 59 16093 2.6 230 21:58 17.06.2020
1330 Clouds 19 1007 59 16093 2.6 230 21:39 17.06.2020
1331 Clouds 20 1007 59 16093 2.6 230 21:20 17.06.2020
1332 Clear 18 1007 63 16093 2.1 260 20:55 17.06.2020
1333 Clear 18 1007 63 16093 2.1 260 20:36 17.06.2020
1334 Clear 18 1007 63 16093 2.1 260 20:18 17.06.2020
1335 Clouds 16 1007 76 16093 2.6 290 19:41 17.06.2020
1336 Clouds 16 1007 76 16093 2.6 290 19:19 17.06.2020
1337 Clouds 15 1007 76 16093 0.28 82 18:46 17.06.2020
1338 Clouds 15 1007 76 16093 1.28 15 18:28 17.06.2020
1339 Clouds 17 1007 59 16093 2.6 180 17:47 17.06.2020
1340 Clouds 17 1007 59 16093 2.6 180 17:23 17.06.2020
1341 Clouds 16 1006 59 16093 2.1 30 16:59 17.06.2020
1342 Clouds 16 1006 59 16093 2.1 30 16:41 17.06.2020
1343 Clouds 17 1006 59 16093 2.1 30 16:21 17.06.2020
1344 Clouds 16 1006 63 16093 3.6 360 15:59 17.06.2020
1345 Clouds 16 1006 66 0 0.45 0 15:39 17.06.2020
1346 Clouds 16 1006 63 16093 3.6 340 15:21 17.06.2020
1347 Clouds 16 1006 63 16093 3.6 340 14:58 17.06.2020
1348 Clouds 16 1006 63 16093 3.6 340 14:40 17.06.2020
1349 Clouds 16 1006 63 16093 3.6 340 14:19 17.06.2020
1350 Clouds 16 1006 67 16093 3.6 360 13:58 17.06.2020
1351 Clouds 16 1006 67 16093 3.6 360 13:39 17.06.2020
1352 Clouds 16 1006 67 16093 3.6 360 13:21 17.06.2020
1353 Clouds 16 1006 67 16093 3.6 340 12:55 17.06.2020
1354 Clouds 15 1006 67 16093 3.6 340 12:36 17.06.2020
1355 Clear 15 1006 67 16093 4.1 360 12:18 17.06.2020
1356 Clear 16 1006 67 16093 4.1 360 11:43 17.06.2020
1357 Clear 15 1006 67 16093 4.1 360 11:23 17.06.2020
1358 Clear 17 1006 59 16093 4.1 360 10:39 17.06.2020
1359 Clear 18 1006 59 16093 4.1 360 10:19 17.06.2020
1360 Clear 20 1006 49 16093 3.6 340 09:59 17.06.2020
1361 Clear 20 1006 49 16093 3.6 340 09:41 17.06.2020
1362 Clear 20 1006 49 16093 3.6 340 09:21 17.06.2020
1363 Clear 21 1006 43 16093 5.1 340 08:55 17.06.2020
1364 Clear 21 1006 43 16093 5.1 340 08:36 17.06.2020
1365 Clear 21 1006 43 16093 5.1 340 08:18 17.06.2020
1366 Clear 21 1006 40 16093 7.7 330 07:42 17.06.2020
1367 Clear 21 1006 40 16093 7.7 330 07:21 17.06.2020
1368 Clear 20 1006 48 16093 7.2 260 06:55 17.06.2020
1369 Clear 20 1006 48 16093 7.2 260 06:37 17.06.2020
1370 Clear 19 1006 48 16093 7.2 260 06:19 17.06.2020
1371 Clouds 19 1007 52 16093 6.2 260 04:58 17.06.2020
1372 Clouds 15 1007 55 16093 7.2 260 02:59 17.06.2020
1373 Clear 16 1007 59 16093 6.2 250 01:43 17.06.2020
1374 Clear 19 1008 55 16093 4.6 260 00:41 17.06.2020
1375 Clear 19 1008 55 16093 4.6 260 00:23 17.06.2020
1376 Clear 19 1007 55 16093 5.1 240 23:56 16.06.2020
1377 Clear 19 1007 55 16093 5.1 240 23:56 16.06.2020
1378 Clear 19 1007 55 16093 5.1 240 23:37 16.06.2020
1379 Clear 19 1007 55 16093 5.1 240 23:19 16.06.2020
1380 Clear 19 1008 55 16093 3.6 250 22:54 16.06.2020
1381 Clear 19 1008 55 16093 3.6 250 22:36 16.06.2020
1382 Clear 18 1008 55 16093 3.6 250 22:18 16.06.2020
1383 Clear 17 1008 67 16093 2.6 200 21:45 16.06.2020
1384 Clear 15 1008 67 16093 2.6 200 21:23 16.06.2020
1385 Clear 16 1008 71 16093 2.1 190 20:57 16.06.2020
1386 Clear 16 1008 71 16093 2.1 190 20:39 16.06.2020
1387 Clear 15 1008 71 16093 2.1 190 20:19 16.06.2020
1388 Clear 15 1008 71 16093 0.29 272 19:56 16.06.2020
1389 Clear 15 1008 71 16093 0.29 272 19:38 16.06.2020
1390 Clear 14 1008 71 16093 0.06 355 19:19 16.06.2020
1391 Clear 12 1008 81 16093 0.06 355 18:45 16.06.2020
1392 Clear 11 1008 81 16093 0.33 108 18:22 16.06.2020
1393 Clear 9 1008 87 16093 0.33 108 17:59 16.06.2020
1394 Clear 9 1008 87 16093 0.33 108 17:39 16.06.2020
1395 Clear 9 1008 87 16093 0.41 105 17:21 16.06.2020
1396 Clear 9 1008 87 16093 1.5 350 16:59 16.06.2020
1397 Clear 9 1008 87 16093 1.5 350 16:41 16.06.2020
1398 Clear 9 1008 87 16093 1.5 350 16:20 16.06.2020
1399 Clear 8 1008 87 16093 1.5 20 15:57 16.06.2020
1400 Clear 9 1008 87 16093 1.5 20 15:39 16.06.2020
1401 Clear 9 1008 87 16093 1.5 20 15:21 16.06.2020
1402 Clear 9 1008 87 16093 2.6 130 14:56 16.06.2020
1403 Clear 9 1008 87 16093 2.6 130 14:38 16.06.2020
1404 Clear 10 1008 87 16093 2.6 130 14:20 16.06.2020
1405 Clear 10 1008 87 16093 0.6 142 13:46 16.06.2020
1406 Clear 9 1008 87 16093 1.03 148 13:25 16.06.2020
1407 Clear 9 1008 87 16093 1.5 10 12:55 16.06.2020
1408 Clear 9 1008 87 16093 1.5 10 12:37 16.06.2020
1409 Clear 10 1008 87 16093 1.5 10 12:18 16.06.2020
1410 Clear 11 1008 76 16093 1.04 133 11:41 16.06.2020
1411 Clear 11 1008 76 16093 0.71 162 11:23 16.06.2020
1412 Clear 11 1008 81 16093 1.5 210 10:59 16.06.2020
1413 Clear 11 1008 81 16093 1.5 210 10:40 16.06.2020
1414 Clear 11 1008 81 16093 1.5 210 10:20 16.06.2020
1415 Clear 13 1008 76 16093 2.1 200 09:47 16.06.2020
1416 Clear 14 1008 76 16093 2.1 200 09:24 16.06.2020
1417 Clear 15 1008 67 16093 1.5 230 08:58 16.06.2020
1418 Clear 15 1008 67 16093 1.5 230 08:58 16.06.2020
1419 Clear 14 1008 67 16093 1.5 230 08:40 16.06.2020
1420 Clear 14 1008 67 16093 1.5 230 08:22 16.06.2020
1421 Clear 16 1008 51 16093 2.1 220 07:42 16.06.2020
1422 Clear 15 1008 51 16093 2.1 220 07:24 16.06.2020
1423 Clear 17 1008 51 16093 2.1 180 06:44 16.06.2020
1424 Clear 17 1008 51 16093 2.1 180 06:19 16.06.2020
1425 Clear 17 1008 51 16093 3.6 230 05:26 16.06.2020
1426 Clear 16 1008 55 16093 3.6 260 04:26 16.06.2020
1427 Clear 15 1008 59 16093 5.7 250 02:47 16.06.2020
1428 Clouds 16 1009 59 16093 5.1 240 01:44 16.06.2020
1429 Clouds 16 1009 59 16093 5.1 240 01:19 16.06.2020
1430 Clouds 18 1008 59 16093 2.6 210 00:37 16.06.2020
1431 Clouds 20 1008 42 16093 2.23 201 00:18 16.06.2020
1432 Clouds 20 1008 42 16093 2.23 201 23:41 15.06.2020
1433 Clouds 18 1008 42 16093 1.68 227 23:21 15.06.2020
1434 Clouds 19 1008 48 16093 3.1 340 22:55 15.06.2020
1435 Clouds 18 1008 48 16093 3.1 340 22:36 15.06.2020
1436 Clouds 17 1009 63 16093 4.1 260 22:18 15.06.2020
1437 Clouds 17 1009 63 16093 4.1 260 21:55 15.06.2020
1438 Clouds 16 1009 63 16093 4.1 260 21:36 15.06.2020
1439 Clouds 14 1009 71 16093 4.6 260 21:18 15.06.2020
1440 Clouds 14 1009 71 16093 4.6 260 20:54 15.06.2020
1441 Clouds 14 1009 71 16093 4.6 260 20:36 15.06.2020
1442 Rain 14 1008 67 16093 1.5 280 20:18 15.06.2020
1443 Rain 13 1008 67 16093 1.5 280 19:41 15.06.2020
1444 Rain 13 1008 67 16093 1.5 280 19:22 15.06.2020
1445 Clouds 13 1008 71 16093 3.1 320 18:58 15.06.2020
1446 Clouds 13 1008 71 16093 3.1 320 18:40 15.06.2020
1447 Clouds 13 1008 71 16093 3.1 320 18:20 15.06.2020
1448 Clouds 12 1008 71 16093 2.6 330 17:58 15.06.2020
1449 Clouds 12 1008 71 16093 2.6 330 17:40 15.06.2020
1450 Clouds 12 1008 71 16093 2.6 330 17:19 15.06.2020
1451 Clouds 13 1008 58 16093 1.68 331 16:54 15.06.2020
1452 Clouds 13 1008 58 16093 1.68 331 16:36 15.06.2020
1453 Clear 12 1009 58 16093 2.1 70 16:18 15.06.2020
1454 Clear 13 1009 58 16093 2.1 70 15:40 15.06.2020
1455 Clear 13 1009 58 16093 2.1 70 15:20 15.06.2020
1456 Clouds 14 1008 54 16093 3.6 340 14:57 15.06.2020
1457 Clouds 14 1008 54 16093 3.6 340 14:39 15.06.2020
1458 Clouds 15 1008 48 16093 5.1 10 14:19 15.06.2020
1459 Clouds 15 1008 48 16093 5.1 10 13:56 15.06.2020
1460 Clouds 15 1008 48 16093 5.1 10 13:37 15.06.2020
1461 Clouds 15 1008 48 16093 5.1 10 13:37 15.06.2020
1462 Clear 15 1008 51 16093 2.1 70 13:18 15.06.2020
1463 Clear 15 1008 51 16093 2.1 70 12:41 15.06.2020
1464 Clear 15 1008 51 16093 2.1 70 12:21 15.06.2020
1465 Clear 15 1007 54 16093 3.1 330 11:46 15.06.2020
1466 Clear 15 1007 54 16093 3.1 330 11:27 15.06.2020
1467 Clear 17 1007 39 16093 7.2 30 10:59 15.06.2020
1468 Clear 17 1007 39 16093 7.2 30 10:41 15.06.2020
1469 Clear 18 1007 39 16093 7.2 30 10:20 15.06.2020
1470 Clear 19 1007 40 16093 4.1 50 09:43 15.06.2020
1471 Clear 20 1007 40 16093 4.1 50 09:23 15.06.2020
1472 Clear 18 1007 51 16093 3.1 270 08:47 15.06.2020
1473 Clear 18 1007 51 16093 3.1 270 08:27 15.06.2020
1474 Clear 17 1007 58 16093 4.6 270 07:57 15.06.2020
1475 Clear 17 1007 58 16093 4.6 270 07:37 15.06.2020
1476 Clear 18 1007 58 16093 4.6 270 07:19 15.06.2020
1477 Clear 18 1007 58 16093 6.2 280 06:28 15.06.2020
1478 Clear 19 1007 51 16093 7.2 260 05:51 15.06.2020
1479 -273 0 0 0 0 0 05:29 15.06.2020
1480 Clear 19 1008 51 16093 5.7 270 04:22 15.06.2020
1481 Clear 20 1008 48 16093 5.7 260 03:49 15.06.2020
1482 Clear 19 1008 45 16093 5.7 260 02:57 15.06.2020
1483 Clear 19 1008 45 16093 5.7 260 02:32 15.06.2020
1484 Clear 19 1008 48 16093 6.2 240 01:47 15.06.2020
1485 Clear 19 1008 48 16093 6.2 240 01:27 15.06.2020
1486 Clear 19 1008 48 16093 6.2 250 00:45 15.06.2020
1487 Clear 19 1008 48 16093 6.2 250 00:23 15.06.2020
1488 Clear 19 1009 39 16093 5.1 250 23:58 14.06.2020
1489 Clear 19 1009 39 16093 5.1 250 23:40 14.06.2020
1490 Clear 19 1009 39 16093 5.1 250 23:22 14.06.2020
1491 Clear 19 1009 42 16093 3.6 240 22:57 14.06.2020
1492 Clear 19 1009 42 16093 3.6 240 22:38 14.06.2020
1493 Clear 18 1009 45 16093 2.19 18 22:18 14.06.2020
1494 Clear 18 1009 45 16093 2.19 18 21:56 14.06.2020
1495 Clear 18 1009 45 16093 2.19 18 21:38 14.06.2020
1496 Clear 18 1009 45 16093 2.33 7 21:19 14.06.2020
1497 Clear 16 1009 58 16093 2.33 7 20:57 14.06.2020
1498 Clear 16 1009 58 16093 2.33 7 20:38 14.06.2020
1499 Clear 16 1009 58 16093 2.15 358 20:19 14.06.2020
1500 Clouds 15 1009 58 16093 2.1 210 19:56 14.06.2020
1501 Clouds 15 1009 58 16093 2.1 210 19:37 14.06.2020
1502 Clouds 15 1009 58 16093 2.1 210 19:19 14.06.2020
1503 Clouds 14 1009 58 16093 2.02 359 18:56 14.06.2020
1504 Clouds 14 1009 58 16093 2.02 359 18:37 14.06.2020
1505 Clouds 13 1009 58 16093 2.15 6 18:18 14.06.2020
1506 Clear 13 1009 62 16093 3.1 340 17:55 14.06.2020
1507 Clear 12 1009 62 16093 3.1 340 17:37 14.06.2020
1508 Clear 12 1009 62 16093 2.6 340 17:18 14.06.2020
1509 Clear 11 1009 62 16093 2.6 340 16:40 14.06.2020
1510 Clear 11 1009 62 16093 2.6 340 16:20 14.06.2020
1511 Clear 11 1009 62 16093 2.6 340 16:20 14.06.2020
1512 Clouds 11 1009 62 16093 3.6 350 15:57 14.06.2020
1513 Clouds 11 1009 62 16093 3.6 350 15:39 14.06.2020
1514 Clear 11 1009 66 16093 4.6 340 15:18 14.06.2020
1515 Clear 12 1009 66 16093 4.6 340 14:57 14.06.2020
1516 Clear 11 1009 66 16093 4.6 340 14:37 14.06.2020
1517 Clear 11 1009 66 16093 2.6 340 14:18 14.06.2020
1518 Clear 11 1009 66 16093 2.6 340 13:41 14.06.2020
1519 Clear 12 1009 66 16093 2.6 340 13:22 14.06.2020
1520 Clear 14 1009 54 16093 2.6 10 12:59 14.06.2020
1521 Clear 14 1009 54 16093 2.6 10 12:40 14.06.2020
1522 Clear 14 1009 54 16093 2.6 10 12:22 14.06.2020
1523 Clouds 15 1009 55 16093 3.1 360 11:58 14.06.2020
1524 Clouds 15 1009 55 16093 3.1 360 11:40 14.06.2020
1525 Clouds 15 1009 55 16093 3.1 360 11:21 14.06.2020
1526 Clear 15 1009 55 16093 3.1 320 10:57 14.06.2020
1527 Clear 15 1009 55 16093 3.1 320 10:38 14.06.2020
1528 Clear 16 1009 55 16093 3.1 320 10:18 14.06.2020
1529 Clear 16 1009 51 16093 5.1 330 09:42 14.06.2020
1530 Clear 17 1009 51 16093 5.1 330 09:23 14.06.2020
1531 Clear 18 1009 48 16093 7.7 310 08:42 14.06.2020
1532 Clear 18 1009 48 16093 7.7 310 08:22 14.06.2020
1533 Clear 19 1009 40 16093 6.2 310 07:53 14.06.2020
1534 Clear 20 1009 40 16093 6.2 310 07:35 14.06.2020
1535 Clear 19 1010 48 16093 6.2 260 06:54 14.06.2020
1536 Clouds 19 1010 48 16093 7.2 260 05:54 14.06.2020
1537 Clouds 19 1010 48 16093 7.2 260 05:29 14.06.2020
1538 Clear 19 1011 48 16093 8.2 260 04:38 14.06.2020
1539 Clear 19 1011 48 16093 7.2 260 03:54 14.06.2020
1540 Clouds 19 1012 48 16093 6.2 260 02:40 14.06.2020
1541 Clouds 19 1012 48 16093 6.2 260 02:18 14.06.2020
1542 Clouds 19 1012 45 16093 5.7 270 01:27 14.06.2020
1543 Smoke 18 1013 51 16093 5.7 260 00:48 14.06.2020
1544 Smoke 18 1013 51 16093 5.7 260 00:20 14.06.2020
1545 Smoke 18 1013 55 16093 5.7 250 23:46 13.06.2020
1546 Smoke 17 1013 55 16093 5.7 250 23:26 13.06.2020
1547 Smoke 16 1013 62 16093 4.6 230 22:58 13.06.2020
1548 Smoke 16 1013 62 16093 4.6 230 22:38 13.06.2020
1549 Smoke 16 1013 62 16093 4.6 230 22:19 13.06.2020
1550 Smoke 16 1013 58 16093 3.1 230 21:57 13.06.2020
1551 Smoke 16 1013 58 16093 3.1 230 21:39 13.06.2020
1552 Smoke 15 1013 58 16093 3.1 230 21:21 13.06.2020
1553 Smoke 14 1014 71 16093 1.5 260 20:44 13.06.2020
1554 Smoke 14 1014 71 16093 1.5 260 20:21 13.06.2020
1555 Smoke 12 1014 81 16093 2.6 190 19:59 13.06.2020
1556 Smoke 11 1014 81 16093 2.6 190 19:38 13.06.2020
1557 Smoke 11 1014 81 16093 2.6 190 19:19 13.06.2020
1558 Clear 10 1014 81 16093 1.5 190 18:58 13.06.2020
1559 Clear 10 1014 81 16093 1.5 190 18:38 13.06.2020
1560 Clear 9 1014 81 16093 1.5 190 18:19 13.06.2020
1561 Clear 8 1014 75 16093 3.1 320 17:55 13.06.2020
1562 Clear 8 1014 75 16093 3.1 320 17:37 13.06.2020
1563 Clear 8 1014 75 16093 3.1 320 17:19 13.06.2020
1564 Clear 7 1015 81 16093 1.55 326 16:41 13.06.2020
1565 Clear 7 1015 81 16093 1.62 316 16:20 13.06.2020
1566 Clear 5 1015 86 16093 1.62 316 15:59 13.06.2020
1567 Clear 5 1015 86 16093 1.62 316 15:41 13.06.2020
1568 Clear 5 1015 86 16093 1.47 298 15:20 13.06.2020
1569 Clear 6 1015 81 16093 1.47 298 14:43 13.06.2020
1570 Clear 6 1015 81 16093 1.28 288 14:23 13.06.2020
1571 Clear 6 1016 87 16093 1.34 297 13:56 13.06.2020
1572 Clear 6 1016 87 16093 1.34 297 13:37 13.06.2020
1573 Clear 6 1016 87 16093 1.34 297 13:37 13.06.2020
1574 Clear 8 1016 87 16093 1.5 290 13:18 13.06.2020
1575 Clear 8 1016 87 16093 1.5 290 12:43 13.06.2020
1576 Clear 8 1016 87 16093 1.5 290 12:25 13.06.2020
1577 Clear 9 1016 81 16093 1.55 294 11:57 13.06.2020
1578 Clear 9 1016 81 16093 1.55 294 11:37 13.06.2020
1579 Clear 8 1016 81 16093 1.66 275 11:19 13.06.2020
1580 Clear 9 1016 81 16093 1.66 275 10:54 13.06.2020
1581 Clear 10 1016 81 16093 1.76 264 10:28 13.06.2020
1582 Clear 11 1016 81 16093 3.1 260 09:57 13.06.2020
1583 Clear 10 1016 81 16093 3.1 260 09:39 13.06.2020
1584 Clear 11 1016 81 16093 3.1 260 09:20 13.06.2020
1585 Clear 12 1016 71 16093 2.6 270 08:45 13.06.2020
1586 Clear 12 1016 71 16093 2.6 270 08:26 13.06.2020
1587 Clear 12 1017 71 16093 3.1 250 07:45 13.06.2020
1588 Clear 12 1017 71 16093 3.1 250 07:27 13.06.2020
1589 Clear 11 1017 81 16093 4.1 220 06:45 13.06.2020
1590 Clear 11 1017 81 16093 4.1 220 06:26 13.06.2020
1591 Clear 11 1017 87 16093 3.6 220 05:30 13.06.2020
1592 Clear 11 1017 81 16093 3.1 220 04:46 13.06.2020
1593 Clear 11 1017 75 16093 3.1 190 03:44 13.06.2020
1594 Clouds 11 1017 75 16093 2.6 190 02:53 13.06.2020
1595 Mist 10 1018 87 6437 3.6 180 02:18 13.06.2020
1596 Mist 9 1018 87 6437 3.6 180 01:25 13.06.2020
1597 Mist 9 1017 87 6437 4.1 160 00:56 13.06.2020
1598 Mist 9 1017 81 6437 4.6 170 00:37 13.06.2020
1599 Clouds 10 1017 75 16093 2.6 200 00:19 13.06.2020
1600 Clouds 10 1017 75 16093 2.6 200 23:39 12.06.2020
1601 Clouds 8 1017 86 16093 1.5 160 23:18 12.06.2020
1602 Clouds 7 1017 86 16093 1.5 160 22:54 12.06.2020
1603 Clouds 7 1017 86 16093 1.5 160 22:36 12.06.2020
1604 Mist 6 1017 93 1609 2.6 130 22:18 12.06.2020
1605 Mist 4 1017 93 1609 2.6 130 21:42 12.06.2020
1606 Mist 5 1017 93 1609 2.6 130 21:23 12.06.2020
1607 Mist 4 1017 93 3219 1.5 150 20:57 12.06.2020
1608 Clouds 4 1017 93 16093 2.1 80 20:37 12.06.2020
1609 Clouds 3 1016 100 16093 2.6 80 20:19 12.06.2020
1610 Mist 3 1016 100 3219 2.1 130 19:42 12.06.2020
1611 Mist 3 1016 100 3219 2.1 130 19:21 12.06.2020
1612 Mist 3 1016 100 1609 2.6 130 18:58 12.06.2020
1613 Mist 3 1016 100 1609 2.6 130 18:37 12.06.2020
1614 Mist 3 1015 100 2816 2.1 130 18:18 12.06.2020
1615 Mist 3 1015 100 2414 2.6 130 17:43 12.06.2020
1616 Mist 3 1015 100 2414 2.6 130 17:25 12.06.2020
1617 Mist 3 1015 100 2816 0.42 92 16:47 12.06.2020
1618 Mist 3 1015 100 2816 0.62 156 16:22 12.06.2020
1619 Mist 3 1015 100 1207 1.5 100 15:53 12.06.2020
1620 Mist 3 1015 100 1609 0.95 181 15:29 12.06.2020
1621 Mist 3 1015 100 2012 1.5 170 14:59 12.06.2020
1622 Mist 3 1015 100 2012 1.5 170 14:41 12.06.2020
1623 Mist 3 1015 100 2012 1.5 170 14:21 12.06.2020
1624 Fog 3 1014 100 402 3.1 170 13:44 12.06.2020
1625 Fog 3 1014 100 402 3.1 170 13:22 12.06.2020
1626 Fog 3 1014 93 402 1.83 189 12:57 12.06.2020
1627 Fog 4 1014 93 402 1.83 189 12:39 12.06.2020
1628 Fog 4 1013 93 402 1.77 185 12:18 12.06.2020
1629 Fog 4 1013 93 402 1.77 185 11:44 12.06.2020
1630 Fog 4 1013 93 402 1.39 194 11:23 12.06.2020
1631 Fog 4 1013 93 402 1.5 280 10:54 12.06.2020
1632 Fog 4 1013 93 402 1.5 280 10:36 12.06.2020
1633 Fog 4 1013 93 805 1.5 280 10:18 12.06.2020
1634 Fog 5 1012 93 805 1.5 260 09:43 12.06.2020
1635 Fog 5 1012 93 805 1.5 260 09:19 12.06.2020
1636 Mist 5 1012 93 2414 2.1 260 08:41 12.06.2020
1637 Mist 5 1012 93 2414 2.1 260 08:23 12.06.2020
1638 Mist 6 1012 93 3219 2.6 200 07:42 12.06.2020
1639 Mist 6 1012 93 3219 2.6 200 07:24 12.06.2020
1640 Mist 7 1012 86 4828 2.1 240 06:41 12.06.2020
1641 Mist 7 1012 86 4828 2.1 240 06:21 12.06.2020
1642 Clouds 7 1012 93 14484 2.1 220 05:49 12.06.2020
1643 Clouds 7 1012 93 14484 2.1 220 05:23 12.06.2020
1644 Mist 7 1011 93 8047 3.6 210 03:55 12.06.2020
1645 Clouds 8 1011 87 16093 2.6 180 02:43 12.06.2020
1646 Clouds 8 1011 87 16093 3.1 170 01:47 12.06.2020
1647 Clouds 8 1011 87 16093 3.1 170 01:19 12.06.2020
1648 Clouds 8 1011 87 16093 3.6 180 00:39 12.06.2020
1649 Clouds 8 1011 87 16093 3.6 180 00:39 12.06.2020
1650 Clouds 8 1011 87 16093 3.6 180 00:20 12.06.2020
1651 Clouds 8 1010 87 16093 3.1 170 23:57 11.06.2020
1652 Clouds 8 1010 87 16093 3.1 170 23:38 11.06.2020
1653 Clouds 7 1010 87 16093 3.1 170 23:19 11.06.2020
1654 Clouds 7 1010 87 16093 3.6 160 22:54 11.06.2020
1655 Clouds 7 1010 87 16093 4.1 160 22:36 11.06.2020
1656 Clouds 7 1009 87 16093 3.1 150 22:18 11.06.2020
1657 Clouds 7 1009 87 16093 3.1 150 21:42 11.06.2020
1658 Clouds 7 1009 87 16093 3.1 150 21:20 11.06.2020
1659 Clouds 7 1009 81 16093 3.1 110 20:57 11.06.2020
1660 Clouds 7 1009 81 16093 3.1 110 20:39 11.06.2020
1661 Clouds 7 1009 81 16093 3.1 110 20:20 11.06.2020
1662 Clouds 6 1010 87 16093 4.6 100 19:43 11.06.2020
1663 Clouds 6 1010 87 16093 4.6 100 19:22 11.06.2020
1664 Clouds 6 1010 81 16093 3.1 100 18:57 11.06.2020
1665 Clouds 6 1010 81 16093 3.1 100 18:39 11.06.2020
1666 Clouds 6 1010 81 16093 3.1 100 18:19 11.06.2020
1667 Clouds 6 1010 87 16093 3.1 90 17:55 11.06.2020
1668 Clouds 6 1009 87 16093 4.1 90 17:37 11.06.2020
1669 Clouds 6 1009 87 16093 4.1 90 17:18 11.06.2020
1670 Mist 6 1010 93 9656 1.5 80 16:43 11.06.2020
1671 Mist 6 1010 93 9656 1.5 80 16:25 11.06.2020
1672 Mist 6 1010 93 9656 3.1 70 15:58 11.06.2020
1673 Mist 6 1010 93 8047 4.1 70 15:39 11.06.2020
1674 Mist 6 1010 93 8047 4.1 70 15:21 11.06.2020
1675 Clouds 6 1010 93 16093 3.1 60 14:46 11.06.2020
1676 Clouds 6 1010 93 16093 3.1 60 14:21 11.06.2020
1677 Clouds 6 1010 93 16093 3.6 60 13:57 11.06.2020
1678 Clouds 6 1010 87 16093 4.6 70 13:39 11.06.2020
1679 Clouds 6 1010 87 16093 4.6 70 13:20 11.06.2020
1680 Clouds 5 1010 87 16093 4.1 60 12:57 11.06.2020
1681 Clouds 5 1010 87 16093 4.1 60 12:39 11.06.2020
1682 Clouds 5 1010 87 16093 4.1 60 12:19 11.06.2020
1683 Clouds 5 1010 81 16093 4.6 80 11:57 11.06.2020
1684 Clouds 5 1010 81 16093 4.6 80 11:38 11.06.2020
1685 Clouds 5 1010 81 16093 4.6 80 11:20 11.06.2020
1686 Clouds 6 1011 87 16093 4.6 90 10:57 11.06.2020
1687 Clouds 6 1011 87 16093 4.6 90 10:38 11.06.2020
1688 Clouds 6 1011 87 16093 4.6 90 10:18 11.06.2020
1689 Clouds 6 1010 81 16093 4.1 90 09:40 11.06.2020
1690 Clouds 6 1010 81 16093 4.1 90 09:22 11.06.2020
1691 Clouds 6 1010 81 16093 3.1 110 08:44 11.06.2020
1692 Clouds 6 1010 81 16093 3.1 110 08:20 11.06.2020
1693 Clouds 5 1011 86 16093 3.6 130 07:42 11.06.2020
1694 Clouds 5 1011 86 16093 3.6 130 07:24 11.06.2020
1695 Clouds 5 1011 80 16093 2.6 110 06:40 11.06.2020
1696 Clouds 5 1011 86 16093 2.6 160 06:22 11.06.2020
1697 Clouds 4 1011 86 16093 2.6 160 05:36 11.06.2020
1698 Clouds 5 1011 86 16093 3.6 160 03:30 11.06.2020
1699 Mist 5 1012 86 9656 3.1 180 02:52 11.06.2020
1700 Mist 5 1012 86 9656 3.1 180 02:32 11.06.2020
1701 Clouds 5 1012 93 14484 3.1 210 01:47 11.06.2020
1702 Clouds 5 1012 93 16093 2.1 0 01:24 11.06.2020
1703 Clouds 6 1012 86 16093 2.6 240 00:49 11.06.2020
1704 Clouds 5 1012 86 16093 2.6 240 00:27 11.06.2020
1705 Clouds 5 1012 86 16093 4.1 220 23:46 10.06.2020
1706 Mist 5 1012 86 9656 3.1 230 23:27 10.06.2020
1707 Mist 5 1011 86 8047 3.1 230 22:56 10.06.2020
1708 Mist 5 1011 86 8047 3.1 230 22:38 10.06.2020
1709 Mist 6 1011 86 8047 3.1 230 22:19 10.06.2020
1710 Mist 6 1011 86 4828 3.1 220 21:56 10.06.2020
1711 Clouds 6 1011 93 16093 4.6 210 21:38 10.06.2020
1712 Clouds 6 1011 93 16093 4.6 210 21:18 10.06.2020
1713 Clouds 7 1011 75 16093 1.5 180 20:56 10.06.2020
1714 Clouds 7 1011 75 16093 1.5 180 20:38 10.06.2020
1715 Clouds 7 1011 75 16093 1.5 180 20:20 10.06.2020
1716 Clouds 6 1011 81 16093 2.1 180 19:41 10.06.2020
1717 Clouds 6 1011 80 16093 1.29 168 19:20 10.06.2020
1718 Clouds 6 1011 80 16093 1.29 168 18:58 10.06.2020
1719 Clouds 5 1011 80 16093 1.29 168 18:40 10.06.2020
1720 Clear 4 1011 86 16093 0.74 101 18:19 10.06.2020
1721 Clear 4 1011 86 16093 0.74 101 17:55 10.06.2020
1722 Clear 3 1011 86 16093 0.74 101 17:37 10.06.2020
1723 Clear 3 1011 86 16093 0.74 101 17:37 10.06.2020
1724 Clear 3 1011 86 16093 0.63 14 17:19 10.06.2020
1725 Clear 2 1011 86 16093 0.63 14 16:57 10.06.2020
1726 Clear 2 1011 86 16093 0.63 14 16:39 10.06.2020
1727 Clear 1 1011 86 16093 0.75 352 16:19 10.06.2020
1728 Clear 1 1011 74 16093 0.75 352 15:40 10.06.2020
1729 Clear 1 1011 74 16093 0.48 6 15:21 10.06.2020
1730 Clouds 1 1011 74 11265 1.5 290 14:56 10.06.2020
1731 Clear 3 1011 86 16093 1.5 290 14:38 10.06.2020
1732 Clear 3 1011 86 16093 1.5 290 14:20 10.06.2020
1733 Clouds 4 1011 86 16093 1.17 295 13:40 10.06.2020
1734 Clouds 4 1011 86 16093 1.1 299 13:21 10.06.2020
1735 Clouds 4 1011 80 16093 2.1 320 12:45 10.06.2020
1736 Clouds 5 1011 80 16093 2.1 320 12:23 10.06.2020
1737 Clouds 5 1011 75 16093 1.03 285 11:58 10.06.2020
1738 Clouds 6 1011 70 16093 1.5 260 11:40 10.06.2020
1739 Clouds 6 1011 70 16093 1.5 260 11:19 10.06.2020
1740 Clouds 6 1011 70 16093 2.1 170 10:57 10.06.2020
1741 Clouds 6 1011 70 16093 2.1 170 10:39 10.06.2020
1742 Clouds 6 1011 75 16093 3.6 170 10:20 10.06.2020
1743 Clouds 7 1011 75 16093 3.6 170 09:42 10.06.2020
1744 Clouds 7 1011 75 16093 3.6 170 09:23 10.06.2020
1745 Clear 7 1010 75 16093 4.6 160 08:57 10.06.2020
1746 Clear 7 1010 75 16093 4.6 160 08:38 10.06.2020
1747 Clear 7 1010 75 16093 4.6 160 08:20 10.06.2020
1748 Clouds 8 1010 61 16093 5.7 160 07:39 10.06.2020
1749 Clouds 8 1010 61 16093 5.7 160 07:20 10.06.2020
1750 Clear 8 1010 66 16093 6.2 150 06:44 10.06.2020
1751 Clear 8 1010 66 16093 6.2 150 06:23 10.06.2020
1752 Clouds 9 1010 66 16093 6.2 130 05:56 10.06.2020
1753 Clouds 10 1010 57 16093 6.2 80 05:26 10.06.2020
1754 Clouds 10 1010 53 16093 1.5 0 04:35 10.06.2020
1755 Clouds 9 1010 53 16093 3.1 350 02:57 10.06.2020
1756 Clouds 10 1010 53 16093 3.1 350 02:21 10.06.2020
1757 Clouds 8 1010 61 16093 7.7 250 01:36 10.06.2020
1758 Clouds 8 1011 46 16093 4.6 310 00:40 10.06.2020
1759 Clouds 9 1011 46 16093 4.6 310 00:22 10.06.2020
1760 Clouds 9 1011 49 16093 3.1 350 23:57 09.06.2020
1761 Clouds 9 1011 49 16093 3.1 350 23:38 09.06.2020
1762 Clouds 9 1011 49 16093 3.1 350 23:20 09.06.2020
1763 Clouds 8 1012 49 16093 4.6 350 22:56 09.06.2020
1764 Clouds 8 1012 49 16093 4.6 350 22:37 09.06.2020
1765 Clouds 8 1012 49 16093 4.6 350 22:19 09.06.2020
1766 Clouds 8 1012 49 16093 2.1 0 21:56 09.06.2020
1767 Clouds 8 1012 49 16093 2.1 0 21:38 09.06.2020
1768 Clouds 8 1012 49 16093 2.1 0 21:19 09.06.2020
1769 Clear 7 1012 56 16093 2.1 0 20:56 09.06.2020
1770 Clear 7 1012 56 16093 2.1 0 20:38 09.06.2020
1771 Clear 6 1012 56 16093 2.1 0 20:18 09.06.2020
1772 Clouds 5 1013 69 16093 2.1 10 19:56 09.06.2020
1773 Clouds 5 1013 69 16093 2.1 10 19:38 09.06.2020
1774 Clouds 5 1013 69 16093 2.1 10 19:20 09.06.2020
1775 Clouds 4 1012 69 16093 3.6 320 18:45 09.06.2020
1776 Clouds 4 1012 69 16093 3.6 320 18:26 09.06.2020
1777 Clear 4 1013 69 16093 3.1 280 17:58 09.06.2020
1778 Clear 3 1013 69 16093 3.1 280 17:40 09.06.2020
1779 Clear 3 1013 69 16093 3.1 280 17:22 09.06.2020
1780 Clear 2 1013 74 16093 2.1 330 16:58 09.06.2020
1781 Clear 2 1013 74 16093 2.1 330 16:39 09.06.2020
1782 Clear 2 1013 74 16093 2.1 330 16:20 09.06.2020
1783 Clear 3 1012 69 16093 2.1 270 15:41 09.06.2020
1784 Clear 3 1012 69 16093 2.1 270 15:23 09.06.2020
1785 Clear 4 1012 64 16093 2.6 310 14:59 09.06.2020
1786 Clear 3 1012 64 16093 2.6 310 14:39 09.06.2020
1787 Clear 4 1012 64 16093 2.6 310 14:19 09.06.2020
1788 Clear 4 1012 64 16093 4.1 340 13:56 09.06.2020
1789 Clear 4 1012 64 16093 4.1 340 13:56 09.06.2020
1790 Clear 4 1012 64 16093 4.1 340 13:38 09.06.2020
1791 Clear 4 1012 60 16093 4.6 330 13:20 09.06.2020
1792 Clear 5 1012 60 16093 4.6 330 12:42 09.06.2020
1793 Clear 6 1012 60 16093 4.6 330 12:21 09.06.2020
1794 Clear 6 1012 52 16093 7.7 360 11:58 09.06.2020
1795 Clear 6 1012 52 16093 7.7 360 11:40 09.06.2020
1796 Clear 6 1012 52 16093 7.7 360 11:40 09.06.2020
1797 Clear 6 1012 52 16093 7.7 360 11:20 09.06.2020
1798 Clear 7 1011 45 16093 8.7 360 10:55 09.06.2020
1799 Clear 7 1011 45 16093 8.7 360 10:55 09.06.2020
1800 Clear 7 1011 45 16093 8.7 360 10:55 09.06.2020
1801 Clear 8 1011 45 16093 8.7 360 10:36 09.06.2020
1802 Clear 8 1011 45 16093 8.7 360 10:18 09.06.2020
1803 Clear 9 1011 50 16093 7.7 360 09:41 09.06.2020
1804 Clear 10 1011 50 16093 7.7 360 09:22 09.06.2020
1805 Clear 10 1010 50 16093 6.2 350 08:55 09.06.2020
1806 Clear 11 1010 50 16093 6.2 350 08:37 09.06.2020
1807 Clear 12 1010 50 16093 6.2 350 08:18 09.06.2020
1808 Clear 12 1010 54 16093 4.1 160 07:37 09.06.2020
1809 Clear 12 1010 54 16093 4.1 160 07:18 09.06.2020
1810 Clear 15 1009 36 16093 6.2 330 06:52 09.06.2020
1811 Clear 16 1009 36 16093 6.2 330 06:28 09.06.2020
1812 Clear 16 1010 47 16093 8.2 260 04:39 09.06.2020
1813 Clear 17 1011 31 16093 8.7 270 02:52 09.06.2020
1814 Clear 16 1011 33 16093 4.6 220 01:40 09.06.2020
1815 Clear 16 1011 33 16093 4.6 220 01:19 09.06.2020
1816 Clear 16 1011 31 16093 4.6 240 00:45 09.06.2020
1817 Clear 14 1011 46 16093 4.6 230 00:20 09.06.2020
1818 Clear 14 1011 46 16093 4.6 230 23:54 08.06.2020
1819 Clear 13 1011 46 16093 4.6 230 23:36 08.06.2020
1820 Clear 13 1011 46 16093 4.6 230 23:18 08.06.2020
1821 Clear 14 1011 43 16093 5.1 230 22:39 08.06.2020
1822 Clear 13 1011 43 16093 5.1 230 22:20 08.06.2020
1823 Clear 13 1012 40 16093 4.1 240 21:57 08.06.2020
1824 Clear 13 1012 40 16093 4.1 240 21:39 08.06.2020
1825 Clear 11 1012 40 16093 4.1 240 21:20 08.06.2020
1826 Clear 13 1011 43 16093 3.1 230 20:55 08.06.2020
1827 Clear 12 1011 43 16093 3.1 230 20:37 08.06.2020
1828 Clear 12 1011 43 16093 3.1 230 20:19 08.06.2020
1829 Clear 12 1011 43 16093 1.5 220 19:44 08.06.2020
1830 Clear 10 1011 70 16093 2.1 210 19:22 08.06.2020
1831 Clear 9 1011 70 16093 2.1 210 18:58 08.06.2020
1832 Clear 9 1011 70 16093 2.1 210 18:58 08.06.2020
1833 Clear 9 1011 70 16093 2.1 210 18:39 08.06.2020
1834 Clear 8 1011 70 16093 2.1 210 18:18 08.06.2020
1835 Clear 8 1011 70 16093 2.38 9 17:55 08.06.2020
1836 Clear 8 1011 70 16093 2.38 9 17:36 08.06.2020
1837 Clear 8 1011 70 16093 2.54 360 17:18 08.06.2020
1838 Clear 7 1011 70 16093 2.54 360 16:42 08.06.2020
1839 Clear 8 1011 70 16093 2.93 358 16:23 08.06.2020
1840 Clear 9 1011 61 16093 2.93 358 15:45 08.06.2020
1841 Clear 8 1011 61 16093 3.26 360 15:23 08.06.2020
1842 Clear 9 1010 66 16093 4.6 350 14:59 08.06.2020
1843 Clear 8 1010 66 16093 4.6 350 14:40 08.06.2020
1844 Clear 8 1010 66 16093 4.6 350 14:20 08.06.2020
1845 Clear 9 1010 61 16093 5.1 340 13:44 08.06.2020
1846 Clear 9 1010 61 16093 5.1 340 13:26 08.06.2020
1847 Clear 10 1010 66 16093 3.6 340 12:54 08.06.2020
1848 Clear 9 1010 66 16093 3.6 340 12:36 08.06.2020
1849 Clear 10 1010 66 16093 3.6 340 12:18 08.06.2020
1850 Clear 12 1010 58 16093 2.1 20 11:42 08.06.2020
1851 Clear 12 1010 58 16093 2.1 20 11:23 08.06.2020
1852 Clear 13 1010 41 16093 3.6 350 10:59 08.06.2020
1853 Clear 14 1010 41 16093 3.6 350 10:40 08.06.2020
1854 Clear 14 1010 41 16093 3.6 350 10:21 08.06.2020
1855 Clear 16 1009 36 16093 3.6 330 09:58 08.06.2020
1856 Clear 16 1009 36 16093 3.6 330 09:58 08.06.2020
1857 Clear 16 1009 36 16093 3.6 330 09:58 08.06.2020
1858 Clear 17 1009 36 16093 3.6 330 09:40 08.06.2020
1859 Clear 17 1009 36 16093 3.6 330 09:22 08.06.2020
1860 Clear 18 1009 37 16093 6.2 320 08:47 08.06.2020
1861 Clear 18 1009 37 16093 6.2 320 08:47 08.06.2020
1862 Clear 18 1009 37 16093 6.2 320 08:23 08.06.2020
1863 Rain 19 1009 37 16093 7.7 310 07:46 08.06.2020
1864 Rain 19 1009 37 16093 7.7 310 07:24 08.06.2020
1865 Clear 20 1009 32 16093 8.7 310 06:51 08.06.2020
1866 Clear 20 1009 32 16093 8.7 310 06:33 08.06.2020
1867 Clear 21 1009 30 16093 7.2 310 05:52 08.06.2020
1868 Clear 20 1009 30 16093 7.7 300 04:29 08.06.2020
1869 Clear 17 1010 50 16093 4.1 230 02:46 08.06.2020
1870 Clear 17 1010 50 16093 4.1 230 02:21 08.06.2020
1871 Clear 16 1011 58 16093 4.6 220 01:34 08.06.2020
1872 Clear 16 1011 50 16093 4.6 230 00:33 08.06.2020
1873 Clear 16 1011 44 16093 4.6 220 23:59 07.06.2020
1874 Clear 16 1011 44 16093 4.6 220 23:37 07.06.2020
1875 Clear 16 1011 44 16093 4.6 220 23:18 07.06.2020
1876 Clear 16 1011 43 16093 5.1 230 22:40 07.06.2020
1877 Clear 15 1011 43 16093 5.1 230 22:20 07.06.2020
1878 Clear 15 1012 54 16093 3.1 210 22:00 07.06.2020
1879 Clear 15 1012 54 16093 3.1 210 21:41 07.06.2020
1880 Clear 12 1012 54 16093 3.1 210 21:23 07.06.2020
1881 Clear 14 1012 57 16093 3.1 220 20:57 07.06.2020
1882 Clear 13 1012 57 16093 3.1 220 20:38 07.06.2020
1883 Clear 13 1012 57 16093 3.1 220 20:20 07.06.2020
1884 Clear 14 1012 43 16093 2.1 320 19:56 07.06.2020
1885 Clear 13 1012 43 16093 2.1 320 19:38 07.06.2020
1886 Clear 11 1012 61 16093 2.04 8 19:19 07.06.2020
1887 Clear 10 1012 61 16093 2.04 8 18:55 07.06.2020
1888 Clear 10 1012 61 16093 2.04 8 18:37 07.06.2020
1889 Clear 9 1012 61 16093 2.15 3 18:18 07.06.2020
1890 Clear 7 1012 75 16093 1.94 6 17:55 07.06.2020
1891 Clear 7 1012 75 16093 1.94 6 17:37 07.06.2020
1892 Clear 8 1012 75 16093 2.11 353 17:19 07.06.2020
1893 Clear 6 1012 75 16093 1.5 30 16:42 07.06.2020
1894 Clear 6 1012 75 16093 1.5 30 16:21 07.06.2020
1895 Clear 6 1012 75 16093 1.5 30 16:21 07.06.2020
1896 Clouds 7 1012 75 16093 2.19 343 15:40 07.06.2020
1897 Clouds 7 1012 75 16093 2.2 340 15:21 07.06.2020
1898 Clouds 9 1012 70 16093 2.2 340 14:40 07.06.2020
1899 Clouds 9 1012 70 16093 2.15 342 14:21 07.06.2020
1900 Clouds 9 1013 66 16093 2.6 310 13:48 07.06.2020
1901 Clouds 9 1013 66 16093 2.6 310 13:21 07.06.2020
1902 Clouds 10 1013 62 16093 2.1 290 12:55 07.06.2020
1903 Clouds 10 1013 62 16093 2.1 290 12:37 07.06.2020
1904 Clouds 11 1012 58 16093 3.6 350 12:18 07.06.2020
1905 Clouds 10 1012 58 16093 3.6 350 11:55 07.06.2020
1906 Clouds 11 1012 58 16093 3.6 350 11:36 07.06.2020
1907 Clouds 11 1012 58 16093 3.6 350 11:18 07.06.2020
1908 Clouds 12 1012 50 16093 3.6 360 10:43 07.06.2020
1909 Clouds 13 1012 50 16093 3.6 360 10:20 07.06.2020
1910 Clear 14 1012 44 16093 4.6 360 09:57 07.06.2020
1911 Clear 15 1012 44 16093 4.6 360 09:39 07.06.2020
1912 Clear 15 1012 44 16093 4.6 360 09:20 07.06.2020
1913 Clear 17 1012 36 16093 5.7 350 08:57 07.06.2020
1914 Clear 17 1012 36 16093 5.7 350 08:39 07.06.2020
1915 Clear 17 1012 36 16093 5.7 350 08:20 07.06.2020
1916 Clouds 18 1012 34 16093 6.7 350 07:32 07.06.2020
1917 Clouds 18 1012 45 16093 3.1 240 06:52 07.06.2020
1918 Clear 16 1012 58 16093 3.93 356 05:52 07.06.2020
1919 Clear 15 1013 66 16093 2.1 180 04:21 07.06.2020
1920 Clear 14 1013 66 16093 6.7 240 02:57 07.06.2020
1921 Clear 14 1013 66 16093 6.7 240 02:18 07.06.2020
1922 Clouds 12 1014 62 16093 7.7 250 01:25 07.06.2020
1923 Clear 14 1014 66 16093 8.2 260 00:47 07.06.2020
1924 Clear 12 1014 66 16093 8.2 260 00:20 07.06.2020
1925 Clouds 13 1014 71 16093 6.7 250 23:58 06.06.2020
1926 Clouds 13 1014 71 16093 6.7 250 23:37 06.06.2020
1927 Clouds 11 1014 71 16093 6.7 250 23:19 06.06.2020
1928 Clouds 13 1015 66 16093 5.7 250 22:56 06.06.2020
1929 Clouds 13 1015 66 16093 5.7 250 22:38 06.06.2020
1930 Clouds 11 1015 66 16093 5.7 250 22:19 06.06.2020
1931 Clouds 11 1015 66 16093 5.7 250 22:19 06.06.2020
1932 Clear 13 1015 66 16093 5.7 250 21:46 06.06.2020
1933 Clear 12 1015 66 16093 5.7 250 21:22 06.06.2020
1934 Clear 12 1015 66 16093 5.7 250 21:22 06.06.2020
1935 Clouds 12 1015 66 16093 1.54 281 20:58 06.06.2020
1936 Clouds 12 1015 66 16093 1.54 281 20:40 06.06.2020
1937 Clouds 12 1015 66 16093 1.43 300 20:19 06.06.2020
1938 Clouds 11 1015 71 16093 2.1 290 19:57 06.06.2020
1939 Clouds 10 1015 71 16093 2.1 290 19:38 06.06.2020
1940 Clouds 10 1015 71 16093 2.1 290 19:20 06.06.2020
1941 Clouds 9 1015 75 16093 2.6 280 18:54 06.06.2020
1942 Clouds 8 1015 75 16093 2.6 280 18:36 06.06.2020
1943 Clouds 8 1015 75 16093 2.6 290 18:18 06.06.2020
1944 Clouds 8 1015 75 16093 2.6 290 17:41 06.06.2020
1945 Clouds 8 1015 75 16093 2.6 290 17:19 06.06.2020
1946 Clouds 8 1015 75 16093 2.6 260 16:55 06.06.2020
1947 Clouds 8 1015 75 16093 2.6 260 16:55 06.06.2020
1948 Clouds 8 1015 75 16093 2.6 260 16:36 06.06.2020
1949 Clouds 8 1015 75 16093 2.6 260 16:18 06.06.2020
1950 Clouds 8 1016 75 16093 5.7 280 15:42 06.06.2020
1951 Clouds 8 1016 75 16093 5.7 280 15:20 06.06.2020
1952 Clouds 7 1016 81 16093 3.6 260 14:56 06.06.2020
1953 Clouds 8 1016 81 16093 3.6 260 14:37 06.06.2020
1954 Clouds 8 1016 81 16093 3.6 260 14:19 06.06.2020
1955 Clouds 8 1016 81 16093 4.1 290 13:45 06.06.2020
1956 Clouds 8 1016 81 16093 3.6 260 13:19 06.06.2020
1957 Clouds 8 1016 81 16093 3.6 260 12:56 06.06.2020
1958 Clouds 8 1016 81 16093 3.6 260 12:37 06.06.2020
1959 Clouds 8 1016 81 16093 3.6 260 12:18 06.06.2020
1960 Clouds 8 1016 81 16093 4.1 280 11:40 06.06.2020
1961 Clouds 8 1016 81 16093 4.1 280 11:21 06.06.2020
1962 Clouds 9 1016 81 16093 4.1 280 11:21 06.06.2020
1963 Clouds 9 1016 81 16093 4.1 260 10:59 06.06.2020
1964 Clouds 9 1016 81 16093 4.1 260 10:40 06.06.2020
1965 Clouds 9 1016 81 16093 4.1 260 10:22 06.06.2020
1966 Clouds 9 1016 81 16093 5.1 270 09:59 06.06.2020
1967 Clouds 9 1016 81 16093 5.1 270 09:41 06.06.2020
1968 Clouds 9 1016 81 16093 5.1 270 09:22 06.06.2020
1969 Clouds 9 1016 81 16093 4.6 260 08:45 06.06.2020
1970 Clouds 9 1016 81 16093 4.6 260 08:24 06.06.2020
1971 Clouds 9 1016 81 16093 3.6 250 07:56 06.06.2020
1972 Clouds 9 1016 81 16093 3.6 250 07:37 06.06.2020
1973 Clouds 9 1016 81 16093 3.6 250 07:19 06.06.2020
1974 Clouds 9 1016 81 16093 3.1 250 06:43 06.06.2020
1975 Clouds 9 1016 81 16093 3.1 250 06:24 06.06.2020
1976 Clouds 10 1016 81 16093 3.6 230 05:32 06.06.2020
1977 Clouds 10 1016 81 16093 2.1 220 04:49 06.06.2020
1978 Clouds 9 1016 76 16093 2.1 250 03:29 06.06.2020
1979 Clouds 9 1017 81 16093 4.1 220 02:26 06.06.2020
1980 Clouds 10 1016 81 16093 3.6 180 01:23 06.06.2020
1981 Clouds 10 1016 87 16093 4.6 160 00:57 06.06.2020
1982 Clouds 9 1016 87 16093 4.1 140 00:39 06.06.2020
1983 Clouds 9 1016 87 16093 4.1 140 00:20 06.06.2020
1984 Clouds 10 1016 76 16093 4.6 130 23:40 05.06.2020
1985 Clouds 10 1016 76 16093 4.6 130 23:20 05.06.2020
1986 Clouds 10 1016 76 16093 4.6 130 23:20 05.06.2020
1987 Clouds 10 1016 76 16093 3.1 120 22:56 05.06.2020
1988 Clouds 10 1016 76 16093 3.1 120 22:38 05.06.2020
1989 Clouds 10 1016 76 16093 3.1 120 22:20 05.06.2020
1990 Clouds 10 1016 71 16093 2.6 90 21:43 05.06.2020
1991 Clouds 10 1016 71 16093 2.6 90 21:23 05.06.2020
1992 Clouds 9 1016 76 16093 3.6 110 20:59 05.06.2020
1993 Clouds 9 1016 76 16093 3.6 110 20:41 05.06.2020
1994 Clouds 9 1016 76 16093 3.6 110 20:21 05.06.2020
1995 Clouds 7 1016 81 16093 1.64 228 19:44 05.06.2020
1996 Clouds 7 1016 81 16093 1.12 231 19:24 05.06.2020
1997 Clouds 7 1016 81 16093 2.1 40 18:59 05.06.2020
1998 Clouds 6 1016 81 16093 2.1 40 18:39 05.06.2020
1999 Clouds 6 1016 81 16093 2.1 40 18:20 05.06.2020
2000 Clouds 5 1016 81 16093 1.5 80 17:58 05.06.2020
2001 Clouds 5 1016 81 16093 1.5 80 17:58 05.06.2020
2002 Clouds 5 1016 81 16093 1.5 80 17:40 05.06.2020
2003 Clouds 4 1016 81 16093 1.5 80 17:19 05.06.2020
2004 Clouds 3 1016 86 16093 1.04 233 16:40 05.06.2020
2005 Clouds 3 1016 86 16093 1.1 236 16:22 05.06.2020
2006 Clouds 3 1016 93 16093 2.6 340 15:57 05.06.2020
2007 Clouds 3 1016 93 16093 2.6 340 15:37 05.06.2020
2008 Clouds 3 1016 93 16093 2.6 340 15:19 05.06.2020
2009 Clouds 3 1016 93 16093 1.5 10 14:56 05.06.2020
2010 Clouds 2 1016 93 16093 1.5 10 14:38 05.06.2020
2011 Clouds 2 1016 93 16093 1.5 10 14:19 05.06.2020
2012 Clouds 3 1016 86 16093 1.5 30 13:43 05.06.2020
2013 Clouds 3 1016 86 16093 1.5 30 13:24 05.06.2020
2014 Clouds 3 1016 81 16093 0.56 217 12:55 05.06.2020
2015 Clouds 3 1016 81 16093 0.56 217 12:37 05.06.2020
2016 Clouds 4 1016 81 16093 1.06 226 12:18 05.06.2020
2017 Clear 5 1016 81 16093 2.1 360 11:42 05.06.2020
2018 Clear 5 1016 81 16093 2.1 360 11:22 05.06.2020
2019 Clear 6 1016 81 16093 1.5 300 10:56 05.06.2020
2020 Clear 6 1016 81 16093 1.5 300 10:38 05.06.2020
2021 Clear 7 1016 81 16093 1.5 300 10:19 05.06.2020
2022 Clouds 7 1016 75 16093 2.1 250 09:55 05.06.2020
2023 Clouds 7 1016 75 16093 2.1 250 09:37 05.06.2020
2024 Clouds 7 1016 75 16093 2.1 250 09:18 05.06.2020
2025 Clouds 7 1016 75 16093 2.1 250 09:18 05.06.2020
2026 Clouds 8 1016 75 16093 2.6 260 08:54 05.06.2020
2027 Clouds 8 1016 75 16093 2.6 260 08:36 05.06.2020
2028 Clouds 8 1016 75 16093 2.6 260 08:18 05.06.2020
2029 Clouds 8 1016 75 16093 2.6 230 07:42 05.06.2020
2030 Clear 8 1016 75 16093 4.1 240 07:20 05.06.2020
2031 Clouds 8 1016 75 16093 4.1 220 05:58 05.06.2020
2032 Clouds 8 1016 75 16093 4.1 220 05:19 05.06.2020
2033 Clouds 8 1015 75 16093 3.6 230 03:54 05.06.2020
2034 Clouds 8 1015 75 16093 4.1 190 02:53 05.06.2020
2035 Clouds 8 1015 75 16093 4.1 190 02:24 05.06.2020
2036 Clouds 8 1015 81 16093 3.6 210 01:55 05.06.2020
2037 Clouds 8 1015 81 16093 3.6 210 01:26 05.06.2020
2038 Clouds 8 1015 81 16093 2.6 250 00:42 05.06.2020
2039 Clouds 7 1015 81 16093 2.6 250 00:20 05.06.2020
2040 Clouds 7 1015 81 16093 2.6 220 23:46 04.06.2020
2041 Clouds 7 1015 81 16093 2.6 220 23:27 04.06.2020
2042 Clouds 7 1015 81 16093 3.6 220 22:55 04.06.2020
2043 Clouds 7 1015 81 16093 3.6 220 22:36 04.06.2020
2044 Clouds 7 1015 81 16093 3.6 220 22:18 04.06.2020
2045 Clouds 8 1015 87 16093 2.1 210 21:55 04.06.2020
2046 Clouds 7 1014 93 16093 2.1 210 21:36 04.06.2020
2047 Clouds 7 1014 93 16093 2.1 210 21:18 04.06.2020
2048 Clouds 7 1014 93 16093 1.5 220 20:40 04.06.2020
2049 Clouds 7 1014 93 16093 1.5 220 20:21 04.06.2020
2050 Clouds 7 1014 93 16093 1.5 220 19:59 04.06.2020
2051 Clouds 7 1014 93 16093 2.1 110 19:38 04.06.2020
2052 Clouds 7 1014 93 16093 1.5 100 19:20 04.06.2020
2053 Clouds 7 1014 93 16093 1.5 100 18:54 04.06.2020
2054 Clouds 7 1014 93 16093 1.5 100 18:36 04.06.2020
2055 Clouds 7 1014 93 16093 1.5 100 18:18 04.06.2020
2056 Clouds 7 1014 93 16093 2.6 110 17:41 04.06.2020
2057 Clouds 7 1014 93 16093 2.6 110 17:21 04.06.2020
2058 Mist 7 1013 93 6437 3.1 80 16:41 04.06.2020
2059 Mist 7 1013 93 6437 3.1 80 16:21 04.06.2020
2060 Clouds 7 1013 93 16093 2.1 60 15:58 04.06.2020
2061 Clouds 7 1013 93 16093 2.6 80 15:40 04.06.2020
2062 Clouds 7 1013 93 16093 2.6 80 15:22 04.06.2020
2063 Clouds 7 1013 93 16093 3.1 100 14:39 04.06.2020
2064 Clouds 7 1013 93 16093 3.1 100 14:20 04.06.2020
2065 Clouds 7 1013 87 16093 2.6 90 13:56 04.06.2020
2066 Clouds 7 1013 87 16093 2.6 90 13:38 04.06.2020
2067 Clouds 7 1013 87 16093 2.6 90 13:19 04.06.2020
2068 Clouds 8 1013 87 16093 2.6 80 12:55 04.06.2020
2069 Clouds 8 1013 87 16093 2.1 100 12:36 04.06.2020
2070 Clouds 8 1013 87 16093 2.1 100 12:18 04.06.2020
2071 Clouds 8 1012 87 16093 3.1 160 11:40 04.06.2020
2072 Clouds 8 1012 87 16093 3.1 160 11:20 04.06.2020
2073 Clouds 8 1012 87 16093 2.1 140 10:59 04.06.2020
2074 Clouds 8 1012 87 16093 2.1 140 10:38 04.06.2020
2075 Clouds 8 1012 87 16093 2.1 140 10:20 04.06.2020
2076 Clouds 8 1012 81 16093 3.1 180 09:46 04.06.2020
2077 Clouds 8 1012 81 16093 3.1 180 09:28 04.06.2020
2078 Clouds 8 1011 75 16093 2.1 180 08:50 04.06.2020
2079 Clouds 8 1011 75 16093 2.1 180 08:30 04.06.2020
2080 Clouds 9 1011 75 16093 2.1 180 07:59 04.06.2020
2081 Clear 9 1011 81 16093 2.1 0 07:30 04.06.2020
2082 Clear 9 1011 81 16093 2.6 200 06:45 04.06.2020
2083 Clear 10 1011 81 16093 2.6 200 06:26 04.06.2020
2084 Clear 10 1010 81 16093 3.6 210 05:51 04.06.2020
2085 Clear 10 1010 81 16093 3.6 210 05:31 04.06.2020
2086 Clear 11 1009 81 16093 3.1 200 03:31 04.06.2020
2087 Clouds 12 1009 87 16093 5.1 150 01:59 04.06.2020
2088 Clouds 11 1009 87 16093 6.7 140 01:20 04.06.2020
2089 Clouds 12 1009 87 16093 6.7 140 00:53 04.06.2020
2090 Clear 13 1008 81 16093 5.7 130 23:56 03.06.2020
2091 Clear 12 1008 81 16093 5.7 130 23:36 03.06.2020
2092 Clear 12 1008 81 16093 5.7 130 23:18 03.06.2020
2093 Clouds 17 1007 60 0 4.02 142 22:40 03.06.2020
2094 Clouds 12 1007 87 16093 3.1 160 22:19 03.06.2020
2095 Clouds 13 1007 87 16093 3.1 160 21:59 03.06.2020
2096 Clouds 13 1007 87 16093 3.1 160 21:59 03.06.2020
2097 Clouds 9 1007 87 16093 3.1 160 21:40 03.06.2020
2098 Clouds 11 1007 87 16093 3.1 160 21:22 03.06.2020
2099 Clouds 11 1007 87 16093 3.1 160 21:22 03.06.2020
2100 Rain 13 1007 67 16093 2.1 80 20:58 03.06.2020
2101 Rain 13 1007 67 16093 2.1 80 20:40 03.06.2020
2102 Rain 14 1007 67 16093 2.1 80 20:20 03.06.2020
2103 Clouds 13 1006 71 16093 4.1 90 19:57 03.06.2020
2104 Clouds 13 1006 71 16093 4.1 90 19:38 03.06.2020
2105 Clouds 11 1006 81 16093 1.34 113 19:19 03.06.2020
2106 Clouds 11 1006 81 16093 1.34 113 18:56 03.06.2020
2107 Clouds 11 1006 81 16093 1.34 113 18:38 03.06.2020
2108 Clouds 10 1006 87 16093 1.17 128 18:18 03.06.2020
2109 Clouds 8 1006 87 16093 1.17 128 17:42 03.06.2020
2110 Clouds 8 1006 87 16093 0.31 164 17:22 03.06.2020
2111 Clouds 8 1006 87 16093 0.31 164 17:22 03.06.2020
2112 Clear 8 1005 87 16093 0.31 164 16:56 03.06.2020
2113 Clear 8 1005 87 16093 0.31 164 16:38 03.06.2020
2114 Clear 8 1005 87 16093 0.31 164 16:38 03.06.2020
2115 Clear 8 1005 87 16093 0.95 312 16:19 03.06.2020
2116 Clear 7 1005 100 16093 2.1 10 15:41 03.06.2020
2117 Clear 7 1005 100 16093 2.1 10 15:21 03.06.2020
2118 Clear 8 1005 87 16093 3.1 260 14:59 03.06.2020
2119 Clear 9 1005 87 16093 3.1 260 14:40 03.06.2020
2120 Clear 9 1005 87 16093 3.1 260 14:21 03.06.2020
2121 Clear 10 1004 81 16093 2.76 26 13:39 03.06.2020
2122 Clear 10 1004 81 16093 3.39 55 13:20 03.06.2020
2123 Clear 10 1004 81 16093 1.5 100 12:43 03.06.2020
2124 Clear 11 1004 81 16093 1.5 100 12:22 03.06.2020
2125 Clear 12 1003 76 16093 1.5 150 11:57 03.06.2020
2126 Clear 12 1003 76 16093 1.5 150 11:39 03.06.2020
2127 Clear 12 1003 76 16093 1.5 150 11:21 03.06.2020
2128 Clear 13 1003 71 16093 2.6 110 10:42 03.06.2020
2129 Clear 13 1003 71 16093 2.6 110 10:24 03.06.2020
2130 Clear 14 1003 55 16093 3.15 324 09:45 03.06.2020
2131 Clear 15 1003 55 16093 1.89 254 09:21 03.06.2020
2132 Clouds 14 1002 62 16093 2.6 280 08:59 03.06.2020
2133 Clouds 15 1002 62 16093 2.6 280 08:40 03.06.2020
2134 Clouds 14 1002 62 16093 2.6 280 08:19 03.06.2020
2135 Clouds 15 1002 67 16093 2.1 220 07:43 03.06.2020
2136 Clouds 17 1002 63 16093 2.87 264 07:20 03.06.2020
2137 Clouds 16 1002 63 16093 2.87 264 06:54 03.06.2020
2138 Clouds 16 1002 63 16093 2.87 264 06:32 03.06.2020
2139 Clouds 16 1002 67 16093 2.95 264 05:47 03.06.2020
2140 Clear 11 1002 76 16093 2.6 230 04:58 03.06.2020
2141 Clear 13 1002 76 16093 4.6 210 03:51 03.06.2020
2142 Clear 14 1002 76 16093 4.6 210 03:21 03.06.2020
2143 Clear 14 1002 66 16093 5.1 190 02:23 03.06.2020
2144 Clear 14 1002 71 16093 3.6 150 00:47 03.06.2020
2145 Clear 14 1002 71 16093 3.6 150 00:25 03.06.2020
2146 Clear 14 1002 76 16093 2.1 190 23:52 02.06.2020
2147 Clear 14 1002 76 16093 2.1 190 23:28 02.06.2020
2148 Clear 14 1002 71 16093 2.6 210 22:58 02.06.2020
2149 Clear 12 1002 71 16093 2.6 210 22:39 02.06.2020
2150 Clear 12 1002 71 16093 2.6 210 22:19 02.06.2020
2151 Clear 12 1002 71 16093 2.6 210 22:19 02.06.2020
2152 Clear 12 1001 76 16093 2.1 210 21:56 02.06.2020
2153 Clear 15 1001 76 16093 2.1 210 21:38 02.06.2020
2154 Clear 13 1001 76 16093 2.1 210 21:19 02.06.2020
2155 Clear 13 1002 81 16093 3.1 150 20:58 02.06.2020
2156 Clear 13 1002 81 16093 3.1 150 20:58 02.06.2020
2157 Clear 13 1002 81 16093 3.1 150 20:39 02.06.2020
2158 Clear 13 1002 81 16093 3.1 150 20:20 02.06.2020
2159 Clouds 13 1001 71 16093 3.1 280 19:44 02.06.2020
2160 Clouds 13 1001 71 16093 3.1 280 19:25 02.06.2020
2161 Clear 13 1001 82 16093 1.5 350 18:58 02.06.2020
2162 Clear 13 1001 82 16093 1.5 350 18:39 02.06.2020
2163 Clear 13 1001 82 16093 1.5 350 18:20 02.06.2020
2164 Clear 10 1001 93 16093 1.5 320 17:55 02.06.2020
2165 Clear 10 1001 93 16093 1.5 320 17:37 02.06.2020
2166 Clear 10 1001 93 16093 1.5 320 17:37 02.06.2020
2167 Clear 9 1001 93 16093 1.5 320 17:18 02.06.2020
2168 Clear 8 1001 93 16093 1.94 12 16:41 02.06.2020
2169 Clear 9 1001 93 16093 1.49 18 16:21 02.06.2020
2170 Clear 9 1001 93 16093 1.49 18 16:21 02.06.2020
2171 Clear 9 1001 93 16093 1.49 18 15:59 02.06.2020
2172 Clear 9 1001 93 16093 1.49 18 15:40 02.06.2020
2173 Clear 8 1001 93 16093 0.65 350 15:20 02.06.2020
2174 Clouds 9 1001 87 16093 0.65 350 14:46 02.06.2020
2175 Clouds 9 1001 87 16093 0.53 300 14:27 02.06.2020
2176 Clouds 10 1001 87 16093 2.6 110 13:55 02.06.2020
2177 Clouds 10 1001 87 16093 2.6 110 13:36 02.06.2020
2178 Clouds 11 1001 87 16093 2.6 110 13:18 02.06.2020
2179 Clouds 12 1001 87 16093 3.6 320 12:55 02.06.2020
2180 Clouds 12 1001 87 16093 3.6 320 12:37 02.06.2020
2181 Clouds 12 1001 87 16093 3.6 320 12:18 02.06.2020
2182 Clouds 13 1001 82 16093 3.1 320 11:41 02.06.2020
2183 Clouds 13 1001 82 16093 3.1 320 11:22 02.06.2020
2184 Rain 13 1001 87 16093 2.1 310 10:55 02.06.2020
2185 Rain 14 1001 87 16093 2.1 310 10:37 02.06.2020
2186 Rain 14 1001 87 16093 2.1 310 10:19 02.06.2020
2187 Clouds 14 1001 93 16093 1.17 174 09:42 02.06.2020
2188 Clouds 14 1001 93 16093 0.69 89 09:21 02.06.2020
2189 Clouds 14 1001 93 16093 2.6 190 08:53 02.06.2020
2190 Clouds 14 1001 93 16093 2.6 190 08:28 02.06.2020
2191 Clouds 14 1001 93 16093 2.6 190 07:58 02.06.2020
2192 Clouds 14 1001 93 16093 1.21 190 07:32 02.06.2020
2193 Rain 14 1000 100 16093 2.1 220 06:59 02.06.2020
2194 Rain 14 1000 100 16093 2.1 220 06:37 02.06.2020
2195 Clouds 16 1000 87 16093 3.6 210 05:37 02.06.2020
2196 Clear 15 1000 82 0 3.1 220 04:20 02.06.2020
2197 Clear 12 1000 76 16093 4.1 190 02:37 02.06.2020
2198 Clouds 12 1000 76 16093 2.6 150 01:53 02.06.2020
2199 Clouds 15 1000 48 0 5.22 213 00:46 02.06.2020
2200 Clouds 20 1000 39 0 2.54 227 00:20 02.06.2020
2201 Clouds 15 1000 62 16093 2.6 200 23:39 01.06.2020
2202 Clouds 15 1000 62 16093 2.6 200 23:19 01.06.2020
2203 Clouds 16 1000 55 16093 1.86 276 22:56 01.06.2020
2204 Clouds 17 1000 55 16093 1.86 276 22:38 01.06.2020
2205 Clouds 17 1000 55 16093 1.39 285 22:19 01.06.2020
2206 Clouds 16 1000 62 16093 2.1 150 21:42 01.06.2020
2207 Clouds 15 1000 62 16093 2.1 150 21:21 01.06.2020
2208 Clouds 13 999 76 16093 2.6 130 20:59 01.06.2020
2209 Clouds 13 999 76 16093 2.6 130 20:41 01.06.2020
2210 Clouds 13 999 62 16093 1.43 352 20:20 01.06.2020
2211 Clouds 12 999 62 16093 1.43 352 19:58 01.06.2020
2212 Clouds 13 999 62 16093 1.43 352 19:39 01.06.2020
2213 Clear 13 999 66 16093 2.1 30 19:20 01.06.2020
2214 Clear 12 999 66 16093 2.1 30 18:57 01.06.2020
2215 Clear 12 999 66 16093 2.1 30 18:38 01.06.2020
2216 Clear 12 999 66 16093 2.1 30 18:19 01.06.2020
2217 Clear 11 999 71 16093 2.6 120 17:41 01.06.2020
2218 Clear 11 999 71 16093 2.6 120 17:21 01.06.2020
2219 Clear 10 999 76 16093 1.38 135 16:58 01.06.2020
2220 Clear 10 999 76 16093 1.38 135 16:39 01.06.2020
2221 Clear 10 999 76 16093 1.4 107 16:19 01.06.2020
2222 Clear 11 999 71 16093 1.4 107 15:54 01.06.2020
2223 Clear 11 999 71 16093 1.4 107 15:36 01.06.2020
2224 Clear 11 999 71 16093 1.22 98 15:18 01.06.2020
2225 Clear 11 999 62 16093 1.22 98 14:41 01.06.2020
2226 Clear 11 999 62 16093 2.42 27 14:23 01.06.2020
2227 Clear 11 999 66 16093 2.42 27 13:58 01.06.2020
2228 Clear 11 999 66 16093 2.42 27 13:39 01.06.2020
2229 Clear 12 999 66 16093 1.54 63 13:20 01.06.2020
2230 Clouds 14 999 58 16093 2.1 80 12:57 01.06.2020
2231 Clouds 15 999 58 16093 2.1 80 12:39 01.06.2020
2232 Clouds 15 999 58 16093 2.1 80 12:20 01.06.2020
2233 Clouds 18 998 45 16093 4.1 70 11:42 01.06.2020
2234 Clouds 18 998 45 16093 4.1 70 11:23 01.06.2020
2235 Clouds 19 998 35 16093 7.7 30 10:59 01.06.2020
2236 Clouds 19 998 35 16093 7.7 30 10:39 01.06.2020
2237 Clouds 21 998 35 16093 7.7 30 10:20 01.06.2020
2238 Clouds 20 998 37 16093 6.2 40 09:57 01.06.2020
2239 Clouds 20 998 37 16093 6.2 40 09:39 01.06.2020
2240 Clouds 20 998 37 16093 6.2 40 09:20 01.06.2020
2241 Clouds 20 998 37 16093 6.7 350 08:50 01.06.2020
2242 Clouds 20 998 37 16093 6.7 350 08:25 01.06.2020
2243 Clouds 21 998 30 16093 3.6 80 07:45 01.06.2020
2244 Clouds 21 998 30 16093 3.6 80 07:27 01.06.2020
2245 Clouds 22 998 33 16093 7.7 100 06:58 01.06.2020
2246 Clouds 21 998 37 16093 2.6 300 06:24 01.06.2020
2247 Rain 20 998 48 16093 4.6 320 05:53 01.06.2020
2248 Thunderstorm 21 998 33 11265 2.2 206 04:25 01.06.2020
2249 Clouds 21 999 28 16093 4.6 250 03:47 01.06.2020
2250 Clouds 22 999 28 16093 4.6 250 03:24 01.06.2020
2251 Clear 23 999 30 16093 4.1 250 02:19 01.06.2020
2252 Clear 22 1000 32 16093 4.6 240 01:34 01.06.2020
2253 Clouds 21 1000 34 16093 3.6 240 00:58 01.06.2020
2254 Clouds 22 1000 34 16093 3.6 240 00:39 01.06.2020
2255 Clouds 21 1000 34 16093 3.6 240 00:21 01.06.2020
2256 Clouds 21 1000 34 16093 3.6 240 00:21 01.06.2020
2257 Clouds 21 1000 39 16093 4.1 240 23:56 31.05.2020
2258 Clouds 21 1000 39 16093 4.1 240 23:38 31.05.2020
2259 Clouds 21 1000 39 16093 4.1 240 23:20 31.05.2020
2260 Clouds 20 1000 42 16093 2.1 150 22:45 31.05.2020
2261 Clouds 20 1000 42 16093 2.1 150 22:27 31.05.2020
2262 Clouds 22 1001 28 16093 4.1 90 21:59 31.05.2020
2263 Clouds 22 1001 28 16093 4.1 90 21:41 31.05.2020
2264 Clouds 22 1001 28 16093 4.1 90 21:23 31.05.2020
2265 Clouds 20 1001 37 16093 4.1 40 20:57 31.05.2020
2266 Clouds 20 1001 37 16093 4.1 40 20:57 31.05.2020
2267 Clouds 20 1001 37 16093 4.1 40 20:38 31.05.2020
2268 Clouds 19 1001 37 16093 4.1 40 20:19 31.05.2020
2269 Clouds 18 1001 45 16093 4.06 42 19:55 31.05.2020
2270 Clouds 19 1001 45 16093 4.06 42 19:36 31.05.2020
2271 Clouds 18 1001 45 16093 3.57 28 19:18 31.05.2020
2272 Clouds 17 1001 48 16093 3.6 340 18:43 31.05.2020
2273 Clouds 17 1001 48 16093 3.6 340 18:25 31.05.2020
2274 Clear 13 1002 62 16093 2.79 33 17:46 31.05.2020
2275 Clear 13 1002 62 16093 2.87 46 17:25 31.05.2020
2276 Clear 12 1002 71 16093 1.5 20 16:59 31.05.2020
2277 Clear 13 1002 71 16093 1.5 20 16:40 31.05.2020
2278 Clear 13 1002 71 16093 1.5 20 16:21 31.05.2020
2279 Clear 12 1002 66 16093 2.1 50 15:40 31.05.2020
2280 Clear 13 1002 66 16093 2.1 50 15:21 31.05.2020
2281 Clouds 15 1002 54 16093 3.6 40 14:47 31.05.2020
2282 Clouds 15 1002 54 16093 3.6 40 14:22 31.05.2020
2283 Clouds 14 1003 58 16093 1.5 170 13:57 31.05.2020
2284 Clouds 14 1003 58 16093 1.5 170 13:38 31.05.2020
2285 Clouds 14 1003 58 16093 1.5 170 13:20 31.05.2020
2286 Clear 14 1003 54 16093 3.1 60 12:58 31.05.2020
2287 Clear 14 1003 54 16093 3.1 60 12:38 31.05.2020
2288 Clear 13 1003 54 16093 3.1 60 12:19 31.05.2020
2289 Clouds 14 1004 58 16093 3.1 70 11:49 31.05.2020
2290 Clouds 14 1004 58 16093 3.1 70 11:24 31.05.2020
2291 Clouds 17 1003 42 16093 5.1 40 10:57 31.05.2020
2292 Clouds 17 1003 42 16093 5.1 40 10:39 31.05.2020
2293 Clouds 18 1003 42 16093 5.1 40 10:21 31.05.2020
2294 Clouds 18 1003 42 16093 3.6 50 09:42 31.05.2020
2295 Clouds 18 1003 42 16093 3.6 50 09:23 31.05.2020
2296 Clouds 21 1003 32 16093 3.1 270 08:59 31.05.2020
2297 Clouds 21 1003 32 16093 3.1 270 08:40 31.05.2020
2298 Clouds 21 1003 32 16093 3.1 270 08:21 31.05.2020
2299 Clouds 22 1003 35 16093 4.6 280 07:46 31.05.2020
2300 Clouds 21 1003 35 16093 4.6 280 07:21 31.05.2020
2301 Clouds 22 1003 26 16093 3.1 240 06:54 31.05.2020
2302 Clouds 22 1003 26 16093 3.1 240 06:34 31.05.2020
2303 Clear 23 1004 28 16093 3.6 250 05:46 31.05.2020
2304 Clear 23 1004 28 16093 3.6 250 05:27 31.05.2020
2305 Clouds 21 1006 32 16093 4.1 240 03:56 31.05.2020
2306 Clouds 21 1006 32 16093 3.6 260 02:59 31.05.2020
2307 Clouds 21 1007 34 16093 4.6 240 01:51 31.05.2020
2308 Clouds 21 1007 34 16093 4.6 240 01:30 31.05.2020
2309 Clouds 23 1007 28 16093 4.6 90 00:33 31.05.2020
2310 Clouds 22 1008 30 16093 3.1 30 23:59 30.05.2020
2311 Clouds 21 1008 30 16093 3.1 30 23:41 30.05.2020
2312 Clouds 21 1008 30 16093 3.1 30 23:23 30.05.2020
2313 Clouds 18 1008 39 16093 5.7 40 22:42 30.05.2020
2314 Clouds 18 1008 39 16093 5.7 40 22:23 30.05.2020
2315 Clouds 18 1009 36 16093 5.1 10 21:58 30.05.2020
2316 Clouds 18 1009 36 16093 5.1 10 21:39 30.05.2020
2317 Clouds 18 1009 36 16093 5.1 10 21:20 30.05.2020
2318 Clouds 17 1010 36 16093 5.1 10 20:57 30.05.2020
2319 Clouds 17 1010 36 16093 5.1 10 20:39 30.05.2020
2320 Clouds 17 1010 36 16093 5.1 10 20:20 30.05.2020
2321 Clouds 15 1011 41 16093 4.6 340 19:43 30.05.2020
2322 Clouds 14 1011 41 16093 4.6 340 19:22 30.05.2020
2323 Clouds 14 1011 43 16093 5.7 340 18:56 30.05.2020
2324 Clouds 13 1011 43 16093 5.7 340 18:38 30.05.2020
2325 Clouds 13 1011 45 16093 5.7 340 18:18 30.05.2020
2326 Clear 13 1012 37 16093 6.2 350 17:39 30.05.2020
2327 Clear 13 1012 37 16093 6.2 350 17:20 30.05.2020
2328 Clouds 12 1012 49 16093 5.7 360 16:44 30.05.2020
2329 Clouds 12 1012 50 16093 5.7 360 16:23 30.05.2020
2330 Clouds 12 1013 50 16093 5.7 340 15:58 30.05.2020
2331 Clouds 12 1013 50 16093 5.7 340 15:39 30.05.2020
2332 Clouds 12 1013 50 16093 5.7 340 15:21 30.05.2020
2333 Clear 12 1013 46 16093 5.1 10 14:42 30.05.2020
2334 Clear 12 1013 46 16093 5.1 10 14:22 30.05.2020
2335 Clear 11 1014 53 16093 5.7 350 13:42 30.05.2020
2336 Clear 12 1014 53 16093 5.7 350 13:20 30.05.2020
2337 Clear 12 1015 53 16093 5.1 30 12:42 30.05.2020
2338 Clear 13 1015 52 16093 5.1 30 12:20 30.05.2020
2339 Clear 13 1015 50 16093 5.7 30 11:56 30.05.2020
2340 Clear 13 1015 50 16093 5.7 30 11:38 30.05.2020
2341 Clear 12 1015 50 16093 5.7 30 11:20 30.05.2020
2342 Clear 13 1015 50 16093 3.1 330 10:40 30.05.2020
2343 Clear 13 1015 50 16093 3.1 330 10:21 30.05.2020
2344 Clear 14 1016 47 16093 5.1 310 09:49 30.05.2020
2345 Clear 15 1016 47 16093 5.1 310 09:31 30.05.2020
2346 Clear 16 1016 36 16093 6.2 310 08:51 30.05.2020
2347 Clear 16 1016 36 16093 6.2 310 08:51 30.05.2020
2348 Clear 17 1016 36 16093 6.2 310 08:32 30.05.2020
2349 Clear 17 1017 33 16093 5.1 270 07:45 30.05.2020
2350 Clear 17 1017 33 16093 5.1 270 07:24 30.05.2020
2351 Clear 17 1018 42 16093 5.7 270 06:52 30.05.2020
2352 Clear 17 1018 41 16093 5.7 270 06:23 30.05.2020
2353 Clear 17 1019 31 16093 5.1 260 05:49 30.05.2020
2354 Clear 14 1020 43 16093 4.6 250 03:46 30.05.2020
2355 Clear 13 1021 54 16093 5.1 260 02:30 30.05.2020
2356 Clear 13 1022 54 16093 5.7 260 01:50 30.05.2020
2357 Clear 12 1022 53 16093 5.1 260 00:40 30.05.2020
2358 Clear 12 1022 53 16093 5.1 260 00:21 30.05.2020
2359 Clear 12 1023 57 16093 5.1 260 23:58 29.05.2020
2360 Clear 11 1023 57 16093 5.1 260 23:38 29.05.2020
2361 Clear 11 1023 57 16093 5.1 260 23:18 29.05.2020
2362 Clear 10 1023 53 16093 4.1 250 22:41 29.05.2020
2363 Clear 10 1023 53 16093 4.1 250 22:21 29.05.2020
2364 Clear 10 1024 53 16093 3.1 250 21:59 29.05.2020
2365 Clear 10 1024 53 16093 3.1 250 21:58 29.05.2020
2366 Clear 10 1024 53 16093 3.1 250 21:38 29.05.2020
2367 Clear 10 1024 53 16093 3.1 250 21:20 29.05.2020
2368 Clear 9 1024 70 16093 2.6 200 20:45 29.05.2020
2369 Clear 9 1024 70 16093 2.6 200 20:21 29.05.2020
2370 Clear 8 1025 65 16093 2.1 330 19:59 29.05.2020
2371 Clear 9 1025 65 16093 2.1 330 19:41 29.05.2020
2372 Clear 8 1025 65 16093 2.1 330 19:23 29.05.2020
2373 Clear 6 1025 80 16093 3.1 320 18:47 29.05.2020
2374 Clear 5 1025 80 16093 3.1 320 18:47 29.05.2020
2375 Clear 4 1025 80 16093 3.1 320 18:21 29.05.2020
2376 Clear 3 1026 80 16093 3.6 310 17:57 29.05.2020
2377 Clear 2 1026 80 16093 3.6 310 17:38 29.05.2020
2378 Clear 2 1026 80 16093 3.6 310 17:38 29.05.2020
2379 Clear 2 1026 80 16093 3.6 310 17:19 29.05.2020
2380 Clear 1 1026 86 16093 1.64 309 16:45 29.05.2020
2381 Clear 1 1026 86 16093 1.64 298 16:27 29.05.2020
2382 Clear 1 1026 86 16093 1.64 298 15:57 29.05.2020
2383 Clear 1 1026 86 16093 1.64 298 15:39 29.05.2020
2384 Clear 1 1026 86 16093 1.5 296 15:20 29.05.2020
2385 Clear 1 1026 86 16093 1.5 296 14:51 29.05.2020
2386 Clear 1 1026 86 16093 1.31 292 14:24 29.05.2020
2387 Clear 2 1027 93 16093 1.33 295 13:58 29.05.2020
2388 Clear 2 1027 93 16093 1.33 295 13:40 29.05.2020
2389 Clear 2 1027 93 16093 1.27 293 13:21 29.05.2020
2390 Clear 3 1027 93 16093 1.27 293 12:44 29.05.2020
2391 Clear 4 1027 93 16093 1.12 289 12:25 29.05.2020
2392 Clear 4 1027 86 16093 1.5 340 11:46 29.05.2020
2393 Clear 5 1027 86 16093 1.5 340 11:27 29.05.2020
2394 Clear 6 1027 81 16093 2.1 300 10:59 29.05.2020
2395 Clear 6 1027 81 16093 2.1 300 10:40 29.05.2020
2396 Clear 7 1027 81 16093 2.1 300 10:21 29.05.2020
2397 Clear 7 1027 75 16093 2.6 260 09:55 29.05.2020
2398 Clear 7 1027 75 16093 2.6 260 09:55 29.05.2020
2399 Clear 7 1027 75 16093 2.6 260 09:37 29.05.2020
2400 Clear 8 1027 75 16093 2.6 260 09:18 29.05.2020
2401 Clear 8 1027 75 16093 3.1 240 08:44 29.05.2020
2402 Clear 8 1027 75 16093 3.1 240 08:21 29.05.2020
2403 Clear 8 1027 75 16093 3.1 220 07:46 29.05.2020
2404 Clear 8 1027 75 16093 3.1 220 07:27 29.05.2020
2405 Clear 8 1028 75 16093 3.1 220 06:49 29.05.2020
2406 Clear 8 1028 75 16093 3.1 220 06:29 29.05.2020
2407 Clear 8 1028 81 16093 3.1 200 05:56 29.05.2020
2408 Clear 8 1028 75 16093 3.6 160 03:55 29.05.2020
2409 Clouds 8 1029 75 16093 3.1 160 01:48 29.05.2020
2410 Clouds 8 1029 75 16093 3.1 160 01:25 29.05.2020
2411 Clouds 8 1029 81 16093 3.6 170 00:49 29.05.2020
2412 Clouds 7 1029 81 16093 3.6 170 00:23 29.05.2020
2413 Clouds 7 1029 87 16093 3.6 160 23:41 28.05.2020
2414 Clouds 7 1029 87 16093 3.6 160 23:41 28.05.2020
2415 Clouds 7 1029 87 16093 3.6 160 23:19 28.05.2020
2416 Clouds 7 1029 87 16093 3.6 160 23:19 28.05.2020
2417 Clouds 7 1029 87 16093 3.1 170 22:58 28.05.2020
2418 Clouds 7 1029 87 16093 3.1 170 22:39 28.05.2020
2419 Clouds 6 1029 87 16093 3.1 170 22:18 28.05.2020
2420 Clouds 7 1029 87 16093 2.1 200 21:54 28.05.2020
2421 Clouds 7 1029 87 16093 2.1 200 21:36 28.05.2020
2422 Clouds 6 1029 87 16093 2.1 200 21:18 28.05.2020
2423 Clouds 6 1029 87 16093 1.5 160 20:40 28.05.2020
2424 Clouds 6 1029 87 16093 1.5 160 20:19 28.05.2020
2425 Clouds 5 1029 93 16093 1.03 214 19:58 28.05.2020
2426 Clouds 5 1029 93 16093 1.03 214 19:40 28.05.2020
2427 Clouds 5 1029 93 16093 0.47 234 19:20 28.05.2020
2428 Clear 4 1028 93 16093 0.47 234 18:54 28.05.2020
2429 Clear 4 1028 93 16093 0.47 234 18:36 28.05.2020
2430 Clear 3 1028 93 16093 0.49 250 18:18 28.05.2020
2431 Clouds 3 1028 100 16093 0.49 250 17:40 28.05.2020
2432 Clouds 3 1028 100 16093 0.39 252 17:21 28.05.2020
2433 Mist 2 1028 100 6437 0.39 252 16:46 28.05.2020
2434 Mist 2 1028 100 6437 0.69 249 16:21 28.05.2020
2435 Fog 2 1028 93 805 0.69 249 15:55 28.05.2020
2436 Mist 2 1028 100 2816 2.1 330 15:36 28.05.2020
2437 Clouds 3 1028 100 16093 1.01 239 15:18 28.05.2020
2438 Clouds 3 1028 100 16093 1.01 239 14:42 28.05.2020
2439 Clouds 3 1028 100 16093 1.48 228 14:22 28.05.2020
2440 Clouds 4 1027 93 16093 1.5 90 13:46 28.05.2020
2441 Clouds 4 1027 93 16093 1.5 90 13:27 28.05.2020
2442 Clouds 4 1027 100 16093 1.5 80 12:44 28.05.2020
2443 Clouds 4 1027 100 16093 1.5 80 12:20 28.05.2020
2444 Clouds 4 1027 93 16093 2.57 202 11:57 28.05.2020
2445 Clouds 4 1027 93 16093 1.5 40 11:39 28.05.2020
2446 Clouds 4 1027 93 16093 1.5 40 11:20 28.05.2020
2447 Clouds 4 1027 93 16093 2.1 130 10:46 28.05.2020
2448 Clouds 4 1027 93 16093 2.1 130 10:28 28.05.2020
2449 Clouds 5 1026 87 16093 3.6 130 09:57 28.05.2020
2450 Clouds 5 1026 87 16093 3.6 130 09:38 28.05.2020
2451 Clouds 5 1026 87 16093 3.6 130 09:18 28.05.2020
2452 Clouds 6 1026 87 16093 5.1 130 08:44 28.05.2020
2453 Clouds 6 1026 87 16093 5.1 130 08:24 28.05.2020
2454 Clouds 6 1026 87 16093 3.6 150 07:43 28.05.2020
2455 Clouds 6 1026 87 16093 3.6 150 07:23 28.05.2020
2456 Clouds 7 1026 87 16093 5.1 140 06:45 28.05.2020
2457 Clouds 7 1026 87 16093 5.1 140 06:27 28.05.2020
2458 Clouds 7 1025 81 16093 4.6 140 05:40 28.05.2020
2459 Clouds 8 1025 75 16093 4.1 150 04:39 28.05.2020
2460 Clouds 8 1025 75 16093 4.1 150 04:20 28.05.2020
2461 Clouds 7 1025 87 16093 3.6 150 02:59 28.05.2020
2462 Clouds 7 1025 87 16093 3.6 150 02:38 28.05.2020
2463 Mist 6 1025 93 4828 4.6 140 01:45 28.05.2020
2464 Rain 5 1025 93 3219 3.6 150 00:50 28.05.2020
2465 Rain 5 1025 93 4023 3.6 130 00:21 28.05.2020
2466 Rain 5 1025 93 11265 2.6 130 23:56 27.05.2020
2467 Rain 5 1025 93 8047 2.1 140 23:38 27.05.2020
2468 Rain 5 1025 93 8047 2.1 140 23:19 27.05.2020
2469 Rain 5 1024 93 6437 5.1 120 22:43 27.05.2020
2470 Rain 5 1024 93 6437 5.1 120 22:23 27.05.2020
2471 Rain 5 1024 93 11265 3.1 120 21:57 27.05.2020
2472 Clouds 5 1024 93 16093 4.6 150 21:39 27.05.2020
2473 Clouds 5 1024 93 16093 4.6 150 21:20 27.05.2020
2474 Clouds 5 1023 100 16093 4.6 150 20:58 27.05.2020
2475 Clouds 5 1023 100 16093 4.6 150 20:39 27.05.2020
2476 Clouds 5 1023 100 16093 4.6 150 20:39 27.05.2020
2477 Clouds 5 1023 100 16093 4.6 150 20:20 27.05.2020
2478 Clouds 5 1023 87 16093 5.7 130 19:46 27.05.2020
2479 Clouds 5 1023 87 16093 5.7 130 19:21 27.05.2020
2480 Rain 6 1023 87 16093 4.1 120 18:56 27.05.2020
2481 Clouds 5 1022 93 16093 3.6 80 18:37 27.05.2020
2482 Clouds 5 1022 93 16093 3.6 80 18:18 27.05.2020
2483 Clouds 5 1022 86 16093 2.1 90 17:42 27.05.2020
2484 Clouds 5 1022 86 16093 2.1 90 17:24 27.05.2020
2485 Clouds 5 1022 87 16093 2.1 150 16:56 27.05.2020
2486 Clouds 5 1022 86 16093 2.1 40 16:38 27.05.2020
2487 Clouds 5 1022 86 16093 2.1 40 16:38 27.05.2020
2488 Clouds 5 1022 86 16093 2.1 40 16:20 27.05.2020
2489 Clouds 4 1022 100 16093 1.7 118 15:49 27.05.2020
2490 Clouds 4 1021 93 16093 2.6 180 15:23 27.05.2020
2491 Clouds 4 1021 93 16093 3.1 150 14:58 27.05.2020
2492 Rain 4 1021 93 14484 3.1 150 14:39 27.05.2020
2493 Rain 4 1021 93 14484 3.1 150 14:20 27.05.2020
2494 Rain 4 1020 93 16093 4.1 120 13:42 27.05.2020
2495 Clouds 4 1020 93 16093 4.1 120 13:24 27.05.2020
2496 Clouds 5 1019 81 16093 3.6 100 12:43 27.05.2020
2497 Clouds 5 1019 81 16093 3.6 100 12:24 27.05.2020
2498 Rain 6 1019 87 16093 5.1 130 11:59 27.05.2020
2499 Rain 6 1019 87 16093 5.1 130 11:37 27.05.2020
2500 Rain 6 1019 87 16093 5.1 130 11:19 27.05.2020
2501 Rain 6 1018 81 16093 5.1 110 10:55 27.05.2020
2502 Rain 6 1018 81 16093 5.1 110 10:36 27.05.2020
2503 Clouds 6 1018 81 16093 5.1 110 10:18 27.05.2020
2504 Clouds 8 1018 75 16093 6.2 120 09:40 27.05.2020
2505 Clouds 8 1018 75 16093 6.2 120 09:21 27.05.2020
2506 Clouds 8 1017 81 16093 6.2 120 08:43 27.05.2020
2507 Clouds 8 1017 81 16093 6.2 120 08:25 27.05.2020
2508 Clouds 8 1017 70 16093 4.6 150 07:57 27.05.2020
2509 Clouds 8 1017 70 16093 4.6 150 07:38 27.05.2020
2510 Clouds 8 1017 70 16093 4.6 150 07:20 27.05.2020
2511 Clear 9 1016 76 16093 4.1 150 06:41 27.05.2020
2512 Clear 10 1016 76 16093 4.1 150 06:19 27.05.2020
2513 Clear 11 1016 58 16093 4.5 139 05:47 27.05.2020
2514 Clear 10 1015 81 16093 2.1 140 04:20 27.05.2020
2515 Clouds 8 1015 75 16093 7.7 140 02:30 27.05.2020
2516 Clouds 9 1014 66 16093 6.7 140 01:53 27.05.2020
2517 Clouds 10 1014 66 16093 6.7 140 01:24 27.05.2020
2518 Clouds 10 1014 66 16093 7.2 130 00:45 27.05.2020
2519 Clouds 10 1014 66 16093 7.2 130 00:19 27.05.2020
2520 Clouds 10 1014 53 16093 6.7 140 23:44 26.05.2020
2521 Clouds 11 1014 53 16093 6.7 140 23:25 26.05.2020
2522 Clouds 11 1013 53 16093 5.7 130 22:59 26.05.2020
2523 Clouds 10 1013 53 16093 5.7 130 22:39 26.05.2020
2524 Clouds 11 1013 53 16093 5.7 130 22:21 26.05.2020
2525 Clouds 11 1013 46 16093 6.7 110 21:57 26.05.2020
2526 Clouds 12 1013 46 16093 6.7 110 21:39 26.05.2020
2527 Clouds 12 1013 46 16093 6.7 110 21:20 26.05.2020
2528 Clouds 12 1012 53 16093 4.1 30 20:43 26.05.2020
2529 Clouds 12 1012 53 16093 4.1 30 20:43 26.05.2020
2530 Clouds 11 1012 53 16093 4.1 30 20:21 26.05.2020
2531 Clouds 10 1012 61 16093 2.1 40 19:57 26.05.2020
2532 Clouds 9 1012 61 16093 2.1 40 19:37 26.05.2020
2533 Clouds 9 1012 61 16093 2.1 40 19:19 26.05.2020
2534 Clouds 8 1012 61 16093 2.14 52 18:43 26.05.2020
2535 Clouds 8 1012 61 16093 1.7 50 18:22 26.05.2020
2536 Rain 7 1012 61 16093 3.6 350 17:57 26.05.2020
2537 Rain 7 1012 61 16093 3.6 350 17:38 26.05.2020
2538 Rain 7 1012 61 16093 3.6 350 17:20 26.05.2020
2539 Clouds 6 1012 61 16093 2.1 10 16:42 26.05.2020
2540 Clouds 6 1012 61 16093 2.1 10 16:20 26.05.2020
2541 Clouds 5 1012 65 16093 3.6 350 15:55 26.05.2020
2542 Clouds 5 1012 65 16093 3.6 350 15:36 26.05.2020
2543 Clouds 5 1012 65 16093 3.6 350 15:18 26.05.2020
2544 Clouds 4 1012 75 16093 1.31 30 14:43 26.05.2020
2545 Clouds 4 1012 75 16093 1.29 9 14:22 26.05.2020
2546 Clouds 4 1012 80 16093 1.49 14 13:55 26.05.2020
2547 Clouds 4 1012 80 16093 1.49 14 13:37 26.05.2020
2548 Clouds 4 1012 80 16093 1.46 339 13:18 26.05.2020
2549 Clear 3 1011 67 16093 2.1 330 12:41 26.05.2020
2550 Clear 3 1011 66 16093 2.1 330 12:20 26.05.2020
2551 Clear 4 1012 86 16093 2.1 330 11:57 26.05.2020
2552 Clear 4 1012 86 16093 2.1 330 11:39 26.05.2020
2553 Clear 3 1012 86 16093 2.1 330 11:18 26.05.2020
2554 Clear 5 1012 75 16093 1.5 250 10:41 26.05.2020
2555 Clear 5 1012 75 16093 1.5 250 10:41 26.05.2020
2556 Clear 6 1012 75 16093 1.5 250 10:19 26.05.2020
2557 Clear 8 1011 65 16093 0.32 302 09:40 26.05.2020
2558 Clear 8 1011 65 16093 0.4 270 09:20 26.05.2020
2559 Clear 8 1011 70 16093 1.5 150 08:43 26.05.2020
2560 Clear 9 1011 70 16093 1.5 150 08:22 26.05.2020
2561 Clear 10 1011 65 16093 2.1 170 07:57 26.05.2020
2562 Clear 10 1011 65 16093 2.1 170 07:37 26.05.2020
2563 Clear 10 1011 65 16093 2.1 170 07:18 26.05.2020
2564 Clear 9 1011 75 16093 4.1 150 06:45 26.05.2020
2565 Clear 9 1011 81 16093 3.6 150 05:55 26.05.2020
2566 Clear 9 1011 81 16093 3.6 150 05:35 26.05.2020
2567 Clear 9 1011 65 16093 3.1 160 04:55 26.05.2020
2568 Clear 9 1011 65 16093 3.1 160 04:34 26.05.2020
2569 Clear 9 1011 81 16093 3.6 160 03:59 26.05.2020
2570 Clear 8 1010 87 16093 4.6 150 02:49 26.05.2020
2571 Clouds 8 1010 87 16093 4.6 150 01:49 26.05.2020
2572 Clouds 7 1010 87 16093 4.6 150 01:28 26.05.2020
2573 Clouds 7 1010 93 16093 5.7 150 00:39 26.05.2020
2574 Clouds 7 1010 93 16093 5.7 150 00:19 26.05.2020
2575 Clouds 7 1009 86 16093 5.1 140 23:56 25.05.2020
2576 Clouds 7 1009 86 16093 5.1 140 23:38 25.05.2020
2577 Clouds 6 1009 86 16093 5.1 140 23:18 25.05.2020
2578 Clouds 7 1008 93 16093 4.6 140 22:55 25.05.2020
2579 Clouds 7 1008 93 16093 4.6 140 22:36 25.05.2020
2580 Clouds 7 1008 93 16093 4.6 140 22:18 25.05.2020
2581 Clouds 7 1008 93 16093 4.6 140 22:18 25.05.2020
2582 Clouds 7 1008 93 16093 4.6 140 22:18 25.05.2020
2583 Clouds 6 1007 93 16093 4.6 140 21:55 25.05.2020
2584 Clouds 6 1007 93 16093 4.6 140 21:36 25.05.2020
2585 Clouds 6 1007 93 16093 4.6 140 21:36 25.05.2020
2586 Clouds 5 1007 93 16093 4.6 140 21:18 25.05.2020
2587 Clouds 6 1007 93 16093 5.1 130 20:42 25.05.2020
2588 Clouds 6 1007 93 16093 5.1 130 20:22 25.05.2020
2589 Clouds 6 1007 93 16093 5.1 130 20:22 25.05.2020
2590 Clouds 6 1007 100 16093 4.1 130 19:59 25.05.2020
2591 Clouds 5 1007 100 16093 4.1 130 19:41 25.05.2020
2592 Clouds 5 1007 100 16093 4.1 130 19:19 25.05.2020
2593 Clouds 4 1006 93 16093 4.1 130 18:57 25.05.2020
2594 Clouds 4 1006 93 16093 4.1 130 18:38 25.05.2020
2595 Clouds 4 1006 93 16093 4.1 130 18:20 25.05.2020
2596 Rain 4 1005 93 6437 3.1 130 17:44 25.05.2020
2597 Rain 4 1005 93 6437 3.1 130 17:23 25.05.2020
2598 Clouds 4 1005 93 16093 3.6 100 16:57 25.05.2020
2599 Clouds 5 1004 87 16093 3.1 170 16:39 25.05.2020
2600 Clouds 5 1004 87 16093 3.1 170 16:20 25.05.2020
2601 Rain 5 1003 86 16093 3.1 180 15:44 25.05.2020
2602 Rain 4 1002 100 16093 3.1 120 15:20 25.05.2020
2603 Rain 4 1002 100 16093 3.1 120 14:59 25.05.2020
2604 Rain 5 1002 100 16093 3.1 120 14:39 25.05.2020
2605 Rain 4 1002 100 16093 3.1 120 14:21 25.05.2020
2606 Rain 4 1001 93 16093 3.1 100 13:40 25.05.2020
2607 Rain 4 1001 93 16093 3.1 100 13:21 25.05.2020
2608 Rain 4 1001 100 16093 3.1 120 12:59 25.05.2020
2609 Rain 5 1001 93 16093 4.1 130 12:39 25.05.2020
2610 Rain 5 1001 93 16093 4.1 130 12:20 25.05.2020
2611 Rain 6 1000 93 16093 5.7 120 11:40 25.05.2020
2612 Rain 7 1000 93 16093 5.7 120 11:21 25.05.2020
2613 Rain 8 1000 93 16093 3.6 90 10:59 25.05.2020
2614 Rain 8 1000 93 8047 2.6 100 10:41 25.05.2020
2615 Rain 8 1000 93 8047 2.6 100 10:20 25.05.2020
2616 Rain 7 1000 93 11265 1.5 120 09:55 25.05.2020
2617 Rain 7 999 93 6437 2.1 100 09:36 25.05.2020
2618 Rain 7 999 93 6437 2.6 160 09:18 25.05.2020
2619 Rain 7 999 93 6437 2.1 100 09:18 25.05.2020
2620 Rain 7 999 93 6437 2.6 160 08:40 25.05.2020
2621 Rain 7 999 93 6437 2.6 160 08:21 25.05.2020
2622 Rain 7 999 87 8047 1.5 200 07:58 25.05.2020
2623 Rain 7 998 81 16093 2.88 165 07:39 25.05.2020
2624 Rain 8 998 81 16093 1.61 155 07:19 25.05.2020
2625 Clouds 9 998 76 16093 1.61 155 06:41 25.05.2020
2626 Clouds 9 998 76 16093 0.83 121 06:19 25.05.2020
2627 Rain 12 997 66 16093 5.7 40 03:31 25.05.2020
2628 Clouds 11 997 62 16093 6.2 40 02:57 25.05.2020
2629 Clouds 11 997 62 16093 6.2 40 02:36 25.05.2020
2630 Clouds 11 997 62 16093 6.7 40 01:42 25.05.2020
2631 Clouds 12 997 58 16093 5.1 60 00:49 25.05.2020
2632 Clouds 12 997 58 16093 5.1 60 00:31 25.05.2020
2633 Clouds 11 997 54 16093 5.7 40 23:59 24.05.2020
2634 Clouds 12 997 54 16093 5.7 40 23:39 24.05.2020
2635 Clouds 12 997 54 16093 5.7 40 23:39 24.05.2020
2636 Clouds 12 997 54 16093 5.7 40 23:21 24.05.2020
2637 Clouds 11 997 62 16093 6.2 30 22:58 24.05.2020
2638 Clouds 11 997 62 16093 6.2 30 22:39 24.05.2020
2639 Clouds 11 997 62 16093 6.2 30 22:18 24.05.2020
2640 Clouds 11 997 71 16093 5.7 350 21:55 24.05.2020
2641 Clouds 11 997 71 16093 5.7 350 21:37 24.05.2020
2642 Clouds 10 997 71 16093 5.7 350 21:18 24.05.2020
2643 Rain 9 997 81 12874 6.7 360 20:43 24.05.2020
2644 Rain 9 997 81 12874 6.7 360 20:21 24.05.2020
2645 Clouds 8 997 81 16093 6.7 350 19:56 24.05.2020
2646 Clouds 9 997 81 16093 6.7 350 19:38 24.05.2020
2647 Clouds 9 997 81 16093 6.7 350 19:19 24.05.2020
2648 Clouds 8 997 81 16093 6.2 360 18:43 24.05.2020
2649 Clouds 9 997 81 16093 6.2 360 18:23 24.05.2020
2650 Clouds 8 997 81 16093 6.2 340 17:59 24.05.2020
2651 Clouds 8 997 81 16093 6.2 340 17:40 24.05.2020
2652 Clouds 8 997 81 16093 6.2 340 17:21 24.05.2020
2653 Clouds 8 997 70 16093 9.8 30 16:56 24.05.2020
2654 Clouds 8 997 70 16093 9.8 30 16:38 24.05.2020
2655 Clouds 8 997 70 16093 9.8 30 16:19 24.05.2020
2656 Clouds 8 998 76 16093 8.7 30 15:56 24.05.2020
2657 Clouds 8 998 76 16093 8.7 30 15:38 24.05.2020
2658 Clouds 8 998 76 16093 8.7 30 15:18 24.05.2020
2659 Rain 8 998 76 16093 7.7 30 14:44 24.05.2020
2660 Rain 8 998 76 16093 7.7 30 14:24 24.05.2020
2661 Rain 8 998 76 16093 7.7 30 14:24 24.05.2020
2662 Rain 8 998 75 16093 4.1 360 13:57 24.05.2020
2663 Rain 8 998 75 16093 4.1 360 13:39 24.05.2020
2664 Rain 7 998 75 16093 4.1 360 13:21 24.05.2020
2665 Clouds 9 999 66 16093 3.1 350 12:58 24.05.2020
2666 Clouds 9 999 66 16093 3.1 350 12:40 24.05.2020
2667 Clouds 9 999 66 16093 3.1 350 12:22 24.05.2020
2668 Clouds 10 999 62 16093 5.1 40 11:56 24.05.2020
2669 Clouds 10 999 62 16093 5.1 40 11:38 24.05.2020
2670 Clouds 10 999 71 16093 7.7 350 11:20 24.05.2020
2671 Clouds 10 999 71 16093 7.7 350 10:55 24.05.2020
2672 Clouds 10 999 71 16093 7.7 350 10:37 24.05.2020
2673 Clouds 10 999 71 16093 7.7 350 10:18 24.05.2020
2674 Clouds 11 999 71 16093 7.2 350 09:41 24.05.2020
2675 Clouds 11 999 71 16093 7.2 350 09:18 24.05.2020
2676 Clouds 11 999 66 16093 6.7 340 08:56 24.05.2020
2677 Clouds 12 999 66 16093 6.7 340 08:37 24.05.2020
2678 Clouds 12 999 66 16093 6.7 340 08:19 24.05.2020
2679 Clouds 12 999 66 16093 7.2 20 07:42 24.05.2020
2680 Clouds 12 999 66 16093 7.2 20 07:24 24.05.2020
2681 Clouds 12 1000 76 16093 5.1 360 06:47 24.05.2020
2682 Clouds 12 1000 76 16093 5.1 360 06:25 24.05.2020
2683 Rain 12 1000 62 16093 3.1 220 04:52 24.05.2020
2684 Clouds 13 1001 62 16093 1.5 0 03:41 24.05.2020
2685 Clear 13 1001 62 16093 4.6 170 02:31 24.05.2020
2686 Clouds 12 1001 66 16093 4.1 150 01:46 24.05.2020
2687 Clouds 13 1002 66 16093 4.1 150 00:39 24.05.2020
2688 Clouds 13 1002 66 16093 4.1 150 00:21 24.05.2020
2689 Clear 13 1002 62 16093 6.2 140 23:43 23.05.2020
2690 Clear 12 1002 62 16093 6.2 140 23:23 23.05.2020
2691 Clear 13 1002 62 16093 5.7 130 22:57 23.05.2020
2692 Clear 13 1002 62 16093 5.7 130 22:38 23.05.2020
2693 Clear 13 1002 62 16093 5.7 130 22:20 23.05.2020
2694 Clear 12 1002 62 16093 4.6 100 21:57 23.05.2020
2695 Clear 12 1002 62 16093 4.6 100 21:37 23.05.2020
2696 Clear 12 1002 62 16093 4.6 100 21:19 23.05.2020
2697 Clear 12 1002 58 16093 5.7 90 20:57 23.05.2020
2698 Clear 12 1002 58 16093 5.7 90 20:38 23.05.2020
2699 Clear 12 1002 58 16093 5.7 90 20:18 23.05.2020
2700 Clouds 11 1002 62 16093 3.6 80 19:42 23.05.2020
2701 Clouds 11 1002 62 16093 3.6 80 19:20 23.05.2020
2702 Clouds 10 1002 66 16093 4.1 90 18:58 23.05.2020
2703 Clouds 10 1002 66 16093 4.1 90 18:40 23.05.2020
2704 Clouds 10 1002 66 16093 4.1 90 18:21 23.05.2020
2705 Clear 8 1002 75 16093 2.1 330 17:55 23.05.2020
2706 Clear 8 1002 75 16093 2.1 330 17:37 23.05.2020
2707 Clear 7 1002 75 16093 2.1 330 17:19 23.05.2020
2708 Clear 6 1002 75 16093 3.6 30 16:56 23.05.2020
2709 Clear 5 1002 75 16093 3.6 30 16:38 23.05.2020
2710 Clear 5 1002 75 16093 3.6 30 16:19 23.05.2020
2711 Clouds 6 1002 75 16093 2.1 360 15:42 23.05.2020
2712 Clouds 5 1002 75 16093 2.1 360 15:24 23.05.2020
2713 Clouds 5 1002 75 16093 2.1 360 15:24 23.05.2020
2714 Clear 6 1002 75 16093 4.1 350 14:58 23.05.2020
2715 Clear 4 1002 75 16093 4.1 350 14:39 23.05.2020
2716 Clear 6 1002 75 16093 4.1 350 14:21 23.05.2020
2717 Clouds 6 1003 75 16093 1.5 360 13:40 23.05.2020
2718 Clouds 4 1003 75 16093 1.5 360 13:19 23.05.2020
2719 Clear 4 1003 80 16093 1.9 59 12:56 23.05.2020
2720 Clear 4 1003 80 16093 1.9 59 12:37 23.05.2020
2721 Clear 5 1003 80 16093 1.82 65 12:18 23.05.2020
2722 Clear 6 1003 81 16093 1.5 350 11:43 23.05.2020
2723 Clear 6 1003 81 16093 1.5 350 11:21 23.05.2020
2724 Clear 6 1003 75 16093 2.1 320 10:57 23.05.2020
2725 Clear 6 1003 75 16093 2.1 320 10:39 23.05.2020
2726 Clear 7 1003 75 16093 2.1 320 10:20 23.05.2020
2727 Clear 9 1003 61 16093 1.5 300 09:56 23.05.2020
2728 Clear 9 1003 61 16093 1.5 300 09:38 23.05.2020
2729 Clear 10 1003 61 16093 1.5 300 09:20 23.05.2020
2730 Clear 10 1002 66 16093 2.1 210 08:42 23.05.2020
2731 Clear 10 1002 66 16093 2.1 210 08:19 23.05.2020
2732 Clear 10 1002 66 16093 3.1 160 07:47 23.05.2020
2733 Clear 10 1002 66 16093 3.1 160 07:29 23.05.2020
2734 Clouds 10 1002 66 16093 3.6 160 06:55 23.05.2020
2735 Clouds 10 1002 66 16093 3.6 160 06:36 23.05.2020
2736 Clouds 10 1002 66 16093 3.6 160 04:56 23.05.2020
2737 Clouds 12 1002 62 16093 5.1 130 03:30 23.05.2020
2738 Clouds 10 1002 66 16093 7.2 130 02:57 23.05.2020
2739 Clouds 9 1002 66 16093 5.7 140 01:57 23.05.2020
2740 Clouds 10 1002 66 16093 5.7 140 01:21 23.05.2020
2741 Clouds 10 1002 66 16093 4.6 140 00:46 23.05.2020
2742 Clouds 10 1002 66 16093 4.6 140 00:25 23.05.2020
2743 Clouds 10 1002 66 16093 5.7 80 23:57 22.05.2020
2744 Clouds 10 1002 66 16093 5.7 80 23:38 22.05.2020
2745 Clouds 10 1002 66 16093 5.7 80 23:18 22.05.2020
2746 Clouds 9 1002 81 16093 5.1 90 22:42 22.05.2020
2747 Clouds 9 1002 81 16093 5.1 90 22:21 22.05.2020
2748 Rain 9 1002 81 16093 5.7 90 21:57 22.05.2020
2749 Rain 9 1002 81 16093 5.7 90 21:38 22.05.2020
2750 Rain 9 1002 81 16093 5.7 90 21:20 22.05.2020
2751 Clouds 9 1002 70 16093 6.7 90 20:45 22.05.2020
2752 Clouds 9 1002 70 16093 6.7 90 20:21 22.05.2020
2753 Clouds 8 1002 75 16093 6.2 90 19:59 22.05.2020
2754 Clouds 8 1002 75 16093 6.2 90 19:37 22.05.2020
2755 Clouds 8 1002 75 16093 6.2 90 19:18 22.05.2020
2756 Rain 9 1002 70 16093 5.7 80 18:39 22.05.2020
2757 Rain 9 1002 70 16093 5.7 80 18:19 22.05.2020
2758 Clouds 9 1002 70 16093 2.6 70 17:56 22.05.2020
2759 Clouds 9 1002 70 16093 2.6 70 17:36 22.05.2020
2760 Clouds 9 1002 70 16093 2.6 70 17:18 22.05.2020
2761 Clouds 9 1002 70 16093 4.1 60 16:41 22.05.2020
2762 Clouds 9 1002 70 16093 4.1 60 16:20 22.05.2020
2763 Clouds 7 1002 81 16093 3.6 360 15:57 22.05.2020
2764 Clouds 7 1002 81 16093 3.6 360 15:39 22.05.2020
2765 Clouds 7 1002 81 16093 3.6 360 15:19 22.05.2020
2766 Clouds 7 1002 81 16093 3.6 360 15:19 22.05.2020
2767 Clouds 7 1003 75 16093 2.1 10 14:42 22.05.2020
2768 Clouds 7 1003 75 16093 2.1 10 14:24 22.05.2020
2769 Clouds 7 1003 81 16093 2.1 360 13:45 22.05.2020
2770 Clouds 7 1003 81 16093 2.1 360 13:20 22.05.2020
2771 Clouds 7 1003 81 16093 2.1 360 13:20 22.05.2020
2772 Clouds 7 1003 75 16093 2.6 70 12:44 22.05.2020
2773 Clouds 7 1003 75 16093 2.6 70 12:26 22.05.2020
2774 Clouds 7 1003 75 16093 3.6 80 11:59 22.05.2020
2775 Clouds 7 1003 75 16093 3.6 80 11:40 22.05.2020
2776 Clouds 7 1003 75 16093 3.6 80 11:20 22.05.2020
2777 Clouds 7 1003 81 16093 4.1 80 10:55 22.05.2020
2778 Clouds 7 1003 81 16093 4.1 80 10:36 22.05.2020
2779 Clouds 7 1003 81 16093 4.1 80 10:18 22.05.2020
2780 Clouds 7 1003 81 16093 3.1 70 09:41 22.05.2020
2781 Clouds 7 1003 81 16093 3.1 70 09:19 22.05.2020
2782 Clouds 7 1003 81 16093 3.1 70 09:19 22.05.2020
2783 Clouds 9 1002 71 16093 4.1 90 08:43 22.05.2020
2784 Clouds 9 1002 71 16093 4.1 90 08:21 22.05.2020
2785 Clouds 9 1002 76 16093 4.6 130 07:56 22.05.2020
2786 Clouds 9 1002 76 16093 4.6 130 07:27 22.05.2020
2787 Clouds 8 1002 81 16093 4.1 140 06:57 22.05.2020
2788 Clouds 8 1002 81 16093 4.6 100 06:36 22.05.2020
2789 Clouds 8 1002 87 16093 5.7 90 05:39 22.05.2020
2790 Clouds 8 1002 87 16093 5.7 90 05:39 22.05.2020
2791 Clouds 8 1002 87 16093 5.7 100 04:51 22.05.2020
2792 Clouds 8 1002 87 16093 6.2 90 04:24 22.05.2020
2793 Rain 8 1003 93 16093 5.7 100 03:47 22.05.2020
2794 Clouds 8 1003 93 16093 6.2 90 02:59 22.05.2020
2795 Rain 8 1003 93 16093 6.2 90 01:56 22.05.2020
2796 Rain 8 1003 93 16093 6.2 90 01:28 22.05.2020
2797 Clouds 8 1003 87 16093 6.2 110 00:48 22.05.2020
2798 Clouds 8 1003 87 16093 6.2 110 00:28 22.05.2020
2799 Rain 7 1003 93 16093 5.7 100 23:43 21.05.2020
2800 Rain 7 1003 93 16093 5.7 100 23:25 21.05.2020
2801 Rain 7 1003 87 16093 6.7 100 22:58 21.05.2020
2802 Rain 7 1003 87 16093 6.7 100 22:38 21.05.2020
2803 Rain 7 1003 87 16093 6.7 100 22:20 21.05.2020
2804 Mist 8 1003 87 8047 7.7 90 21:58 21.05.2020
2805 Rain 7 1003 87 8047 7.7 90 21:39 21.05.2020
2806 Rain 8 1003 87 8047 7.7 90 21:19 21.05.2020
2807 Rain 8 1003 87 16093 3.1 70 20:43 21.05.2020
2808 Rain 8 1003 87 16093 3.1 70 20:22 21.05.2020
2809 Rain 7 1003 87 16093 4.8 95 19:41 21.05.2020
2810 Rain 7 1003 87 16093 2.8 75 19:21 21.05.2020
2811 Rain 6 1004 87 16093 1.5 130 18:59 21.05.2020
2812 Clouds 6 1004 87 16093 2.8 75 18:39 21.05.2020
2813 Clouds 6 1004 87 16093 1.89 50 18:19 21.05.2020
2814 Rain 6 1004 87 16093 3.1 330 17:57 21.05.2020
2815 Rain 6 1004 87 16093 3.1 330 17:39 21.05.2020
2816 Rain 5 1004 87 16093 3.1 330 17:21 21.05.2020
2817 Clouds 4 1004 100 16093 1.99 20 16:45 21.05.2020
2818 Clouds 3 1004 100 16093 1.52 352 16:23 21.05.2020
2819 Clouds 4 1005 93 16093 1.52 352 15:45 21.05.2020
2820 Clouds 3 1005 93 16093 0.46 275 15:24 21.05.2020
2821 Clouds 3 1005 93 16093 1.5 350 14:56 21.05.2020
2822 Clouds 3 1005 93 16093 1.5 350 14:36 21.05.2020
2823 Clouds 3 1005 93 16093 1.5 350 14:18 21.05.2020
2824 Clouds 3 1006 93 16093 0.83 165 13:39 21.05.2020
2825 Clouds 3 1006 93 16093 0.83 165 13:39 21.05.2020
2826 Clouds 3 1006 93 16093 1.04 173 13:21 21.05.2020
2827 Clouds 3 1006 93 16093 1.5 310 12:55 21.05.2020
2828 Clouds 4 1006 93 16093 1.5 310 12:36 21.05.2020
2829 Clouds 4 1006 93 16093 1.5 310 12:18 21.05.2020
2830 Clouds 4 1007 93 16093 2.6 150 11:40 21.05.2020
2831 Clouds 4 1007 93 16093 2.6 150 11:40 21.05.2020
2832 Clouds 4 1007 93 16093 2.6 150 11:22 21.05.2020
2833 Clouds 5 1007 81 16093 1.5 50 10:55 21.05.2020
2834 Clouds 5 1007 81 16093 1.5 50 10:37 21.05.2020
2835 Clouds 5 1007 81 16093 1.5 50 10:18 21.05.2020
2836 Clouds 5 1007 86 16093 2.6 150 09:42 21.05.2020
2837 Clouds 5 1007 86 16093 2.6 150 09:24 21.05.2020
2838 Clouds 5 1007 86 16093 3.1 150 08:58 21.05.2020
2839 Clouds 5 1007 86 16093 3.1 150 08:39 21.05.2020
2840 Clouds 5 1007 86 16093 3.1 150 08:21 21.05.2020
2841 Clouds 6 1007 81 16093 3.1 140 07:43 21.05.2020
2842 Clouds 6 1007 81 16093 3.1 140 07:22 21.05.2020
2843 Clouds 6 1007 87 16093 3.1 130 06:44 21.05.2020
2844 Clouds 6 1008 87 16093 5.7 120 05:50 21.05.2020
2845 Clouds 6 1008 81 16093 5.1 120 04:25 21.05.2020
2846 Clouds 6 1008 81 16093 5.7 130 03:21 21.05.2020
2847 Clouds 6 1008 81 16093 5.7 130 03:21 21.05.2020
2848 Clouds 6 1008 81 16093 5.7 130 03:21 21.05.2020
2849 Clouds 6 1008 81 16093 5.7 130 03:21 21.05.2020
2850 Rain 6 1008 87 16093 6.2 90 02:31 21.05.2020
2851 Clouds 6 1008 81 16093 7.2 130 01:52 21.05.2020
2852 Clouds 6 1008 81 16093 7.2 130 01:24 21.05.2020
2853 Clouds 7 1007 65 16093 5.1 110 00:59 21.05.2020
2854 Clouds 7 1007 65 16093 5.1 110 00:41 21.05.2020
2855 Clouds 8 1007 65 16093 5.1 110 00:19 21.05.2020
2856 Clouds 8 1007 65 16093 5.1 110 00:19 21.05.2020
2857 Clouds 8 1007 49 16093 5.7 130 23:40 20.05.2020
2858 Clouds 9 1007 49 16093 5.7 130 23:19 20.05.2020
2859 Clouds 8 1007 56 16093 3.1 150 22:55 20.05.2020
2860 Clouds 8 1007 56 16093 3.1 150 22:55 20.05.2020
2861 Clouds 8 1007 56 16093 3.1 150 22:36 20.05.2020
2862 Clouds 8 1007 56 16093 3.1 150 22:18 20.05.2020
2863 Clouds 7 1007 52 16093 2.1 160 21:40 20.05.2020
2864 Clouds 7 1007 52 16093 2.1 160 21:20 20.05.2020
2865 Clear 8 1008 56 16093 3.1 200 20:44 20.05.2020
2866 Clear 7 1008 56 16093 3.1 200 20:24 20.05.2020
2867 Clear 7 1008 60 16093 2.17 71 19:54 20.05.2020
2868 Clear 7 1008 60 16093 2.17 71 19:36 20.05.2020
2869 Clear 7 1008 60 16093 2 40 19:18 20.05.2020
2870 Clear 5 1008 69 16093 1.5 110 18:42 20.05.2020
2871 Clear 4 1008 69 16093 1.5 110 18:21 20.05.2020
2872 Clear 4 1008 69 16093 1.5 130 17:41 20.05.2020
2873 Clear 4 1008 69 16093 1.5 130 17:22 20.05.2020
2874 Clear 3 1008 69 16093 2.1 360 16:56 20.05.2020
2875 Clear 3 1008 69 16093 2.1 360 16:38 20.05.2020
2876 Clear 3 1008 69 16093 2.1 360 16:19 20.05.2020
2877 Clear 3 1008 64 16093 1.95 26 15:43 20.05.2020
2878 Clear 4 1008 64 16093 1.81 26 15:25 20.05.2020
2879 Clear 5 1008 60 16093 2.6 10 14:45 20.05.2020
2880 Clear 4 1008 60 16093 2.6 10 14:24 20.05.2020
2881 Clear 5 1008 60 16093 3.1 340 13:56 20.05.2020
2882 Clear 6 1008 60 16093 3.1 340 13:37 20.05.2020
2883 Clear 7 1008 60 16093 3.1 340 13:18 20.05.2020
2884 Clear 6 1007 56 16093 4.6 340 12:42 20.05.2020
2885 Clear 7 1007 56 16093 4.6 340 12:21 20.05.2020
2886 Clear 7 1007 56 16093 4.6 340 11:38 20.05.2020
2887 Clear 7 1007 56 16093 4.6 340 11:20 20.05.2020
2888 Clear 8 1007 53 16093 5.1 360 10:44 20.05.2020
2889 Clear 8 1007 49 16093 5.1 360 10:23 20.05.2020
2890 Clear 8 1007 49 16093 5.1 360 10:23 20.05.2020
2891 Clear 9 1007 50 16093 5.7 350 09:58 20.05.2020
2892 Clear 10 1007 50 16093 5.7 350 09:40 20.05.2020
2893 Clear 10 1007 50 16093 5.7 350 09:20 20.05.2020
2894 Clear 12 1006 54 16093 5.7 350 08:42 20.05.2020
2895 Clear 12 1006 52 16093 5.7 350 08:19 20.05.2020
2896 Clear 12 1006 40 16093 4.6 270 07:50 20.05.2020
2897 Clear 12 1006 40 16093 4.6 270 07:23 20.05.2020
2898 Clear 10 1006 57 16093 3.6 250 06:52 20.05.2020
2899 Clear 11 1007 57 16093 4.1 240 05:59 20.05.2020
2900 Clear 10 1007 70 16093 4.1 210 04:38 20.05.2020
2901 Clear 11 1006 57 16093 4.1 240 03:58 20.05.2020
2902 Clear 11 1006 57 16093 4.1 240 03:29 20.05.2020
2903 Clear 10 1006 46 16093 3.6 220 01:41 20.05.2020
2904 Clear 10 1006 46 16093 3.6 220 01:23 20.05.2020
2905 Clear 9 1006 43 16093 3.6 220 00:40 20.05.2020
2906 Clear 9 1006 44 16093 3.6 220 00:20 20.05.2020
2907 Clear 11 1005 24 16093 3.6 30 23:36 19.05.2020
2908 Clear 13 1005 24 16093 3.6 30 23:18 19.05.2020
2909 Clear 13 1005 26 16093 5.7 360 22:55 19.05.2020
2910 Clear 13 1005 26 16093 5.7 360 22:36 19.05.2020
2911 Clear 13 1005 26 16093 5.7 360 22:18 19.05.2020
2912 Clear 12 1005 32 16093 7.2 360 21:55 19.05.2020
2913 Clear 12 1005 32 16093 7.2 360 21:36 19.05.2020
2914 Clear 12 1005 32 16093 7.2 360 21:18 19.05.2020
2915 Clear 11 1005 37 16093 6.7 360 20:54 19.05.2020
2916 Clear 11 1005 37 16093 6.7 360 20:36 19.05.2020
2917 Clear 11 1005 37 16093 6.7 360 20:36 19.05.2020
2918 Clear 11 1005 37 16093 6.7 360 20:18 19.05.2020
2919 Clear 9 1004 42 16093 7.2 10 19:37 19.05.2020
2920 Clear 9 1004 42 16093 7.2 10 19:19 19.05.2020
2921 Clear 9 1004 45 16093 4.6 360 18:44 19.05.2020
2922 Clear 8 1004 45 16093 4.6 360 18:22 19.05.2020
2923 Clear 7 1004 52 16093 6.2 10 17:57 19.05.2020
2924 Clear 7 1004 52 16093 6.2 10 17:38 19.05.2020
2925 Clear 7 1004 52 16093 6.2 10 17:19 19.05.2020
2926 Clear 7 1004 52 16093 6.2 10 17:19 19.05.2020
2927 Clear 6 1004 56 16093 5.7 360 16:41 19.05.2020
2928 Clear 6 1004 56 16093 5.7 360 16:22 19.05.2020
2929 Clear 6 1004 52 16093 6.7 360 15:56 19.05.2020
2930 Clear 6 1004 52 16093 6.7 360 15:38 19.05.2020
2931 Clear 6 1004 52 16093 6.7 360 15:38 19.05.2020
2932 Clear 6 1004 52 16093 6.7 360 15:19 19.05.2020
2933 Clear 6 1004 52 16093 6.2 360 14:43 19.05.2020
2934 Clear 6 1004 52 16093 6.2 360 14:22 19.05.2020
2935 Clear 6 1004 52 16093 5.7 360 13:59 19.05.2020
2936 Clear 6 1004 52 16093 5.7 360 13:40 19.05.2020
2937 Clear 6 1004 52 16093 5.7 360 13:22 19.05.2020
2938 Clear 6 1004 56 16093 4.1 350 12:59 19.05.2020
2939 Clear 6 1004 56 16093 4.1 350 12:40 19.05.2020
2940 Clear 6 1004 56 16093 4.1 350 12:22 19.05.2020
2941 Clear 6 1004 56 16093 4.1 350 12:22 19.05.2020
2942 Clear 7 1004 42 16093 9.3 20 11:58 19.05.2020
2943 Clear 8 1004 42 16093 9.3 20 11:40 19.05.2020
2944 Clear 8 1004 42 16093 9.3 20 11:40 19.05.2020
2945 Clear 8 1004 42 16093 9.3 20 11:21 19.05.2020
2946 Clear 9 1004 43 16093 8.2 20 10:48 19.05.2020
2947 Clear 9 1004 43 16093 8.2 20 10:29 19.05.2020
2948 Clear 10 1003 34 16093 7.7 20 09:58 19.05.2020
2949 Clear 10 1003 34 16093 7.7 20 09:58 19.05.2020
2950 Clear 11 1003 34 16093 7.7 20 09:40 19.05.2020
2951 Clear 11 1003 34 16093 7.7 20 09:22 19.05.2020
2952 Clear 12 1003 32 16093 9.3 20 08:43 19.05.2020
2953 Clear 12 1003 32 16093 9.3 20 08:24 19.05.2020
2954 Clear 12 1003 32 16093 9.3 20 08:24 19.05.2020
2955 Clear 13 1003 30 16093 10.3 30 07:44 19.05.2020
2956 Clear 14 1003 30 16093 10.3 30 07:26 19.05.2020
2957 Clear 14 1003 21 16093 8.7 30 06:51 19.05.2020
2958 Clear 15 1003 21 16093 8.7 30 06:25 19.05.2020
2959 Clear 15 1003 21 16093 9.8 20 05:41 19.05.2020
2960 Clear 16 1003 21 16093 8.7 30 04:56 19.05.2020
2961 Clear 16 1003 21 16093 8.7 30 04:32 19.05.2020
2962 Clear 13 1005 21 12874 4.1 50 01:32 19.05.2020
2963 Clear 14 1005 30 16093 5.7 40 00:47 19.05.2020
2964 Clear 14 1005 30 16093 5.7 40 00:25 19.05.2020
2965 Clear 13 1005 30 16093 7.7 40 23:58 18.05.2020
2966 Clear 13 1005 30 16093 7.7 40 23:39 18.05.2020
2967 Clear 13 1005 30 16093 7.7 40 23:19 18.05.2020
2968 Clear 13 1006 27 16093 7.7 30 22:41 18.05.2020
2969 Clear 13 1006 27 16093 7.7 30 22:22 18.05.2020
2970 Clear 12 1006 32 14484 6.2 40 21:56 18.05.2020
2971 Clear 12 1006 32 14484 6.2 40 21:38 18.05.2020
2972 Clear 12 1006 32 14484 6.2 40 21:19 18.05.2020
2973 Clear 11 1006 32 16093 6.7 40 20:43 18.05.2020
2974 Clear 11 1007 34 16093 6.2 40 20:22 18.05.2020
2975 Clear 11 1007 34 16093 6.2 40 19:59 18.05.2020
2976 Clear 11 1007 34 16093 6.2 40 19:40 18.05.2020
2977 Clear 10 1007 42 16093 5.7 40 19:19 18.05.2020
2978 Clear 10 1007 42 16093 5.7 40 18:46 18.05.2020
2979 Clear 9 1007 42 16093 5.7 40 18:25 18.05.2020
2980 Clouds 9 1007 42 16093 3.6 40 17:55 18.05.2020
2981 Clouds 8 1007 42 16093 3.6 40 17:36 18.05.2020
2982 Clouds 8 1007 42 16093 3.6 40 17:18 18.05.2020
2983 Clouds 8 1007 39 16093 4.1 60 16:43 18.05.2020
2984 Clouds 8 1007 39 16093 4.1 60 16:21 18.05.2020
2985 Clouds 9 1007 37 16093 6.2 70 15:58 18.05.2020
2986 Clouds 9 1007 37 16093 6.2 70 15:39 18.05.2020
2987 Clouds 9 1007 37 16093 6.2 70 15:21 18.05.2020
2988 Clear 9 1007 45 16093 4.6 50 14:57 18.05.2020
2989 Clear 8 1007 45 16093 4.6 50 14:38 18.05.2020
2990 Clear 8 1007 45 16093 4.6 50 14:20 18.05.2020
2991 Clear 8 1007 55 16093 5.7 40 13:41 18.05.2020
2992 Clear 8 1007 62 16093 5.7 40 13:21 18.05.2020
2993 Clear 8 1007 62 16093 5.7 40 13:21 18.05.2020
2994 Clouds 8 1008 70 16093 4.1 330 12:58 18.05.2020
2995 Clouds 8 1008 70 16093 4.1 330 12:40 18.05.2020
2996 Clouds 8 1008 70 16093 4.1 330 12:19 18.05.2020
2997 Clouds 10 1008 57 16093 4.1 350 11:59 18.05.2020
2998 Clouds 10 1008 57 16093 4.1 350 11:59 18.05.2020
2999 Clouds 10 1008 57 16093 4.1 350 11:40 18.05.2020
3000 Clouds 10 1008 57 16093 4.1 350 11:21 18.05.2020
3001 Clear 10 1008 57 16093 4.6 350 10:46 18.05.2020
3002 Clear 10 1008 57 16093 4.6 350 10:23 18.05.2020
3003 Clear 12 1008 50 16093 5.1 30 09:45 18.05.2020
3004 Clear 12 1008 50 16093 5.1 30 09:26 18.05.2020
3005 Clear 12 1009 54 16093 2.1 260 08:56 18.05.2020
3006 Clear 13 1009 54 16093 2.1 260 08:38 18.05.2020
3007 Clear 13 1009 54 16093 2.1 260 08:19 18.05.2020
3008 Clear 13 1009 54 16093 2.1 260 07:42 18.05.2020
3009 Clear 13 1009 54 16093 2.1 260 07:21 18.05.2020
3010 Clear 12 1010 53 16093 3.1 260 06:47 18.05.2020
3011 Clear 12 1010 53 16093 3.1 260 06:21 18.05.2020
3012 Clear 11 1010 66 16093 3.1 230 05:42 18.05.2020
3013 Clouds 12 1011 53 16093 4.1 210 03:37 18.05.2020
3014 Clouds 11 1012 61 16093 2.1 220 02:31 18.05.2020
3015 Clouds 9 1012 65 16093 2.1 190 01:34 18.05.2020
3016 Clouds 9 1012 65 16093 1.5 200 00:28 18.05.2020
3017 Clouds 9 1012 65 16093 2.1 190 23:59 17.05.2020
3018 Clouds 9 1012 65 16093 3.1 160 23:40 17.05.2020
3019 Clouds 9 1012 65 16093 3.1 160 23:20 17.05.2020
3020 Clouds 9 1012 66 16093 2.6 160 22:59 17.05.2020
3021 Clouds 9 1012 65 16093 2.6 150 22:39 17.05.2020
3022 Clouds 9 1012 65 16093 2.6 150 22:21 17.05.2020
3023 Clouds 9 1012 70 16093 3.6 170 21:58 17.05.2020
3024 Clouds 9 1012 70 16093 3.6 170 21:40 17.05.2020
3025 Clouds 9 1012 70 16093 3.6 170 21:19 17.05.2020
3026 Clouds 10 1012 61 16093 2.6 150 20:43 17.05.2020
3027 Clouds 10 1012 61 16093 2.6 150 20:22 17.05.2020
3028 Clouds 9 1012 75 16093 1.59 42 19:58 17.05.2020
3029 Clouds 9 1012 75 16093 1.59 42 19:58 17.05.2020
3030 Clouds 9 1012 75 16093 1.59 42 19:40 17.05.2020
3031 Clouds 8 1012 75 16093 0.99 44 19:22 17.05.2020
3032 Rain 8 1013 81 16093 0.99 44 18:55 17.05.2020
3033 Rain 7 1013 81 16093 0.99 44 18:37 17.05.2020
3034 Rain 7 1013 81 16093 0.57 89 18:19 17.05.2020
3035 Rain 7 1013 75 16093 2.1 40 17:40 17.05.2020
3036 Rain 7 1013 75 16093 2.1 40 17:40 17.05.2020
3037 Rain 7 1013 75 16093 2.1 40 17:40 17.05.2020
3038 Rain 7 1013 75 16093 2.1 40 17:21 17.05.2020
3039 Clouds 6 1013 81 16093 0.73 102 16:55 17.05.2020
3040 Clouds 6 1013 81 16093 0.73 102 16:37 17.05.2020
3041 Clouds 6 1013 81 16093 1.04 87 16:19 17.05.2020
3042 Clouds 6 1013 80 16093 1.04 87 15:41 17.05.2020
3043 Clouds 6 1013 80 16093 1.17 47 15:23 17.05.2020
3044 Clouds 7 1013 81 16093 1.17 47 14:56 17.05.2020
3045 Clouds 7 1013 81 16093 1.17 47 14:37 17.05.2020
3046 Clouds 7 1013 81 16093 0.92 339 14:19 17.05.2020
3047 Clouds 7 1014 75 16093 1.5 260 13:41 17.05.2020
3048 Clouds 7 1014 75 16093 1.5 260 13:20 17.05.2020
3049 Clouds 9 1016 66 16093 2.1 170 04:54 17.05.2020
3050 Clouds 8 1016 70 16093 2.1 190 03:31 17.05.2020
3051 Clouds 8 1016 70 16093 3.6 220 02:26 17.05.2020
3052 Clouds 12 1016 58 16093 3.1 220 01:53 17.05.2020
3053 Clouds 9 1017 70 16093 3.6 220 00:46 17.05.2020
3054 Clouds 9 1017 70 16093 3.6 220 00:26 17.05.2020
3055 Clouds 13 1016 50 16093 1.5 300 23:42 16.05.2020
3056 Clouds 13 1016 50 16093 1.5 300 23:23 16.05.2020
3057 Clouds 8 1017 75 16093 1.5 200 22:59 16.05.2020
3058 Clouds 8 1017 75 16093 1.5 200 22:41 16.05.2020
3059 Clouds 9 1017 75 16093 1.5 200 22:22 16.05.2020
3060 Clouds 10 1017 61 16093 4.6 360 21:56 16.05.2020
3061 Clouds 10 1017 61 16093 4.6 360 21:37 16.05.2020
3062 Clouds 10 1017 61 16093 4.6 360 21:19 16.05.2020
3063 Rain 9 1017 70 16093 3.6 350 20:55 16.05.2020
3064 Rain 9 1017 70 16093 3.6 350 20:36 16.05.2020
3065 Rain 9 1017 70 16093 3.6 350 20:18 16.05.2020
3066 Rain 8 1017 75 16093 2.1 340 19:41 16.05.2020
3067 Rain 8 1017 75 16093 2.1 340 19:22 16.05.2020
3068 Rain 9 1017 66 16093 2.6 10 18:57 16.05.2020
3069 Rain 9 1017 66 16093 2.6 10 18:37 16.05.2020
3070 Rain 9 1017 66 16093 2.6 10 18:18 16.05.2020
3071 Rain 8 1017 66 16093 1.5 360 17:41 16.05.2020
3072 Rain 8 1017 66 16093 1.5 360 17:21 16.05.2020
3073 Rain 9 1017 53 16093 1.65 57 16:44 16.05.2020
3074 Rain 10 1017 53 16093 1.57 59 16:25 16.05.2020
3075 Clouds 9 1017 61 16093 3.1 30 15:59 16.05.2020
3076 Clouds 9 1017 61 16093 3.1 30 15:41 16.05.2020
3077 Clouds 9 1017 61 16093 3.1 30 15:21 16.05.2020
3078 Clouds 11 1016 50 16093 3.1 10 14:56 16.05.2020
3079 Clouds 11 1016 50 16093 3.1 10 14:37 16.05.2020
3080 Clouds 10 1016 50 16093 3.1 10 14:19 16.05.2020
3081 Clouds 8 1017 70 16093 1.5 110 13:42 16.05.2020
3082 Clouds 8 1017 70 16093 1.5 110 13:23 16.05.2020
3083 Clouds 10 1016 57 16093 2.6 120 12:58 16.05.2020
3084 Clouds 9 1016 57 16093 2.6 120 12:39 16.05.2020
3085 Clouds 9 1016 57 16093 2.6 120 12:18 16.05.2020
3086 Clouds 11 1016 46 16093 5.7 40 11:42 16.05.2020
3087 Clouds 11 1016 46 16093 5.7 40 11:23 16.05.2020
3088 Clouds 11 1016 46 16093 4.6 350 10:58 16.05.2020
3089 Clouds 11 1016 46 16093 4.6 350 10:39 16.05.2020
3090 Clouds 11 1016 46 16093 4.6 350 10:20 16.05.2020
3091 Clouds 11 1016 54 16093 2.6 340 09:47 16.05.2020
3092 Clouds 11 1016 54 16093 2.6 340 09:28 16.05.2020
3093 Clouds 14 1016 38 16093 4.1 330 08:55 16.05.2020
3094 Clouds 14 1016 38 16093 4.1 330 08:36 16.05.2020
3095 Clouds 14 1016 38 16093 4.1 330 08:18 16.05.2020
3096 Clouds 13 1016 35 16093 3.1 250 07:43 16.05.2020
3097 Clouds 14 1016 35 16093 3.1 250 07:21 16.05.2020
3098 Clear 13 1016 37 16093 2.6 230 06:47 16.05.2020
3099 Clear 13 1016 37 16093 2.6 230 06:21 16.05.2020
3100 Clouds 14 1016 37 16093 3.6 160 05:43 16.05.2020
3101 Clouds 14 1016 37 16093 3.6 160 05:24 16.05.2020
3102 Clouds 13 1016 32 16093 4.6 130 03:29 16.05.2020
3103 Clouds 13 1016 32 16093 6.2 140 02:47 16.05.2020
3104 Clouds 13 1016 32 16093 6.2 140 02:19 16.05.2020
3105 Clouds 12 1016 32 16093 5.7 100 01:40 16.05.2020
3106 Clouds 12 1016 37 16093 4.6 80 00:58 16.05.2020
3107 Clouds 13 1016 37 16093 4.6 80 00:40 16.05.2020
3108 Clouds 12 1016 37 16093 4.6 80 00:20 16.05.2020
3109 Clouds 12 1016 37 16093 4.6 80 23:40 15.05.2020
3110 Clouds 12 1015 37 16093 6.2 90 23:19 15.05.2020
3111 Clouds 11 1015 37 16093 6.2 90 22:42 15.05.2020
3112 Clouds 11 1015 37 16093 6.2 90 22:22 15.05.2020
3113 Clouds 11 1014 34 16093 5.1 80 21:58 15.05.2020
3114 Clouds 11 1014 34 16093 5.1 80 21:39 15.05.2020
3115 Clouds 11 1014 34 16093 5.1 80 21:21 15.05.2020
3116 Clouds 11 1014 34 16093 5.7 90 20:57 15.05.2020
3117 Clouds 11 1014 34 16093 5.7 90 20:39 15.05.2020
3118 Clouds 11 1014 34 16093 5.7 90 20:21 15.05.2020
3119 Clouds 10 1014 43 16093 5.7 40 19:44 15.05.2020
3120 Clouds 10 1014 43 16093 5.7 40 19:25 15.05.2020
3121 Clouds 9 1014 45 16093 4.6 20 18:59 15.05.2020
3122 Clouds 9 1014 45 16093 4.6 20 18:39 15.05.2020
3123 Clouds 8 1014 45 16093 4.6 20 18:21 15.05.2020
3124 Clouds 8 1013 49 16093 5.1 20 17:39 15.05.2020
3125 Clouds 8 1013 49 16093 5.1 20 17:39 15.05.2020
3126 Clouds 8 1013 49 16093 5.1 20 17:19 15.05.2020
3127 Clouds 8 1013 45 16093 4.6 20 16:56 15.05.2020
3128 Clouds 8 1013 45 16093 4.6 20 16:38 15.05.2020
3129 Clouds 8 1013 45 16093 4.6 20 16:19 15.05.2020
3130 Clouds 8 1013 42 16093 6.7 20 15:41 15.05.2020
3131 Clouds 8 1013 42 16093 6.7 20 15:22 15.05.2020
3132 Clouds 8 1013 42 16093 6.2 30 14:59 15.05.2020
3133 Clouds 8 1013 42 16093 6.2 30 14:41 15.05.2020
3134 Clouds 8 1013 42 16093 6.2 30 14:23 15.05.2020
3135 Clouds 9 1012 45 16093 5.1 50 13:43 15.05.2020
3136 Clouds 9 1012 45 16093 5.1 50 13:23 15.05.2020
3137 Clouds 9 1012 45 16093 5.1 40 12:59 15.05.2020
3138 Clouds 9 1012 45 16093 5.1 40 12:39 15.05.2020
3139 Clouds 9 1012 43 16093 4.6 40 12:18 15.05.2020
3140 Clouds 9 1012 43 16093 4.6 40 11:56 15.05.2020
3141 Clouds 9 1012 43 16093 4.6 40 11:56 15.05.2020
3142 Clouds 9 1012 43 16093 4.6 40 11:38 15.05.2020
3143 Clouds 9 1012 43 16093 4.6 40 11:19 15.05.2020
3144 Clouds 9 1011 53 16093 2.6 20 10:56 15.05.2020
3145 Clouds 8 1011 53 16093 2.6 20 10:38 15.05.2020
3146 Clouds 9 1011 52 16093 2.6 20 10:20 15.05.2020
3147 Clouds 10 1011 27 16093 3.87 57 09:41 15.05.2020
3148 Clouds 10 1011 27 16093 0.63 118 09:20 15.05.2020
3149 Clouds 11 1011 30 16093 0.63 118 08:59 15.05.2020
3150 Clouds 11 1011 30 16093 0.63 118 08:38 15.05.2020
3151 Clouds 12 1011 30 16093 2.42 106 08:20 15.05.2020
3152 Clear 12 1011 32 16093 4.6 40 07:46 15.05.2020
3153 Clear 12 1011 32 16093 4.6 40 07:46 15.05.2020
3154 Clear 13 1011 32 16093 4.6 40 07:28 15.05.2020
3155 Clear 13 1011 24 16093 7.2 40 06:59 15.05.2020
3156 Clear 14 1011 24 16093 5.7 30 05:56 15.05.2020
3157 Clear 14 1011 28 16093 6.7 50 04:38 15.05.2020
3158 Clear 14 1011 28 16093 5.7 50 03:50 15.05.2020
3159 Clear 13 1012 30 16093 6.2 80 02:49 15.05.2020
3160 Clear 12 1012 34 16093 5.7 70 01:37 15.05.2020
3161 Clear 12 1012 34 16093 4.6 60 01:18 15.05.2020
3162 Clear 12 1012 34 16093 4.6 60 00:40 15.05.2020
3163 Clear 12 1012 34 16093 4.6 60 00:21 15.05.2020
3164 Clear 11 1012 37 16093 6.2 60 23:41 14.05.2020
3165 Clear 11 1012 37 16093 6.2 60 23:19 14.05.2020
3166 Clouds 11 1011 37 16093 7.2 40 22:42 14.05.2020
3167 Clouds 10 1011 37 16093 7.2 40 22:24 14.05.2020
3168 Clouds 10 1011 37 16093 7.2 40 22:24 14.05.2020
3169 Clear 11 1011 37 16093 5.7 40 21:59 14.05.2020
3170 Clear 11 1011 37 16093 5.7 40 21:40 14.05.2020
3171 Clear 11 1011 37 16093 5.7 40 21:20 14.05.2020
3172 Clear 10 1011 37 16093 6.2 30 20:57 14.05.2020
3173 Clear 10 1011 37 16093 6.2 30 20:39 14.05.2020
3174 Clear 10 1011 37 16093 6.2 30 20:19 14.05.2020
3175 Clear 10 1011 37 16093 6.2 30 20:19 14.05.2020
3176 Clouds 9 1011 45 16093 3.6 20 19:57 14.05.2020
3177 Clouds 9 1011 45 16093 3.6 20 19:38 14.05.2020
3178 Clouds 9 1011 45 16093 3.6 20 19:19 14.05.2020
3179 Clouds 8 1011 49 16093 6.2 40 18:56 14.05.2020
3180 Clouds 8 1011 49 16093 6.2 40 18:38 14.05.2020
3181 Clouds 7 1011 49 16093 6.2 40 18:19 14.05.2020
3182 Clear 7 1011 48 16093 6.2 40 17:56 14.05.2020
3183 Clear 7 1011 48 16093 6.2 40 17:37 14.05.2020
3184 Clear 7 1011 48 16093 6.2 40 17:18 14.05.2020
3185 Clouds 7 1011 49 16093 5.7 30 16:39 14.05.2020
3186 Clouds 7 1011 49 16093 5.7 30 16:39 14.05.2020
3187 Clouds 7 1011 49 16093 5.7 30 16:21 14.05.2020
3188 Clouds 7 1011 49 16093 7.7 40 15:59 14.05.2020
3189 Clouds 7 1011 49 16093 7.7 40 15:40 14.05.2020
3190 Clouds 7 1011 49 16093 7.7 40 15:40 14.05.2020
3191 Clouds 7 1011 49 16093 7.7 40 15:20 14.05.2020
3192 Clouds 8 1011 49 16093 8.2 40 14:56 14.05.2020
3193 Clouds 8 1011 49 16093 8.2 40 14:38 14.05.2020
3194 Clouds 8 1011 49 16093 8.2 40 14:20 14.05.2020
3195 Clouds 8 1011 55 16093 7.7 30 13:57 14.05.2020
3196 Clouds 9 1011 55 16093 7.7 30 13:38 14.05.2020
3197 Clouds 8 1011 55 16093 7.7 30 13:19 14.05.2020
3198 Clouds 9 1011 57 16093 8.7 30 12:57 14.05.2020
3199 Clouds 9 1011 57 16093 8.7 30 12:37 14.05.2020
3200 Clouds 9 1011 57 16093 8.7 30 12:18 14.05.2020
3201 Clouds 9 1011 53 16093 10.3 20 11:56 14.05.2020
3202 Clouds 10 1011 53 16093 10.3 20 11:37 14.05.2020
3203 Clouds 10 1011 53 16093 10.3 20 11:37 14.05.2020
3204 Clouds 10 1011 53 16093 10.3 20 11:19 14.05.2020
3205 Clouds 9 1011 61 16093 8.2 20 10:42 14.05.2020
3206 Clouds 10 1011 61 16093 8.2 20 10:24 14.05.2020
3207 Clouds 10 1011 57 16093 5.7 10 09:56 14.05.2020
3208 Clouds 10 1011 57 16093 5.7 10 09:56 14.05.2020
3209 Clouds 10 1011 57 16093 5.7 10 09:36 14.05.2020
3210 Clouds 10 1011 57 16093 5.7 10 09:18 14.05.2020
3211 Clouds 10 1011 57 16093 6.7 20 08:37 14.05.2020
3212 Clouds 10 1011 57 16093 6.7 20 08:19 14.05.2020
3213 Clouds 10 1011 57 16093 6.2 360 07:45 14.05.2020
3214 Clouds 10 1011 57 16093 6.2 360 07:45 14.05.2020
3215 Clouds 10 1011 57 16093 6.2 360 07:22 14.05.2020
3216 Clouds 11 1011 54 16093 7.7 10 06:44 14.05.2020
3217 Clouds 11 1011 54 16093 7.7 10 06:25 14.05.2020
3218 Clouds 11 1012 58 16093 7.7 20 05:42 14.05.2020
3219 Clouds 11 1012 58 16093 7.7 20 05:42 14.05.2020
3220 Clouds 12 1012 54 16093 9.3 30 04:56 14.05.2020
3221 Clouds 12 1012 47 16093 7.2 30 03:44 14.05.2020
3222 Clouds 12 1012 47 16093 7.2 30 03:20 14.05.2020
3223 Clouds 12 1013 50 16093 6.2 30 02:36 14.05.2020
3224 Clouds 13 1013 47 16093 4.1 60 01:52 14.05.2020
3225 Clear 11 1013 50 16093 4.1 30 00:58 14.05.2020
3226 Clear 11 1013 50 16093 4.1 30 00:29 14.05.2020
3227 Clear 10 1014 61 16093 3.6 230 23:55 13.05.2020
3228 Clear 9 1014 61 16093 3.6 230 23:37 13.05.2020
3229 Clear 8 1014 61 16093 3.6 230 23:18 13.05.2020
3230 Clear 8 1014 57 16093 2.1 310 22:41 13.05.2020
3231 Clear 8 1014 57 16093 2.1 310 22:22 13.05.2020
3232 Clear 9 1014 61 16093 1.5 60 21:59 13.05.2020
3233 Clear 9 1014 61 16093 1.5 60 21:40 13.05.2020
3234 Clear 8 1014 61 16093 1.5 60 21:19 13.05.2020
3235 Clear 8 1014 61 16093 1.5 60 21:19 13.05.2020
3236 Clouds 7 1014 65 16093 4.1 350 20:56 13.05.2020
3237 Clouds 7 1014 65 16093 4.1 350 20:38 13.05.2020
3238 Clouds 7 1014 65 16093 4.1 350 20:19 13.05.2020
3239 Clouds 6 1014 75 16093 3.1 340 19:42 13.05.2020
3240 Clouds 5 1014 75 16093 3.1 340 19:24 13.05.2020
3241 Clouds 4 1014 79 16093 4.1 340 18:45 13.05.2020
3242 Clouds 3 1014 86 16093 4.1 340 18:22 13.05.2020
3243 Clouds 2 1014 86 16093 3.6 350 17:59 13.05.2020
3244 Clouds 2 1014 86 16093 3.6 350 17:38 13.05.2020
3245 Clouds 2 1014 89 16093 3.6 350 17:18 13.05.2020
3246 Clouds 3 1014 80 16093 3.1 40 16:41 13.05.2020
3247 Clouds 3 1014 80 16093 3.1 40 16:20 13.05.2020
3248 Clouds 3 1014 86 16093 4.1 50 15:57 13.05.2020
3249 Clouds 3 1014 86 16093 4.1 50 15:39 13.05.2020
3250 Clouds 3 1014 86 16093 4.1 50 15:18 13.05.2020
3251 Clouds 3 1014 86 16093 3.6 50 14:55 13.05.2020
3252 Clouds 3 1014 93 16093 3.1 60 14:37 13.05.2020
3253 Clouds 3 1014 93 16093 3.1 60 14:19 13.05.2020
3254 Clouds 3 1014 86 16093 4.1 70 13:43 13.05.2020
3255 Clouds 3 1014 86 16093 4.1 70 13:23 13.05.2020
3256 Clouds 2 1013 93 16093 4.1 60 12:59 13.05.2020
3257 Clouds 2 1013 93 16093 4.1 60 12:41 13.05.2020
3258 Clouds 2 1013 93 16093 4.1 60 12:21 13.05.2020
3259 Clouds 2 1013 93 16093 4.1 90 11:56 13.05.2020
3260 Clouds 2 1013 93 16093 4.1 90 11:38 13.05.2020
3261 Clouds 2 1013 93 16093 4.1 90 11:20 13.05.2020
3262 Clouds 2 1013 100 16093 4.1 80 10:58 13.05.2020
3263 Clouds 2 1013 100 16093 4.1 90 10:38 13.05.2020
3264 Clouds 2 1013 100 16093 4.1 90 10:19 13.05.2020
3265 Clouds 2 1012 100 16093 4.1 90 09:49 13.05.2020
3266 Rain 3 1011 93 11265 6.7 110 09:24 13.05.2020
3267 Mist 3 1011 93 4828 4.6 80 08:59 13.05.2020
3268 Mist 3 1011 93 4828 4.6 80 08:39 13.05.2020
3269 Mist 3 1011 93 4828 4.6 80 08:20 13.05.2020
3270 Clouds 3 1010 100 16093 5.1 90 07:52 13.05.2020
3271 Clouds 3 1010 100 16093 5.1 90 07:33 13.05.2020
3272 Rain 4 1009 93 14484 6.2 110 06:55 13.05.2020
3273 Mist 4 1009 93 8047 6.2 90 06:35 13.05.2020
3274 Rain 4 1009 93 0 6.71 106 05:43 13.05.2020
3275 Rain 6 1008 87 4828 8.7 90 03:58 13.05.2020
3276 Clouds 8 1007 75 16093 9.8 90 02:38 13.05.2020
3277 Clouds 6 1007 87 16093 6.2 80 01:46 13.05.2020
3278 Clouds 6 1007 86 16093 6.7 80 00:58 13.05.2020
3279 Clouds 5 1007 86 16093 6.7 80 00:25 13.05.2020
3280 Clouds 6 1006 87 16093 7.2 90 23:59 12.05.2020
3281 Clouds 6 1006 87 16093 7.2 90 23:59 12.05.2020
3282 Clouds 5 1006 87 16093 7.2 90 23:39 12.05.2020
3283 Clouds 6 1006 87 16093 7.2 90 23:20 12.05.2020
3284 Rain 6 1006 93 16093 5.7 80 22:42 12.05.2020
3285 Rain 6 1006 93 16093 5.7 80 22:22 12.05.2020
3286 Rain 5 1006 93 16093 6.7 90 21:57 12.05.2020
3287 Rain 5 1006 93 16093 7.2 90 21:38 12.05.2020
3288 Rain 5 1006 93 16093 7.2 90 21:38 12.05.2020
3289 Rain 5 1006 93 16093 7.2 90 21:20 12.05.2020
3290 Rain 6 1006 87 9656 6.7 90 20:59 12.05.2020
3291 Rain 6 1006 87 12874 8.2 90 20:40 12.05.2020
3292 Rain 6 1006 87 12874 8.2 90 20:21 12.05.2020
3293 Clouds 6 1005 70 16093 4.1 90 19:58 12.05.2020
3294 Clouds 6 1005 70 16093 4.1 90 19:40 12.05.2020
3295 Clouds 7 1005 70 16093 4.1 90 19:21 12.05.2020
3296 Clouds 7 1005 75 16093 4.26 80 18:56 12.05.2020
3297 Clouds 7 1005 75 16093 4.26 80 18:38 12.05.2020
3298 Clouds 6 1005 75 16093 3.06 73 18:20 12.05.2020
3299 Clouds 5 1004 86 16093 3.06 73 17:43 12.05.2020
3300 Clouds 5 1004 86 16093 2.24 72 17:24 12.05.2020
3301 Clouds 6 1004 75 16093 2.1 330 16:47 12.05.2020
3302 Clouds 5 1004 75 16093 2.1 330 16:26 12.05.2020
3303 Clear 5 1005 80 16093 2.84 40 15:57 12.05.2020
3304 Clear 5 1005 80 16093 2.84 40 15:39 12.05.2020
3305 Clear 5 1005 80 16093 2.84 40 15:39 12.05.2020
3306 Clear 5 1005 80 16093 2.52 27 15:19 12.05.2020
3307 Clear 5 1005 75 16093 2.6 260 14:57 12.05.2020
3308 Clear 5 1005 75 16093 2.6 260 14:38 12.05.2020
3309 Clear 4 1005 75 16093 2.6 260 14:20 12.05.2020
3310 Clear 4 1006 80 16093 3.6 280 13:58 12.05.2020
3311 Clear 5 1006 80 16093 3.6 280 13:40 12.05.2020
3312 Clear 4 1006 80 16093 3.6 280 13:20 12.05.2020
3313 Clouds 5 1007 75 16093 3.6 300 12:58 12.05.2020
3314 Clouds 5 1007 75 16093 3.6 300 12:39 12.05.2020
3315 Clouds 6 1007 75 16093 3.6 300 12:21 12.05.2020
3316 Clouds 7 1007 70 16093 3.1 300 11:58 12.05.2020
3317 Clouds 7 1007 70 16093 3.1 300 11:39 12.05.2020
3318 Clouds 6 1007 70 16093 3.1 300 11:21 12.05.2020
3319 Clouds 6 1008 75 16093 3.1 280 10:58 12.05.2020
3320 Clouds 6 1008 75 16093 3.1 280 10:40 12.05.2020
3321 Clouds 6 1008 75 16093 3.1 280 10:22 12.05.2020
3322 Clouds 8 1008 70 16093 2.6 270 09:59 12.05.2020
3323 Clouds 8 1008 70 16093 2.6 270 09:39 12.05.2020
3324 Clouds 8 1008 70 16093 2.6 270 09:20 12.05.2020
3325 Clouds 9 1009 66 16093 4.6 280 08:54 12.05.2020
3326 Clouds 9 1009 66 16093 4.6 280 08:36 12.05.2020
3327 Clouds 9 1009 66 16093 4.6 280 08:18 12.05.2020
3328 Clear 9 1009 61 16093 5.7 280 07:41 12.05.2020
3329 Clear 10 1009 61 16093 5.7 280 07:22 12.05.2020
3330 Clouds 11 1010 58 16093 5.1 290 06:47 12.05.2020
3331 Clouds 11 1010 58 16093 5.1 290 06:27 12.05.2020
3332 Clouds 12 1011 54 16093 7.2 300 05:50 12.05.2020
3333 Clouds 12 1011 54 16093 7.2 300 05:30 12.05.2020
3334 Clear 11 1012 54 16093 7.2 280 03:26 12.05.2020
3335 Clear 11 1013 66 16093 6.2 260 02:29 12.05.2020
3336 Clear 10 1014 70 16093 5.1 260 02:00 12.05.2020
3337 Clear 10 1014 70 16093 5.1 260 01:26 12.05.2020
3338 Clear 11 1014 61 16093 5.1 260 00:26 12.05.2020
3339 Clear 10 1015 70 16093 4.6 260 23:58 11.05.2020
3340 Clear 10 1015 70 16093 4.6 260 23:40 11.05.2020
3341 Clear 10 1015 70 16093 4.6 260 23:20 11.05.2020
3342 Clear 8 1015 75 16093 4.6 270 22:58 11.05.2020
3343 Clear 8 1015 75 16093 4.6 270 22:40 11.05.2020
3344 Clear 8 1015 75 16093 4.6 270 22:20 11.05.2020
3345 Clear 9 1016 70 16093 4.1 260 21:57 11.05.2020
3346 Clear 9 1016 70 16093 4.1 260 21:39 11.05.2020
3347 Clear 9 1016 70 16093 4.1 260 21:19 11.05.2020
3348 Clear 6 1016 80 16093 2.56 286 20:57 11.05.2020
3349 Clear 6 1016 80 16093 2.56 286 20:38 11.05.2020
3350 Clear 6 1016 80 16093 2.38 290 20:19 11.05.2020
3351 Clear 4 1016 80 16093 2.38 290 19:54 11.05.2020
3352 Clear 4 1016 80 16093 2.38 290 19:36 11.05.2020
3353 Clear 4 1016 80 16093 2.42 287 19:18 11.05.2020
3354 Clear 2 1017 70 16093 2.1 300 18:55 11.05.2020
3355 Clear 2 1017 70 16093 2.1 300 18:36 11.05.2020
3356 Clear 2 1017 74 16093 2.1 300 18:18 11.05.2020
3357 Clear 1 1017 86 16093 2.6 220 17:41 11.05.2020
3358 Clear 1 1017 86 16093 2.6 220 17:22 11.05.2020
3359 Clear 1 1017 86 16093 2.37 288 16:58 11.05.2020
3360 Clear 1 1017 86 16093 2.37 288 16:38 11.05.2020
3361 Clear 1 1017 86 16093 2.45 277 16:20 11.05.2020
3362 Clear 2 1017 77 16093 3.6 270 15:57 11.05.2020
3363 Clear 2 1017 77 16093 3.6 270 15:38 11.05.2020
3364 Clear 2 1017 76 16093 3.6 270 15:18 11.05.2020
3365 Clouds 3 1016 80 16093 2.6 320 14:41 11.05.2020
3366 Clouds 3 1016 80 16093 2.6 320 14:22 11.05.2020
3367 Clouds 3 1016 80 16093 2.6 320 14:22 11.05.2020
3368 Clouds 4 1016 75 16093 3.1 310 13:59 11.05.2020
3369 Clouds 5 1016 75 16093 3.1 310 13:40 11.05.2020
3370 Clouds 5 1016 75 16093 3.1 310 13:18 11.05.2020
3371 Clouds 5 1016 75 16093 3.1 310 13:18 11.05.2020
3372 Clouds 5 1016 75 16093 3.1 310 13:18 11.05.2020
3373 Clouds 5 1016 75 16093 3.1 310 13:18 11.05.2020
3374 Clouds 6 1017 75 16093 2.6 290 12:56 11.05.2020
3375 Clouds 6 1017 75 16093 2.6 290 12:38 11.05.2020
3376 Clouds 6 1017 75 16093 2.6 290 12:19 11.05.2020
3377 Clouds 7 1016 70 16093 4.1 300 11:54 11.05.2020
3378 Clouds 7 1016 70 16093 4.1 300 11:36 11.05.2020
3379 Clouds 7 1016 70 16093 4.1 300 11:18 11.05.2020
3380 Clouds 7 1016 75 16093 4.1 290 10:54 11.05.2020
3381 Clouds 6 1016 75 16093 4.1 290 10:36 11.05.2020
3382 Clouds 6 1016 75 16093 4.1 290 10:18 11.05.2020
3383 Clouds 7 1016 70 16093 4.1 280 09:41 11.05.2020
3384 Clouds 8 1016 70 16093 4.1 280 09:20 11.05.2020
3385 Clouds 9 1016 61 16093 6.7 270 08:57 11.05.2020
3386 Clouds 8 1016 61 16093 6.7 270 08:38 11.05.2020
3387 Clouds 9 1016 61 16093 6.7 270 08:18 11.05.2020
3388 Clouds 8 1016 65 16093 6.2 270 07:47 11.05.2020
3389 Clouds 8 1016 65 16093 6.2 270 07:28 11.05.2020
3390 Clouds 9 1016 57 16093 5.7 270 06:52 11.05.2020
3391 Clouds 10 1016 57 16093 5.7 270 06:18 11.05.2020
3392 Clouds 12 1017 50 16093 5.1 270 05:28 11.05.2020
3393 Clouds 11 1017 50 16093 4.6 240 04:35 11.05.2020
3394 Clouds 13 1017 50 16093 3.6 220 03:33 11.05.2020
3395 Clouds 12 1018 53 16093 2.6 170 02:33 11.05.2020
3396 Clouds 12 1018 53 16093 3.1 150 01:43 11.05.2020
3397 Clouds 12 1018 50 16093 3.6 90 00:53 11.05.2020
3398 Clouds 12 1018 50 16093 3.6 90 00:21 11.05.2020
3399 Clouds 9 1018 61 16093 3.6 110 23:44 10.05.2020
3400 Clouds 9 1018 61 16093 3.6 110 23:26 10.05.2020
3401 Clouds 11 1018 53 16093 6.7 110 22:57 10.05.2020
3402 Clouds 11 1018 53 16093 6.7 110 22:39 10.05.2020
3403 Clouds 11 1018 53 16093 6.7 110 22:20 10.05.2020
3404 Clouds 9 1019 65 16093 6.7 100 21:44 10.05.2020
3405 Clouds 9 1019 65 16093 6.7 100 21:20 10.05.2020
3406 Clouds 9 1019 65 16093 5.7 100 20:56 10.05.2020
3407 Clouds 8 1019 65 16093 5.7 100 20:38 10.05.2020
3408 Clouds 8 1019 65 16093 5.7 100 20:19 10.05.2020
3409 Clouds 6 1018 75 16093 2.1 260 19:41 10.05.2020
3410 Clouds 6 1018 75 16093 2.1 260 19:23 10.05.2020
3411 Clouds 4 1018 80 16093 4.37 81 18:57 10.05.2020
3412 Clouds 4 1018 80 16093 4.37 81 18:38 10.05.2020
3413 Clouds 4 1018 80 16093 3.75 70 18:20 10.05.2020
3414 Clouds 2 1019 80 16093 3.75 70 17:59 10.05.2020
3415 Clouds 2 1019 80 16093 3.75 70 17:41 10.05.2020
3416 Clouds 2 1019 80 16093 3.38 70 17:22 10.05.2020
3417 Clouds 2 1019 74 16093 3.38 70 16:59 10.05.2020
3418 Clouds 3 1019 74 16093 3.38 70 16:40 10.05.2020
3419 Clouds 2 1019 74 16093 2.4 70 16:19 10.05.2020
3420 Clouds 2 1019 74 16093 2.4 70 16:19 10.05.2020
3421 Clouds 2 1019 74 16093 2.4 70 15:55 10.05.2020
3422 Clouds 3 1019 74 16093 2.4 70 15:36 10.05.2020
3423 Clouds 3 1019 74 16093 2.4 70 15:36 10.05.2020
3424 Clouds 3 1019 74 16093 2.18 70 15:18 10.05.2020
3425 Clouds 4 1019 69 16093 3.1 50 14:39 10.05.2020
3426 Clouds 4 1019 69 16093 3.1 50 14:20 10.05.2020
3427 Clouds 4 1019 69 16093 3.1 50 14:20 10.05.2020
3428 Clear 5 1019 60 16093 5.7 170 13:59 10.05.2020
3429 Clear 5 1019 60 16093 5.7 170 13:59 10.05.2020
3430 Clear 5 1019 60 16093 5.7 170 13:59 10.05.2020
3431 Clear 6 1019 60 16093 5.7 170 13:39 10.05.2020
3432 Clear 6 1019 60 16093 5.7 170 13:21 10.05.2020
3433 Clear 7 1018 49 16093 5.1 80 12:58 10.05.2020
3434 Clear 7 1018 49 16093 5.1 80 12:40 10.05.2020
3435 Clear 7 1018 49 16093 5.1 80 12:40 10.05.2020
3436 Clear 7 1018 49 16093 5.1 80 12:21 10.05.2020
3437 Clouds 8 1018 49 16093 4.6 70 11:58 10.05.2020
3438 Clouds 7 1018 49 16093 4.6 70 11:39 10.05.2020
3439 Clouds 8 1018 49 16093 4.6 70 11:20 10.05.2020
3440 Clear 8 1019 57 16093 4.1 80 10:48 10.05.2020
3441 Clear 7 1019 57 16093 4.1 80 10:29 10.05.2020
3442 Clear 9 1019 50 16093 4.6 70 09:59 10.05.2020
3443 Clear 9 1019 50 16093 4.6 70 09:40 10.05.2020
3444 Clear 10 1019 50 16093 4.6 70 09:21 10.05.2020
3445 Clear 11 1019 50 16093 3.6 70 08:52 10.05.2020
3446 Clear 11 1019 50 16093 3.6 70 08:24 10.05.2020
3447 Clear 12 1019 43 16093 4.6 70 07:56 10.05.2020
3448 Clear 12 1019 43 16093 4.6 70 07:37 10.05.2020
3449 Clear 12 1019 43 16093 4.6 70 07:19 10.05.2020
3450 Clear 12 1019 43 16093 4.6 80 06:48 10.05.2020
3451 Clear 12 1019 43 16093 4.6 80 06:21 10.05.2020
3452 Clear 12 1020 46 16093 5.1 90 05:43 10.05.2020
3453 Clear 11 1020 53 16093 4.6 130 04:41 10.05.2020
3454 Clear 10 1020 53 16093 4.6 130 04:22 10.05.2020
3455 Clear 11 1020 50 16093 5.7 120 03:41 10.05.2020
3456 Clear 9 1021 61 16093 6.7 120 02:54 10.05.2020
3457 Clear 9 1021 61 16093 6.7 120 02:24 10.05.2020
3458 Clear 9 1021 61 16093 6.7 120 02:24 10.05.2020
3459 Clear 8 1021 61 16093 7.7 120 01:43 10.05.2020
3460 Clear 8 1021 61 16093 7.7 120 01:23 10.05.2020
3461 Clear 8 1021 65 16093 9.8 120 00:57 10.05.2020
3462 Clear 7 1021 65 16093 9.8 120 00:37 10.05.2020
3463 Clear 7 1021 65 16093 9.8 120 00:19 10.05.2020
3464 Clouds 7 1020 61 16093 8.7 110 23:39 09.05.2020
3465 Clouds 8 1020 61 16093 8.7 110 23:21 09.05.2020
3466 Clear 7 1020 61 16093 7.7 110 22:54 09.05.2020
3467 Clear 7 1020 61 16093 7.7 110 22:36 09.05.2020
3468 Clear 7 1020 61 16093 7.7 110 22:18 09.05.2020
3469 Clear 7 1020 65 16093 8.7 100 21:55 09.05.2020
3470 Clear 7 1020 65 16093 8.7 100 21:36 09.05.2020
3471 Clear 7 1020 65 16093 8.7 100 21:36 09.05.2020
3472 Clear 6 1020 65 16093 8.7 100 21:18 09.05.2020
3473 Clear 6 1020 70 16093 7.2 90 20:54 09.05.2020
3474 Clear 6 1020 70 16093 7.2 90 20:36 09.05.2020
3475 Clear 6 1020 70 16093 7.2 90 20:18 09.05.2020
3476 Clear 6 1020 70 16093 7.2 90 19:39 09.05.2020
3477 Clear 6 1020 70 16093 7.2 90 19:20 09.05.2020
3478 Clear 5 1020 75 16093 6.7 90 18:54 09.05.2020
3479 Clear 5 1020 75 16093 6.7 90 18:54 09.05.2020
3480 Clear 5 1020 75 16093 6.7 90 18:36 09.05.2020
3481 Clear 5 1020 78 16093 6.7 90 18:18 09.05.2020
3482 Clear 4 1020 78 16093 5.1 90 17:40 09.05.2020
3483 Clear 4 1020 82 16093 5.1 90 17:21 09.05.2020
3484 Clear 3 1019 82 16093 5.1 80 16:41 09.05.2020
3485 Clear 3 1019 81 16093 5.1 80 16:20 09.05.2020
3486 Clouds 3 1019 81 16093 6.7 80 15:46 09.05.2020
3487 Clouds 3 1019 79 16093 6.7 80 15:27 09.05.2020
3488 Clear 4 1019 69 16093 6.2 80 14:59 09.05.2020
3489 Clear 4 1019 69 16093 6.2 80 14:41 09.05.2020
3490 Clear 2 1019 69 16093 6.2 80 14:20 09.05.2020
3491 Clouds 4 1019 78 16093 4.6 70 13:58 09.05.2020
3492 Clouds 4 1019 78 16093 4.6 70 13:40 09.05.2020
3493 Clouds 4 1019 78 16093 4.6 70 13:40 09.05.2020
3494 Clouds 4 1019 75 16093 4.6 70 13:20 09.05.2020
3495 Clouds 3 1019 75 16093 2.6 90 12:43 09.05.2020
3496 Clouds 4 1019 73 16093 2.6 90 12:23 09.05.2020
3497 Clouds 4 1019 75 16093 3.6 110 11:59 09.05.2020
3498 Clouds 4 1019 75 16093 3.6 110 11:41 09.05.2020
3499 Clouds 4 1019 75 16093 3.6 110 11:19 09.05.2020
3500 Clouds 3 1019 72 16093 5.1 110 10:47 09.05.2020
3501 Clouds 3 1019 74 16093 5.1 110 10:26 09.05.2020
3502 Clear 5 1018 74 16093 6.7 120 09:58 09.05.2020
3503 Clear 5 1018 74 16093 6.7 120 09:40 09.05.2020
3504 Clear 5 1018 75 16093 6.7 120 09:19 09.05.2020
3505 Clear 6 1017 75 16093 6.7 100 08:51 09.05.2020
3506 Clear 6 1017 75 16093 6.7 100 08:33 09.05.2020
3507 Clear 8 1017 57 16093 5.1 80 07:54 09.05.2020
3508 Clear 8 1017 57 16093 5.1 80 07:36 09.05.2020
3509 Clear 8 1017 57 16093 5.1 80 07:18 09.05.2020
3510 Clouds 10 1017 53 16093 6.2 100 06:26 09.05.2020
3511 Clouds 10 1017 53 16093 4.6 90 05:49 09.05.2020
3512 Clouds 11 1017 53 16093 6.2 60 04:43 09.05.2020
3513 Clouds 10 1017 46 16093 6.2 60 03:38 09.05.2020
3514 Clouds 11 1017 37 16093 6.7 60 02:50 09.05.2020
3515 Clouds 11 1017 40 16093 7.2 60 01:54 09.05.2020
3516 Clouds 12 1017 40 16093 7.2 60 01:26 09.05.2020
3517 Clouds 11 1017 40 16093 6.2 50 00:59 09.05.2020
3518 Clouds 11 1017 40 16093 6.2 50 00:38 09.05.2020
3519 Clear 12 1017 35 16093 8.2 60 23:57 08.05.2020
3520 Clear 12 1017 35 16093 8.2 60 23:39 08.05.2020
3521 Clear 11 1017 35 16093 8.2 60 23:19 08.05.2020
3522 Clear 12 1017 37 16093 5.7 50 22:54 08.05.2020
3523 Clear 11 1017 37 16093 5.7 50 22:36 08.05.2020
3524 Clear 12 1017 37 16093 5.7 50 22:18 08.05.2020
3525 Clear 10 1018 40 16093 7.7 40 21:42 08.05.2020
3526 Clear 10 1018 40 16093 7.7 40 21:19 08.05.2020
3527 Clear 10 1018 43 16093 7.2 30 20:59 08.05.2020
3528 Clear 10 1018 43 16093 7.2 30 20:41 08.05.2020
3529 Clear 10 1018 43 16093 7.2 30 20:23 08.05.2020
3530 Clear 8 1019 45 16093 6.2 40 19:55 08.05.2020
3531 Clear 9 1019 45 16093 6.2 40 19:37 08.05.2020
3532 Clear 8 1020 45 16093 3.6 40 19:19 08.05.2020
3533 Clear 8 1020 45 16093 3.6 40 18:43 08.05.2020
3534 Clear 7 1020 45 16093 3.6 40 18:25 08.05.2020
3535 Clear 7 1020 45 16093 6.2 50 17:42 08.05.2020
3536 Clear 7 1020 45 16093 6.2 50 17:19 08.05.2020
3537 Clear 7 1020 52 16093 7.2 50 16:54 08.05.2020
3538 Clear 7 1020 52 16093 7.2 50 16:36 08.05.2020
3539 Clear 7 1020 52 16093 7.2 50 16:18 08.05.2020
3540 Clear 8 1020 45 16093 7.2 50 15:42 08.05.2020
3541 Clear 8 1020 45 16093 7.2 50 15:19 08.05.2020
3542 Clear 8 1020 49 16093 7.2 50 14:55 08.05.2020
3543 Clear 8 1020 49 16093 7.2 50 14:37 08.05.2020
3544 Clear 8 1020 49 16093 7.2 50 14:18 08.05.2020
3545 Clear 8 1020 49 16093 8.2 50 13:41 08.05.2020
3546 Clear 8 1020 49 16093 8.2 50 13:20 08.05.2020
3547 Clear 8 1020 49 16093 8.2 50 12:55 08.05.2020
3548 Clear 8 1020 49 16093 8.2 50 12:37 08.05.2020
3549 Clear 8 1020 49 16093 8.2 50 12:18 08.05.2020
3550 Clear 8 1020 65 16093 7.7 40 11:44 08.05.2020
3551 Clear 8 1020 65 16093 7.7 40 11:44 08.05.2020
3552 Clear 8 1020 64 16093 7.7 40 11:23 08.05.2020
3553 Clear 8 1021 64 16093 8.7 40 10:58 08.05.2020
3554 Clear 8 1021 64 16093 8.7 40 10:40 08.05.2020
3555 Clear 8 1021 49 16093 7.2 40 10:19 08.05.2020
3556 Clear 8 1021 49 16093 7.2 40 09:56 08.05.2020
3557 Clear 8 1021 49 16093 7.2 40 09:37 08.05.2020
3558 Clear 9 1021 49 16093 7.2 40 09:18 08.05.2020
3559 Clear 9 1021 49 16093 7.2 40 09:18 08.05.2020
3560 Clear 10 1021 43 16093 7.2 40 08:40 08.05.2020
3561 Clear 10 1021 43 16093 7.2 40 08:21 08.05.2020
3562 Clear 11 1021 40 16093 7.2 30 07:43 08.05.2020
3563 Clear 11 1021 40 16093 7.2 30 07:23 08.05.2020
3564 Clear 11 1022 37 16093 7.2 40 06:50 08.05.2020
3565 Clear 11 1022 37 16093 7.2 40 06:22 08.05.2020
3566 Clouds 11 1022 37 16093 7.2 30 05:42 08.05.2020
3567 Clouds 11 1023 37 16093 6.7 40 04:32 08.05.2020
3568 Clear 9 1024 46 16093 2.1 230 02:33 08.05.2020
3569 Clear 7 1024 60 16093 1.5 220 01:47 08.05.2020
3570 Clear 6 1024 60 16093 1.5 220 01:27 08.05.2020
3571 Clear 5 1025 51 16093 2.1 200 00:52 08.05.2020
3572 Clear 5 1025 51 16093 2.1 200 00:29 08.05.2020
3573 Clear 4 1025 80 16093 2.1 220 23:59 07.05.2020
3574 Clear 4 1025 80 16093 2.1 220 23:40 07.05.2020
3575 Clear 4 1025 80 16093 2.1 220 23:40 07.05.2020
3576 Clear 4 1025 80 16093 2.1 220 23:21 07.05.2020
3577 Clear 2 1025 86 16093 1.5 210 22:56 07.05.2020
3578 Clear 2 1025 86 16093 1.5 210 22:37 07.05.2020
3579 Clear 2 1025 86 16093 1.5 210 22:19 07.05.2020
3580 Clear 0 1025 92 16093 1.5 200 21:55 07.05.2020
3581 Clear 0 1025 92 16093 1.5 200 21:36 07.05.2020
3582 Clear -1 1025 92 16093 1.5 200 21:18 07.05.2020
3583 Mist -2 1025 92 2816 1.5 220 20:42 07.05.2020
3584 Mist -2 1025 92 2816 1.5 220 20:23 07.05.2020
3585 Mist -4 1025 85 4828 2 54 19:56 07.05.2020
3586 Mist -5 1025 100 1609 2 54 19:38 07.05.2020
3587 Mist -5 1025 100 1609 2 48 19:19 07.05.2020
3588 Fog -5 1024 100 402 2 48 18:44 07.05.2020
3589 Fog -5 1024 100 402 1.7 56 18:26 07.05.2020
3590 Mist -4 1024 92 1207 1.7 56 17:44 07.05.2020
3591 Mist -4 1024 92 1207 1.63 61 17:21 07.05.2020
3592 Snow -4 1024 100 4828 2.1 70 16:59 07.05.2020
3593 Mist -4 1024 100 4828 2.1 70 16:40 07.05.2020
3594 Snow -4 1024 100 4828 2.1 70 16:18 07.05.2020
3595 Snow -4 1024 100 2414 2.1 90 15:56 07.05.2020
3596 Mist -4 1024 100 1207 3.1 110 15:37 07.05.2020
3597 Mist -4 1024 100 1207 3.1 110 15:18 07.05.2020
3598 Clouds -3 1023 92 16093 3.1 70 14:43 07.05.2020
3599 Clouds -4 1023 92 16093 3.1 70 14:20 07.05.2020
3600 Clouds -4 1023 92 16093 2.1 80 13:44 07.05.2020
3601 Clouds -3 1023 92 16093 2.1 80 13:25 07.05.2020
3602 Snow -3 1023 100 4828 1.13 77 12:54 07.05.2020
3603 Snow -3 1023 100 4828 1.13 77 12:36 07.05.2020
3604 Snow -3 1023 100 4828 1.01 79 12:18 07.05.2020
3605 Mist -3 1023 100 4023 1.5 120 11:39 07.05.2020
3606 Mist -3 1023 100 4023 1.5 120 11:21 07.05.2020
3607 Mist -3 1022 100 1207 1.5 0 10:43 07.05.2020
3608 Mist -3 1022 100 1207 1.5 0 10:24 07.05.2020
3609 Mist -3 1022 100 1609 1.5 0 09:54 07.05.2020
3610 Fog -3 1022 100 805 1.5 340 09:36 07.05.2020
3611 Fog -3 1022 100 805 1.5 340 09:18 07.05.2020
3612 Fog -2 1022 92 402 1.32 135 08:41 07.05.2020
3613 Fog -2 1022 92 402 1.61 154 08:21 07.05.2020
3614 Mist -2 1021 92 1207 3.1 210 07:57 07.05.2020
3615 Mist -2 1021 92 4828 1.5 250 07:39 07.05.2020
3616 Mist -2 1021 92 4828 1.5 250 07:18 07.05.2020
3617 Mist -2 1021 92 4828 1.5 240 06:36 07.05.2020
3618 Mist -1 1021 100 4828 2.1 220 05:40 07.05.2020
3619 Fog 1 1021 92 805 2.6 210 04:26 07.05.2020
3620 Mist 1 1021 92 1207 2.1 180 03:29 07.05.2020
3621 Mist 1 1021 92 1609 1.5 190 02:55 07.05.2020
3622 Mist 0 1021 92 1609 2.6 190 02:19 07.05.2020
3623 Mist 1 1021 92 1207 4.1 160 01:25 07.05.2020
3624 Mist 0 1021 92 1207 3.6 170 00:51 07.05.2020
3625 Fog 1 1021 92 805 3.6 170 00:30 07.05.2020
3626 Mist 1 1020 100 1609 4.1 160 23:58 06.05.2020
3627 Clear 2 1020 86 16093 3.6 150 23:38 06.05.2020
3628 Clear 2 1020 86 16093 3.6 150 23:19 06.05.2020
3629 Clear 2 1020 80 16093 2.6 160 22:54 06.05.2020
3630 Clear 2 1020 80 16093 2.6 160 22:36 06.05.2020
3631 Clear 2 1020 80 16093 2.6 160 22:18 06.05.2020
3632 Clear 1 1020 79 16093 3.6 150 21:42 06.05.2020
3633 Clear 1 1020 81 16093 3.6 150 21:22 06.05.2020
3634 Clear 1 1020 74 16093 4.6 110 20:56 06.05.2020
3635 Clear 1 1020 74 16093 4.6 110 20:37 06.05.2020
3636 Clear 1 1020 74 16093 4.6 110 20:19 06.05.2020
3637 Clear 1 1019 80 16093 3.1 130 19:56 06.05.2020
3638 Clear 0 1019 80 16093 3.1 130 19:37 06.05.2020
3639 Clear 1 1019 80 16093 3.1 130 19:18 06.05.2020
3640 Clear 0 1019 74 16093 3.1 100 18:55 06.05.2020
3641 Clear 0 1019 74 16093 3.1 100 18:36 06.05.2020
3642 Clear 0 1019 74 16093 3.1 100 18:18 06.05.2020
3643 Clear -1 1019 86 16093 1.65 54 17:54 06.05.2020
3644 Clear -1 1019 86 16093 1.65 54 17:36 06.05.2020
3645 Clear 0 1019 86 16093 1.46 61 17:18 06.05.2020
3646 Clear 0 1019 91 16093 2.1 90 16:56 06.05.2020
3647 Clear 0 1019 91 16093 2.1 90 16:38 06.05.2020
3648 Clear 0 1019 91 16093 2.1 90 16:19 06.05.2020
3649 Clear 0 1019 86 16093 2.6 40 15:45 06.05.2020
3650 Clear -1 1019 86 16093 2.6 40 15:22 06.05.2020
3651 Clear -2 1019 86 16093 1.5 160 14:56 06.05.2020
3652 Clear -1 1019 86 16093 1.5 160 14:38 06.05.2020
3653 Clear -2 1019 86 16093 1.5 160 14:18 06.05.2020
3654 Clear -1 1019 74 16093 2.1 130 13:57 06.05.2020
3655 Clear 0 1019 74 16093 2.1 130 13:37 06.05.2020
3656 Clear 0 1019 74 16093 2.1 130 13:18 06.05.2020
3657 Clear 1 1019 74 16093 1.39 41 12:42 06.05.2020
3658 Clear 1 1019 74 16093 1.38 33 12:24 06.05.2020
3659 Clear 1 1018 74 16093 1.5 20 11:41 06.05.2020
3660 Clear 1 1018 74 16093 1.5 20 11:22 06.05.2020
3661 Clear 2 1018 74 16093 2.6 100 10:58 06.05.2020
3662 Clear 2 1018 74 16093 2.6 100 10:39 06.05.2020
3663 Clear 2 1018 74 16093 2.6 100 10:19 06.05.2020
3664 Clear 2 1018 69 16093 1.29 17 09:56 06.05.2020
3665 Clear 3 1018 69 16093 1.29 17 09:36 06.05.2020
3666 Clear 3 1018 69 16093 1.33 356 09:18 06.05.2020
3667 Clear 3 1018 69 16093 3.1 290 08:41 06.05.2020
3668 Clear 3 1018 69 16093 3.1 290 08:20 06.05.2020
3669 Clear 4 1018 60 16093 4.1 290 07:55 06.05.2020
3670 Clear 5 1018 60 16093 4.1 290 07:36 06.05.2020
3671 Clear 5 1018 60 16093 4.1 290 07:18 06.05.2020
3672 Clear 5 1018 60 16093 4.1 290 07:18 06.05.2020
3673 Clear 5 1018 45 16093 3.6 270 06:43 06.05.2020
3674 Clear 6 1018 45 16093 3.6 270 06:19 06.05.2020
3675 Clear 7 1018 45 16093 4.1 270 05:37 06.05.2020
3676 Clear 6 1018 45 16093 2.6 260 04:49 06.05.2020
3677 Clear 7 1018 48 16093 2.1 230 03:49 06.05.2020
3678 Clear 7 1018 48 16093 2.1 230 03:24 06.05.2020
3679 Clear 6 1018 60 16093 2.6 220 02:38 06.05.2020
3680 Clear 5 1018 60 16093 2.6 220 02:20 06.05.2020
3681 Clear 5 1017 56 16093 2.6 210 01:41 06.05.2020
3682 Clear 5 1017 56 16093 2.1 200 00:56 06.05.2020
3683 Clear 6 1017 56 16093 2.1 200 00:31 06.05.2020
3684 Clear 6 1017 56 16093 1.06 333 23:58 05.05.2020
3685 Clear 6 1017 56 16093 1.06 333 23:39 05.05.2020
3686 Clear 6 1017 56 16093 1.31 2 23:19 05.05.2020
3687 Clear 6 1017 56 16093 1.31 2 23:19 05.05.2020
3688 Clear 6 1017 52 16093 2.6 150 22:42 05.05.2020
3689 Clear 6 1017 52 16093 2.6 150 22:20 05.05.2020
3690 Clear 4 1016 60 16093 2.1 150 21:59 05.05.2020
3691 Clear 4 1016 60 16093 2.1 150 21:41 05.05.2020
3692 Clear 4 1016 60 16093 2.1 150 21:21 05.05.2020
3693 Clear 6 1016 52 16093 1.78 14 20:59 05.05.2020
3694 Clear 6 1016 52 16093 1.78 14 20:39 05.05.2020
3695 Clear 6 1016 52 16093 1.88 27 20:19 05.05.2020
3696 Clear 3 1016 59 16093 2.1 280 19:58 05.05.2020
3697 Clear 3 1016 59 16093 2.1 280 19:37 05.05.2020
3698 Clear 3 1016 59 16093 2.1 280 19:37 05.05.2020
3699 Clear 3 1016 59 16093 2.1 280 19:18 05.05.2020
3700 Clear 1 1015 69 16093 2.41 22 18:55 05.05.2020
3701 Clear 1 1015 69 16093 2.41 22 18:37 05.05.2020
3702 Clear 1 1015 69 16093 2.41 22 18:37 05.05.2020
3703 Clear 0 1015 69 16093 2.66 14 18:19 05.05.2020
3704 Clear 0 1015 69 16093 2.66 14 17:43 05.05.2020
3705 Clear 0 1015 69 16093 2.64 17 17:25 05.05.2020
3706 Clear 0 1015 69 16093 2.64 17 17:25 05.05.2020
3707 Clear 0 1015 64 16093 3.6 350 16:58 05.05.2020
3708 Clear 0 1015 64 16093 3.6 350 16:37 05.05.2020
3709 Clear 0 1015 64 16093 3.6 350 16:18 05.05.2020
3710 Clear -2 1014 78 0 1.34 327 15:56 05.05.2020
3711 Clear -3 1014 84 0 2.52 21 15:38 05.05.2020
3712 Clear 0 1014 64 16093 4.1 350 15:19 05.05.2020
3713 Clear 0 1014 64 16093 4.1 350 14:54 05.05.2020
3714 Clear 0 1014 64 16093 4.1 350 14:36 05.05.2020
3715 Clear 0 1014 64 16093 4.1 350 14:18 05.05.2020
3716 Clear 1 1014 64 16093 3.6 340 13:54 05.05.2020
3717 Clear 1 1014 64 16093 3.6 340 13:36 05.05.2020
3718 Clear 1 1014 64 16093 3.6 340 13:18 05.05.2020
3719 Clear 1 1014 74 16093 3.6 340 12:40 05.05.2020
3720 Clear 1 1014 74 16093 3.6 340 12:22 05.05.2020
3721 Clear 1 1014 69 16093 2.6 350 11:59 05.05.2020
3722 Clear 1 1014 69 16093 2.6 350 11:59 05.05.2020
3723 Clear 1 1014 69 16093 2.6 350 11:40 05.05.2020
3724 Clear 1 1014 69 16093 2.6 350 11:19 05.05.2020
3725 Clear 1 1014 69 16093 3.6 350 10:55 05.05.2020
3726 Clear 1 1014 69 16093 3.6 350 10:36 05.05.2020
3727 Clear 2 1014 69 16093 3.6 350 10:18 05.05.2020
3728 Clear 2 1013 64 16093 2.6 300 09:44 05.05.2020
3729 Clear 3 1013 64 16093 2.6 300 09:26 05.05.2020
3730 Clear 3 1013 64 16093 2.6 300 08:56 05.05.2020
3731 Clear 4 1013 64 16093 2.6 300 08:37 05.05.2020
3732 Clear 4 1013 64 16093 2.6 300 08:18 05.05.2020
3733 Clear 5 1013 56 16093 4.6 280 07:43 05.05.2020
3734 Clear 5 1013 56 16093 4.6 280 07:20 05.05.2020
3735 Clear 5 1013 45 16093 5.7 280 06:51 05.05.2020
3736 Clear 5 1013 45 16093 5.7 280 06:31 05.05.2020
3737 Clear 6 1013 48 16093 5.1 280 05:53 05.05.2020
3738 Clear 6 1013 45 16093 4.6 280 04:58 05.05.2020
3739 Clear 7 1013 39 16093 2.6 60 02:37 05.05.2020
3740 Clear 6 1013 45 16093 5.1 40 00:56 05.05.2020
3741 Clear 6 1013 45 16093 5.1 40 00:31 05.05.2020
3742 Clear 6 1013 45 16093 5.1 40 23:48 04.05.2020
3743 Clear 6 1013 45 16093 5.1 40 23:26 04.05.2020
3744 Clear 6 1013 41 16093 4.6 60 22:59 04.05.2020
3745 Clear 6 1013 41 16093 4.6 60 22:41 04.05.2020
3746 Clear 6 1013 41 16093 4.6 60 22:22 04.05.2020
3747 Clear 6 1013 41 16093 4.6 60 22:22 04.05.2020
3748 Clear 5 1013 48 16093 5.1 40 21:57 04.05.2020
3749 Clear 5 1013 48 16093 5.1 40 21:37 04.05.2020
3750 Clear 5 1013 48 16093 5.1 40 21:37 04.05.2020
3751 Clear 5 1013 48 16093 5.1 40 21:19 04.05.2020
3752 Clear 4 1013 48 16093 5.1 40 20:41 04.05.2020
3753 Clear 4 1013 48 16093 5.1 40 20:41 04.05.2020
3754 Clear 4 1013 48 16093 5.1 40 20:41 04.05.2020
3755 Clear 4 1013 48 16093 5.1 40 20:21 04.05.2020
3756 Clear 4 1013 48 16093 5.1 40 20:21 04.05.2020
3757 Clear 3 1013 47 16093 5.7 40 19:56 04.05.2020
3758 Clear 3 1013 47 16093 5.7 40 19:37 04.05.2020
3759 Clear 2 1013 47 16093 5.7 40 19:18 04.05.2020
3760 Clear 1 1012 51 16093 5.7 40 18:39 04.05.2020
3761 Clear 2 1012 51 16093 5.7 40 18:20 04.05.2020
3762 Clear 2 1012 51 16093 5.7 40 18:20 04.05.2020
3763 Clear 1 1013 55 16093 5.1 40 17:56 04.05.2020
3764 Clear 1 1013 55 16093 5.1 40 17:38 04.05.2020
3765 Clear 1 1013 55 16093 5.1 40 17:20 04.05.2020
3766 Clear 2 1013 55 16093 4.6 30 16:56 04.05.2020
3767 Clear 2 1013 55 16093 4.6 30 16:37 04.05.2020
3768 Clear 2 1013 55 16093 4.6 30 16:19 04.05.2020
3769 Clear 2 1013 55 16093 4.6 30 16:19 04.05.2020
3770 Clear 3 1013 47 16093 6.2 40 15:40 04.05.2020
3771 Clear 1 1013 47 16093 6.2 40 15:22 04.05.2020
3772 Clear 2 1013 47 16093 5.7 30 14:49 04.05.2020
3773 Clear 3 1013 47 16093 5.7 30 14:22 04.05.2020
3774 Clear 3 1013 47 16093 5.7 30 14:22 04.05.2020
3775 Clear 3 1013 47 16093 5.7 30 14:22 04.05.2020
3776 Clear 2 1013 51 16093 5.1 20 13:22 04.05.2020
3777 Clear 2 1013 51 16093 5.1 20 13:21 04.05.2020
3778 Clear 3 1013 51 16093 5.1 20 13:21 04.05.2020
3779 Clear 3 1013 51 16093 5.1 30 12:44 04.05.2020
3780 Clear 3 1013 51 16093 5.1 30 12:44 04.05.2020
3781 Clear 3 1013 51 16093 5.1 30 12:44 04.05.2020
3782 Clear 3 1013 51 16093 5.1 30 12:44 04.05.2020
3783 Clear 3 1013 51 16093 5.1 30 12:44 04.05.2020
3784 Clear 3 1013 51 16093 4.6 40 11:27 04.05.2020
3785 Clear 3 1013 51 16093 4.6 40 11:27 04.05.2020
3786 Clear 3 1013 51 16093 4.6 40 11:27 04.05.2020
3787 Clear 3 1013 51 16093 4.6 40 11:27 04.05.2020
3788 Clear 3 1013 51 16093 4.6 40 11:27 04.05.2020
3789 Clear 6 1014 41 16093 3.6 40 09:28 04.05.2020
3790 Clear 6 1014 45 16093 4.1 330 07:54 04.05.2020
3791 Clear 6 1014 45 16093 4.1 330 07:34 04.05.2020
3792 Clear 7 1014 45 16093 2.6 340 05:52 04.05.2020
3793 Clear 8 1015 36 16093 4.1 340 04:52 04.05.2020
3794 Clear 7 1016 31 16093 2.6 340 02:56 04.05.2020
3795 Clear 7 1016 28 16093 3.6 20 01:44 04.05.2020
3796 Clear 6 1017 33 16093 4.1 20 00:18 04.05.2020
3797 Clear 6 1017 33 16093 6.2 30 23:44 03.05.2020
3798 Clear 6 1017 33 16093 6.2 30 23:23 03.05.2020
3799 Clear 5 1017 41 16093 2.6 320 22:44 03.05.2020
3800 Clear 5 1017 41 16093 2.6 320 22:25 03.05.2020
3801 Clear 4 1018 41 16093 1.5 280 21:56 03.05.2020
3802 Clear 4 1018 41 16093 1.5 280 21:38 03.05.2020
3803 Clear 4 1018 41 16093 1.5 280 21:19 03.05.2020
3804 Clear 4 1018 41 16093 1.5 280 21:19 03.05.2020
3805 Clear 4 1018 41 16093 1.5 280 21:19 03.05.2020
3806 Clear 4 1018 41 16093 1.5 280 21:19 03.05.2020
3807 Clear 1 1018 69 16093 2.81 16 20:42 03.05.2020
3808 Clear 1 1018 69 16093 2.81 16 20:42 03.05.2020
3809 Clear 1 1018 69 16093 3.04 15 20:20 03.05.2020
3810 Clear 0 1018 85 16093 3.04 15 19:48 03.05.2020
3811 Clear 0 1018 85 16093 3.04 15 19:48 03.05.2020
3812 Clear 0 1018 85 16093 3.04 15 19:30 03.05.2020
3813 Clear -1 1018 80 16093 3.18 4 18:56 03.05.2020
3814 Clear -1 1018 80 16093 3.18 4 18:56 03.05.2020
3815 Clear -1 1018 80 16093 3.18 4 18:37 03.05.2020
3816 Clear -1 1018 80 16093 3.18 4 18:37 03.05.2020
3817 Clear -1 1018 80 16093 3.18 4 18:37 03.05.2020
3818 Clear -1 1018 80 16093 3.18 4 18:37 03.05.2020
3819 Clear -1 1018 80 16093 3.18 4 18:37 03.05.2020
3820 Clear -2 1018 80 16093 3.27 6 18:19 03.05.2020
3821 Clear -2 1018 80 16093 3.27 6 18:19 03.05.2020
3822 Clear -2 1018 80 16093 3.27 6 18:19 03.05.2020
3823 Clear -2 1018 80 16093 3.27 6 18:19 03.05.2020
3824 Clear -2 1018 80 16093 3.27 6 18:19 03.05.2020
3825 Clear -2 1018 74 16093 3.27 6 17:41 03.05.2020
3826 Clear -2 1018 74 16093 3.27 6 17:41 03.05.2020
3827 Clear -2 1018 74 16093 3.27 6 17:41 03.05.2020
3828 Clear -2 1018 74 16093 3.27 7 17:21 03.05.2020
3829 Clear -2 1018 68 16093 2.6 20 16:45 03.05.2020
3830 Clear -2 1018 68 16093 2.6 20 16:20 03.05.2020
3831 Clear -1 1018 74 16093 1.5 340 15:58 03.05.2020
3832 Clear -1 1018 74 16093 1.5 340 15:58 03.05.2020
3833 Clear -2 1018 74 16093 1.5 340 15:40 03.05.2020
3834 Clear -2 1018 74 16093 1.5 340 15:20 03.05.2020
3835 Clear -1 1019 90 16093 3.6 330 14:58 03.05.2020
3836 Clear 0 1019 90 16093 3.6 330 14:40 03.05.2020
3837 Clear 0 1019 90 16093 3.6 330 14:40 03.05.2020
3838 Clear 0 1019 90 16093 3.6 330 14:21 03.05.2020
3839 Clear 0 1019 69 16093 5.7 330 13:53 03.05.2020
3840 Clear 0 1019 69 16093 5.7 330 13:53 03.05.2020
3841 Clear 0 1019 69 16093 5.7 330 13:53 03.05.2020
3842 Clear 0 1019 69 16093 5.7 330 13:53 03.05.2020
3843 Clear 0 1019 69 16093 5.7 330 13:53 03.05.2020
3844 Clear 1 1019 69 16093 5.7 330 13:19 03.05.2020
3845 Clear 1 1019 69 16093 5.7 330 13:19 03.05.2020
3846 Clear 1 1019 74 16093 3.1 310 12:43 03.05.2020
3847 Clear 1 1019 74 16093 3.1 310 12:18 03.05.2020
3848 Clear 1 1019 64 16093 2.6 350 11:55 03.05.2020
3849 Clear 1 1019 64 16093 2.6 350 11:55 03.05.2020
3850 Clear 2 1019 64 16093 2.6 350 11:37 03.05.2020
3851 Clear 2 1019 64 16093 2.6 350 11:18 03.05.2020
3852 Clear 2 1020 64 16093 4.1 350 10:46 03.05.2020
3853 Clear 2 1020 64 16093 4.1 350 10:46 03.05.2020
3854 Clear 2 1020 64 16093 4.1 350 10:46 03.05.2020
3855 Clear 2 1020 64 16093 4.1 350 10:46 03.05.2020
3856 Clear 2 1020 64 16093 4.1 350 10:46 03.05.2020
3857 Clear 3 1020 69 16093 3.6 360 09:57 03.05.2020
3858 Clear 3 1020 69 16093 3.6 360 09:57 03.05.2020
3859 Clear 3 1020 69 16093 3.6 360 09:57 03.05.2020
3860 Clear 3 1020 69 16093 3.6 360 09:57 03.05.2020
3861 Clear 3 1020 69 16093 3.6 360 09:57 03.05.2020
3862 Clear 3 1020 69 16093 3.6 360 09:33 03.05.2020
3863 Clear 3 1020 69 16093 3.6 360 09:33 03.05.2020
3864 Clear 3 1020 69 16093 3.6 360 09:33 03.05.2020
3865 Clear 5 1019 60 16093 3.6 340 08:55 03.05.2020
3866 Clear 5 1019 60 16093 3.6 340 08:55 03.05.2020
3867 Clear 5 1019 60 16093 3.6 340 08:55 03.05.2020
3868 Clear 5 1019 60 16093 3.6 340 08:55 03.05.2020
3869 Clear 5 1019 60 16093 3.6 340 08:55 03.05.2020
3870 Clear 5 1019 60 16093 3.6 340 08:26 03.05.2020
3871 Clear 5 1019 60 16093 3.6 340 08:26 03.05.2020
3872 Clear 5 1019 60 16093 3.6 340 08:26 03.05.2020
3873 Clear 5 1019 60 16093 3.6 340 08:26 03.05.2020
3874 Clear 5 1019 60 16093 3.6 340 08:26 03.05.2020
3875 Clear 6 1019 84 16093 2.6 290 07:39 03.05.2020
3876 Clear 7 1019 56 16093 3.1 310 06:19 03.05.2020
3877 Clear 7 1020 52 16093 3.6 320 05:46 03.05.2020
3878 Clear 8 1020 49 16093 3.1 330 04:46 03.05.2020
3879 Clear 8 1020 49 16093 3.1 330 04:23 03.05.2020
3880 Clear 7 1020 70 16093 2.1 210 02:58 03.05.2020
3881 Clear 7 1020 70 16093 2.1 210 02:24 03.05.2020
3882 Clear 6 1020 70 16093 2.1 270 01:44 03.05.2020
3883 Clear 7 1020 70 16093 2.1 270 01:24 03.05.2020
3884 Clear 7 1020 79 16093 3.6 310 00:42 03.05.2020
3885 Clear 7 1020 79 16093 3.6 310 00:21 03.05.2020
3886 Clear 7 1020 56 16093 2.6 330 23:59 02.05.2020
3887 Clear 7 1020 56 16093 2.6 330 23:41 02.05.2020
3888 Clear 7 1020 56 16093 2.6 330 23:21 02.05.2020
3889 Clear 5 1020 69 16093 4.6 310 22:43 02.05.2020
3890 Clear 4 1020 69 16093 4.6 310 22:23 02.05.2020
3891 Clear 3 1020 74 16093 3.6 310 21:56 02.05.2020
3892 Clear 3 1020 74 16093 3.6 310 21:38 02.05.2020
3893 Clear 3 1020 74 16093 3.6 310 21:18 02.05.2020
3894 Clear 3 1020 74 16093 3.6 310 21:18 02.05.2020
3895 Clear 1 1020 84 16093 1.5 310 20:56 02.05.2020
3896 Clear 1 1020 84 16093 1.5 310 20:37 02.05.2020
3897 Clear 1 1020 88 16093 1.5 310 20:19 02.05.2020
3898 Clear -1 1020 79 16093 1.5 280 19:55 02.05.2020
3899 Clear -1 1020 79 16093 1.5 280 19:37 02.05.2020
3900 Clear -2 1019 79 16093 2.23 360 19:18 02.05.2020
3901 Clear -3 1019 79 16093 2.23 360 18:40 02.05.2020
3902 Clear -3 1019 79 16093 2.31 360 18:22 02.05.2020
3903 Clear -4 1019 85 16093 1.5 260 17:57 02.05.2020
3904 Clear -4 1019 85 16093 1.5 260 17:39 02.05.2020
3905 Clear -4 1019 85 16093 1.5 260 17:20 02.05.2020
3906 Clear -5 1019 92 16093 1.5 290 16:58 02.05.2020
3907 Clear -5 1019 92 16093 1.5 290 16:39 02.05.2020
3908 Clear -5 1019 92 16093 1.5 290 16:21 02.05.2020
3909 Clear -5 1019 92 16093 2.1 290 15:42 02.05.2020
3910 Clear -5 1019 92 16093 2.1 290 15:20 02.05.2020
3911 Clear -4 1019 92 16093 1.5 280 14:46 02.05.2020
3912 Clear -4 1019 92 16093 1.5 280 14:28 02.05.2020
3913 Clear -3 1018 86 16093 1.5 320 13:59 02.05.2020
3914 Clear -3 1018 86 16093 1.5 320 13:40 02.05.2020
3915 Clear -3 1018 86 16093 1.5 320 13:21 02.05.2020
3916 Clear -2 1018 80 16093 2.22 20 12:43 02.05.2020
3917 Clear -2 1018 80 16093 2.17 29 12:25 02.05.2020
3918 Clear -1 1018 94 16093 1.5 210 11:59 02.05.2020
3919 Clear -1 1018 94 16093 1.5 210 11:40 02.05.2020
3920 Clear -1 1018 94 16093 1.5 210 11:22 02.05.2020
3921 Clear 0 1017 74 16093 2.04 38 10:57 02.05.2020
3922 Clear 0 1017 74 16093 2.04 38 10:38 02.05.2020
3923 Clear 1 1017 74 16093 1.88 48 10:20 02.05.2020
3924 Clear 1 1017 74 16093 1.88 48 10:20 02.05.2020
3925 Clear 1 1017 69 16093 1.88 48 09:55 02.05.2020
3926 Clear 1 1017 69 16093 1.88 48 09:36 02.05.2020
3927 Clear 1 1017 69 16093 1.72 71 09:18 02.05.2020
3928 Clear 3 1016 64 16093 2.1 80 08:45 02.05.2020
3929 Clear 3 1016 64 16093 2.1 80 08:25 02.05.2020
3930 Clear 3 1015 64 16093 3.6 90 07:47 02.05.2020
3931 Clear 4 1015 64 16093 3.6 90 07:28 02.05.2020
3932 Clear 4 1015 64 16093 4.1 90 06:50 02.05.2020
3933 Clear 4 1015 64 16093 5.1 90 05:29 02.05.2020
3934 Clear 4 1014 64 16093 4.6 80 04:47 02.05.2020
3935 Clear 4 1014 64 16093 4.6 80 04:23 02.05.2020
3936 Clear 3 1013 69 16093 6.7 90 02:44 02.05.2020
3937 Clear 3 1013 69 16093 6.7 90 02:23 02.05.2020
3938 Clear 3 1013 64 16093 7.7 90 01:48 02.05.2020
3939 Clear 4 1012 55 16093 7.2 100 00:46 02.05.2020
3940 Clear 4 1012 55 16093 7.2 100 00:25 02.05.2020
3941 Clear 4 1012 51 16093 5.7 80 23:58 01.05.2020
3942 Clear 4 1012 51 16093 5.7 80 23:39 01.05.2020
3943 Clear 4 1012 51 16093 5.7 80 23:19 01.05.2020
3944 Clear 4 1011 48 16093 4.1 70 22:54 01.05.2020
3945 Clear 4 1011 48 16093 4.1 70 22:36 01.05.2020
3946 Clear 4 1011 48 16093 4.1 70 22:18 01.05.2020
3947 Clear 4 1011 51 16093 3.6 60 21:41 01.05.2020
3948 Clear 3 1011 51 16093 3.6 60 21:21 01.05.2020
3949 Clear 2 1010 55 16093 4.1 40 20:58 01.05.2020
3950 Clear 2 1010 55 16093 4.1 40 20:40 01.05.2020
3951 Clear 2 1010 55 16093 4.1 40 20:20 01.05.2020
3952 Clear 2 1010 55 16093 4.1 40 20:20 01.05.2020
3953 Clear 1 1009 55 16093 4.6 40 19:59 01.05.2020
3954 Clear 1 1009 55 16093 4.6 40 19:41 01.05.2020
3955 Clear 1 1009 55 16093 4.6 40 19:21 01.05.2020
3956 Clear 0 1009 58 16093 4.6 40 18:56 01.05.2020
3957 Clear -1 1009 58 16093 4.6 40 18:38 01.05.2020
3958 Clear -1 1009 58 16093 4.6 40 18:19 01.05.2020
3959 Clear -1 1009 58 16093 4.6 40 18:19 01.05.2020
3960 Clear -2 1009 68 16093 3.1 30 17:41 01.05.2020
3961 Clear -3 1009 68 16093 3.1 30 17:23 01.05.2020
3962 Clear -2 1009 58 16093 4.1 50 16:58 01.05.2020
3963 Clear -2 1009 58 16093 4.1 50 16:40 01.05.2020
3964 Clear -1 1009 58 16093 4.1 50 16:21 01.05.2020
3965 Clear -1 1008 58 16093 4.1 50 15:58 01.05.2020
3966 Clear -2 1008 58 16093 4.1 50 15:39 01.05.2020
3967 Clear -2 1008 58 16093 4.1 50 15:20 01.05.2020
3968 Clear -1 1008 63 16093 3.6 30 14:44 01.05.2020
3969 Clear -2 1008 63 16093 3.6 30 14:25 01.05.2020
3970 Clear -1 1008 63 16093 2.1 30 13:57 01.05.2020
3971 Clear -1 1008 63 16093 2.1 30 13:39 01.05.2020
3972 Clear -1 1008 63 16093 2.1 30 13:21 01.05.2020
3973 Clear 0 1008 50 16093 4.1 50 12:56 01.05.2020
3974 Clear 0 1008 50 16093 4.1 50 12:37 01.05.2020
3975 Clear 0 1008 50 16093 4.1 50 12:18 01.05.2020
3976 Clear 0 1007 55 16093 3.1 30 11:42 01.05.2020
3977 Clear 0 1007 55 16093 3.1 30 11:42 01.05.2020
3978 Clear 1 1007 55 16093 3.1 30 11:23 01.05.2020
3979 Clear 2 1007 51 16093 3.6 50 10:58 01.05.2020
3980 Clear 2 1007 51 16093 3.6 50 10:39 01.05.2020
3981 Clear 1 1007 51 16093 3.6 50 10:20 01.05.2020
3982 Clear 1 1007 59 16093 3.6 80 09:44 01.05.2020
3983 Clear 1 1007 59 16093 3.6 80 09:20 01.05.2020
3984 Clear 3 1006 48 16093 4.1 70 08:58 01.05.2020
3985 Clear 3 1006 48 16093 4.1 70 08:40 01.05.2020
3986 Clear 3 1006 48 16093 4.1 70 08:21 01.05.2020
3987 Clear 3 1006 60 16093 3.1 90 07:44 01.05.2020
3988 Clear 3 1006 60 16093 3.1 90 07:22 01.05.2020
3989 Clear 4 1006 56 16093 2.6 330 06:50 01.05.2020
3990 Clear 5 1006 56 16093 2.1 290 05:36 01.05.2020
3991 Clear 4 1006 60 16093 2.6 260 04:47 01.05.2020
3992 Clear 5 1007 52 16093 2.6 60 03:24 01.05.2020
3993 Clear 5 1007 56 16093 4.1 40 02:45 01.05.2020
3994 Clear 5 1007 56 16093 4.1 40 02:19 01.05.2020
3995 Clear 4 1007 51 16093 1.5 290 01:28 01.05.2020
3996 Clear 3 1007 51 16093 2.1 100 00:59 01.05.2020
3997 Clear 3 1007 51 16093 2.1 100 00:37 01.05.2020
3998 Clear 3 1007 51 16093 2.1 100 00:18 01.05.2020
3999 Clear 3 1007 47 16093 3.1 80 23:54 30.04.2020
4000 Clear 3 1007 47 16093 3.1 80 23:36 30.04.2020
4001 Clear 3 1007 47 16093 3.1 80 23:18 30.04.2020
4002 Clear 3 1008 55 16093 3.1 90 22:41 30.04.2020
4003 Clear 2 1008 55 16093 3.1 90 22:20 30.04.2020
4004 Clear 2 1008 55 16093 2.1 50 21:55 30.04.2020
4005 Clear 2 1008 55 16093 2.1 50 21:37 30.04.2020
4006 Clear 2 1008 55 16093 2.1 50 21:19 30.04.2020
4007 Clear 1 1008 59 16093 2.1 30 20:42 30.04.2020
4008 Clear 1 1008 59 16093 2.1 30 20:19 30.04.2020
4009 Clear -1 1008 93 16093 2.1 10 19:58 30.04.2020
4010 Clear -1 1008 93 16093 2.1 10 19:40 30.04.2020
4011 Clear -1 1008 93 16093 2.1 10 19:22 30.04.2020
4012 Clear -3 1007 68 16093 1.5 20 18:56 30.04.2020
4013 Clear -3 1007 68 16093 1.5 20 18:37 30.04.2020
4014 Clear -3 1007 68 16093 1.5 20 18:18 30.04.2020
4015 Clear -4 1007 68 16093 2.2 31 17:42 30.04.2020
4016 Clear -3 1007 68 16093 2.32 26 17:22 30.04.2020
4017 Clear -4 1007 73 16093 2.6 360 16:59 30.04.2020
4018 Clear -4 1007 73 16093 2.6 360 16:41 30.04.2020
4019 Clear -4 1007 73 16093 2.6 360 16:20 30.04.2020
4020 Clear -3 1007 63 16093 5.1 350 15:58 30.04.2020
4021 Clear -3 1007 63 16093 5.1 350 15:40 30.04.2020
4022 Clear -3 1007 63 16093 5.1 350 15:21 30.04.2020
4023 Clear -3 1007 68 16093 4.6 350 14:41 30.04.2020
4024 Clear -3 1007 68 16093 4.6 350 14:20 30.04.2020
4025 Clear -3 1007 74 16093 3.6 360 13:58 30.04.2020
4026 Clear -3 1007 74 16093 3.6 360 13:39 30.04.2020
4027 Clear -3 1007 74 16093 3.6 360 13:21 30.04.2020
4028 Clear -2 1007 79 16093 2.6 20 12:58 30.04.2020
4029 Clear -2 1007 79 16093 2.6 20 12:39 30.04.2020
4030 Clear -2 1007 79 16093 2.6 20 12:18 30.04.2020
4031 Clear -2 1007 74 16093 3.1 20 11:38 30.04.2020
4032 Clear -2 1007 74 16093 3.1 20 11:19 30.04.2020
4033 Clear -2 1007 74 16093 3.1 20 11:19 30.04.2020
4034 Clear -2 1008 79 16093 2.6 10 10:57 30.04.2020
4035 Clear -2 1008 79 16093 2.6 10 10:57 30.04.2020
4036 Clear -2 1008 79 16093 2.6 10 10:38 30.04.2020
4037 Clear -2 1008 79 16093 2.6 10 10:18 30.04.2020
4038 Clear -2 1008 74 16093 3.1 350 09:55 30.04.2020
4039 Clear -1 1008 74 16093 3.1 350 09:36 30.04.2020
4040 Clear -2 1008 74 16093 3.1 350 09:18 30.04.2020
4041 Clear -1 1008 93 16093 3.1 330 08:42 30.04.2020
4042 Clear 0 1008 94 16093 3.1 330 08:23 30.04.2020
4043 Clear 1 1008 74 16093 2.1 300 07:43 30.04.2020
4044 Clear 1 1008 74 16093 2.1 300 07:25 30.04.2020
4045 Clear 0 1008 94 16093 3.6 280 06:48 30.04.2020
4046 Clear 0 1008 80 16093 3.6 270 05:50 30.04.2020
4047 Clear 0 1008 80 16093 3.6 270 05:30 30.04.2020
4048 Clear -1 1009 80 16093 4.6 260 04:33 30.04.2020
4049 Clear -1 1009 80 16093 2.6 270 03:54 30.04.2020
4050 Clouds -1 1009 86 16093 2.6 220 02:45 30.04.2020
4051 Clouds -1 1009 86 16093 2.6 220 02:24 30.04.2020
4052 Clouds -2 1009 86 16093 2.6 160 01:35 30.04.2020
4053 Clouds -2 1010 86 16093 2.1 160 00:42 30.04.2020
4054 Clouds -2 1010 86 16093 2.1 160 00:19 30.04.2020
4055 Clouds -3 1010 86 16093 2.6 150 23:57 29.04.2020
4056 Clear -3 1010 86 16093 3.1 80 23:37 29.04.2020
4057 Clear -3 1010 86 16093 3.1 80 23:18 29.04.2020
4058 Clear -3 1010 79 16093 4.1 100 22:40 29.04.2020
4059 Clear -3 1010 79 16093 4.1 100 22:21 29.04.2020
4060 Clear -3 1010 73 16093 2.6 100 21:57 29.04.2020
4061 Clear -3 1010 73 16093 2.6 100 21:37 29.04.2020
4062 Clear -3 1010 73 16093 2.6 100 21:18 29.04.2020
4063 Clear -4 1010 85 16093 1.19 28 20:55 29.04.2020
4064 Clear -4 1010 85 16093 1.19 28 20:36 29.04.2020
4065 Clear -5 1010 85 16093 1.43 30 20:18 29.04.2020
4066 Clear -5 1010 92 16093 1.43 30 19:42 29.04.2020
4067 Clear -6 1010 92 16093 1.5 23 19:20 29.04.2020
4068 Clear -7 1010 85 16093 1.5 23 18:43 29.04.2020
4069 Clear -7 1010 85 16093 1.53 17 18:25 29.04.2020
4070 Clear -8 1009 85 16093 1.5 320 17:59 29.04.2020
4071 Clear -8 1009 85 16093 1.5 320 17:41 29.04.2020
4072 Clear -9 1009 85 16093 1.5 320 17:21 29.04.2020
4073 Clear -9 1009 85 16093 1.56 12 16:39 29.04.2020
4074 Clear -8 1009 85 16093 1.68 11 16:20 29.04.2020
4075 Clear -8 1009 92 16093 1.5 290 15:58 29.04.2020
4076 Clear -9 1009 92 16093 1.5 290 15:40 29.04.2020
4077 Clear -8 1009 92 16093 1.5 290 15:21 29.04.2020
4078 Clear -8 1009 92 16093 1.5 290 15:21 29.04.2020
4079 Clear -8 1009 92 16093 1.83 11 14:59 29.04.2020
4080 Clear -8 1009 92 16093 1.83 11 14:41 29.04.2020
4081 Clear -8 1009 92 16093 2.04 11 14:22 29.04.2020
4082 Clear -8 1009 85 16093 1.5 300 13:55 29.04.2020
4083 Clear -8 1009 85 16093 1.5 300 13:37 29.04.2020
4084 Clear -7 1009 85 16093 2.1 290 13:18 29.04.2020
4085 Clear -7 1009 85 16093 2.1 290 12:40 29.04.2020
4086 Clear -7 1009 85 16093 2.1 290 12:19 29.04.2020
4087 Clear -7 1009 85 16093 3.1 300 11:58 29.04.2020
4088 Clear -7 1009 85 16093 3.1 300 11:36 29.04.2020
4089 Clear -6 1009 85 16093 3.1 300 11:18 29.04.2020
4090 Clear -5 1009 79 16093 3.1 270 10:38 29.04.2020
4091 Clear -5 1009 79 16093 3.1 270 10:20 29.04.2020
4092 Clear -5 1009 79 16093 4.1 280 09:58 29.04.2020
4093 Clear -5 1009 79 16093 4.1 280 09:40 29.04.2020
4094 Clear -4 1009 79 16093 4.1 280 09:18 29.04.2020
4095 Clouds -4 1008 79 16093 3.6 300 08:43 29.04.2020
4096 Clouds -4 1008 79 16093 3.6 300 08:24 29.04.2020
4097 Clouds -3 1009 79 16093 3.6 290 07:50 29.04.2020
4098 Clouds -3 1009 79 16093 3.6 290 07:27 29.04.2020
4099 Clouds -3 1009 79 16093 4.6 270 06:52 29.04.2020
4100 Clouds -3 1009 79 16093 4.6 270 06:31 29.04.2020
4101 Clouds -3 1009 79 16093 5.1 260 05:38 29.04.2020
4102 Clouds -3 1009 79 16093 5.1 260 05:18 29.04.2020
4103 Clouds -3 1008 79 16093 6.7 260 04:19 29.04.2020
4104 Clouds -3 1008 79 16093 5.7 260 02:50 29.04.2020
4105 Clouds -3 1008 79 16093 6.2 260 01:45 29.04.2020
4106 Clouds -3 1008 79 16093 6.2 260 01:26 29.04.2020
4107 Clouds -4 1008 85 16093 5.7 260 00:51 29.04.2020
4108 Clouds -4 1008 85 16093 5.7 260 00:21 29.04.2020
4109 Clouds -4 1008 79 16093 4.6 270 23:56 28.04.2020
4110 Clouds -4 1008 79 16093 4.6 270 23:37 28.04.2020
4111 Clouds -4 1008 79 16093 4.6 270 23:18 28.04.2020
4112 Clouds -4 1008 79 16093 5.7 290 22:38 28.04.2020
4113 Clouds -4 1008 79 16093 5.7 290 22:20 28.04.2020
4114 Clouds -5 1007 85 16093 5.1 280 21:58 28.04.2020
4115 Clouds -5 1007 85 16093 5.1 280 21:40 28.04.2020
4116 Clouds -5 1007 85 16093 5.1 280 21:21 28.04.2020
4117 Clouds -5 1007 85 16093 5.1 300 20:56 28.04.2020
4118 Clouds -5 1007 85 16093 5.1 300 20:38 28.04.2020
4119 Clouds -5 1007 85 16093 5.1 300 20:20 28.04.2020
4120 Clouds -6 1007 85 16093 4.6 310 19:43 28.04.2020
4121 Clouds -6 1007 85 16093 4.6 310 19:23 28.04.2020
4122 Clouds -7 1007 85 16093 2.6 300 19:00 28.04.2020
4123 Clouds -7 1007 85 16093 2.6 300 18:41 28.04.2020
4124 Clouds -7 1007 85 16093 2.6 300 18:20 28.04.2020
4125 Clouds -8 1007 85 16093 2.6 300 17:59 28.04.2020
4126 Clouds -8 1007 85 16093 2.6 300 17:37 28.04.2020
4127 Clouds -8 1007 85 16093 2.6 300 17:19 28.04.2020
4128 Clear -8 1006 78 16093 3.1 310 16:56 28.04.2020
4129 Clear -8 1006 78 16093 3.1 310 16:37 28.04.2020
4130 Clear -8 1006 78 16093 3.1 310 16:18 28.04.2020
4131 Clear -8 1006 78 16093 3.1 310 16:18 28.04.2020
4132 Clear -8 1006 78 16093 5.1 300 15:54 28.04.2020
4133 Clear -8 1006 78 16093 5.1 300 15:36 28.04.2020
4134 Clear -8 1006 78 16093 5.1 300 15:18 28.04.2020
4135 Clear -8 1006 85 16093 5.1 290 14:43 28.04.2020
4136 Clear -8 1006 85 16093 5.1 290 14:22 28.04.2020
4137 Clear -8 1006 85 16093 7.2 300 13:59 28.04.2020
4138 Clear -8 1006 85 16093 7.2 300 13:59 28.04.2020
4139 Clear -8 1006 85 16093 7.2 300 13:40 28.04.2020
4140 Clear -8 1006 85 16093 7.2 300 13:21 28.04.2020
4141 Clear -8 1006 85 16093 6.2 280 12:57 28.04.2020
4142 Clear -8 1006 85 16093 6.2 280 12:37 28.04.2020
4143 Clear -8 1006 85 16093 6.2 280 12:19 28.04.2020
4144 Clear -8 1005 85 16093 4.6 290 11:41 28.04.2020
4145 Clear -8 1005 85 16093 4.6 290 11:21 28.04.2020
4146 Clear -7 1005 85 16093 5.1 270 10:56 28.04.2020
4147 Clear -8 1005 85 16093 5.1 270 10:37 28.04.2020
4148 Clear -8 1005 85 16093 5.1 270 10:18 28.04.2020
4149 Clear -7 1005 85 16093 5.7 270 09:42 28.04.2020
4150 Clear -7 1005 85 16093 5.7 270 09:42 28.04.2020
4151 Clear -6 1005 85 16093 5.7 270 09:24 28.04.2020
4152 Clear -5 1005 79 16093 6.2 280 08:50 28.04.2020
4153 Clear -5 1005 79 16093 6.2 280 08:30 28.04.2020
4154 Clear -5 1005 79 16093 6.2 280 08:30 28.04.2020
4155 Clear -5 1005 79 16093 6.7 260 07:59 28.04.2020
4156 Clear -4 1005 79 16093 6.7 260 07:40 28.04.2020
4157 Clear -4 1005 79 16093 6.7 260 07:18 28.04.2020
4158 Clear -4 1004 79 16093 6.7 260 06:39 28.04.2020
4159 Clear -3 1004 79 16093 5.7 260 05:48 28.04.2020
4160 Clear -3 1004 79 16093 5.7 260 05:30 28.04.2020
4161 Clouds -4 1005 85 16093 4.6 260 04:33 28.04.2020
4162 Clouds -4 1005 85 16093 3.6 250 02:38 28.04.2020
4163 Clouds -4 1005 85 16093 3.1 280 01:37 28.04.2020
4164 Clouds -4 1005 85 16093 3.1 280 01:18 28.04.2020
4165 Clouds -4 1005 79 16093 3.1 300 00:31 28.04.2020
4166 Clouds -5 1005 85 16093 1.5 300 23:56 27.04.2020
4167 Clouds -5 1005 85 16093 1.5 300 23:38 27.04.2020
4168 Clouds -5 1005 85 16093 1.5 300 23:19 27.04.2020
4169 Clouds -6 1004 85 16093 2.6 270 22:42 27.04.2020
4170 Clouds -6 1004 85 16093 2.6 270 22:23 27.04.2020
4171 Clouds -6 1004 79 16093 2.1 290 21:57 27.04.2020
4172 Clouds -6 1004 79 16093 2.1 290 21:38 27.04.2020
4173 Clouds -6 1004 79 16093 2.1 290 21:38 27.04.2020
4174 Clouds -6 1004 79 16093 2.1 290 21:19 27.04.2020
4175 Clear -6 1004 79 16093 1.65 8 20:56 27.04.2020
4176 Clear -7 1004 79 16093 1.65 8 20:38 27.04.2020
4177 Clear -7 1004 79 16093 2.01 15 20:19 27.04.2020
4178 Clear -8 1004 78 16093 2.01 15 19:40 27.04.2020
4179 Clear -8 1004 78 16093 2.44 14 19:22 27.04.2020
4180 Clear -9 1003 78 16093 2.44 14 18:59 27.04.2020
4181 Clear -9 1003 78 16093 2.44 14 18:40 27.04.2020
4182 Clear -9 1003 78 16093 2.6 14 18:20 27.04.2020
4183 Clouds -10 1003 78 16093 2.6 14 17:58 27.04.2020
4184 Clouds -10 1003 78 16093 2.6 14 17:40 27.04.2020
4185 Clouds -10 1003 78 16093 2.5 19 17:19 27.04.2020
4186 Clear -9 1003 72 16093 2.5 19 16:41 27.04.2020
4187 Clear -10 1003 72 16093 2.85 18 16:22 27.04.2020
4188 Clear -9 1003 78 16093 1.5 10 15:57 27.04.2020
4189 Clear -9 1003 78 16093 1.5 10 15:38 27.04.2020
4190 Clear -9 1003 78 16093 1.5 10 15:19 27.04.2020
4191 Clear -8 1003 73 16093 1.5 50 14:58 27.04.2020
4192 Clear -8 1003 73 16093 1.5 50 14:58 27.04.2020
4193 Clear -8 1003 73 16093 1.5 50 14:40 27.04.2020
4194 Clear -8 1003 73 16093 1.5 50 14:19 27.04.2020
4195 Clear -9 1003 78 16093 1.5 340 13:56 27.04.2020
4196 Clear -9 1003 78 16093 1.5 340 13:36 27.04.2020
4197 Clear -8 1003 78 16093 1.5 340 13:18 27.04.2020
4198 Clear -6 1003 68 16093 3.32 14 12:42 27.04.2020
4199 Clear -6 1003 68 16093 3.53 11 12:21 27.04.2020
4200 Clouds -5 1003 68 16093 3.53 11 11:42 27.04.2020
4201 Clouds -5 1003 68 16093 3.53 11 11:22 27.04.2020
4202 Clouds -6 1003 73 16093 3.53 11 10:59 27.04.2020
4203 Clear -5 1003 73 16093 2.6 10 10:41 27.04.2020
4204 Clear -5 1003 73 16093 2.6 10 10:23 27.04.2020
4205 Clear -4 1003 68 16093 2.6 30 09:55 27.04.2020
4206 Clear -4 1003 68 16093 2.6 30 09:36 27.04.2020
4207 Clear -4 1003 68 16093 2.6 30 09:36 27.04.2020
4208 Clear -4 1003 68 16093 2.6 30 09:18 27.04.2020
4209 Clear -3 1003 68 16093 2.1 70 08:45 27.04.2020
4210 Clear -3 1003 68 16093 2.1 70 08:27 27.04.2020
4211 Clear -3 1003 74 16093 3.6 50 07:45 27.04.2020
4212 Clear -3 1003 74 16093 3.6 50 07:23 27.04.2020
4213 Clear -2 1003 68 16093 5.1 40 06:58 27.04.2020
4214 Clear -2 1003 68 16093 5.1 40 06:28 27.04.2020
4215 Clear -1 1003 92 16093 4.6 50 05:55 27.04.2020
4216 Clear 0 1003 69 16093 4.6 40 04:59 27.04.2020
4217 Clear 0 1003 69 16093 4.6 40 04:37 27.04.2020
4218 Clear 0 1003 69 16093 2.6 50 03:45 27.04.2020
4219 Clear 0 1003 69 16093 3.6 50 01:53 27.04.2020
4220 Clear 0 1003 69 16093 3.6 50 01:20 27.04.2020
4221 Clear -1 1003 80 16093 1.5 210 00:40 27.04.2020
4222 Clear -1 1003 80 16093 1.5 210 00:18 27.04.2020
4223 Clear -2 1003 79 16093 1.5 190 23:41 26.04.2020
4224 Clear -2 1003 79 16093 1.5 190 23:22 26.04.2020
4225 Clear -2 1003 74 16093 1.5 230 22:59 26.04.2020
4226 Clear -2 1003 74 16093 1.5 230 22:40 26.04.2020
4227 Clear -2 1003 74 16093 1.5 230 22:21 26.04.2020
4228 Clear -2 1003 79 16093 1.5 340 21:59 26.04.2020
4229 Clear -2 1003 79 16093 1.5 340 21:59 26.04.2020
4230 Clear -2 1003 79 16093 1.5 340 21:40 26.04.2020
4231 Clear -3 1003 79 16093 1.5 340 21:19 26.04.2020
4232 Clear -4 1003 85 16093 1.5 110 20:56 26.04.2020
4233 Clear -4 1003 85 16093 1.5 110 20:37 26.04.2020
4234 Clear -4 1003 85 16093 1.5 110 20:19 26.04.2020
4235 Clear -5 1003 85 16093 3.47 20 19:57 26.04.2020
4236 Clear -5 1003 85 16093 3.47 20 19:37 26.04.2020
4237 Clear -5 1003 85 16093 3.47 20 19:19 26.04.2020
4238 Clear -6 1003 92 16093 3.47 20 18:44 26.04.2020
4239 Clear -6 1003 92 16093 2.89 19 18:24 26.04.2020
4240 Clear -7 1003 92 16093 2.89 19 17:44 26.04.2020
4241 Clear -7 1003 92 16093 2.89 19 17:24 26.04.2020
4242 Clear -7 1004 92 16093 2.89 19 16:59 26.04.2020
4243 Clear -7 1004 92 16093 2.89 19 16:40 26.04.2020
4244 Clear -7 1004 92 16093 2.89 19 16:21 26.04.2020
4245 Clear -7 1004 85 16093 2.89 19 15:58 26.04.2020
4246 Clear -6 1004 85 16093 2.89 19 15:38 26.04.2020
4247 Clear -6 1004 85 16093 2.71 16 15:20 26.04.2020
4248 Clear -5 1005 85 16093 2.71 16 14:54 26.04.2020
4249 Clear -5 1005 85 16093 2.71 16 14:36 26.04.2020
4250 Clear -5 1005 85 16093 2.66 16 14:18 26.04.2020
4251 Clear -4 1005 85 16093 2.6 280 13:41 26.04.2020
4252 Clear -4 1005 85 16093 2.6 280 13:23 26.04.2020
4253 Clear -4 1006 85 16093 3.6 260 12:58 26.04.2020
4254 Clear -4 1006 85 16093 3.6 260 12:39 26.04.2020
4255 Clear -4 1006 85 16093 3.6 260 12:20 26.04.2020
4256 Clear -3 1006 79 16093 1.95 19 11:57 26.04.2020
4257 Clear -3 1006 79 16093 1.95 19 11:38 26.04.2020
4258 Clear -3 1006 79 16093 1.95 19 11:38 26.04.2020
4259 Clear -3 1006 79 16093 1.95 19 11:20 26.04.2020
4260 Clear -2 1006 79 16093 2.6 270 10:55 26.04.2020
4261 Clear -2 1006 79 16093 2.6 270 10:37 26.04.2020
4262 Clear -2 1006 79 16093 2.6 270 10:18 26.04.2020
4263 Clear -2 1006 86 16093 4.1 290 09:39 26.04.2020
4264 Clear -2 1006 86 16093 4.1 290 09:21 26.04.2020
4265 Clear 0 1006 74 16093 3.6 280 08:43 26.04.2020
4266 Clear 1 1006 74 16093 3.6 280 08:23 26.04.2020
4267 Clear 2 1007 69 16093 2.6 290 07:58 26.04.2020
4268 Clear 2 1007 69 16093 2.6 290 07:40 26.04.2020
4269 Clear 2 1008 74 16093 3.6 290 07:18 26.04.2020
4270 Clear 2 1008 74 16093 3.6 290 06:39 26.04.2020
4271 Clear 3 1008 59 16093 5.1 270 05:55 26.04.2020
4272 Clear 3 1008 59 16093 5.1 270 05:36 26.04.2020
4273 Clear 3 1009 59 16093 4.6 270 04:44 26.04.2020
4274 Clear 3 1009 59 16093 3.1 260 03:50 26.04.2020
4275 Clear 3 1010 69 16093 2.6 250 02:46 26.04.2020
4276 Clear 2 1010 69 16093 2.6 250 02:26 26.04.2020
4277 Clear 3 1010 55 16093 3.6 230 01:40 26.04.2020
4278 Clear 3 1010 55 16093 3.6 230 01:21 26.04.2020
4279 Clear 4 1011 41 16093 1.09 291 00:39 26.04.2020
4280 Clear 4 1011 41 16093 1.26 22 00:18 26.04.2020
4281 Clear 3 1011 59 16093 2.1 320 23:38 25.04.2020
4282 Clear 3 1011 59 16093 2.1 320 23:20 25.04.2020
4283 Clear 3 1012 59 16093 3.1 350 22:55 25.04.2020
4284 Clear 3 1012 59 16093 3.1 350 22:37 25.04.2020
4285 Clear 3 1012 59 16093 3.1 350 22:18 25.04.2020
4286 Clear 3 1012 59 16093 3.1 350 22:18 25.04.2020
4287 Clear 1 1012 64 16093 3.1 350 21:40 25.04.2020
4288 Clear 1 1012 64 16093 3.1 350 21:20 25.04.2020
4289 Clear 1 1012 59 16093 3.6 350 20:58 25.04.2020
4290 Clear 1 1012 59 16093 3.6 350 20:40 25.04.2020
4291 Clear 1 1012 59 16093 3.6 350 20:21 25.04.2020
4292 Clear -1 1012 63 16093 4.1 350 19:42 25.04.2020
4293 Clear -1 1012 63 16093 4.1 350 19:23 25.04.2020
4294 Clear -2 1012 63 16093 3.1 350 18:59 25.04.2020
4295 Clear -2 1012 63 16093 3.1 350 18:39 25.04.2020
4296 Clear -3 1012 63 16093 3.1 350 18:21 25.04.2020
4297 Clear -3 1013 68 16093 4.6 360 17:58 25.04.2020
4298 Clear -3 1013 68 16093 4.6 360 17:58 25.04.2020
4299 Clear -4 1013 68 16093 4.6 360 17:38 25.04.2020
4300 Clear -4 1013 68 16093 4.6 360 17:19 25.04.2020
4301 Clear -3 1013 68 16093 2.1 360 16:56 25.04.2020
4302 Clear -3 1013 68 16093 2.1 360 16:37 25.04.2020
4303 Clear -2 1013 68 16093 2.1 360 16:19 25.04.2020
4304 Clear -2 1013 68 16093 2.6 360 15:41 25.04.2020
4305 Clear -2 1013 68 16093 2.6 360 15:41 25.04.2020
4306 Clear -2 1013 68 16093 2.6 360 15:20 25.04.2020
4307 Clear -1 1013 68 16093 3.6 30 14:58 25.04.2020
4308 Clear -1 1013 68 16093 3.6 30 14:39 25.04.2020
4309 Clear -1 1013 68 16093 3.6 30 14:20 25.04.2020
4310 Clear -1 1014 68 16093 3.6 350 13:43 25.04.2020
4311 Clear -1 1014 68 16093 3.6 350 13:22 25.04.2020
4312 Clear 1 1014 59 16093 5.7 40 12:59 25.04.2020
4313 Clear 1 1014 59 16093 5.7 40 12:41 25.04.2020
4314 Clear 1 1014 59 16093 5.7 40 12:21 25.04.2020
4315 Clear 1 1014 64 16093 5.1 40 11:59 25.04.2020
4316 Clear 1 1014 64 16093 5.1 40 11:41 25.04.2020
4317 Clear 0 1014 64 16093 5.1 40 11:22 25.04.2020
4318 Clear 0 1014 69 16093 4.6 20 10:45 25.04.2020
4319 Clear 0 1014 69 16093 4.6 20 10:26 25.04.2020
4320 Clear 1 1014 69 16093 4.6 40 09:57 25.04.2020
4321 Clear 1 1014 69 16093 4.6 40 09:39 25.04.2020
4322 Clear 1 1014 69 16093 4.6 40 09:21 25.04.2020
4323 Clear 1 1014 69 16093 4.6 40 08:41 25.04.2020
4324 Clear 1 1014 69 16093 4.6 40 08:22 25.04.2020
4325 Clear 2 1014 64 16093 5.1 50 07:59 25.04.2020
4326 Clear 2 1014 64 16093 5.1 50 07:41 25.04.2020
4327 Clear 3 1015 60 16093 3.6 40 06:57 25.04.2020
4328 Clear 3 1015 60 16093 3.6 40 06:36 25.04.2020
4329 Clear 4 1015 60 16093 4.1 40 05:42 25.04.2020
4330 Clear 4 1015 60 16093 4.1 40 05:23 25.04.2020
4331 Clear 3 1015 60 16093 5.1 40 03:29 25.04.2020
4332 Clear 3 1016 55 16093 2.6 10 02:28 25.04.2020
4333 Clear 3 1016 59 16093 5.7 40 01:56 25.04.2020
4334 Clear 3 1016 59 16093 5.7 40 01:38 25.04.2020
4335 Clear 3 1016 59 16093 5.7 40 01:19 25.04.2020
4336 Clear 3 1016 55 16093 5.7 50 00:38 25.04.2020
4337 Clear 3 1016 55 16093 4.6 30 00:18 25.04.2020
4338 Clear 3 1016 55 16093 4.6 30 23:40 24.04.2020
4339 Clear 3 1016 55 16093 4.6 30 23:20 24.04.2020
4340 Clear 2 1017 55 16093 5.1 30 22:41 24.04.2020
4341 Clear 2 1017 55 16093 5.1 30 22:20 24.04.2020
4342 Clear 1 1017 55 16093 5.7 40 21:58 24.04.2020
4343 Clear 1 1017 55 16093 5.7 40 21:40 24.04.2020
4344 Clear 2 1017 55 16093 5.7 40 21:22 24.04.2020
4345 Clear 0 1017 92 16093 2.6 300 20:57 24.04.2020
4346 Clear 0 1017 92 16093 2.6 300 20:57 24.04.2020
4347 Clear 0 1017 92 16093 2.6 300 20:38 24.04.2020
4348 Clear 0 1017 92 16093 2.6 300 20:18 24.04.2020
4349 Clear -1 1017 58 16093 3.1 330 19:44 24.04.2020
4350 Clear -1 1017 58 16093 3.1 330 19:25 24.04.2020
4351 Clear -2 1017 63 16093 5.1 350 18:56 24.04.2020
4352 Clear -2 1017 63 16093 5.1 350 18:38 24.04.2020
4353 Clear -2 1017 63 16093 5.1 350 18:38 24.04.2020
4354 Clear -2 1017 63 16093 5.1 350 18:19 24.04.2020
4355 Clear -3 1017 68 16093 3.1 300 17:42 24.04.2020
4356 Clear -3 1017 68 16093 3.1 300 17:23 24.04.2020
4357 Clear -3 1017 63 16093 2.1 20 16:59 24.04.2020
4358 Clear -3 1017 63 16093 2.1 20 16:40 24.04.2020
4359 Clear -3 1017 63 16093 2.1 20 16:40 24.04.2020
4360 Clear -3 1017 63 16093 2.1 20 16:40 24.04.2020
4361 Clear -3 1017 63 16093 2.1 20 16:21 24.04.2020
4362 Clear -2 1017 63 16093 5.1 20 15:59 24.04.2020
4363 Clear -2 1017 63 16093 5.1 20 15:37 24.04.2020
4364 Clear -2 1017 63 16093 5.1 20 15:18 24.04.2020
4365 Clear -2 1017 63 16093 5.1 10 14:40 24.04.2020
4366 Clear -2 1017 63 16093 5.1 10 14:20 24.04.2020
4367 Clear -2 1017 63 16093 4.1 330 13:56 24.04.2020
4368 Clear -2 1017 63 16093 4.1 330 13:38 24.04.2020
4369 Clear -2 1017 63 16093 4.1 330 13:18 24.04.2020
4370 Clear -2 1017 68 16093 3.1 330 12:41 24.04.2020
4371 Clear -2 1017 68 16093 3.1 330 12:22 24.04.2020
4372 Clear -2 1017 68 16093 4.1 340 11:58 24.04.2020
4373 Clear -2 1017 68 16093 4.1 340 11:38 24.04.2020
4374 Clear -2 1017 68 16093 4.1 340 11:19 24.04.2020
4375 Clear 0 1017 93 16093 3.6 310 10:54 24.04.2020
4376 Clear 0 1017 93 16093 3.6 310 10:36 24.04.2020
4377 Clear 0 1017 93 16093 3.6 310 10:18 24.04.2020
4378 Clear 0 1017 93 16093 4.6 360 09:45 24.04.2020
4379 Clear 0 1017 93 16093 4.6 360 09:24 24.04.2020
4380 Clear 1 1016 59 16093 5.7 40 08:57 24.04.2020
4381 Clear 1 1016 59 16093 5.7 40 08:37 24.04.2020
4382 Clear 1 1016 59 16093 5.7 40 08:18 24.04.2020
4383 Clear 2 1016 59 16093 7.2 30 07:44 24.04.2020
4384 Clear 1 1016 59 16093 7.2 30 07:26 24.04.2020
4385 Clear 1 1017 64 16093 4.1 40 06:51 24.04.2020
4386 Clear 1 1017 64 16093 4.1 40 06:32 24.04.2020
4387 Clear 1 1017 64 16093 6.7 40 05:44 24.04.2020
4388 Clear 2 1017 64 16093 6.2 40 04:26 24.04.2020
4389 Clear 2 1017 64 16093 7.2 40 02:59 24.04.2020
4390 Clear 2 1017 64 16093 7.2 40 02:38 24.04.2020
4391 Clear 2 1017 64 16093 7.2 40 02:20 24.04.2020
4392 Clear 2 1017 55 16093 4.6 70 01:23 24.04.2020
4393 Clear 0 1017 63 16093 2.1 290 00:38 24.04.2020
4394 Clear -1 1017 63 16093 2.1 290 00:18 24.04.2020
4395 Clear -1 1017 63 16093 3.1 250 23:42 23.04.2020
4396 Clear -2 1017 63 16093 3.1 250 23:23 23.04.2020
4397 Clear -1 1017 63 16093 3.1 0 22:55 23.04.2020
4398 Clear -1 1017 63 16093 3.1 0 22:36 23.04.2020
4399 Clear -2 1017 63 16093 3.1 0 22:18 23.04.2020
4400 Clear -2 1016 63 16093 4.1 310 21:56 23.04.2020
4401 Clear -1 1016 63 16093 4.1 310 21:38 23.04.2020
4402 Clear -3 1016 63 16093 4.1 310 21:19 23.04.2020
4403 Clear -5 1016 73 16093 1.5 300 20:43 23.04.2020
4404 Clear -5 1016 73 16093 1.5 300 20:22 23.04.2020
4405 Clear -6 1016 73 16093 2.1 20 19:59 23.04.2020
4406 Clear -6 1016 73 16093 2.1 20 19:40 23.04.2020
4407 Clear -6 1016 73 16093 2.1 20 19:22 23.04.2020
4408 Clear -7 1016 79 16093 2.48 17 18:57 23.04.2020
4409 Clear -7 1016 79 16093 2.48 17 18:38 23.04.2020
4410 Clear -7 1016 79 16093 2.48 21 18:20 23.04.2020
4411 Clear -8 1016 78 16093 1.5 330 17:55 23.04.2020
4412 Clear -8 1016 78 16093 1.5 330 17:37 23.04.2020
4413 Clear -8 1016 78 16093 1.5 330 17:19 23.04.2020
4414 Clear -7 1016 73 16093 1.5 340 16:43 23.04.2020
4415 Clear -8 1016 73 16093 1.5 340 16:20 23.04.2020
4416 Clear -7 1015 73 16093 3.1 350 15:43 23.04.2020
4417 Clear -7 1015 73 16093 3.1 350 15:24 23.04.2020
4418 Clear -7 1015 79 16093 1.5 360 14:59 23.04.2020
4419 Clear -7 1015 79 16093 1.5 360 14:39 23.04.2020
4420 Clear -7 1015 79 16093 1.5 360 14:21 23.04.2020
4421 Clear -7 1015 79 16093 3.6 350 13:58 23.04.2020
4422 Clear -7 1015 79 16093 3.6 350 13:38 23.04.2020
4423 Clear -7 1015 79 16093 3.6 350 13:19 23.04.2020
4424 Clear -6 1015 79 16093 1.5 10 12:55 23.04.2020
4425 Clear -7 1015 79 16093 1.5 10 12:37 23.04.2020
4426 Clear -7 1015 79 16093 1.5 10 12:19 23.04.2020
4427 Clear -6 1015 85 16093 2.73 20 11:44 23.04.2020
4428 Clear -6 1015 85 16093 2.73 20 11:26 23.04.2020
4429 Clear -5 1015 79 16093 2.73 20 10:56 23.04.2020
4430 Clear -4 1015 79 16093 2.73 20 10:38 23.04.2020
4431 Clear -4 1015 79 16093 2.73 20 10:19 23.04.2020
4432 Clear -4 1014 79 16093 2.1 290 09:38 23.04.2020
4433 Clear -4 1014 79 16093 2.1 290 09:18 23.04.2020
4434 Clear -4 1014 73 16093 3.6 290 08:47 23.04.2020
4435 Clear -3 1014 73 16093 3.6 290 08:29 23.04.2020
4436 Clear -2 1014 68 16093 2.6 290 07:45 23.04.2020
4437 Clear -2 1014 68 16093 2.6 290 07:24 23.04.2020
4438 Clear -2 1014 68 16093 2.1 300 06:58 23.04.2020
4439 Clear -2 1014 68 16093 2.1 300 06:40 23.04.2020
4440 Clear -2 1014 68 16093 2.6 290 05:33 23.04.2020
4441 Clear -2 1014 63 16093 2.6 280 04:54 23.04.2020
4442 Clear -2 1014 63 16093 1.5 310 02:41 23.04.2020
4443 Clear -2 1014 63 16093 1.5 310 02:22 23.04.2020
4444 Clear -2 1014 68 16093 2.18 18 01:38 23.04.2020
4445 Clear -4 1015 79 16093 2.18 18 00:50 23.04.2020
4446 Clear -4 1015 79 16093 1.88 360 00:25 23.04.2020
4447 Clear -5 1015 79 16093 1.5 150 23:53 22.04.2020
4448 Clear -5 1015 79 16093 1.5 150 23:26 22.04.2020
4449 Clear -5 1015 85 16093 1.88 360 22:59 22.04.2020
4450 Clear -6 1015 85 16093 1.88 360 22:39 22.04.2020
4451 Clear -6 1015 85 16093 1.88 360 22:19 22.04.2020
4452 Clear -6 1014 85 16093 1.5 120 21:57 22.04.2020
4453 Clear -6 1014 85 16093 1.5 120 21:39 22.04.2020
4454 Clear -7 1014 85 16093 1.5 120 21:20 22.04.2020
4455 Clear -7 1014 85 16093 1.5 120 21:20 22.04.2020
4456 Clear -7 1015 73 16093 2.27 18 20:55 22.04.2020
4457 Clear -7 1015 73 16093 2.27 18 20:36 22.04.2020
4458 Clear -7 1014 67 16093 2.27 18 20:18 22.04.2020
4459 Clear -7 1014 67 16093 2.27 18 19:55 22.04.2020
4460 Clear -8 1014 67 16093 2.27 18 19:36 22.04.2020
4461 Clear -8 1014 92 16093 2.27 18 19:18 22.04.2020
4462 Clear -9 1014 92 16093 2.27 18 18:55 22.04.2020
4463 Clear -9 1014 92 16093 2.27 18 18:36 22.04.2020
4464 Clear -9 1015 72 16093 2.83 16 18:18 22.04.2020
4465 Clear -9 1015 72 16093 2.83 16 17:42 22.04.2020
4466 Clear -9 1015 72 16093 2.83 16 17:23 22.04.2020
4467 Clear -9 1015 72 16093 2.83 16 16:47 22.04.2020
4468 Clear -9 1015 72 16093 2.83 16 16:28 22.04.2020
4469 Clear -9 1015 78 16093 2.83 16 15:58 22.04.2020
4470 Clear -9 1015 78 16093 2.83 16 15:38 22.04.2020
4471 Clear -8 1015 73 16093 1.5 350 15:19 22.04.2020
4472 Clear -8 1015 73 16093 1.5 350 14:55 22.04.2020
4473 Clear -8 1015 73 16093 1.5 350 14:36 22.04.2020
4474 Clear -8 1015 73 16093 1.5 350 14:36 22.04.2020
4475 Clear -8 1015 73 16093 1.5 350 14:18 22.04.2020
4476 Clear -8 1015 79 16093 2.76 11 13:43 22.04.2020
4477 Clear -7 1015 79 16093 2.76 11 13:20 22.04.2020
4478 Clear -7 1015 79 16093 2.76 11 12:43 22.04.2020
4479 Clear -7 1015 79 16093 2.54 6 12:23 22.04.2020
4480 Clear -5 1015 73 16093 2.54 6 11:58 22.04.2020
4481 Clear -5 1015 73 16093 2.54 6 11:39 22.04.2020
4482 Clear -6 1015 73 16093 2.54 6 11:19 22.04.2020
4483 Clear -6 1014 79 16093 2.1 320 10:44 22.04.2020
4484 Clear -6 1014 79 16093 2.1 320 10:24 22.04.2020
4485 Clear -4 1014 73 16093 1.5 330 09:55 22.04.2020
4486 Clear -4 1014 73 16093 1.5 330 09:36 22.04.2020
4487 Clear -5 1014 73 16093 1.5 330 09:18 22.04.2020
4488 Clear -3 1014 73 16093 2.6 250 08:41 22.04.2020
4489 Clear -3 1014 73 16093 2.6 250 08:41 22.04.2020
4490 Clear -3 1014 73 16093 2.6 250 08:23 22.04.2020
4491 Clear -2 1014 68 16093 2.1 280 07:55 22.04.2020
4492 Clear -2 1014 68 16093 2.1 280 07:36 22.04.2020
4493 Clear -2 1014 63 16093 1.5 260 07:18 22.04.2020
4494 Clear -2 1014 63 16093 1.5 260 06:41 22.04.2020
4495 Clear -2 1014 63 16093 3.42 11 05:40 22.04.2020
4496 Clear -2 1014 63 16093 3.42 11 05:40 22.04.2020
4497 Clear -2 1014 68 16093 3.42 11 04:46 22.04.2020
4498 Clear -2 1014 68 16093 2.1 220 02:59 22.04.2020
4499 Clear -2 1014 68 16093 2.1 220 02:28 22.04.2020
4500 Clear -2 1014 68 16093 2.1 220 02:28 22.04.2020
4501 Clear -3 1014 73 16093 1.5 210 01:41 22.04.2020
4502 Clear -3 1014 73 16093 1.5 210 01:21 22.04.2020
4503 Clear -4 1014 73 16093 2.6 240 00:41 22.04.2020
4504 Clear -4 1014 73 16093 2.6 240 00:20 22.04.2020
4505 Clear -5 1015 79 16093 1.5 240 23:44 21.04.2020
4506 Clear -5 1015 79 16093 1.5 240 23:22 21.04.2020
4507 Clear -5 1015 85 16093 2.51 1 22:58 21.04.2020
4508 Clear -5 1015 85 16093 2.51 1 22:39 21.04.2020
4509 Clear -5 1015 85 16093 2.51 1 22:20 21.04.2020
4510 Clear -5 1014 79 16093 1.5 0 21:55 21.04.2020
4511 Clear -5 1014 79 16093 1.5 0 21:37 21.04.2020
4512 Clear -6 1014 79 16093 1.5 0 21:18 21.04.2020
4513 Clear -6 1014 73 16093 2.1 250 20:40 21.04.2020
4514 Clear -6 1014 73 16093 2.1 250 20:22 21.04.2020
4515 Clear -7 1014 79 16093 1.5 360 19:58 21.04.2020
4516 Clear -7 1014 79 16093 1.5 360 19:38 21.04.2020
4517 Clear -7 1014 79 16093 1.5 360 19:38 21.04.2020
4518 Clouds -7 1014 73 16093 2.6 160 19:18 21.04.2020
4519 Clouds -7 1014 73 16093 2.6 160 18:55 21.04.2020
4520 Clouds -7 1014 73 16093 2.6 160 18:36 21.04.2020
4521 Clouds -7 1014 73 16093 2.6 160 18:18 21.04.2020
4522 Clear -7 1013 73 16093 3.02 12 17:39 21.04.2020
4523 Clear -7 1013 73 16093 3.08 12 17:20 21.04.2020
4524 Clear -7 1013 73 16093 3.6 330 16:57 21.04.2020
4525 Clear -7 1013 73 16093 3.6 330 16:37 21.04.2020
4526 Clear -7 1013 73 16093 3.6 330 16:18 21.04.2020
4527 Clear -7 1013 73 16093 4.6 360 15:55 21.04.2020
4528 Clear -7 1013 73 16093 4.6 360 15:37 21.04.2020
4529 Clear -7 1013 73 16093 4.6 360 15:18 21.04.2020
4530 Clouds -4 1013 68 16093 5.1 360 14:45 21.04.2020
4531 Clouds -5 1013 68 16093 5.1 360 14:24 21.04.2020
4532 Clouds -5 1013 73 16093 3.1 350 13:56 21.04.2020
4533 Clouds -3 1013 73 16093 3.6 350 13:37 21.04.2020
4534 Clouds -3 1013 73 16093 3.6 350 13:18 21.04.2020
4535 Clouds -3 1013 73 16093 3.6 350 13:18 21.04.2020
4536 Clouds -2 1013 92 16093 1.5 160 12:38 21.04.2020
4537 Clouds -2 1013 92 16093 1.5 160 12:19 21.04.2020
4538 Clouds -2 1013 92 16093 2.1 160 11:57 21.04.2020
4539 Clouds -2 1013 92 16093 2.1 160 11:38 21.04.2020
4540 Clouds -2 1013 92 16093 2.1 160 11:19 21.04.2020
4541 Clouds -2 1013 100 16093 1.5 130 10:59 21.04.2020
4542 Clouds -1 1012 92 16093 2.6 190 10:39 21.04.2020
4543 Clouds -1 1012 92 16093 2.6 190 10:21 21.04.2020
4544 Clouds -1 1012 92 16093 2.1 200 09:57 21.04.2020
4545 Clouds -1 1012 92 16093 1.5 210 09:36 21.04.2020
4546 Clouds -1 1012 92 16093 1.5 210 09:18 21.04.2020
4547 Clouds -1 1012 92 16093 1.5 190 08:43 21.04.2020
4548 Clouds -1 1012 92 16093 1.5 190 08:25 21.04.2020
4549 Clouds -1 1012 92 16093 2.1 200 07:51 21.04.2020
4550 Clouds -1 1012 92 16093 2.6 220 07:27 21.04.2020
4551 Clouds -1 1012 92 16093 2.6 250 06:50 21.04.2020
4552 Clouds -1 1012 92 16093 2.6 250 06:32 21.04.2020
4553 Mist -1 1012 92 4023 3.1 260 05:50 21.04.2020
4554 Clouds -1 1012 92 14484 2.1 270 04:57 21.04.2020
4555 Clouds -1 1012 86 16093 1.5 250 03:46 21.04.2020
4556 Clouds -1 1012 86 16093 2.1 230 02:41 21.04.2020
4557 Clouds 0 1012 86 16093 2.6 170 01:30 21.04.2020
4558 Clouds 0 1011 92 16093 2.6 140 00:38 21.04.2020
4559 Clouds -1 1011 92 16093 2.6 170 23:58 20.04.2020
4560 Mist -1 1011 92 3219 3.1 160 23:40 20.04.2020
4561 Mist -1 1011 92 3219 3.1 160 23:19 20.04.2020
4562 Mist -1 1011 100 1609 3.1 160 22:54 20.04.2020
4563 Fog -1 1011 100 805 2.6 160 22:36 20.04.2020
4564 Fog -1 1011 100 805 2.6 160 22:18 20.04.2020
4565 Mist -1 1011 100 1207 2.6 140 21:54 20.04.2020
4566 Fog -1 1011 100 805 3.1 150 21:36 20.04.2020
4567 Fog -1 1011 100 805 3.1 150 21:18 20.04.2020
4568 Mist -1 1010 100 1207 3.1 150 20:41 20.04.2020
4569 Mist -1 1010 100 1207 3.1 150 20:20 20.04.2020
4570 Mist -1 1010 100 2012 2.6 180 19:59 20.04.2020
4571 Mist -1 1010 100 2012 2.6 180 19:40 20.04.2020
4572 Mist -1 1010 100 2012 2.6 180 19:20 20.04.2020
4573 Mist 0 1009 97 1609 2.1 170 18:55 20.04.2020
4574 Mist 0 1009 97 1609 2.1 170 18:37 20.04.2020
4575 Mist 0 1009 97 1609 2.1 170 18:19 20.04.2020
4576 Mist 0 1009 97 2414 2.1 180 17:43 20.04.2020
4577 Mist 0 1009 97 2414 2.1 180 17:23 20.04.2020
4578 Mist 0 1009 97 2816 1.5 210 16:59 20.04.2020
4579 Mist 0 1009 97 2816 1.5 210 16:59 20.04.2020
4580 Mist 0 1009 97 3219 2.1 220 16:41 20.04.2020
4581 Mist 0 1009 97 3219 2.1 220 16:20 20.04.2020
4582 Mist 0 1009 97 4023 1.5 230 15:55 20.04.2020
4583 Mist 0 1009 97 4828 2.13 26 15:37 20.04.2020
4584 Mist 0 1009 96 4828 3.12 20 15:19 20.04.2020
4585 Clouds 0 1009 96 16093 2.1 220 14:41 20.04.2020
4586 Clouds 0 1009 96 16093 2.1 220 14:19 20.04.2020
4587 Clouds 1 1009 96 16093 2.96 17 13:58 20.04.2020
4588 Clouds 1 1009 86 16093 2.96 17 13:39 20.04.2020
4589 Clouds 1 1009 86 16093 2.96 17 13:20 20.04.2020
4590 Clouds 1 1009 100 16093 2.96 17 12:44 20.04.2020
4591 Clouds 1 1009 100 16093 2.54 17 12:23 20.04.2020
4592 Clouds 1 1008 86 16093 2.54 17 11:58 20.04.2020
4593 Clouds 1 1008 86 16093 2.54 17 11:38 20.04.2020
4594 Clouds 1 1008 86 16093 2.54 17 11:18 20.04.2020
4595 Clouds 1 1008 95 16093 2.54 17 10:55 20.04.2020
4596 Clouds 1 1008 95 16093 2.54 17 10:55 20.04.2020
4597 Clouds 1 1008 95 16093 2.54 17 10:36 20.04.2020
4598 Clouds 1 1008 95 16093 2.54 17 10:18 20.04.2020
4599 Clouds 1 1008 95 16093 1.5 260 09:44 20.04.2020
4600 Clouds 1 1008 94 16093 1.5 260 09:25 20.04.2020
4601 Clouds 1 1007 92 16093 1.96 22 08:58 20.04.2020
4602 Clouds 1 1007 92 16093 1.96 22 08:40 20.04.2020
4603 Clouds 1 1007 92 16093 1.96 22 08:18 20.04.2020
4604 Clouds 2 1007 80 16093 1.96 22 07:52 20.04.2020
4605 Clouds 2 1007 80 16093 1.96 22 07:28 20.04.2020
4606 Clouds 2 1007 100 16093 1.96 22 06:38 20.04.2020
4607 Clouds 2 1007 100 16093 1.63 14 06:20 20.04.2020
4608 Clouds 2 1007 93 16093 1.63 14 05:22 20.04.2020
4609 Clear 2 1007 93 16093 2.6 220 03:30 20.04.2020
4610 Clouds 4 1007 80 16093 2.1 280 02:38 20.04.2020
4611 Clouds 4 1007 86 16093 2.1 320 01:31 20.04.2020
4612 Clouds 4 1007 86 16093 2.6 350 00:57 20.04.2020
4613 Clouds 3 1007 86 16093 2.6 350 00:27 20.04.2020
4614 Clouds 3 1007 86 16093 1.5 340 23:54 19.04.2020
4615 Clouds 3 1007 86 16093 1.5 340 23:36 19.04.2020
4616 Clouds 3 1007 86 16093 1.5 340 23:18 19.04.2020
4617 Clouds 3 1007 93 16093 0.89 330 22:39 19.04.2020
4618 Clouds 3 1007 93 16093 0.89 330 22:21 19.04.2020
4619 Clouds 2 1007 93 16093 1.5 320 21:55 19.04.2020
4620 Clouds 2 1007 93 16093 1.5 320 21:37 19.04.2020
4621 Clouds 2 1007 93 16093 1.5 320 21:18 19.04.2020
4622 Fog 2 1007 100 805 0.29 358 20:41 19.04.2020
4623 Fog 2 1007 100 805 0.29 358 20:21 19.04.2020
4624 Fog 1 1007 100 805 0.29 358 19:58 19.04.2020
4625 Mist 1 1007 100 1609 1.5 60 19:40 19.04.2020
4626 Mist 1 1007 100 1609 1.5 60 19:22 19.04.2020
4627 Mist 1 1007 100 1609 1.5 60 18:58 19.04.2020
4628 Mist 1 1007 100 1609 1.5 60 18:39 19.04.2020
4629 Clouds 1 1007 100 11265 0.9 86 18:19 19.04.2020
4630 Clouds 1 1007 100 11265 0.9 86 17:57 19.04.2020
4631 Clouds 1 1007 100 11265 0.9 86 17:38 19.04.2020
4632 Clouds 1 1007 100 11265 0.9 86 17:20 19.04.2020
4633 Clouds 1 1007 100 16093 0.9 86 16:56 19.04.2020
4634 Clouds 1 1007 96 16093 0.9 86 16:38 19.04.2020
4635 Clouds 1 1007 96 16093 0.9 86 16:19 19.04.2020
4636 Clouds 1 1008 100 16093 1.5 10 15:42 19.04.2020
4637 Clouds 1 1008 100 16093 1.5 10 15:42 19.04.2020
4638 Clouds 1 1008 100 16093 1.5 10 15:22 19.04.2020
4639 Clouds 1 1008 100 16093 2.6 90 14:55 19.04.2020
4640 Clouds 1 1008 100 16093 2.6 90 14:37 19.04.2020
4641 Clouds 1 1008 100 16093 2.6 90 14:18 19.04.2020
4642 Clouds 1 1009 100 16093 1.15 111 13:39 19.04.2020
4643 Clouds 1 1009 100 16093 1.15 111 13:19 19.04.2020
4644 Clouds 1 1008 93 16093 2.6 70 12:50 19.04.2020
4645 Clouds 1 1009 100 16093 1.5 90 12:25 19.04.2020
4646 Clouds 1 1009 100 16093 1.5 90 12:25 19.04.2020
4647 Clouds 1 1009 100 16093 1.36 92 11:59 19.04.2020
4648 Rain 1 1009 100 16093 1.5 210 11:37 19.04.2020
4649 Rain 1 1009 100 16093 1.5 210 11:19 19.04.2020
4650 Rain 1 1009 100 16093 1.36 92 10:55 19.04.2020
4651 Rain 1 1009 100 16093 2.1 90 10:37 19.04.2020
4652 Clouds 1 1009 100 16093 1.36 92 10:18 19.04.2020
4653 Clouds 1 1009 100 16093 1.36 92 09:45 19.04.2020
4654 Clouds 1 1009 100 16093 2.3 74 09:26 19.04.2020
4655 Rain 1 1009 93 16093 2.1 90 08:41 19.04.2020
4656 Rain 1 1009 93 16093 2.1 90 08:41 19.04.2020
4657 Rain 1 1009 93 16093 2.1 90 08:41 19.04.2020
4658 Rain 2 1009 93 16093 2.1 90 08:22 19.04.2020
4659 Clouds 2 1009 93 16093 2.1 90 07:59 19.04.2020
4660 Clouds 2 1009 93 16093 2.6 70 07:41 19.04.2020
4661 Clouds 2 1009 93 16093 2.6 70 07:21 19.04.2020
4662 Mist 2 1009 93 9656 3.6 80 06:28 19.04.2020
4663 Clouds 2 1009 93 16093 4.1 90 05:55 19.04.2020
4664 Clouds 2 1009 93 16093 3.6 80 04:43 19.04.2020
4665 Clouds 1 1009 100 16093 3.1 100 02:59 19.04.2020
4666 Clouds 1 1009 100 16093 4.1 100 02:21 19.04.2020
4667 Mist 1 1009 100 8047 3.6 90 01:38 19.04.2020
4668 Mist 1 1009 100 2012 3.6 80 00:48 19.04.2020
4669 Mist 1 1009 100 2012 3.6 80 00:25 19.04.2020
4670 Mist 1 1009 100 1609 3.1 80 23:47 18.04.2020
4671 Mist 1 1009 100 1609 3.1 80 23:22 18.04.2020
4672 Mist 1 1009 100 1609 3.6 80 22:59 18.04.2020
4673 Mist 1 1009 100 1609 3.1 90 22:40 18.04.2020
4674 Mist 1 1009 100 1609 3.1 90 22:21 18.04.2020
4675 Mist 1 1009 100 1609 3.6 90 21:56 18.04.2020
4676 Mist 1 1009 100 1609 4.1 90 21:37 18.04.2020
4677 Mist 1 1009 100 1609 4.1 90 21:19 18.04.2020
4678 Mist 1 1008 100 1207 4.1 90 20:42 18.04.2020
4679 Mist 1 1008 100 1207 4.1 90 20:22 18.04.2020
4680 Mist 1 1008 100 1609 3.6 80 19:56 18.04.2020
4681 Mist 1 1008 100 1609 3.6 80 19:56 18.04.2020
4682 Mist 1 1008 100 1609 3.6 80 19:37 18.04.2020
4683 Mist 1 1008 100 1609 3.6 80 19:19 18.04.2020
4684 Mist 1 1008 100 1207 3.6 90 18:38 18.04.2020
4685 Mist 1 1008 100 1207 3.6 90 18:19 18.04.2020
4686 Mist 1 1008 100 2816 3.6 100 17:45 18.04.2020
4687 Mist 1 1008 100 2816 3.6 100 17:22 18.04.2020
4688 Rain 1 1008 100 2816 3.6 120 16:58 18.04.2020
4689 Mist 1 1008 100 4023 3.6 110 16:39 18.04.2020
4690 Mist 1 1008 100 4023 3.6 110 16:21 18.04.2020
4691 Rain 1 1008 100 3219 4.1 110 15:40 18.04.2020
4692 Rain 1 1008 100 3219 4.1 110 15:22 18.04.2020
4693 Rain 2 1008 100 4023 5.1 110 14:48 18.04.2020
4694 Rain 2 1008 100 4023 5.1 110 14:29 18.04.2020
4695 Rain 2 1007 100 6437 6.2 90 13:59 18.04.2020
4696 Rain 2 1007 100 6437 6.2 90 13:41 18.04.2020
4697 Rain 2 1007 100 6437 6.2 90 13:20 18.04.2020
4698 Rain 2 1008 100 9656 5.7 90 12:42 18.04.2020
4699 Rain 2 1008 100 9656 5.7 90 12:24 18.04.2020
4700 Rain 2 1008 100 11265 6.7 90 11:57 18.04.2020
4701 Rain 2 1008 100 14484 6.2 90 11:38 18.04.2020
4702 Rain 2 1008 100 14484 6.2 90 11:19 18.04.2020
4703 Rain 2 1008 100 8047 5.1 80 10:42 18.04.2020
4704 Rain 2 1008 100 8047 5.1 80 10:21 18.04.2020
4705 Rain 2 1008 100 8047 6.2 80 09:58 18.04.2020
4706 Rain 2 1008 100 8047 6.2 80 09:39 18.04.2020
4707 Rain 2 1008 100 8047 6.2 80 09:20 18.04.2020
4708 Rain 2 1008 100 2414 6.7 70 08:42 18.04.2020
4709 Rain 2 1008 100 2414 6.7 70 08:21 18.04.2020
4710 Rain 2 1009 100 3219 6.2 80 07:47 18.04.2020
4711 Rain 2 1009 100 3219 6.2 80 07:28 18.04.2020
4712 Rain 2 1009 100 4828 5.7 90 06:39 18.04.2020
4713 Rain 2 1009 100 4023 5.1 100 05:49 18.04.2020
4714 Rain 2 1009 100 3219 5.7 90 04:54 18.04.2020
4715 Rain 2 1009 100 4828 5.7 90 04:30 18.04.2020
4716 Rain 2 1010 100 2414 6.2 90 03:18 18.04.2020
4717 Rain 2 1010 100 2414 5.7 80 02:40 18.04.2020
4718 Rain 2 1010 100 2414 5.7 80 02:20 18.04.2020
4719 Rain 2 1010 100 2414 5.7 80 01:40 18.04.2020
4720 Rain 2 1010 100 2414 6.2 70 00:59 18.04.2020
4721 Rain 2 1010 100 4828 5.7 70 00:24 18.04.2020
4722 Rain 2 1011 100 6437 5.1 80 23:58 17.04.2020
4723 Rain 2 1011 100 4828 5.1 80 23:40 17.04.2020
4724 Rain 2 1011 100 4828 5.1 80 23:19 17.04.2020
4725 Rain 2 1011 100 3219 5.7 80 22:58 17.04.2020
4726 Rain 2 1010 100 3219 5.7 80 22:40 17.04.2020
4727 Rain 2 1010 100 3219 5.7 80 22:20 17.04.2020
4728 Rain 2 1011 100 2816 5.1 80 21:58 17.04.2020
4729 Rain 2 1011 100 2816 5.1 80 21:39 17.04.2020
4730 Rain 2 1011 100 2816 5.1 80 21:19 17.04.2020
4731 Rain 2 1011 93 3219 5.7 80 20:55 17.04.2020
4732 Rain 2 1011 100 4023 5.1 90 20:36 17.04.2020
4733 Rain 2 1011 100 4023 5.1 90 20:18 17.04.2020
4734 Rain 2 1011 100 4023 4.6 90 19:44 17.04.2020
4735 Rain 2 1011 100 4023 4.6 90 19:24 17.04.2020
4736 Rain 1 1011 100 6437 5.1 90 18:47 17.04.2020
4737 Rain 1 1011 100 6437 5.1 90 18:25 17.04.2020
4738 Rain 1 1011 100 8047 3.6 80 17:58 17.04.2020
4739 Rain 1 1011 100 8047 3.6 80 17:37 17.04.2020
4740 Rain 1 1011 100 8047 3.6 80 17:37 17.04.2020
4741 Rain 1 1011 100 8047 3.6 80 17:19 17.04.2020
4742 Rain 1 1011 100 4828 3.6 110 16:44 17.04.2020
4743 Rain 1 1011 100 4828 3.6 110 16:23 17.04.2020
4744 Rain 1 1011 100 4828 4.1 110 15:58 17.04.2020
4745 Rain 1 1011 100 4023 3.6 110 15:37 17.04.2020
4746 Rain 1 1011 100 4023 3.6 110 15:19 17.04.2020
4747 Rain 1 1012 100 4828 4.1 120 14:40 17.04.2020
4748 Rain 1 1012 100 4828 4.1 120 14:22 17.04.2020
4749 Rain 1 1012 100 3219 4.6 110 13:56 17.04.2020
4750 Rain 1 1012 100 3219 4.6 110 13:37 17.04.2020
4751 Rain 1 1012 100 3219 4.6 110 13:18 17.04.2020
4752 Rain 1 1012 100 9656 5.1 120 12:46 17.04.2020
4753 Rain 1 1012 100 9656 5.1 120 12:25 17.04.2020
4754 Rain 2 1012 93 12874 5.7 120 11:42 17.04.2020
4755 Rain 2 1013 93 12874 5.7 120 11:20 17.04.2020
4756 Rain 2 1012 93 12874 5.7 120 11:20 17.04.2020
4757 Rain 2 1013 93 12874 5.7 120 10:59 17.04.2020
4758 Rain 2 1013 93 12874 5.7 120 10:39 17.04.2020
4759 Rain 1 1013 100 4828 4.6 110 10:19 17.04.2020
4760 Rain 1 1013 100 4828 4.6 110 09:54 17.04.2020
4761 Rain 1 1013 100 4828 4.6 110 09:36 17.04.2020
4762 Rain 2 1012 97 0 4.92 130 09:18 17.04.2020
4763 Rain 2 1012 97 0 4.92 118 08:44 17.04.2020
4764 Rain 2 1014 93 2414 6.7 100 08:24 17.04.2020
4765 Rain 2 1014 93 2414 6.7 100 07:44 17.04.2020
4766 Rain 2 1014 93 2414 6.7 100 07:24 17.04.2020
4767 Rain 1 1014 100 4828 5.7 100 06:52 17.04.2020
4768 Rain 2 1014 100 4023 6.2 100 06:23 17.04.2020
4769 Rain 1 1015 100 4828 6.2 100 05:38 17.04.2020
4770 Rain 1 1016 100 1609 5.1 100 03:21 17.04.2020
4771 Rain 1 1016 100 2816 6.2 90 02:37 17.04.2020
4772 Rain 1 1016 100 4828 6.2 100 01:30 17.04.2020
4773 Rain 1 1017 100 11265 7.2 90 00:58 17.04.2020
4774 Rain 1 1017 100 11265 7.2 90 00:20 17.04.2020
4775 Rain 1 1017 100 4828 6.7 90 23:45 16.04.2020
4776 Rain 1 1017 100 3219 7.2 90 23:23 16.04.2020
4777 Rain 1 1017 100 2012 6.7 90 22:58 16.04.2020
4778 Rain 1 1017 100 805 6.7 100 22:39 16.04.2020
4779 Rain 1 1017 100 805 6.7 100 22:20 16.04.2020
4780 Mist 1 1017 100 4023 5.7 100 21:56 16.04.2020
4781 Rain 1 1016 100 1609 7.7 90 21:38 16.04.2020
4782 Rain 1 1016 100 1609 7.7 90 21:18 16.04.2020
4783 Rain 1 1017 100 805 6.7 90 20:41 16.04.2020
4784 Rain 1 1017 100 805 6.7 90 20:22 16.04.2020
4785 Fog 1 1017 100 805 5.7 90 19:56 16.04.2020
4786 Mist 1 1017 100 1207 5.7 100 19:38 16.04.2020
4787 Mist 1 1017 100 3219 6.2 90 19:19 16.04.2020
4788 Mist 1 1017 100 3219 6.2 90 18:45 16.04.2020
4789 Mist 1 1017 100 3219 6.2 90 18:26 16.04.2020
4790 Snow 1 1017 96 4023 5.7 90 17:58 16.04.2020
4791 Snow 1 1017 96 6437 5.1 90 17:40 16.04.2020
4792 Snow 1 1017 96 6437 5.1 90 17:21 16.04.2020
4793 Mist 1 1016 96 6437 5.1 90 16:45 16.04.2020
4794 Mist 1 1016 96 6437 5.1 90 16:45 16.04.2020
4795 Mist 1 1016 96 3219 4.6 90 16:26 16.04.2020
4796 Mist 1 1016 96 2414 4.6 90 15:58 16.04.2020
4797 Mist 1 1016 96 4828 4.6 90 15:39 16.04.2020
4798 Mist 1 1016 96 4828 4.6 90 15:19 16.04.2020
4799 Mist 1 1016 96 3219 4.6 80 14:45 16.04.2020
4800 Mist 1 1016 96 3219 4.6 80 14:25 16.04.2020
4801 Mist 1 1016 96 8047 5.1 90 13:59 16.04.2020
4802 Mist 1 1016 100 9656 4.1 90 13:41 16.04.2020
4803 Mist 1 1016 100 9656 4.1 90 13:23 16.04.2020
4804 Mist 1 1016 100 6437 4.6 100 12:58 16.04.2020
4805 Rain 1 1015 100 4828 4.1 90 12:39 16.04.2020
4806 Rain 1 1015 100 4828 4.1 90 12:20 16.04.2020
4807 Rain 1 1015 100 4828 4.1 90 12:20 16.04.2020
4808 Rain 1 1015 100 3219 4.1 100 11:59 16.04.2020
4809 Mist 1 1015 100 2816 3.1 100 11:40 16.04.2020
4810 Mist 1 1015 100 2816 3.1 100 11:21 16.04.2020
4811 Mist 1 1015 100 2816 2.6 90 10:55 16.04.2020
4812 Snow 1 1015 100 2816 2.1 80 10:37 16.04.2020
4813 Rain 1 1015 100 2816 2.1 80 10:18 16.04.2020
4814 Rain 1 1014 100 2414 1.5 120 09:39 16.04.2020
4815 Mist 1 1014 100 2414 1.5 120 09:20 16.04.2020
4816 Clouds 1 1014 97 16093 2.1 90 08:57 16.04.2020
4817 Clouds 1 1014 100 16093 1.5 100 08:39 16.04.2020
4818 Clouds 1 1014 100 16093 1.5 100 08:21 16.04.2020
4819 Clouds 2 1013 93 16093 2.1 100 07:44 16.04.2020
4820 Clouds 2 1013 93 16093 2.1 100 07:24 16.04.2020
4821 Clouds 2 1013 93 16093 1.5 80 06:42 16.04.2020
4822 Clouds 2 1013 93 16093 1.5 80 06:24 16.04.2020
4823 Mist 2 1013 93 1207 1.5 340 04:54 16.04.2020
4824 Mist 2 1013 93 1207 1.5 340 04:54 16.04.2020
4825 Mist 2 1012 93 2816 1.5 300 03:47 16.04.2020
4826 Rain 2 1012 93 16093 0.78 176 03:22 16.04.2020
4827 Rain 3 1012 86 16093 1.2 128 02:43 16.04.2020
4828 Rain 3 1012 86 16093 1.5 20 01:59 16.04.2020
4829 Rain 3 1012 86 16093 1.5 20 01:18 16.04.2020
4830 Rain 3 1012 86 16093 1.5 20 01:18 16.04.2020
4831 Rain 2 1012 93 8047 1.5 350 00:27 16.04.2020
4832 Rain 2 1012 97 9656 2.1 50 23:57 15.04.2020
4833 Rain 2 1012 97 9656 2.1 50 23:39 15.04.2020
4834 Rain 2 1012 97 9656 2.1 50 23:20 15.04.2020
4835 Snow 1 1012 97 9656 2.6 60 22:40 15.04.2020
4836 Snow 1 1012 97 9656 2.6 60 22:21 15.04.2020
4837 Rain 1 1013 86 9656 3.1 60 21:58 15.04.2020
4838 Rain 1 1013 86 9656 3.1 60 21:40 15.04.2020
4839 Rain 1 1013 86 9656 3.1 60 21:22 15.04.2020
4840 Rain 1 1013 97 3219 4.1 70 20:57 15.04.2020
4841 Rain 1 1013 97 3219 4.1 70 20:39 15.04.2020
4842 Rain 1 1013 97 3219 4.1 70 20:21 15.04.2020
4843 Snow 0 1014 97 2816 5.1 80 19:45 15.04.2020
4844 Clouds 0 1014 97 11265 4.6 80 19:21 15.04.2020
4845 Clouds 0 1014 97 11265 4.6 80 18:56 15.04.2020
4846 Mist 0 1014 97 3219 4.1 70 18:37 15.04.2020
4847 Mist 0 1015 100 2012 4.6 80 18:19 15.04.2020
4848 Clouds -1 1015 100 14484 5.1 90 17:40 15.04.2020
4849 Clouds -1 1015 100 14484 5.1 90 17:40 15.04.2020
4850 Clouds -1 1015 100 14484 5.1 90 17:21 15.04.2020
4851 Mist 0 1015 97 2816 4.6 90 16:58 15.04.2020
4852 Mist 0 1015 100 9656 4.6 90 16:39 15.04.2020
4853 Mist -1 1015 100 9656 4.6 90 16:20 15.04.2020
4854 Mist -1 1015 100 8047 4.1 100 15:59 15.04.2020
4855 Mist -1 1016 100 3219 4.6 100 15:40 15.04.2020
4856 Mist -1 1016 100 3219 4.6 100 15:20 15.04.2020
4857 Mist -1 1016 100 3219 4.6 100 15:20 15.04.2020
4858 Clouds -1 1016 100 16093 4.1 100 14:58 15.04.2020
4859 Clouds -1 1016 100 16093 4.1 100 14:40 15.04.2020
4860 Clouds -1 1016 100 16093 4.1 100 14:21 15.04.2020
4861 Mist -1 1016 100 4828 3.6 110 13:58 15.04.2020
4862 Mist 0 1016 97 2816 4.1 110 13:39 15.04.2020
4863 Mist 0 1016 97 2816 4.1 110 13:20 15.04.2020
4864 Mist 0 1016 100 9656 2.6 120 12:56 15.04.2020
4865 Clouds 0 1016 97 11265 2.6 140 12:38 15.04.2020
4866 Clouds 0 1016 97 11265 2.6 140 12:20 15.04.2020
4867 Mist 0 1016 97 9656 3.1 150 11:44 15.04.2020
4868 Mist 0 1016 97 9656 3.1 150 11:25 15.04.2020
4869 Mist 0 1016 100 8047 2.1 120 10:58 15.04.2020
4870 Mist 0 1016 100 8047 2.1 120 10:37 15.04.2020
4871 Mist -1 1016 100 8047 2.1 120 10:19 15.04.2020
4872 Mist 0 1016 97 6437 3.6 170 09:55 15.04.2020
4873 Mist 0 1016 97 6437 3.6 170 09:37 15.04.2020
4874 Mist 0 1016 96 6437 3.6 170 09:18 15.04.2020
4875 Mist 0 1016 96 6437 4.1 180 08:41 15.04.2020
4876 Mist 0 1016 96 6437 4.1 180 08:21 15.04.2020
4877 Mist 0 1015 96 3219 3.6 180 07:56 15.04.2020
4878 Mist 0 1015 96 3219 3.6 180 07:36 15.04.2020
4879 Mist 0 1015 96 3219 3.6 170 06:49 15.04.2020
4880 Mist 1 1015 97 4828 4.1 150 06:20 15.04.2020
4881 Mist 1 1015 97 1609 4.6 160 05:22 15.04.2020
4882 Mist 1 1014 100 2816 5.1 130 04:45 15.04.2020
4883 Mist 1 1014 100 2816 5.7 130 03:51 15.04.2020
4884 Mist 1 1014 100 2816 5.7 130 03:20 15.04.2020
4885 Mist 1 1014 100 4023 7.2 110 02:39 15.04.2020
4886 Rain 1 1014 100 2816 7.7 100 01:48 15.04.2020
4887 Rain 1 1014 100 2816 7.7 100 01:22 15.04.2020
4888 Rain 1 1014 86 8047 7.7 90 00:37 15.04.2020
4889 Rain 1 1014 86 8047 7.7 90 00:19 15.04.2020
4890 Snow 1 1015 86 2414 7.7 100 23:55 14.04.2020
4891 Snow 1 1015 86 2414 7.7 100 23:55 14.04.2020
4892 Snow 1 1015 86 2414 8.7 90 23:36 14.04.2020
4893 Snow 1 1015 86 2414 8.7 90 23:18 14.04.2020
4894 Rain 1 1015 86 3219 7.7 90 22:55 14.04.2020
4895 Snow 1 1015 86 3219 7.7 100 22:37 14.04.2020
4896 Snow 1 1015 86 3219 7.7 100 22:19 14.04.2020
4897 Snow 1 1015 86 4828 7.2 100 21:55 14.04.2020
4898 Mist 1 1016 86 4828 6.7 100 21:37 14.04.2020
4899 Mist 1 1016 86 4828 6.7 100 21:18 14.04.2020
4900 Snow 1 1016 86 3219 7.7 100 20:41 14.04.2020
4901 Snow 1 1016 86 3219 7.7 100 20:22 14.04.2020
4902 Clouds 1 1016 74 16093 8.2 90 19:58 14.04.2020
4903 Clouds 2 1016 74 16093 8.2 90 19:40 14.04.2020
4904 Clouds 2 1016 74 16093 8.2 90 19:40 14.04.2020
4905 Clouds 2 1016 74 16093 8.2 90 19:21 14.04.2020
4906 Clouds 2 1017 74 16093 7.7 80 18:56 14.04.2020
4907 Clouds 2 1017 74 16093 7.7 80 18:38 14.04.2020
4908 Clouds 2 1017 74 16093 7.7 80 18:19 14.04.2020
4909 Clear 2 1017 74 16093 8.7 70 17:56 14.04.2020
4910 Clear 2 1017 74 16093 8.7 70 17:37 14.04.2020
4911 Clear 2 1017 74 16093 8.7 70 17:19 14.04.2020
4912 Clear 1 1018 80 16093 6.7 70 16:41 14.04.2020
4913 Clear 1 1018 80 16093 6.7 70 16:23 14.04.2020
4914 Clear 1 1019 74 16093 6.7 70 15:58 14.04.2020
4915 Clear 1 1019 74 16093 6.7 70 15:39 14.04.2020
4916 Clear 1 1019 74 16093 6.7 70 15:21 14.04.2020
4917 Clear 1 1020 74 16093 5.1 60 14:58 14.04.2020
4918 Clear 1 1020 74 16093 5.1 60 14:40 14.04.2020
4919 Clear 1 1020 74 16093 5.1 60 14:21 14.04.2020
4920 Clouds 0 1020 95 16093 4.6 60 13:56 14.04.2020
4921 Clouds -1 1020 86 16093 5.7 50 13:37 14.04.2020
4922 Clouds -1 1020 86 16093 5.7 50 13:19 14.04.2020
4923 Clear -1 1021 86 16093 5.1 40 12:41 14.04.2020
4924 Clear -1 1021 86 16093 5.1 40 12:20 14.04.2020
4925 Clouds -1 1022 86 16093 4.6 70 11:55 14.04.2020
4926 Clouds -1 1022 86 16093 4.6 70 11:36 14.04.2020
4927 Clouds -1 1022 86 16093 4.6 70 11:18 14.04.2020
4928 Clouds -1 1023 92 16093 3.1 70 10:43 14.04.2020
4929 Clouds -1 1023 92 16093 3.1 70 10:23 14.04.2020
4930 Clouds -1 1023 92 14484 5.1 100 09:43 14.04.2020
4931 Clouds -1 1023 92 14484 5.1 100 09:25 14.04.2020
4932 Clouds -2 1023 97 0 2.86 80 08:59 14.04.2020
4933 Clouds -1 1022 92 12874 5.1 90 08:40 14.04.2020
4934 Clouds -1 1022 92 12874 5.1 90 08:21 14.04.2020
4935 Snow -1 1023 92 4828 5.1 80 07:53 14.04.2020
4936 Clouds -2 1023 97 0 2.86 80 07:29 14.04.2020
4937 Clouds -1 1023 92 16093 4.1 90 06:47 14.04.2020
4938 Clouds -1 1023 92 11265 2.6 90 05:55 14.04.2020
4939 Clouds 0 1023 86 16093 2.1 80 03:52 14.04.2020
4940 Clouds -1 1023 92 16093 2.1 70 02:53 14.04.2020
4941 Snow -1 1023 97 1609 0.62 248 01:39 14.04.2020
4942 Snow 0 1023 97 1609 0.62 248 01:18 14.04.2020
4943 Mist -2 1023 92 1609 1.5 200 00:36 14.04.2020
4944 Mist -2 1023 92 1609 1.5 200 00:18 14.04.2020
4945 Fog -3 1022 100 805 1.5 200 23:40 13.04.2020
4946 Snow -3 1022 100 805 1.5 200 23:22 13.04.2020
4947 Snow -3 1021 92 805 0.53 225 22:56 13.04.2020
4948 Snow -3 1021 100 402 0.53 225 22:38 13.04.2020
4949 Snow -3 1021 100 402 0.53 225 22:20 13.04.2020
4950 Snow -4 1020 100 402 2.1 150 21:55 13.04.2020
4951 Fog -3 1020 92 805 2.1 160 21:36 13.04.2020
4952 Fog -4 1020 92 805 2.1 160 21:18 13.04.2020
4953 Mist -4 1018 92 8047 0.56 330 20:41 13.04.2020
4954 Mist -5 1018 92 8047 0.56 330 20:20 13.04.2020
4955 Mist -7 1018 100 1609 1.5 40 19:59 13.04.2020
4956 Mist -7 1018 100 1609 1.5 40 19:37 13.04.2020
4957 Mist -7 1018 100 1609 1.5 40 19:19 13.04.2020
4958 Mist -7 1018 100 1609 1.5 40 19:19 13.04.2020
4959 Mist -6 1018 100 1207 1.5 300 18:58 13.04.2020
4960 Fog -6 1018 92 402 2.6 260 18:39 13.04.2020
4961 Fog -6 1018 92 402 2.6 260 18:20 13.04.2020
4962 Fog -6 1018 92 402 2.6 260 18:20 13.04.2020
4963 Fog -5 1017 92 402 1.5 210 17:58 13.04.2020
4964 Fog -5 1017 92 402 1.5 210 17:58 13.04.2020
4965 Fog -5 1016 92 402 1.24 289 17:38 13.04.2020
4966 Fog -5 1016 92 402 1.24 289 17:19 13.04.2020
4967 Fog -4 1016 100 402 1.5 310 16:58 13.04.2020
4968 Fog -5 1016 100 402 1.24 289 16:40 13.04.2020
4969 Fog -5 1016 100 402 1.24 289 16:20 13.04.2020
4970 Mist -3 1015 100 4828 3.6 280 15:57 13.04.2020
4971 Mist -3 1015 100 1207 3.6 270 15:38 13.04.2020
4972 Mist -3 1015 100 1207 3.6 270 15:20 13.04.2020
4973 Fog -3 1014 100 402 3.1 290 14:54 13.04.2020
4974 Fog -4 1014 100 402 3.6 280 14:36 13.04.2020
4975 Fog -4 1014 100 402 3.6 280 14:18 13.04.2020
4976 Fog -3 1013 92 402 2.6 280 13:54 13.04.2020
4977 Fog -3 1013 92 402 2.1 280 13:36 13.04.2020
4978 Fog -3 1013 92 402 2.1 280 13:18 13.04.2020
4979 Mist -3 1013 100 2414 0.87 293 12:55 13.04.2020
4980 Clouds -2 1012 100 11265 0.87 293 12:37 13.04.2020
4981 Clouds -2 1012 100 11265 1.57 19 12:18 13.04.2020
4982 Snow -1 1012 100 6437 1.57 19 11:41 13.04.2020
4983 Snow -1 1012 100 6437 1.57 19 11:18 13.04.2020
4984 Snow -1 1012 100 6437 2.1 30 10:56 13.04.2020
4985 Snow -1 1012 100 6437 2.1 30 10:37 13.04.2020
4986 Snow -1 1012 100 6437 2.1 30 10:19 13.04.2020
4987 Snow -1 1012 100 4828 1.5 60 09:45 13.04.2020
4988 Snow 0 1011 99 6437 1.5 60 09:26 13.04.2020
4989 Snow 0 1011 99 3219 1.5 70 08:51 13.04.2020
4990 Snow 0 1011 99 2816 2.1 80 08:31 13.04.2020
4991 Snow 0 1011 99 2414 2.6 80 07:59 13.04.2020
4992 Snow 0 1011 99 2414 2.6 80 07:39 13.04.2020
4993 Snow 0 1011 99 2414 2.6 80 07:20 13.04.2020
4994 Snow 0 1011 99 2012 3.1 90 06:47 13.04.2020
4995 Snow 0 1011 98 2012 3.1 90 06:24 13.04.2020
4996 Snow 1 1011 86 4828 3.6 90 05:31 13.04.2020
4997 Rain 1 1012 86 6437 4.1 90 04:53 13.04.2020
4998 Rain 1 1012 86 6437 4.1 90 04:23 13.04.2020
4999 Rain 1 1012 86 4828 4.1 90 03:47 13.04.2020
5000 Mist 1 1013 86 6437 6.2 90 02:59 13.04.2020
5001 Mist 1 1013 86 6437 6.2 90 02:25 13.04.2020
5002 Clouds 1 1013 86 16093 6.2 80 01:42 13.04.2020
5003 Clouds 1 1013 86 16093 6.2 80 01:23 13.04.2020
5004 Clouds 0 1014 99 16093 6.7 90 00:42 13.04.2020
5005 Clouds 0 1014 98 16093 6.7 90 00:20 13.04.2020
5006 Snow 1 1014 86 4828 6.2 80 23:48 12.04.2020
5007 Snow 1 1014 86 4828 6.2 80 23:23 12.04.2020
5008 Clouds 0 1015 98 16093 5.7 80 22:58 12.04.2020
5009 Clouds 0 1015 98 16093 5.7 80 22:37 12.04.2020
5010 Clouds 0 1015 98 16093 5.7 80 22:19 12.04.2020
5011 Clouds -1 1015 92 16093 5.1 80 21:40 12.04.2020
5012 Clouds -1 1015 92 16093 5.1 80 21:21 12.04.2020
5013 Snow -1 1015 92 6437 4.6 70 20:58 12.04.2020
5014 Snow -1 1015 92 6437 4.6 70 20:39 12.04.2020
5015 Snow -1 1015 92 6437 4.6 70 20:39 12.04.2020
5016 Snow -1 1015 92 6437 4.6 70 20:21 12.04.2020
5017 Snow -1 1016 92 3219 4.6 80 19:56 12.04.2020
5018 Clouds -1 1016 92 16093 5.1 80 19:37 12.04.2020
5019 Clouds -1 1016 92 16093 5.1 90 19:18 12.04.2020
5020 Clouds -1 1016 92 16093 5.1 90 18:40 12.04.2020
5021 Clouds -1 1017 92 16093 5.7 70 18:22 12.04.2020
5022 Clouds -1 1017 92 16093 5.7 70 17:57 12.04.2020
5023 Clouds -1 1017 92 16093 5.7 70 17:38 12.04.2020
5024 Clouds -1 1017 92 16093 5.7 70 17:38 12.04.2020
5025 Clouds -1 1017 92 16093 5.7 70 17:20 12.04.2020
5026 Clouds -1 1017 92 16093 4.1 80 16:57 12.04.2020
5027 Clouds -1 1017 92 16093 4.1 80 16:38 12.04.2020
5028 Clouds -1 1017 92 16093 4.1 80 16:19 12.04.2020
5029 Clouds -2 1017 92 12874 4.6 80 15:45 12.04.2020
5030 Clouds -2 1017 92 12874 4.6 80 15:27 12.04.2020
5031 Snow -2 1018 92 4828 5.7 90 14:41 12.04.2020
5032 Snow -2 1018 92 4828 5.7 90 14:22 12.04.2020
5033 Mist -2 1018 92 6437 4.6 80 13:59 12.04.2020
5034 Mist -2 1018 92 6437 4.6 80 13:41 12.04.2020
5035 Mist -2 1018 92 6437 4.6 80 13:22 12.04.2020
5036 Clouds -2 1019 92 16093 5.1 80 12:49 12.04.2020
5037 Clouds -2 1019 92 16093 5.1 80 12:23 12.04.2020
5038 Clouds -2 1019 92 16093 5.1 80 12:23 12.04.2020
5039 Clouds -2 1019 92 16093 4.6 90 11:59 12.04.2020
5040 Clouds -2 1019 92 16093 5.1 80 11:40 12.04.2020
5041 Clouds -2 1019 92 16093 5.1 80 11:21 12.04.2020
5042 Clouds -1 1020 92 14484 4.1 80 10:58 12.04.2020
5043 Clouds -1 1020 92 14484 4.1 80 10:40 12.04.2020
5044 Clouds -1 1020 92 14484 4.1 80 10:21 12.04.2020
5045 Clouds -1 1020 92 16093 3.6 90 09:59 12.04.2020
5046 Clouds -1 1020 92 16093 4.6 90 09:39 12.04.2020
5047 Clouds -1 1020 92 16093 4.6 90 09:21 12.04.2020
5048 Clouds -1 1020 92 16093 4.1 100 08:51 12.04.2020
5049 Clouds -1 1020 92 16093 5.1 100 08:33 12.04.2020
5050 Clouds -1 1020 92 16093 4.1 100 07:58 12.04.2020
5051 Clouds -1 1020 92 16093 4.1 100 07:40 12.04.2020
5052 Clouds -1 1020 92 16093 4.1 100 07:18 12.04.2020
5053 Clouds -1 1020 92 16093 4.6 90 06:33 12.04.2020
5054 Clouds -1 1020 92 16093 4.6 100 05:50 12.04.2020
5055 Clouds -1 1020 92 16093 4.6 100 05:29 12.04.2020
5056 Clouds -1 1021 92 16093 4.6 100 03:38 12.04.2020
5057 Clouds -1 1021 92 16093 4.6 100 03:19 12.04.2020
5058 Clouds -1 1021 86 16093 4.1 110 02:34 12.04.2020
5059 Clouds -1 1021 86 16093 5.1 110 01:47 12.04.2020
5060 Clouds -2 1022 92 16093 5.1 110 00:57 12.04.2020
5061 Clouds -2 1022 92 16093 5.1 110 00:39 12.04.2020
5062 Clouds -2 1022 92 16093 5.1 110 00:19 12.04.2020
5063 Clouds -2 1022 86 16093 4.6 90 23:46 11.04.2020
5064 Clouds -2 1022 86 16093 4.6 90 23:24 11.04.2020
5065 Clouds -3 1022 86 16093 5.1 80 22:42 11.04.2020
5066 Clouds -3 1022 86 16093 5.1 80 22:22 11.04.2020
5067 Clouds -3 1022 86 16093 5.1 80 22:22 11.04.2020
5068 Clouds -4 1022 85 16093 4.1 90 21:57 11.04.2020
5069 Clouds -4 1022 85 16093 4.1 90 21:37 11.04.2020
5070 Clouds -4 1022 85 16093 4.1 90 21:37 11.04.2020
5071 Clouds -4 1022 85 16093 4.1 90 21:19 11.04.2020
5072 Clouds -6 1022 92 16093 4.1 100 20:58 11.04.2020
5073 Clouds -6 1022 92 16093 4.1 100 20:39 11.04.2020
5074 Clouds -6 1022 92 16093 4.1 100 20:20 11.04.2020
5075 Clouds -6 1022 92 16093 3.6 90 19:58 11.04.2020
5076 Clouds -6 1022 92 16093 3.6 90 19:39 11.04.2020
5077 Clouds -6 1022 92 16093 3.6 90 19:19 11.04.2020
5078 Clouds -6 1022 92 16093 4.6 100 18:57 11.04.2020
5079 Clouds -6 1022 92 16093 4.6 100 18:39 11.04.2020
5080 Clouds -6 1022 92 16093 4.6 100 18:20 11.04.2020
5081 Clear -5 1022 85 16093 4.1 100 17:59 11.04.2020
5082 Clear -5 1022 85 16093 4.1 100 17:40 11.04.2020
5083 Clear -5 1022 85 16093 4.1 100 17:20 11.04.2020
5084 Clear -5 1022 92 16093 4.1 100 16:55 11.04.2020
5085 Clear -5 1022 92 16093 4.1 100 16:37 11.04.2020
5086 Clear -5 1022 92 16093 4.1 100 16:19 11.04.2020
5087 Clear -5 1022 92 16093 4.1 100 16:19 11.04.2020
5088 Clouds -6 1023 92 16093 4.6 110 15:37 11.04.2020
5089 Clouds -6 1023 92 16093 4.6 110 15:19 11.04.2020
5090 Clouds -4 1023 85 16093 4.6 100 14:43 11.04.2020
5091 Clouds -4 1023 85 16093 4.6 100 14:24 11.04.2020
5092 Clouds -4 1023 85 16093 4.6 100 14:24 11.04.2020
5093 Clear -4 1024 85 16093 5.1 100 13:59 11.04.2020
5094 Clear -4 1024 85 16093 5.1 100 13:59 11.04.2020
5095 Clear -4 1024 85 16093 5.1 100 13:59 11.04.2020
5096 Clear -4 1024 85 16093 5.1 100 13:39 11.04.2020
5097 Clear -4 1024 85 16093 5.1 100 13:19 11.04.2020
5098 Clouds -2 1024 86 16093 4.1 130 12:42 11.04.2020
5099 Clouds -2 1024 86 16093 4.1 130 12:20 11.04.2020
5100 Clouds -1 1024 86 16093 5.1 140 11:58 11.04.2020
5101 Clouds -1 1024 86 16093 5.1 140 11:39 11.04.2020
5102 Clouds -1 1024 86 16093 5.1 140 11:19 11.04.2020
5103 Clouds -1 1024 92 16093 5.1 150 10:43 11.04.2020
5104 Clouds -1 1024 92 16093 5.1 150 10:23 11.04.2020
5105 Clouds -1 1024 92 16093 5.7 160 10:00 11.04.2020
5106 Clouds -1 1024 92 16093 5.7 160 09:40 11.04.2020
5107 Clouds -1 1024 92 16093 5.7 160 09:21 11.04.2020
5108 Clouds -1 1024 92 14484 4.6 150 08:51 11.04.2020
5109 Clouds -1 1024 92 14484 4.6 150 08:29 11.04.2020
5110 Clouds 0 1024 98 12874 5.1 160 07:55 11.04.2020
5111 Clouds 0 1024 98 12874 5.1 160 07:37 11.04.2020
5112 Clouds 0 1024 98 12874 5.1 160 07:18 11.04.2020
5113 Clouds 0 1024 98 16093 4.6 160 06:35 11.04.2020
5114 Clouds 0 1024 97 16093 5.1 160 05:56 11.04.2020
5115 Snow -1 1024 92 16093 4.1 100 03:48 11.04.2020
5116 Snow -1 1024 92 16093 4.6 90 02:50 11.04.2020
5117 Snow -2 1024 86 9656 6.2 80 01:26 11.04.2020
5118 Snow -3 1024 86 4828 5.7 80 00:54 11.04.2020
5119 Snow -3 1024 86 4828 5.7 80 00:36 11.04.2020
5120 Snow -3 1024 86 4828 5.7 80 00:18 11.04.2020
5121 Snow -3 1024 86 2816 6.2 90 23:41 10.04.2020
5122 Snow -3 1024 86 2816 6.2 90 23:19 10.04.2020
5123 Snow -3 1024 86 2012 5.1 80 22:57 10.04.2020
5124 Snow -3 1024 86 2012 5.1 80 22:37 10.04.2020
5125 Snow -3 1024 86 2012 5.1 80 22:19 10.04.2020
5126 Snow -3 1024 79 3219 4.6 70 21:41 10.04.2020
5127 Snow -3 1024 79 3219 4.6 70 21:21 10.04.2020
5128 Snow -3 1023 79 3219 3.6 80 20:57 10.04.2020
5129 Snow -4 1023 85 3219 2.6 50 20:38 10.04.2020
5130 Snow -4 1023 85 3219 2.6 50 20:19 10.04.2020
5131 Snow -4 1023 79 3219 2.76 64 19:55 10.04.2020
5132 Snow -4 1023 79 3219 2.76 64 19:37 10.04.2020
5133 Snow -5 1023 85 2012 2.76 64 19:18 10.04.2020
5134 Snow -5 1023 85 2012 2.76 64 18:55 10.04.2020
5135 Snow -5 1022 85 3219 2.76 64 18:37 10.04.2020
5136 Snow -6 1022 85 3219 2.31 49 18:18 10.04.2020
5137 Clouds -6 1022 85 12874 2.31 49 17:56 10.04.2020
5138 Clouds -6 1022 85 12874 2.31 49 17:38 10.04.2020
5139 Clouds -6 1022 85 12874 2.31 49 17:18 10.04.2020
5140 Clouds -6 1022 85 16093 2.31 49 16:42 10.04.2020
5141 Clouds -6 1022 85 16093 2.31 49 16:23 10.04.2020
5142 Clouds -6 1021 85 16093 2.31 49 15:58 10.04.2020
5143 Clouds -6 1021 85 16093 2.31 49 15:39 10.04.2020
5144 Clouds -6 1021 85 16093 2.52 26 15:21 10.04.2020
5145 Clouds -5 1021 79 16093 2.52 26 14:58 10.04.2020
5146 Clouds -5 1021 79 16093 2.52 26 14:40 10.04.2020
5147 Clouds -5 1021 79 16093 2.48 25 14:21 10.04.2020
5148 Clouds -5 1021 79 16093 2.48 25 13:49 10.04.2020
5149 Clouds -5 1021 79 16093 2.48 25 13:23 10.04.2020
5150 Clouds -5 1020 79 16093 3.6 350 12:59 10.04.2020
5151 Clouds -5 1020 79 16093 3.6 350 12:41 10.04.2020
5152 Clouds -5 1020 79 16093 3.6 350 12:21 10.04.2020
5153 Clouds -4 1020 73 16093 4.1 350 11:43 10.04.2020
5154 Clouds -5 1019 79 16093 5.1 340 11:24 10.04.2020
5155 Clouds -5 1019 79 16093 4.1 340 10:58 10.04.2020
5156 Clouds -6 1019 79 16093 5.1 360 10:39 10.04.2020
5157 Clouds -6 1019 79 16093 5.1 360 10:21 10.04.2020
5158 Clouds -6 1018 79 16093 6.2 360 09:43 10.04.2020
5159 Clouds -6 1018 79 16093 6.2 360 09:23 10.04.2020
5160 Clouds -6 1018 79 16093 7.2 10 08:50 10.04.2020
5161 Clouds -6 1018 79 16093 7.2 10 08:27 10.04.2020
5162 Snow -5 1017 79 4828 5.7 30 07:58 10.04.2020
5163 Snow -5 1017 79 4828 5.7 30 07:40 10.04.2020
5164 Snow -5 1017 79 4828 5.7 30 07:21 10.04.2020
5165 Snow -5 1017 85 4828 6.2 40 06:39 10.04.2020
5166 Snow -6 1017 85 4828 6.2 40 06:21 10.04.2020
5167 Snow -6 1018 85 2816 5.7 50 05:33 10.04.2020
5168 Snow -6 1018 79 6437 6.7 60 04:56 10.04.2020
5169 Snow -7 1018 85 2414 6.7 70 03:36 10.04.2020
5170 Snow -7 1018 85 2414 6.7 70 03:36 10.04.2020
5171 Snow -7 1019 85 1609 5.7 70 02:52 10.04.2020
5172 Snow -7 1019 85 1609 5.7 70 02:34 10.04.2020
5173 Snow -7 1019 79 2414 6.2 70 01:50 10.04.2020
5174 Snow -8 1020 78 1207 7.7 70 01:28 10.04.2020
5175 Snow -8 1020 78 1207 8.2 70 00:47 10.04.2020
5176 Snow -9 1020 85 1609 8.7 80 00:21 10.04.2020
5177 Snow -9 1020 78 3219 8.2 80 23:44 09.04.2020
5178 Snow -9 1020 78 3219 8.2 80 23:44 09.04.2020
5179 Snow -9 1021 78 2816 7.7 80 23:24 09.04.2020
5180 Snow -9 1021 72 2414 8.7 80 22:59 09.04.2020
5181 Snow -10 1021 72 3219 8.2 70 22:40 09.04.2020
5182 Snow -10 1021 72 3219 8.2 70 22:22 09.04.2020
5183 Snow -11 1022 78 8047 6.7 70 21:42 09.04.2020
5184 Snow -11 1022 78 8047 6.7 70 21:24 09.04.2020
5185 Clouds -12 1022 85 11265 7.7 80 20:55 09.04.2020
5186 Clouds -12 1022 85 11265 7.7 80 20:37 09.04.2020
5187 Clouds -12 1022 85 11265 7.7 80 20:18 09.04.2020
5188 Mist -12 1022 85 8047 8.7 70 19:40 09.04.2020
5189 Mist -12 1022 85 8047 8.7 70 19:22 09.04.2020
5190 Snow -12 1022 85 6437 7.2 80 18:42 09.04.2020
5191 Snow -12 1022 85 6437 7.2 80 18:42 09.04.2020
5192 Snow -12 1022 85 6437 7.2 80 18:21 09.04.2020
5193 Clouds -13 1022 84 16093 6.7 70 17:59 09.04.2020
5194 Clouds -13 1022 84 16093 6.7 70 17:39 09.04.2020
5195 Clouds -13 1022 84 16093 6.7 70 17:19 09.04.2020
5196 Snow -13 1022 84 16093 4.6 70 16:40 09.04.2020
5197 Snow -13 1022 84 16093 4.6 70 16:20 09.04.2020
5198 Clouds -14 1022 77 16093 6.2 80 15:57 09.04.2020
5199 Clouds -14 1022 77 16093 6.2 80 15:38 09.04.2020
5200 Clouds -14 1022 77 16093 6.2 80 15:19 09.04.2020
5201 Clouds -16 1022 84 16093 2.25 71 14:56 09.04.2020
5202 Clouds -16 1022 84 16093 1.51 88 14:38 09.04.2020
5203 Clouds -16 1022 84 16093 1.51 88 14:20 09.04.2020
5204 Clouds -17 1022 84 16093 2.1 30 13:42 09.04.2020
5205 Clouds -18 1022 84 16093 2.1 30 13:24 09.04.2020
5206 Clouds -18 1022 91 16093 2.6 30 12:55 09.04.2020
5207 Clouds -16 1022 84 16093 1.51 88 12:36 09.04.2020
5208 Clouds -15 1022 84 16093 1.69 155 12:18 09.04.2020
5209 Snow -14 1021 84 9656 1.69 155 11:43 09.04.2020
5210 Snow -14 1021 84 4023 1.5 30 11:20 09.04.2020
5211 Snow -14 1021 84 4023 1.5 30 11:20 09.04.2020
5212 Clouds -15 1021 91 16093 1.69 155 10:59 09.04.2020
5213 Clouds -15 1021 84 16093 2.6 80 10:41 09.04.2020
5214 Clouds -15 1021 84 16093 2.6 80 10:21 09.04.2020
5215 Clouds -16 1020 84 16093 3.1 70 09:57 09.04.2020
5216 Clouds -15 1020 84 16093 3.6 50 09:39 09.04.2020
5217 Clouds -16 1020 84 16093 3.6 50 09:20 09.04.2020
5218 Clouds -14 1020 77 16093 3.6 80 08:44 09.04.2020
5219 Clouds -14 1020 77 16093 3.6 80 08:44 09.04.2020
5220 Clouds -14 1020 77 16093 3.6 80 08:24 09.04.2020
5221 Clouds -14 1019 78 16093 3.6 90 07:59 09.04.2020
5222 Clouds -13 1019 78 16093 3.6 90 07:37 09.04.2020
5223 Clouds -13 1019 78 16093 4.1 90 07:18 09.04.2020
5224 Clouds -13 1019 78 16093 4.1 90 06:28 09.04.2020
5225 Clouds -13 1019 78 16093 3.6 90 05:47 09.04.2020
5226 Clouds -13 1018 84 16093 2.6 100 04:39 09.04.2020
5227 Clouds -12 1018 84 16093 2.6 90 02:35 09.04.2020
5228 Clouds -13 1017 77 16093 1.5 110 01:45 09.04.2020
5229 Clouds -13 1017 77 16093 1.5 110 01:27 09.04.2020
5230 Mist -15 1017 91 8047 1.5 100 00:44 09.04.2020
5231 Mist -14 1017 91 8047 1.5 100 00:20 09.04.2020
5232 Mist -15 1017 84 6437 1.5 90 23:59 08.04.2020
5233 Mist -16 1017 84 6437 1.5 90 23:41 08.04.2020
5234 Mist -16 1017 84 6437 1.5 90 23:41 08.04.2020
5235 Mist -17 1017 84 6437 1.5 90 23:22 08.04.2020
5236 Clouds -16 1016 84 16093 2.6 150 22:44 08.04.2020
5237 Clouds -18 1016 84 12874 2.1 0 22:24 08.04.2020
5238 Clouds -18 1016 84 12874 2.1 0 21:57 08.04.2020
5239 Clouds -18 1016 84 12874 2.1 0 21:39 08.04.2020
5240 Clouds -18 1016 84 12874 2.1 0 21:21 08.04.2020
5241 Clouds -20 1016 83 11265 1.5 30 20:59 08.04.2020
5242 Clouds -21 1016 83 11265 1.5 30 20:40 08.04.2020
5243 Clouds -22 1016 83 11265 1.5 30 20:21 08.04.2020
5244 Clouds -24 1016 76 16093 1.07 210 19:59 08.04.2020
5245 Clouds -24 1016 76 16093 1.07 210 19:38 08.04.2020
5246 Clouds -24 1016 76 16093 1.07 210 19:20 08.04.2020
5247 Clouds -24 1016 76 16093 1.07 210 18:45 08.04.2020
5248 Clouds -24 1016 76 16093 0.38 256 18:26 08.04.2020
5249 Mist -26 1015 83 6437 0.38 256 17:56 08.04.2020
5250 Mist -26 1015 83 6437 0.38 256 17:38 08.04.2020
5251 Mist -26 1015 83 6437 0.38 256 17:19 08.04.2020
5252 Mist -26 1016 83 8047 0.38 256 16:43 08.04.2020
5253 Mist -26 1016 83 8047 0.38 256 16:24 08.04.2020
5254 Clouds -26 1016 83 16093 0.38 256 15:59 08.04.2020
5255 Clouds -18 1016 93 0 0.38 256 15:38 08.04.2020
5256 Clear -26 1016 91 16093 0.82 288 15:20 08.04.2020
5257 Clear -26 1016 91 16093 0.82 288 14:54 08.04.2020
5258 Clear -26 1016 91 16093 0.82 288 14:36 08.04.2020
5259 Clear -26 1016 91 16093 0.89 286 14:18 08.04.2020
5260 Clear -24 1016 76 16093 0.89 286 13:43 08.04.2020
5261 Clear -24 1016 76 16093 0.89 286 13:43 08.04.2020
5262 Clear -24 1016 76 16093 0.89 286 13:21 08.04.2020
5263 Clear -23 1016 76 16093 0.89 286 12:43 08.04.2020
5264 Clear -23 1016 76 16093 0.81 304 12:19 08.04.2020
5265 Clear -23 1016 76 16093 0.81 304 11:59 08.04.2020
5266 Clear -23 1016 76 16093 0.81 304 11:40 08.04.2020
5267 Clear -23 1016 76 16093 0.81 304 11:22 08.04.2020
5268 Clear -22 1016 83 16093 2.1 360 10:57 08.04.2020
5269 Clear -22 1016 83 16093 2.1 360 10:39 08.04.2020
5270 Clear -22 1016 83 16093 2.1 360 10:20 08.04.2020
5271 Clear -21 1016 83 16093 0.81 304 09:56 08.04.2020
5272 Clear -20 1016 83 16093 0.81 304 09:38 08.04.2020
5273 Clear -19 1016 83 16093 0.73 268 09:18 08.04.2020
5274 Clear -19 1016 77 16093 2.6 300 08:42 08.04.2020
5275 Clear -19 1016 77 16093 2.6 300 08:23 08.04.2020
5276 Clear -17 1016 70 16093 3.1 290 07:57 08.04.2020
5277 Clear -17 1016 70 16093 3.1 290 07:39 08.04.2020
5278 Clear -16 1016 71 16093 3.1 290 07:19 08.04.2020
5279 Clear -15 1016 71 16093 3.1 290 06:21 08.04.2020
5280 Clear -14 1017 71 16093 2.1 270 04:20 08.04.2020
5281 Clear -13 1017 65 16093 0.8 184 02:49 08.04.2020
5282 Clear -13 1017 65 16093 0.61 222 02:21 08.04.2020
5283 Clear -14 1018 71 16093 2.1 310 01:51 08.04.2020
5284 Clear -15 1018 71 16093 2.1 310 01:27 08.04.2020
5285 Clear -15 1018 77 16093 2.1 310 00:41 08.04.2020
5286 Clear -16 1018 77 16093 2.1 310 00:22 08.04.2020
5287 Clouds -17 1018 84 16093 1.5 310 23:40 07.04.2020
5288 Clouds -15 1018 84 16093 1.5 310 23:22 07.04.2020
5289 Clouds -17 1018 84 16093 0.77 145 22:58 07.04.2020
5290 Clouds -17 1018 84 16093 0.77 145 22:39 07.04.2020
5291 Clouds -17 1018 84 16093 0.77 145 22:20 07.04.2020
5292 Clouds -17 1017 77 16093 0.77 145 21:57 07.04.2020
5293 Clouds -17 1017 77 16093 0.81 157 21:39 07.04.2020
5294 Clouds -17 1017 77 16093 0.64 23 21:20 07.04.2020
5295 Clouds -19 1017 83 16093 0.64 23 20:57 07.04.2020
5296 Clouds -18 1017 83 16093 0.64 23 20:38 07.04.2020
5297 Clouds -19 1017 83 16093 0.64 23 20:20 07.04.2020
5298 Clouds -20 1017 83 16093 0.64 23 19:57 07.04.2020
5299 Clouds -21 1017 83 16093 0.64 23 19:37 07.04.2020
5300 Clouds -21 1017 83 16093 0.64 23 19:18 07.04.2020
5301 Clouds -21 1017 83 16093 0.64 23 19:18 07.04.2020
5302 Clouds -22 1017 76 16093 0.64 23 18:57 07.04.2020
5303 Clouds -21 1017 76 16093 0.64 23 18:38 07.04.2020
5304 Clouds -21 1017 76 16093 0.78 17 18:19 07.04.2020
5305 Clouds -24 1017 76 16093 0.78 17 17:44 07.04.2020
5306 Clouds -24 1017 76 16093 0.78 17 17:21 07.04.2020
5307 Clear -24 1017 76 16093 0.78 17 16:47 07.04.2020
5308 Clear -23 1017 76 16093 0.78 17 16:29 07.04.2020
5309 Clear -22 1017 76 16093 0.78 17 15:58 07.04.2020
5310 Clear -23 1017 76 16093 0.78 17 15:40 07.04.2020
5311 Clouds -23 1017 76 16093 1.41 15 15:22 07.04.2020
5312 Clouds -22 1017 76 16093 1.41 15 14:41 07.04.2020
5313 Clouds -23 1017 76 16093 1.47 11 14:22 07.04.2020
5314 Clear -23 1018 91 16093 1.5 40 13:57 07.04.2020
5315 Clear -23 1018 91 16093 1.5 40 13:38 07.04.2020
5316 Clear -23 1018 91 16093 1.5 40 13:18 07.04.2020
5317 Clear -22 1017 83 16093 1.47 11 12:55 07.04.2020
5318 Clear -22 1017 83 16093 1.47 11 12:36 07.04.2020
5319 Clear -22 1017 83 16093 1.76 339 12:18 07.04.2020
5320 Clear -21 1017 83 16093 1.76 339 11:44 07.04.2020
5321 Clear -22 1017 83 16093 1.76 339 11:25 07.04.2020
5322 Clear -20 1017 83 16093 3.6 280 10:58 07.04.2020
5323 Clear -20 1017 83 16093 3.6 280 10:38 07.04.2020
5324 Clear -20 1017 83 16093 3.6 280 10:19 07.04.2020
5325 Clear -19 1017 77 16093 3.1 310 09:45 07.04.2020
5326 Clear -19 1017 77 16093 3.1 310 09:19 07.04.2020
5327 Clear -18 1017 77 16093 3.1 280 08:55 07.04.2020
5328 Clear -17 1017 77 16093 3.1 280 08:36 07.04.2020
5329 Clear -17 1017 77 16093 3.1 280 08:18 07.04.2020
5330 Clear -16 1017 84 16093 3.6 280 07:40 07.04.2020
5331 Clear -15 1017 84 16093 3.6 280 07:21 07.04.2020
5332 Clouds -14 1016 77 16093 3.6 260 06:51 07.04.2020
5333 Clouds -14 1016 77 16093 3.6 260 06:23 07.04.2020
5334 Clouds -13 1016 71 16093 4.6 280 05:40 07.04.2020
5335 Clouds -13 1016 78 16093 4.6 270 04:56 07.04.2020
5336 Clouds -13 1016 78 9656 6.2 270 03:31 07.04.2020
5337 Clear -14 1016 77 16093 7.2 280 02:59 07.04.2020
5338 Clear -14 1015 77 16093 8.2 280 01:57 07.04.2020
5339 Clear -14 1015 77 16093 8.2 280 01:29 07.04.2020
5340 Haze -15 1015 77 9656 8.2 270 00:29 07.04.2020
5341 Clouds -15 1014 77 16093 7.7 260 23:57 06.04.2020
5342 Clouds -15 1014 77 16093 7.7 260 23:38 06.04.2020
5343 Clouds -15 1014 77 16093 7.7 260 23:19 06.04.2020
5344 Clear -16 1013 77 16093 9.3 280 22:41 06.04.2020
5345 Clear -16 1013 77 16093 9.3 280 22:22 06.04.2020
5346 Clear -17 1013 84 16093 7.2 280 21:58 06.04.2020
5347 Clear -17 1013 84 16093 7.2 280 21:39 06.04.2020
5348 Clear -17 1013 84 16093 7.2 280 21:19 06.04.2020
5349 Clouds -17 1012 84 16093 9.3 280 20:55 06.04.2020
5350 Clouds -17 1012 84 16093 9.3 280 20:55 06.04.2020
5351 Clouds -17 1012 84 16093 9.3 280 20:37 06.04.2020
5352 Clouds -17 1012 84 16093 9.3 280 20:19 06.04.2020
5353 Clouds -17 1012 84 11265 9.3 280 19:41 06.04.2020
5354 Clouds -17 1012 84 11265 9.3 280 19:23 06.04.2020
5355 Mist -16 1011 84 8047 8.2 280 18:59 06.04.2020
5356 Mist -16 1011 84 8047 8.2 280 18:40 06.04.2020
5357 Mist -16 1011 84 8047 8.2 280 18:22 06.04.2020
5358 Haze -16 1011 84 8047 8.7 280 17:55 06.04.2020
5359 Haze -16 1011 84 8047 8.7 280 17:36 06.04.2020
5360 Haze -16 1011 84 8047 8.7 280 17:18 06.04.2020
5361 Clouds -16 1010 84 16093 8.7 290 16:44 06.04.2020
5362 Clouds -16 1010 84 16093 8.7 290 16:26 06.04.2020
5363 Clouds -15 1009 77 11265 6.7 310 14:45 06.04.2020
5364 Clouds -15 1009 77 11265 6.7 310 14:45 06.04.2020
5365 Clouds -15 1009 77 11265 6.7 310 14:45 06.04.2020
5366 Clouds -15 1009 77 11265 6.7 310 14:45 06.04.2020
5367 Clouds -15 1009 77 11265 6.7 310 14:45 06.04.2020
5368 Snow -15 1009 84 4828 5.1 310 13:44 06.04.2020
5369 Snow -15 1009 84 4828 5.1 310 13:43 06.04.2020
5370 Snow -15 1009 84 4828 5.1 310 13:43 06.04.2020
5371 Snow -15 1009 84 4828 5.1 310 13:43 06.04.2020
5372 Snow -15 1009 84 4828 5.1 310 13:20 06.04.2020
5373 Mist -14 1007 77 6437 8.7 300 12:26 06.04.2020
5374 Mist -14 1007 77 6437 8.7 300 12:26 06.04.2020
5375 Mist -14 1007 77 6437 8.7 300 12:26 06.04.2020
5376 Mist -14 1007 77 6437 8.7 300 12:26 06.04.2020
5377 Mist -14 1007 77 6437 8.7 300 12:26 06.04.2020
5378 Clouds -14 1007 77 14484 9.8 280 11:56 06.04.2020
5379 Clouds -14 1007 77 14484 9.8 280 11:34 06.04.2020
5380 Clouds -14 1007 77 14484 9.8 280 11:34 06.04.2020
5381 Clouds -14 1007 77 14484 9.8 280 11:34 06.04.2020
5382 Clouds -14 1007 77 14484 9.8 280 11:34 06.04.2020
5383 Haze -14 1006 77 8047 10.3 290 10:52 06.04.2020
5384 Haze -14 1006 77 8047 10.3 290 10:52 06.04.2020
5385 Haze -14 1006 77 8047 10.3 290 10:52 06.04.2020
5386 Haze -14 1006 77 8047 10.3 290 10:52 06.04.2020
5387 Haze -14 1006 77 8047 10.3 290 10:52 06.04.2020
5388 Haze -14 1006 77 8047 10.3 290 10:22 06.04.2020
5389 Haze -14 1006 77 8047 10.3 290 10:22 06.04.2020
5390 Mist -14 1005 84 6437 9.8 290 09:51 06.04.2020
5391 Mist -14 1005 84 6437 9.8 290 09:51 06.04.2020
5392 Mist -14 1005 84 1609 11.8 290 09:23 06.04.2020
5393 Mist -14 1004 84 1207 12.9 290 08:55 06.04.2020
5394 Mist -14 1004 84 1207 12.9 290 08:33 06.04.2020
5395 Mist -14 1004 84 1207 12.9 290 08:33 06.04.2020
5396 Snow -14 1003 84 402 14.4 290 07:54 06.04.2020
5397 Snow -13 1002 78 402 11.8 310 06:57 06.04.2020
5398 Snow -13 1002 78 402 11.8 310 06:25 06.04.2020
5399 Mist -13 1000 78 1207 13.4 300 04:50 06.04.2020
5400 Mist -13 1000 78 1207 13.4 300 04:50 06.04.2020
5401 Snow -13 997 84 402 14.4 290 03:27 06.04.2020
5402 Snow -12 996 85 402 13.9 280 02:48 06.04.2020
5403 Snow -12 996 85 402 13.4 280 01:52 06.04.2020
5404 Snow -12 996 85 402 12.3 280 00:49 06.04.2020
5405 Snow -12 995 92 402 12.9 270 00:26 06.04.2020
5406 Snow -12 994 92 402 12.9 270 23:47 05.04.2020
5407 Snow -12 994 92 0 13.4 270 23:29 05.04.2020
5408 Snow -12 994 92 0 13.4 270 23:29 05.04.2020
5409 Snow -12 994 92 0 13.4 270 23:29 05.04.2020
5410 Snow -11 993 85 402 12.9 260 22:56 05.04.2020
5411 Snow -11 993 85 402 12.9 260 22:38 05.04.2020
5412 Snow -11 993 85 402 12.9 260 22:19 05.04.2020
5413 Snow -11 992 92 402 11.8 260 21:57 05.04.2020
5414 Snow -11 992 92 402 11.8 260 21:39 05.04.2020
5415 Snow -11 992 92 402 11.8 260 21:21 05.04.2020
5416 Snow -11 992 92 402 11.8 260 21:21 05.04.2020
5417 Snow -11 992 92 402 11.8 260 21:21 05.04.2020
5418 Snow -11 992 92 402 11.8 260 21:21 05.04.2020
5419 Snow -11 992 92 402 11.8 260 21:21 05.04.2020
5420 Snow -11 991 92 402 14.4 270 20:20 05.04.2020
5421 Snow -11 991 92 402 14.4 270 20:20 05.04.2020
5422 Snow -10 989 92 402 14.9 260 19:41 05.04.2020
5423 Snow -10 989 92 402 14.9 260 19:22 05.04.2020
5424 Snow -10 989 92 402 14.9 260 19:22 05.04.2020
5425 Snow -6 987 92 805 9.8 250 18:45 05.04.2020
5426 Snow -6 987 92 805 9.8 250 18:45 05.04.2020
5427 Snow -6 986 100 2414 1.23 108 17:58 05.04.2020
5428 Snow -6 986 100 2414 1.23 108 17:58 05.04.2020
5429 Snow -6 986 100 2414 1.23 108 17:58 05.04.2020
5430 Snow -6 986 100 2414 1.23 108 17:39 05.04.2020
5431 Snow -6 985 100 3219 1.23 108 17:20 05.04.2020
5432 Snow -6 985 92 6437 2.1 110 16:43 05.04.2020
5433 Snow -6 985 92 6437 2.1 110 16:43 05.04.2020
5434 Snow -6 985 92 6437 2.1 110 16:43 05.04.2020
5435 Snow -6 985 92 6437 2.1 110 16:43 05.04.2020
5436 Snow -6 985 92 6437 2.1 110 16:41 05.04.2020
5437 Snow -6 985 92 2816 2.6 120 16:18 05.04.2020
5438 Snow -5 985 92 4828 3.1 140 15:43 05.04.2020
5439 Snow -5 985 92 3219 6.7 150 15:24 05.04.2020
5440 Snow -4 985 85 2012 7.2 160 14:47 05.04.2020
5441 Snow -4 985 85 2012 7.2 160 14:47 05.04.2020
5442 Snow -4 985 85 2012 7.2 160 14:47 05.04.2020
5443 Snow -4 985 85 2012 7.2 160 14:47 05.04.2020
5444 Snow -4 985 85 2012 7.2 160 14:47 05.04.2020
5445 Snow -3 986 92 2816 7.7 190 13:44 05.04.2020
5446 Snow -2 986 92 2012 9.3 200 12:56 05.04.2020
5447 Snow 0 986 98 2414 7.7 180 11:58 05.04.2020
5448 Snow 0 986 98 2414 7.7 180 11:58 05.04.2020
5449 Snow 0 986 98 2414 7.7 180 11:58 05.04.2020
5450 Snow 0 986 98 2414 7.7 180 11:58 05.04.2020
5451 Snow 0 986 98 2414 7.7 180 11:37 05.04.2020
5452 Snow 0 986 98 4023 6.2 170 11:18 05.04.2020
5453 Snow 0 986 98 4828 7.2 170 10:42 05.04.2020
5454 Snow 0 987 98 3219 6.7 170 10:19 05.04.2020
5455 Snow 0 987 98 3219 6.7 170 10:19 05.04.2020
5456 Snow 0 987 98 4023 7.2 170 09:44 05.04.2020
5457 Snow 0 987 98 4023 7.2 170 09:24 05.04.2020
5458 Snow 0 987 98 4023 7.2 170 09:24 05.04.2020
5459 Snow 0 987 98 4023 7.2 170 09:24 05.04.2020
5460 Snow 0 987 98 4023 7.2 170 09:24 05.04.2020
5461 Snow 0 987 98 4023 7.2 170 09:24 05.04.2020
5462 Snow 0 989 99 805 6.2 170 07:44 05.04.2020
5463 Snow 0 989 99 805 6.2 170 07:44 05.04.2020
5464 Rain 1 991 97 1207 6.2 170 04:52 05.04.2020
5465 Rain 1 991 97 1207 6.2 170 04:52 05.04.2020
5466 Snow 1 992 97 2816 7.2 170 03:34 05.04.2020
5467 Snow 1 993 97 2414 7.7 170 02:52 05.04.2020
5468 Snow 1 994 96 4023 8.7 170 01:48 05.04.2020
5469 Clouds 1 995 96 16093 8.2 170 01:30 05.04.2020
5470 Mist 1 995 96 9656 7.7 170 00:47 05.04.2020
5471 Snow 1 995 96 4023 7.7 170 00:22 05.04.2020
5472 Snow 1 996 100 1609 7.2 170 23:56 04.04.2020
5473 Snow 1 996 100 1609 7.2 170 23:38 04.04.2020
5474 Snow 1 996 97 4023 7.7 170 23:19 04.04.2020
5475 Snow 1 997 97 4828 7.7 170 22:55 04.04.2020
5476 Snow 1 997 97 4828 7.7 170 22:37 04.04.2020
5477 Rain 1 997 97 3219 7.7 170 22:19 04.04.2020
5478 Rain 1 997 97 2816 7.2 170 21:54 04.04.2020
5479 Rain 1 997 97 2816 7.2 170 21:36 04.04.2020
5480 Rain 1 998 100 3219 6.7 170 21:18 04.04.2020
5481 Snow 1 998 100 2012 6.7 180 20:42 04.04.2020
5482 Mist 1 998 100 1207 7.2 180 20:23 04.04.2020
5483 Mist 1 999 100 1207 5.7 180 19:58 04.04.2020
5484 Mist 1 999 100 1207 5.7 180 19:37 04.04.2020
5485 Fog 1 999 97 805 6.2 190 19:19 04.04.2020
5486 Rain 1 999 96 16093 4.6 200 18:57 04.04.2020
5487 Rain 1 999 96 16093 4.6 200 18:57 04.04.2020
5488 Rain 1 999 97 16093 4.6 200 18:38 04.04.2020
5489 Rain 1 999 97 16093 4.6 200 18:19 04.04.2020
5490 Rain 1 999 96 12874 4.6 200 17:56 04.04.2020
5491 Rain 1 999 96 12874 4.6 200 17:38 04.04.2020
5492 Rain 1 999 97 12874 4.6 200 17:38 04.04.2020
5493 Rain 1 999 96 9656 5.1 200 17:18 04.04.2020
5494 Snow 1 999 97 3219 5.7 190 16:42 04.04.2020
5495 Rain 1 999 97 8047 3.6 180 16:22 04.04.2020
5496 Rain 1 999 97 4828 3.1 180 15:55 04.04.2020
5497 Rain 1 999 96 4828 3.1 180 15:37 04.04.2020
5498 Rain 1 999 96 4023 3.6 170 15:18 04.04.2020
5499 Snow 0 999 96 3219 3.6 170 14:43 04.04.2020
5500 Snow 0 1000 96 2414 3.6 160 14:23 04.04.2020
5501 Mist 0 1000 96 8047 3.6 150 13:56 04.04.2020
5502 Mist 0 1000 96 8047 3.6 150 13:38 04.04.2020
5503 Snow 0 999 96 8047 3.1 140 13:19 04.04.2020
5504 Snow 0 999 96 8047 3.1 140 13:19 04.04.2020
5505 Snow 0 999 96 8047 3.1 140 13:19 04.04.2020
5506 Mist 0 1000 96 3219 3.6 160 12:45 04.04.2020
5507 Mist 0 1000 96 3219 3.6 160 12:26 04.04.2020
5508 Snow 0 1000 97 3219 4.1 150 11:59 04.04.2020
5509 Snow 0 1000 97 3219 4.1 150 11:39 04.04.2020
5510 Snow 0 1000 97 4828 4.1 130 11:21 04.04.2020
5511 Snow 0 1000 97 4023 4.1 120 10:56 04.04.2020
5512 Snow 0 1000 97 4023 4.1 120 10:38 04.04.2020
5513 Snow 0 1001 97 4023 4.1 110 10:19 04.04.2020
5514 Snow 0 1001 97 2012 4.6 110 09:55 04.04.2020
5515 Snow 0 1001 97 2012 4.6 110 09:37 04.04.2020
5516 Snow 0 1001 97 2012 4.6 110 09:37 04.04.2020
5517 Snow 0 1002 97 3219 5.7 110 09:18 04.04.2020
5518 Snow 0 1002 97 3219 5.7 110 08:42 04.04.2020
5519 Snow 0 1003 97 1207 6.2 110 08:21 04.04.2020
5520 Snow 0 1003 97 805 6.7 110 07:47 04.04.2020
5521 Snow 0 1003 97 402 6.7 110 07:27 04.04.2020
5522 Snow 0 1004 97 402 7.2 110 06:56 04.04.2020
5523 Snow 0 1004 97 1207 7.2 110 06:20 04.04.2020
5524 Snow 0 1005 98 1207 6.2 110 05:43 04.04.2020
5525 Snow 0 1007 98 1207 5.7 110 05:24 04.04.2020
5526 Snow 0 1008 98 1207 5.7 110 04:33 04.04.2020
5527 Snow 0 1009 98 1207 4.1 110 03:55 04.04.2020
5528 Snow 0 1009 98 2816 5.7 100 03:22 04.04.2020
5529 Snow 0 1010 92 8047 4.6 120 02:38 04.04.2020
5530 Snow 0 1010 92 8047 4.6 120 02:20 04.04.2020
5531 Mist -1 1011 100 4023 4.6 130 01:26 04.04.2020
5532 Snow 0 1012 98 16093 5.1 170 00:52 04.04.2020
5533 Snow 0 1012 98 16093 5.1 170 00:30 04.04.2020
5534 Clouds 0 1012 100 14484 5.1 180 23:41 03.04.2020
5535 Clouds 0 1012 100 14484 5.1 180 23:22 03.04.2020
5536 Mist -1 1013 100 4828 5.7 180 22:59 03.04.2020
5537 Mist -1 1013 100 4828 5.7 180 22:40 03.04.2020
5538 Mist -1 1013 100 2816 5.7 190 22:19 03.04.2020
5539 Mist -1 1013 100 2816 5.7 190 22:19 03.04.2020
5540 Mist -1 1013 100 2012 4.6 170 21:45 03.04.2020
5541 Mist -1 1013 100 1207 5.1 180 21:27 03.04.2020
5542 Mist -1 1013 100 1207 4.6 170 20:59 03.04.2020
5543 Mist -1 1013 100 1207 4.6 170 20:40 03.04.2020
5544 Mist -1 1013 100 6437 4.6 170 20:22 03.04.2020
5545 Mist -1 1013 100 8047 6.2 180 19:58 03.04.2020
5546 Mist -1 1013 100 8047 6.2 180 19:40 03.04.2020
5547 Mist -1 1013 100 4828 5.1 180 19:21 03.04.2020
5548 Mist -1 1013 100 4828 5.7 180 19:00 03.04.2020
5549 Mist -1 1013 100 4828 5.7 180 18:41 03.04.2020
5550 Mist -1 1013 100 8047 4.6 170 18:23 03.04.2020
5551 Mist -1 1013 100 8047 4.6 180 17:58 03.04.2020
5552 Mist -1 1013 100 8047 4.6 180 17:39 03.04.2020
5553 Mist -1 1013 100 8047 4.6 180 17:19 03.04.2020
5554 Snow -1 1013 100 6437 4.1 170 16:46 03.04.2020
5555 Snow -1 1013 100 2012 4.1 160 16:22 03.04.2020
5556 Snow -1 1013 92 4828 4.1 120 15:59 03.04.2020
5557 Snow -1 1013 92 4828 4.1 120 15:40 03.04.2020
5558 Snow -1 1013 92 4828 4.1 120 15:22 03.04.2020
5559 Snow -2 1013 92 2012 4.6 90 14:56 03.04.2020
5560 Snow -3 1012 95 0 4.47 89 14:38 03.04.2020
5561 Snow -3 1013 92 9656 5.7 90 14:20 03.04.2020
5562 Snow -3 1013 92 9656 5.7 90 13:45 03.04.2020
5563 Snow -3 1013 92 9656 5.7 90 13:26 03.04.2020
5564 Snow -3 1013 92 4828 5.7 90 12:56 03.04.2020
5565 Snow -3 1013 92 1609 5.7 90 12:38 03.04.2020
5566 Snow -3 1013 92 1609 5.7 90 12:18 03.04.2020
5567 Snow -4 1013 100 2816 5.1 100 11:55 03.04.2020
5568 Snow -4 1013 100 2816 5.1 100 11:37 03.04.2020
5569 Snow -4 1013 100 2816 5.1 100 11:18 03.04.2020
5570 Snow -3 1013 92 2414 5.7 110 10:56 03.04.2020
5571 Snow -3 1013 92 2414 5.7 110 10:37 03.04.2020
5572 Snow -3 1013 92 2414 5.7 110 10:37 03.04.2020
5573 Snow -4 1013 100 2012 4.6 110 10:18 03.04.2020
5574 Snow -4 1013 100 2012 6.2 110 09:54 03.04.2020
5575 Snow -4 1013 100 2012 6.2 110 09:36 03.04.2020
5576 Snow -4 1013 100 1207 5.1 110 09:18 03.04.2020
5577 Snow -4 1013 100 1609 6.7 110 08:41 03.04.2020
5578 Snow -3 1013 92 805 6.2 110 08:22 03.04.2020
5579 Snow -3 1013 86 805 7.7 110 07:50 03.04.2020
5580 Snow -4 1013 85 805 8.7 90 07:32 03.04.2020
5581 Snow -4 1014 85 2012 9.8 100 06:55 03.04.2020
5582 Snow -4 1014 85 2012 9.8 90 06:25 03.04.2020
5583 Snow -4 1014 85 402 9.8 90 05:42 03.04.2020
5584 Snow -4 1016 85 1207 8.2 100 03:47 03.04.2020
5585 Snow -4 1017 85 2816 8.2 110 03:29 03.04.2020
5586 Clouds -4 1017 85 16093 7.7 120 02:30 03.04.2020
5587 Clouds -4 1018 92 16093 7.2 120 01:24 03.04.2020
5588 Snow -4 1018 92 3219 6.2 140 00:41 03.04.2020
5589 Snow -4 1018 92 3219 6.2 140 00:20 03.04.2020
5590 Snow -4 1019 92 4023 6.2 120 23:42 02.04.2020
5591 Snow -4 1019 92 4023 6.2 120 23:42 02.04.2020
5592 Snow -4 1019 92 4023 6.2 120 23:42 02.04.2020
5593 Snow -4 1019 85 2012 6.2 90 23:23 02.04.2020
5594 Snow -4 1019 85 2012 6.2 90 22:59 02.04.2020
5595 Snow -4 1019 85 2012 6.2 90 22:41 02.04.2020
5596 Snow -5 1019 92 2816 6.2 80 22:20 02.04.2020
5597 Snow -5 1019 92 4828 5.1 80 21:55 02.04.2020
5598 Snow -6 1019 92 4828 5.1 80 21:36 02.04.2020
5599 Snow -6 1019 92 3219 6.2 70 21:18 02.04.2020
5600 Clouds -7 1019 92 16093 6.2 70 20:42 02.04.2020
5601 Clouds -7 1019 92 16093 6.2 70 20:23 02.04.2020
5602 Clouds -7 1019 92 16093 5.7 80 19:55 02.04.2020
5603 Clouds -7 1019 92 16093 5.7 80 19:37 02.04.2020
5604 Clouds -7 1019 92 16093 5.7 80 19:18 02.04.2020
5605 Clouds -7 1019 85 16093 5.7 80 18:41 02.04.2020
5606 Clouds -7 1019 92 16093 5.1 90 18:21 02.04.2020
5607 Snow -7 1019 92 4828 3.1 90 17:57 02.04.2020
5608 Snow -7 1019 92 4828 3.1 90 17:39 02.04.2020
5609 -273 0 0 0 0 0 17:20 02.04.2020
5610 Snow -8 1019 92 4023 2.6 80 16:57 02.04.2020
5611 Snow -8 1019 92 4023 2.6 80 16:39 02.04.2020
5612 Snow -8 1019 92 4828 3.1 80 16:21 02.04.2020
5613 Mist -8 1019 92 4828 2.6 110 15:55 02.04.2020
5614 Mist -8 1019 92 4828 2.6 110 15:37 02.04.2020
5615 Fog -8 1019 92 805 2.1 100 15:18 02.04.2020
5616 Fog -8 1019 92 402 2.1 140 14:40 02.04.2020
5617 Fog -9 1019 92 805 1.5 170 14:21 02.04.2020
5618 Fog -8 1019 92 402 1 156 13:59 02.04.2020
5619 Fog -9 1019 92 402 1 156 13:40 02.04.2020
5620 Fog -9 1019 100 402 2.1 200 13:21 02.04.2020
5621 Fog -9 1018 92 402 2.6 220 12:57 02.04.2020
5622 Fog -8 1018 92 402 2.6 220 12:39 02.04.2020
5623 Fog -8 1018 92 402 2.6 220 12:19 02.04.2020
5624 Fog -8 1018 92 402 2.6 220 11:57 02.04.2020
5625 Fog -8 1018 92 402 2.6 220 11:38 02.04.2020
5626 Mist -8 1018 100 1207 1.5 220 11:19 02.04.2020
5627 Clouds -7 1017 92 12874 2.1 180 10:55 02.04.2020
5628 Snow -7 1017 92 8047 2.39 229 10:37 02.04.2020
5629 Snow -7 1017 92 8047 2.39 229 10:19 02.04.2020
5630 Clouds -6 1017 92 16093 2.39 229 09:55 02.04.2020
5631 Clouds -6 1017 92 16093 2.39 229 09:37 02.04.2020
5632 Clouds -6 1017 92 16093 1.06 175 09:18 02.04.2020
5633 Clouds -7 1016 92 12874 1.06 175 08:45 02.04.2020
5634 Mist -6 1016 85 9656 2.6 80 08:26 02.04.2020
5635 Clouds -6 1016 92 11265 3.1 80 07:45 02.04.2020
5636 Mist -6 1016 92 6437 3.1 80 07:20 02.04.2020
5637 Mist -5 1016 85 14484 4.1 80 06:58 02.04.2020
5638 Mist -5 1016 85 8047 3.6 80 06:21 02.04.2020
5639 Snow -5 1016 85 2012 5.7 80 05:45 02.04.2020
5640 Snow -5 1017 85 1609 5.7 90 04:35 02.04.2020
5641 Snow -5 1018 85 1207 7.7 90 01:51 02.04.2020
5642 Snow -5 1018 79 2012 6.7 80 00:48 02.04.2020
5643 Snow -5 1019 73 4828 6.7 80 00:27 02.04.2020
5644 Clouds -5 1019 67 16093 7.7 90 23:55 01.04.2020
5645 Clouds -5 1019 67 16093 7.7 90 23:37 01.04.2020
5646 Clouds -5 1019 67 16093 7.7 90 23:18 01.04.2020
5647 Clouds -5 1019 67 16093 7.7 90 23:18 01.04.2020
5648 Clouds -5 1020 62 16093 7.2 90 22:40 01.04.2020
5649 Clouds -5 1020 62 16093 7.2 90 22:22 01.04.2020
5650 Clouds -5 1020 67 16093 7.2 80 21:55 01.04.2020
5651 Clouds -5 1020 67 16093 7.2 80 21:37 01.04.2020
5652 Clouds -6 1020 67 16093 7.2 80 21:18 01.04.2020
5653 Clouds -6 1020 67 16093 7.2 80 21:18 01.04.2020
5654 Clouds -6 1020 67 16093 7.2 80 20:54 01.04.2020
5655 Clouds -6 1020 67 16093 7.2 80 20:36 01.04.2020
5656 Clouds -6 1020 67 16093 7.2 80 20:18 01.04.2020
5657 Clouds -6 1021 67 16093 7.2 80 19:42 01.04.2020
5658 Clouds -6 1021 67 16093 7.2 80 19:22 01.04.2020
5659 Clear -6 1021 73 16093 6.2 70 18:56 01.04.2020
5660 Clear -6 1021 73 16093 6.2 70 18:56 01.04.2020
5661 Clear -6 1021 73 16093 6.2 70 18:38 01.04.2020
5662 Clear -6 1021 73 16093 6.2 70 18:38 01.04.2020
5663 Clear -6 1021 73 16093 6.2 70 18:20 01.04.2020
5664 Clear -7 1022 85 16093 6.2 80 17:55 01.04.2020
5665 Clear -7 1022 85 16093 6.2 80 17:36 01.04.2020
5666 Clear -7 1022 85 16093 6.2 80 17:18 01.04.2020
5667 Clear -7 1022 92 16093 4.1 80 16:42 01.04.2020
5668 Clear -7 1022 92 16093 4.1 80 16:24 01.04.2020
5669 Clouds -7 1022 92 16093 4.1 80 15:59 01.04.2020
5670 Clouds -7 1022 92 16093 4.1 80 15:41 01.04.2020
5671 Clouds -7 1023 100 16093 7.2 100 15:21 01.04.2020
5672 Clouds -6 1023 92 14484 6.2 90 14:57 01.04.2020
5673 Clouds -6 1023 92 14484 6.2 90 14:38 01.04.2020
5674 Clouds -6 1023 92 14484 6.2 90 14:38 01.04.2020
5675 Mist -6 1023 92 6437 6.7 90 14:19 01.04.2020
5676 Mist -6 1023 92 6437 6.7 90 14:19 01.04.2020
5677 Mist -6 1023 100 6437 6.2 90 13:58 01.04.2020
5678 Mist -6 1023 100 6437 6.2 90 13:38 01.04.2020
5679 Mist -6 1023 100 6437 6.2 90 13:19 01.04.2020
5680 Mist -6 1024 92 4828 6.2 90 12:55 01.04.2020
5681 Mist -6 1024 92 4828 6.2 90 12:36 01.04.2020
5682 Snow -6 1024 92 2012 6.7 90 12:18 01.04.2020
5683 Mist -6 1024 92 3219 7.2 90 11:42 01.04.2020
5684 Snow -6 1024 100 2816 7.2 90 11:23 01.04.2020
5685 Mist -6 1024 92 3219 7.2 100 10:58 01.04.2020
5686 Mist -6 1024 92 3219 7.2 100 10:38 01.04.2020
5687 Mist -6 1024 92 4828 7.2 90 10:19 01.04.2020
5688 Mist -6 1024 100 4023 7.2 90 09:57 01.04.2020
5689 Mist -6 1024 100 4023 7.2 90 09:39 01.04.2020
5690 Mist -6 1024 100 4828 6.7 100 09:18 01.04.2020
5691 Mist -6 1024 100 3219 6.2 100 08:41 01.04.2020
5692 Fog -5 1023 92 805 6.2 110 08:18 01.04.2020
5693 Fog -5 1023 92 805 5.7 110 07:44 01.04.2020
5694 Fog -5 1023 85 805 5.1 110 07:21 01.04.2020
5695 Clouds -4 1023 92 12874 4.1 90 06:48 01.04.2020
5696 Clouds -4 1023 92 12874 4.1 90 06:26 01.04.2020
5697 Clouds -4 1022 92 16093 4.1 90 05:58 01.04.2020
5698 Clouds -4 1022 85 16093 3.6 110 04:33 01.04.2020
5699 Clouds -4 1021 85 16093 4.1 110 03:32 01.04.2020
5700 Clouds -4 1021 92 16093 2.6 90 02:56 01.04.2020
5701 Clouds -4 1020 92 14484 2.6 110 01:59 01.04.2020
5702 Clouds -4 1020 92 14484 2.6 110 01:39 01.04.2020
5703 Clouds -4 1020 92 14484 2.6 110 01:18 01.04.2020
5704 Clouds -4 1020 100 12874 3.1 90 00:46 01.04.2020
5705 Mist -4 1020 92 9656 3.6 80 00:21 01.04.2020
5706 Mist -4 1019 85 4828 4.1 80 23:42 31.03.2020
5707 Mist -5 1019 92 3219 3.6 80 23:23 31.03.2020
5708 Mist -5 1019 92 3219 3.6 80 22:58 31.03.2020
5709 Mist -6 1018 100 4023 4.6 80 22:37 31.03.2020
5710 Mist -6 1018 100 4023 4.6 80 22:19 31.03.2020
5711 Mist -6 1018 100 2414 4.6 80 21:56 31.03.2020
5712 Mist -6 1018 100 2012 4.1 60 21:38 31.03.2020
5713 Mist -6 1018 100 2012 4.1 60 21:19 31.03.2020
5714 Snow -7 1016 92 4828 4.6 80 20:55 31.03.2020
5715 Snow -7 1016 92 4828 4.6 80 20:36 31.03.2020
5716 Snow -7 1016 92 4828 4.6 80 20:18 31.03.2020
5717 Clouds -7 1016 92 14484 4.1 80 19:42 31.03.2020
5718 Clouds -7 1016 92 14484 4.1 80 19:23 31.03.2020
5719 Clouds -7 1015 85 16093 4.6 80 18:58 31.03.2020
5720 Clouds -7 1015 85 16093 4.6 80 18:39 31.03.2020
5721 Clouds -7 1015 85 16093 4.6 80 18:18 31.03.2020
5722 Snow -7 1015 85 11265 4.1 80 17:55 31.03.2020
5723 Snow -7 1015 85 11265 4.1 80 17:55 31.03.2020
5724 Snow -7 1015 85 11265 4.1 80 17:37 31.03.2020
5725 Snow -7 1015 85 11265 4.1 80 17:18 31.03.2020
5726 Snow -8 1015 92 2816 4.6 70 16:40 31.03.2020
5727 Snow -8 1015 92 12874 4.1 80 16:19 31.03.2020
5728 Snow -8 1014 85 12874 4.6 80 15:57 31.03.2020
5729 Snow -8 1014 85 12874 4.6 80 15:39 31.03.2020
5730 Snow -8 1014 85 12874 4.6 80 15:20 31.03.2020
5731 Clouds -8 1014 85 16093 5.1 80 14:57 31.03.2020
5732 Clouds -8 1014 85 16093 5.1 80 14:38 31.03.2020
5733 Clouds -8 1014 85 16093 5.1 80 14:20 31.03.2020
5734 Snow -8 1014 78 6437 5.1 80 13:43 31.03.2020
5735 Snow -8 1014 78 4023 4.6 80 13:20 31.03.2020
5736 Snow -8 1014 78 4023 4.6 80 13:19 31.03.2020
5737 Snow -8 1014 78 4023 4.6 80 13:19 31.03.2020
5738 Snow -9 1014 85 14484 5.1 80 12:56 31.03.2020
5739 Snow -9 1014 85 14484 5.1 80 12:38 31.03.2020
5740 Snow -9 1014 85 6437 5.1 80 12:19 31.03.2020
5741 Snow -9 1014 78 4023 5.7 80 11:39 31.03.2020
5742 Snow -9 1014 78 4023 5.7 80 11:20 31.03.2020
5743 Clouds -9 1014 72 16093 6.7 80 10:58 31.03.2020
5744 Clouds -9 1014 72 16093 6.7 80 10:40 31.03.2020
5745 Clouds -9 1014 72 16093 5.7 90 10:21 31.03.2020
5746 Clouds -9 1014 72 16093 5.7 90 09:56 31.03.2020
5747 Clouds -9 1014 72 16093 5.7 90 09:37 31.03.2020
5748 Clouds -9 1014 72 16093 5.7 90 09:19 31.03.2020
5749 Clouds -9 1014 72 16093 6.2 90 08:56 31.03.2020
5750 Clouds -9 1014 72 16093 6.2 90 08:38 31.03.2020
5751 Clouds -9 1014 72 16093 6.2 90 08:38 31.03.2020
5752 Clouds -9 1014 72 16093 6.2 90 08:19 31.03.2020
5753 Clouds -9 1014 66 16093 4.6 90 07:55 31.03.2020
5754 Clouds -9 1014 66 16093 4.6 90 07:55 31.03.2020
5755 Clouds -9 1014 66 16093 4.6 90 07:37 31.03.2020
5756 Clouds -9 1014 66 16093 4.6 90 07:18 31.03.2020
5757 Clear -8 1014 61 16093 6.2 120 06:42 31.03.2020
5758 Clear -8 1014 67 16093 6.7 110 05:59 31.03.2020
5759 Clear -8 1014 67 16093 6.7 110 05:39 31.03.2020
5760 Clear -7 1015 67 16093 8.2 100 03:28 31.03.2020
5761 Clear -8 1017 67 16093 7.7 90 01:52 31.03.2020
5762 Clear -8 1017 67 16093 7.7 90 01:33 31.03.2020
5763 Clear -8 1017 57 16093 9.8 90 00:46 31.03.2020
5764 Clear -8 1017 57 16093 9.8 90 00:24 31.03.2020
5765 Clear -9 1018 56 16093 8.2 80 23:41 30.03.2020
5766 -273 0 0 0 0 0 23:20 30.03.2020
5767 Clear -9 1019 56 16093 2.6 70 22:58 30.03.2020
5768 Clear -9 1019 56 16093 2.6 70 22:39 30.03.2020
5769 Clear -9 1019 56 16093 2.6 70 22:39 30.03.2020
5770 Clear -10 1019 56 16093 2.6 70 22:20 30.03.2020
5771 Clear -10 1019 47 16093 2.6 120 21:58 30.03.2020
5772 Clear -10 1019 47 16093 2.6 120 21:39 30.03.2020
5773 Clear -10 1019 47 16093 2.6 120 21:21 30.03.2020
5774 Clear -10 1020 47 16093 4.1 190 20:59 30.03.2020
5775 Clear -10 1020 47 16093 4.1 190 20:39 30.03.2020
5776 Clear -10 1020 47 16093 4.1 190 20:20 30.03.2020
5777 Clear -11 1019 51 16093 7.7 80 19:57 30.03.2020
5778 Clear -11 1019 51 16093 7.7 80 19:39 30.03.2020
5779 Clear -10 1019 51 16093 7.7 80 19:20 30.03.2020
5780 Clear -10 1019 47 16093 9.8 80 18:44 30.03.2020
5781 Clear -10 1019 47 16093 9.8 80 18:26 30.03.2020
5782 Clear -9 1019 84 16093 7.7 80 17:58 30.03.2020
5783 Clear -10 1019 84 16093 7.7 80 17:40 30.03.2020
5784 Clear -10 1019 84 16093 7.7 80 17:22 30.03.2020
5785 Clear -11 1019 84 0 6.38 79 16:59 30.03.2020
5786 Clear -11 1019 84 0 6.38 79 16:40 30.03.2020
5787 Clear -11 1019 84 0 6.38 79 16:21 30.03.2020
5788 Clear -11 1019 84 0 6.38 79 15:56 30.03.2020
5789 Clear -11 1019 84 0 6.38 79 15:56 30.03.2020
5790 Clear -11 1019 84 0 6.38 79 15:56 30.03.2020
5791 Clear -11 1019 84 0 6.38 79 15:38 30.03.2020
5792 Clear -11 1022 79 0 4.44 81 15:20 30.03.2020
5793 Clear -11 1022 79 0 4.44 81 14:58 30.03.2020
5794 Clear -11 1022 79 0 4.44 81 14:37 30.03.2020
5795 Clear -11 1022 79 0 4.44 81 14:18 30.03.2020
5796 Clear -11 1022 77 0 4.06 81 13:57 30.03.2020
5797 Clear -11 1022 77 0 4.06 81 13:38 30.03.2020
5798 Clear -11 1022 77 0 4.06 81 13:19 30.03.2020
5799 Clear -11 1022 77 0 4.06 81 12:45 30.03.2020
5800 Clear -11 1022 77 0 4.06 81 12:21 30.03.2020
5801 Clear -11 1022 77 0 4.06 81 12:21 30.03.2020
5802 Clear -11 1023 75 0 3.04 70 11:58 30.03.2020
5803 Clear -11 1023 75 0 3.04 70 11:40 30.03.2020
5804 Clear -11 1023 75 0 3.04 70 11:21 30.03.2020
5805 Clear -11 1023 75 0 3.04 70 10:55 30.03.2020
5806 Clear -11 1023 75 0 3.04 70 10:37 30.03.2020
5807 Clear -11 1023 75 0 3.04 70 10:18 30.03.2020
5808 Clear -11 1023 75 0 3.04 70 09:40 30.03.2020
5809 Clear -11 1025 75 0 1.9 62 09:19 30.03.2020
5810 Clear -11 1025 75 0 1.9 62 08:56 30.03.2020
5811 Clear -11 1025 75 0 1.9 62 08:36 30.03.2020
5812 Clear -11 1025 75 0 1.9 62 08:18 30.03.2020
5813 Clear -11 1025 75 0 1.9 62 07:42 30.03.2020
5814 Clear -11 1025 75 0 1.9 62 07:20 30.03.2020
5815 Clear -11 1025 75 0 1.9 62 06:43 30.03.2020
5816 Clear -11 1025 75 0 1.9 62 06:25 30.03.2020
5817 Clear -9 1027 81 0 0.79 51 05:43 30.03.2020
5818 Clear -9 1027 81 0 0.79 51 04:29 30.03.2020
5819 Clear -3 1028 42 16093 2.1 100 03:54 30.03.2020
5820 Clear -11 1028 66 16093 1.5 130 02:44 30.03.2020
5821 Clear -11 1029 56 16093 1 136 01:57 30.03.2020
5822 Clear -12 1029 51 16093 1.5 240 00:59 30.03.2020
5823 Clear -12 1029 51 16093 1.5 240 00:28 30.03.2020
5824 Clear -13 1029 50 16093 0.31 279 23:56 29.03.2020
5825 Clear -13 1029 50 16093 0.31 279 23:56 29.03.2020
5826 Clear -13 1029 50 16093 0.31 279 23:37 29.03.2020
5827 Clear -13 1029 50 16093 0.31 279 23:18 29.03.2020
5828 Clear -15 1030 45 16093 0.31 279 22:40 29.03.2020
5829 Clear -15 1030 45 16093 0.31 279 22:20 29.03.2020
5830 Clear -15 1030 38 16093 0.31 279 21:59 29.03.2020
5831 Clear -15 1030 38 16093 0.31 279 21:38 29.03.2020
5832 Clear -15 1030 38 16093 0.72 114 21:20 29.03.2020
5833 Clear -17 1030 45 16093 0.72 114 20:55 29.03.2020
5834 Clear -17 1030 45 16093 0.72 114 20:37 29.03.2020
5835 Clear -17 1030 45 16093 0.72 114 20:19 29.03.2020
5836 Clear -18 1029 49 16093 0.72 114 19:57 29.03.2020
5837 Clear -18 1029 49 16093 0.72 114 19:57 29.03.2020
5838 Clear -18 1029 49 16093 0.72 114 19:39 29.03.2020
5839 Clear -18 1029 49 16093 0.72 114 19:21 29.03.2020
5840 Clear -18 1029 44 16093 0.72 114 18:57 29.03.2020
5841 Clear -18 1029 44 16093 0.72 114 18:38 29.03.2020
5842 Clear -18 1029 44 16093 0.81 24 18:18 29.03.2020
5843 Clear -14 1029 67 0 0.81 24 17:55 29.03.2020
5844 Clear -14 1029 67 0 0.81 24 17:37 29.03.2020
5845 Clear -14 1029 67 0 0.81 24 17:18 29.03.2020
5846 Clear -14 1029 67 0 0.81 24 16:55 29.03.2020
5847 Clear -14 1029 67 0 0.81 24 16:36 29.03.2020
5848 Clear -14 1029 67 0 0.81 24 16:18 29.03.2020
5849 Clear -14 1029 67 0 0.81 24 15:41 29.03.2020
5850 Clear -14 1029 67 0 0.81 24 15:23 29.03.2020
5851 Clear -13 1028 71 0 2.13 357 14:57 29.03.2020
5852 Clear -13 1028 71 0 2.13 357 14:39 29.03.2020
5853 Clear -13 1028 71 0 2.13 357 14:20 29.03.2020
5854 Clear -13 1029 71 0 2.16 349 13:57 29.03.2020
5855 Clear -13 1029 71 0 2.16 349 13:57 29.03.2020
5856 Clear -13 1029 71 0 2.16 349 13:39 29.03.2020
5857 Clear -13 1029 71 0 2.16 349 13:19 29.03.2020
5858 Clear -13 1029 71 0 2.16 349 12:55 29.03.2020
5859 Clear -13 1029 71 0 2.16 349 12:37 29.03.2020
5860 Clear -14 1028 74 0 2.89 351 12:18 29.03.2020
5861 Clear -14 1028 74 0 2.89 351 11:40 29.03.2020
5862 Clear -14 1028 74 0 2.89 351 11:22 29.03.2020
5863 Clear -14 1028 74 0 2.89 351 10:59 29.03.2020
5864 Clear -14 1028 74 0 2.89 351 10:38 29.03.2020
5865 Clear -14 1028 74 0 2.89 351 10:18 29.03.2020
5866 Clear -14 1028 74 0 2.89 351 10:18 29.03.2020
5867 Clear -14 1028 74 0 2.89 351 09:41 29.03.2020
5868 Clear -14 1028 74 0 2.89 351 09:20 29.03.2020
5869 Clear -16 1026 76 0 4.02 358 08:54 29.03.2020
5870 Clear -16 1026 76 0 4.02 358 08:54 29.03.2020
5871 Clear -16 1026 76 0 4.02 358 08:30 29.03.2020
5872 Clear -16 1026 76 0 4.02 358 07:59 29.03.2020
5873 Clear -16 1026 76 0 4.02 358 07:41 29.03.2020
5874 Clear -16 1026 76 0 4.02 358 07:21 29.03.2020
5875 Clear -14 1024 84 0 3.8 351 05:46 29.03.2020
5876 Clear -14 1024 84 0 3.8 351 04:27 29.03.2020
5877 Clear -14 1021 71 16093 8.7 10 03:31 29.03.2020
5878 Clear -14 1020 71 16093 11.8 10 01:51 29.03.2020
5879 Clear -14 1020 71 16093 11.8 10 01:23 29.03.2020
5880 Clear -12 1020 51 16093 6.2 350 00:56 29.03.2020
5881 Clear -12 1020 51 16093 6.2 350 00:33 29.03.2020
5882 Clear -12 1020 55 16093 9.8 30 23:57 28.03.2020
5883 Clear -12 1020 55 16093 9.8 30 23:39 28.03.2020
5884 Clear -12 1020 55 16093 9.8 30 23:19 28.03.2020
5885 Clear -12 1019 51 16093 7.7 30 22:41 28.03.2020
5886 Clear -12 1019 51 16093 7.7 30 22:22 28.03.2020
5887 Clear -14 1017 60 16093 10.8 30 21:55 28.03.2020
5888 Clear -14 1017 60 16093 10.8 30 21:37 28.03.2020
5889 Clear -14 1017 60 16093 10.8 30 21:18 28.03.2020
5890 Clear -14 1016 65 16093 10.8 30 20:42 28.03.2020
5891 Clear -14 1016 65 16093 10.8 30 20:24 28.03.2020
5892 Clouds -14 1015 71 16093 9.8 20 19:58 28.03.2020
5893 Clouds -14 1015 71 16093 9.8 20 19:58 28.03.2020
5894 Clouds -14 1015 71 16093 9.8 20 19:39 28.03.2020
5895 Clouds -14 1015 71 16093 9.8 20 19:21 28.03.2020
5896 Clouds -15 1013 71 16093 12.3 30 18:59 28.03.2020
5897 Clouds -15 1013 71 16093 12.3 30 18:39 28.03.2020
5898 Clouds -15 1013 71 16093 12.3 30 18:20 28.03.2020
5899 Clouds -14 1013 65 16093 7.2 10 17:39 28.03.2020
5900 Clouds -14 1013 65 16093 7.2 10 17:39 28.03.2020
5901 Clouds -14 1013 65 16093 7.2 10 17:21 28.03.2020
5902 Clouds -16 1013 89 0 4.37 6 16:55 28.03.2020
5903 Clouds -16 1013 89 0 4.37 6 16:37 28.03.2020
5904 Clouds -16 1013 89 0 4.37 6 16:18 28.03.2020
5905 Clouds -16 1013 89 0 4.37 6 15:39 28.03.2020
5906 Clouds -16 1013 89 0 4.37 6 15:19 28.03.2020
5907 Clouds -16 1013 89 0 4.37 6 14:56 28.03.2020
5908 Clouds -16 1013 89 0 4.37 6 14:38 28.03.2020
5909 Clouds -15 1011 90 0 4.44 9 14:20 28.03.2020
5910 Clouds -15 1011 90 0 4.44 9 13:41 28.03.2020
5911 Clouds -15 1011 90 0 4.66 13 13:22 28.03.2020
5912 Clouds -15 1011 90 0 4.66 13 12:40 28.03.2020
5913 Clouds -15 1011 90 0 4.66 13 12:22 28.03.2020
5914 Clouds -15 1011 90 0 4.66 13 11:43 28.03.2020
5915 Clouds -15 1011 90 0 4.66 13 11:23 28.03.2020
5916 Clouds -13 1009 92 0 4.44 26 10:58 28.03.2020
5917 Clouds -13 1009 92 0 4.44 26 10:38 28.03.2020
5918 Clouds -13 1009 92 0 4.44 26 10:18 28.03.2020
5919 Clouds -13 1009 92 0 4.44 26 09:42 28.03.2020
5920 Clouds -13 1009 92 0 4.44 26 09:23 28.03.2020
5921 Clouds -13 1009 92 0 4.44 26 08:55 28.03.2020
5922 Clouds -15 1010 90 0 3.98 23 08:37 28.03.2020
5923 Clouds -13 1007 91 0 4.86 42 08:18 28.03.2020
5924 Clouds -15 1008 91 0 4.14 41 07:42 28.03.2020
5925 Clouds -15 1008 91 0 4.14 41 06:58 28.03.2020
5926 Clouds -15 1008 91 0 4.14 41 06:35 28.03.2020
5927 Clouds -15 1008 91 0 4.14 41 05:42 28.03.2020
5928 Clouds -15 1008 91 0 4.14 41 05:21 28.03.2020
5929 Snow -12 1007 94 0 7.67 63 04:40 28.03.2020
5930 Snow -12 1007 94 0 7.67 63 03:42 28.03.2020
5931 Snow -13 1007 94 0 8.62 68 01:57 28.03.2020
5932 Snow -13 1007 94 0 8.62 68 01:26 28.03.2020
5933 Snow -11 1006 85 402 11.3 80 00:57 28.03.2020
5934 Snow -11 1006 85 402 11.3 80 00:36 28.03.2020
5935 Snow -11 1007 85 402 11.8 80 23:56 27.03.2020
5936 Snow -11 1007 85 402 11.8 80 23:38 27.03.2020
5937 Snow -11 1007 85 402 11.8 80 23:19 27.03.2020
5938 Snow -13 1008 94 0 9.52 79 22:56 27.03.2020
5939 Snow -13 1008 94 0 9.52 79 22:37 27.03.2020
5940 Snow -13 1008 94 0 9.52 79 22:18 27.03.2020
5941 Snow -11 1008 85 805 10.3 70 21:43 27.03.2020
5942 Snow -11 1008 85 805 10.3 70 21:24 27.03.2020
5943 Snow -12 1008 92 2012 8.7 70 20:58 27.03.2020
5944 Snow -12 1008 92 2012 8.7 70 20:40 27.03.2020
5945 Snow -12 1008 92 2012 8.7 70 20:20 27.03.2020
5946 Snow -12 1008 92 2012 9.3 70 19:57 27.03.2020
5947 Snow -12 1008 92 2012 9.3 70 19:39 27.03.2020
5948 Snow -12 1008 92 2012 9.3 70 19:39 27.03.2020
5949 Snow -11 1009 78 1207 8.7 70 19:20 27.03.2020
5950 Snow -11 1009 78 1609 7.7 70 18:44 27.03.2020
5951 Mist -12 1010 78 2414 7.2 60 18:24 27.03.2020
5952 Snow -12 1011 85 3219 9.3 80 17:58 27.03.2020
5953 Snow -12 1011 85 3219 9.3 80 17:39 27.03.2020
5954 Snow -12 1011 85 3219 9.3 80 17:19 27.03.2020
5955 Snow -12 1011 85 2816 9.3 80 16:44 27.03.2020
5956 Snow -12 1011 85 2816 8.7 70 16:25 27.03.2020
5957 Snow -12 1011 85 2816 8.7 70 16:25 27.03.2020
5958 Snow -11 1012 94 4023 8.7 70 15:56 27.03.2020
5959 Snow -11 1012 94 4023 8.7 70 15:38 27.03.2020
5960 Clouds -11 1012 94 16093 8.7 80 15:19 27.03.2020
5961 Snow -13 1010 94 0 7.65 74 14:43 27.03.2020
5962 Snow -13 1010 94 0 7.65 74 14:24 27.03.2020
5963 Clouds -10 1014 86 16093 8.2 80 13:55 27.03.2020
5964 Clouds -13 1014 86 0 4.78 75 13:37 27.03.2020
5965 Clouds -13 1014 86 0 4.78 75 13:18 27.03.2020
5966 Clouds -13 1014 86 0 4.9 72 12:43 27.03.2020
5967 Clouds -13 1014 86 0 4.9 72 12:19 27.03.2020
5968 Clouds -13 1014 86 0 4.9 72 11:57 27.03.2020
5969 Clouds -13 1014 86 0 4.9 72 11:39 27.03.2020
5970 Clouds -13 1014 86 0 4.9 72 11:21 27.03.2020
5971 Clouds -13 1018 87 0 4.05 55 10:42 27.03.2020
5972 Clouds -13 1018 87 0 4.05 55 10:23 27.03.2020
5973 Clouds -13 1018 87 0 4.05 55 09:59 27.03.2020
5974 Clouds -13 1018 87 0 4.05 55 09:41 27.03.2020
5975 Clouds -13 1018 87 0 4.05 55 09:23 27.03.2020
5976 Clouds -10 1019 61 16093 4.6 60 08:59 27.03.2020
5977 Clouds -10 1019 61 16093 4.6 60 08:59 27.03.2020
5978 Clouds -10 1019 61 16093 4.6 60 08:40 27.03.2020
5979 Clouds -10 1019 61 16093 4.6 60 08:22 27.03.2020
5980 Clouds -10 1019 89 16093 5.1 70 07:59 27.03.2020
5981 Clouds -10 1019 89 16093 5.1 70 07:41 27.03.2020
5982 Clouds -10 1019 89 16093 5.1 70 07:21 27.03.2020
5983 Clouds -9 1019 89 16093 3.6 50 06:40 27.03.2020
5984 Clouds -9 1020 89 16093 5.1 70 05:57 27.03.2020
5985 Clouds -8 1021 91 16093 5.1 80 03:34 27.03.2020
5986 Clouds -7 1022 73 16093 4.6 70 01:56 27.03.2020
5987 Clouds -7 1022 73 16093 4.6 70 01:19 27.03.2020
5988 Clouds -7 1022 73 16093 4.1 50 00:42 27.03.2020
5989 Clouds -7 1022 73 16093 4.1 50 00:19 27.03.2020
5990 Clouds -7 1022 78 16093 3.62 76 23:40 26.03.2020
5991 Clouds -7 1022 78 16093 2.27 76 23:18 26.03.2020
5992 Clouds -7 1022 72 16093 2.6 160 22:57 26.03.2020
5993 Clouds -7 1022 72 16093 2.6 160 22:36 26.03.2020
5994 Clouds -8 1022 72 16093 2.6 160 22:18 26.03.2020
5995 Clouds -8 1022 72 16093 3.1 160 21:40 26.03.2020
5996 Clouds -9 1022 72 16093 3.1 160 21:22 26.03.2020
5997 Clouds -8 1022 78 16093 4.1 100 20:59 26.03.2020
5998 Clouds -8 1022 78 16093 4.1 100 20:39 26.03.2020
5999 Clouds -8 1022 78 16093 4.1 100 20:21 26.03.2020
6000 Clouds -9 1022 78 16093 2.06 53 19:58 26.03.2020
6001 Clouds -9 1022 78 16093 2.06 53 19:40 26.03.2020
6002 Clouds -9 1022 78 16093 2.06 53 19:21 26.03.2020
6003 Clouds -9 1021 72 16093 2.06 53 18:58 26.03.2020
6004 Clouds -9 1021 72 16093 2.06 53 18:40 26.03.2020
6005 Clouds -9 1021 72 16093 2.06 53 18:21 26.03.2020
6006 Clear -9 1021 66 16093 2.06 53 17:45 26.03.2020
6007 Clear -10 1021 66 16093 2.6 35 17:20 26.03.2020
6008 Clear -10 1021 90 16093 2.6 30 16:57 26.03.2020
6009 Clear -10 1021 90 16093 2.6 30 16:38 26.03.2020
6010 Clear -10 1021 90 16093 2.6 30 16:38 26.03.2020
6011 Clear -9 1021 90 16093 2.6 30 16:19 26.03.2020
6012 Clear -9 1021 90 16093 2.6 35 15:55 26.03.2020
6013 Clear -9 1021 90 16093 2.6 35 15:37 26.03.2020
6014 Clear -8 1021 90 16093 2.6 35 15:18 26.03.2020
6015 Clouds -11 1022 90 0 2.6 35 14:43 26.03.2020
6016 Clouds -11 1022 90 0 2.6 35 14:24 26.03.2020
6017 Clouds -10 1020 91 0 1.89 39 13:56 26.03.2020
6018 Clouds -10 1020 91 0 1.89 39 13:38 26.03.2020
6019 Clouds -10 1020 91 0 1.89 39 13:19 26.03.2020
6020 Clouds -11 1021 90 0 1.75 37 12:38 26.03.2020
6021 Clouds -11 1021 90 0 1.75 37 12:20 26.03.2020
6022 Clouds -11 1021 90 0 1.75 37 12:20 26.03.2020
6023 Clouds -11 1021 90 0 1.75 37 11:46 26.03.2020
6024 Clouds -11 1021 90 0 1.75 37 11:23 26.03.2020
6025 Clouds -11 1020 90 0 2.89 17 10:57 26.03.2020
6026 Clouds -11 1020 90 0 2.89 17 10:39 26.03.2020
6027 Clouds -11 1020 90 0 2.89 17 10:19 26.03.2020
6028 Clouds -11 1020 90 0 2.89 17 09:44 26.03.2020
6029 Clouds -11 1020 90 0 2.89 17 09:21 26.03.2020
6030 Clouds -11 1020 90 0 2.89 17 08:57 26.03.2020
6031 Clouds -11 1020 90 0 2.89 17 08:38 26.03.2020
6032 Clouds -4 1018 79 16093 3.57 19 08:19 26.03.2020
6033 Clouds -2 1018 68 16093 3.43 20 07:45 26.03.2020
6034 Clouds -2 1018 68 16093 3.43 20 07:23 26.03.2020
6035 Clouds -2 1017 74 16093 3.43 20 06:57 26.03.2020
6036 Clouds -2 1017 74 16093 3.43 20 06:32 26.03.2020
6037 Clouds -1 1017 92 16093 2.1 250 05:29 26.03.2020
6038 Clouds 0 1017 93 16093 2.85 11 03:45 26.03.2020
6039 Clear 0 1016 93 16093 1.5 10 02:56 26.03.2020
6040 Clouds 0 1016 95 16093 2.1 360 01:51 26.03.2020
6041 Clouds 0 1016 95 16093 2.1 360 01:18 26.03.2020
6042 Clouds 0 1016 95 16093 2.1 230 00:23 26.03.2020
6043 Clouds -1 1015 80 16093 2.6 220 23:42 25.03.2020
6044 Clouds -1 1015 80 16093 2.6 220 23:22 25.03.2020
6045 Clouds -1 1014 80 16093 1.5 180 22:42 25.03.2020
6046 Clouds -1 1014 80 16093 1.5 180 22:22 25.03.2020
6047 Snow -2 1014 86 16093 2.1 330 21:59 25.03.2020
6048 Snow -2 1014 86 16093 2.1 330 21:40 25.03.2020
6049 Clouds -2 1014 86 16093 2.1 330 21:22 25.03.2020
6050 Clear -1 1013 79 16093 3.1 20 20:57 25.03.2020
6051 Clear -1 1013 79 16093 3.1 20 20:37 25.03.2020
6052 Clear -2 1013 79 16093 3.1 20 20:18 25.03.2020
6053 Clouds -1 1012 74 16093 3.6 360 19:43 25.03.2020
6054 Clouds -1 1012 74 16093 3.6 360 19:24 25.03.2020
6055 Clouds 0 1011 95 16093 3.1 360 18:59 25.03.2020
6056 Clouds 0 1011 95 16093 3.1 360 18:40 25.03.2020
6057 Clouds 0 1011 95 16093 3.1 360 18:22 25.03.2020
6058 Clear 0 1009 95 16093 3.1 60 17:57 25.03.2020
6059 Clear 0 1009 95 16093 3.1 60 17:39 25.03.2020
6060 Clear 0 1009 95 16093 3.1 60 17:21 25.03.2020
6061 Clouds -3 1011 97 0 2.49 323 16:55 25.03.2020
6062 Clouds -3 1010 97 0 2.59 324 16:36 25.03.2020
6063 Clear 0 1009 97 16093 1.5 20 16:18 25.03.2020
6064 Clouds 0 1009 97 16093 1.5 310 15:41 25.03.2020
6065 Clouds 0 1009 97 16093 2.6 280 15:20 25.03.2020
6066 Clouds 1 1008 97 16093 2.6 290 14:55 25.03.2020
6067 Clouds 1 1008 97 16093 2.6 290 14:37 25.03.2020
6068 Clouds 1 1008 98 16093 6.2 280 14:18 25.03.2020
6069 Clouds 0 1008 98 16093 4.6 270 13:42 25.03.2020
6070 Clouds 0 1008 98 16093 4.1 270 13:22 25.03.2020
6071 Mist 0 1008 98 4828 3.6 270 12:38 25.03.2020
6072 Mist 0 1008 98 4828 3.6 270 12:19 25.03.2020
6073 Mist 0 1008 98 1609 3.1 260 11:56 25.03.2020
6074 Mist 0 1008 98 1207 1.5 250 11:37 25.03.2020
6075 Mist 0 1008 98 1207 1.5 250 11:19 25.03.2020
6076 Mist 0 1009 98 1207 2.1 240 10:56 25.03.2020
6077 Mist 0 1009 98 1207 2.1 240 10:38 25.03.2020
6078 Mist 0 1009 98 1609 1.5 220 10:18 25.03.2020
6079 Mist 0 1009 98 2414 1.5 170 09:43 25.03.2020
6080 Mist 0 1009 98 2414 1.5 170 09:24 25.03.2020
6081 Mist 0 1011 98 2816 1.5 140 08:57 25.03.2020
6082 Mist 0 1011 98 2816 1.5 140 08:39 25.03.2020
6083 Mist 0 1011 98 2816 1.5 140 08:19 25.03.2020
6084 Rain 2 1011 98 3219 2.1 150 07:41 25.03.2020
6085 Rain 2 1011 98 3219 2.1 150 07:22 25.03.2020
6086 Mist 2 1012 74 2414 2.1 140 06:50 25.03.2020
6087 Mist 2 1012 74 2414 2.1 140 06:28 25.03.2020
6088 Mist 2 1012 74 2414 2.1 140 06:28 25.03.2020
6089 Mist 1 1013 98 2012 2.1 110 05:56 25.03.2020
6090 Mist 1 1013 98 2012 2.1 110 05:37 25.03.2020
6091 Rain 1 1014 98 4023 3.1 140 04:40 25.03.2020
6092 Rain 1 1015 98 2012 2.6 140 03:49 25.03.2020
6093 Rain 1 1015 98 2012 2.6 140 03:29 25.03.2020
6094 Mist 1 1017 97 1609 3.1 150 01:25 25.03.2020
6095 Mist 0 1018 98 1609 2.6 160 00:49 25.03.2020
6096 Mist 1 1018 98 1609 2.6 160 00:25 25.03.2020
6097 Mist 0 1019 98 2012 1.5 160 23:46 24.03.2020
6098 Mist 0 1019 98 2012 1.5 160 23:28 24.03.2020
6099 Mist 0 1019 98 1609 1.5 170 22:57 24.03.2020
6100 Mist 0 1019 98 1609 2.1 190 22:38 24.03.2020
6101 Mist 0 1019 98 1609 2.1 190 22:19 24.03.2020
6102 Mist 0 1020 98 4023 2.1 200 21:56 24.03.2020
6103 Mist 0 1020 98 4023 2.1 200 21:37 24.03.2020
6104 Mist -1 1020 98 4023 2.1 200 21:18 24.03.2020
6105 Clouds -1 1020 98 16093 1.34 180 20:56 24.03.2020
6106 Clouds -1 1020 98 16093 1.34 180 20:38 24.03.2020
6107 Clouds -1 1020 99 4828 2.1 230 20:20 24.03.2020
6108 Snow -1 1020 92 4828 2.6 220 19:44 24.03.2020
6109 Snow -1 1020 92 4828 2.6 220 19:19 24.03.2020
6110 Haze -1 1021 99 9656 2.6 220 18:56 24.03.2020
6111 Haze -1 1021 99 9656 2.6 220 18:37 24.03.2020
6112 Haze -1 1021 99 9656 2.6 220 18:18 24.03.2020
6113 Clouds -1 1021 92 14484 3.1 230 17:42 24.03.2020
6114 Clouds -1 1021 92 14484 3.1 230 17:42 24.03.2020
6115 Clouds -1 1021 92 14484 3.1 230 17:24 24.03.2020
6116 Snow -1 1021 92 12874 3.1 230 16:59 24.03.2020
6117 Snow -1 1021 92 12874 3.1 230 16:41 24.03.2020
6118 Clouds -1 1021 98 16093 3.6 230 16:23 24.03.2020
6119 Clouds -1 1022 98 16093 2.6 230 15:59 24.03.2020
6120 Clouds -1 1022 98 16093 2.6 230 15:39 24.03.2020
6121 Clouds -1 1022 98 12874 3.1 240 15:20 24.03.2020
6122 Clouds -1 1022 98 12874 3.1 240 15:20 24.03.2020
6123 Clouds -1 1022 98 16093 3.1 230 14:43 24.03.2020
6124 Snow -1 1022 99 4828 3.6 250 14:21 24.03.2020
6125 Snow -1 1022 99 4828 4.1 250 13:55 24.03.2020
6126 Snow -1 1022 99 2816 4.6 230 13:36 24.03.2020
6127 Snow -1 1022 99 2816 4.6 230 13:18 24.03.2020
6128 Snow -1 1022 99 4828 4.6 230 12:41 24.03.2020
6129 Snow -1 1022 99 4828 4.6 230 12:41 24.03.2020
6130 Snow -1 1022 99 3219 3.1 230 12:22 24.03.2020
6131 Clouds -1 1022 99 11265 3.6 230 11:41 24.03.2020
6132 Clouds -1 1022 97 11265 3.6 230 11:20 24.03.2020
6133 Snow -1 1022 97 4023 3.1 240 10:55 24.03.2020
6134 Haze -1 1023 97 8047 4.1 240 10:36 24.03.2020
6135 Haze -1 1023 97 8047 4.1 240 10:18 24.03.2020
6136 Haze -1 1023 97 8047 3.6 250 09:43 24.03.2020
6137 Haze -1 1023 97 8047 3.6 250 09:24 24.03.2020
6138 Mist 0 1022 97 6437 4.6 230 08:40 24.03.2020
6139 Mist 0 1022 97 6437 4.6 230 08:21 24.03.2020
6140 Mist 0 1022 96 4023 5.1 220 07:52 24.03.2020
6141 Haze 0 1023 80 3219 6.2 230 07:25 24.03.2020
6142 Clouds 0 1023 80 2816 6.2 230 06:59 24.03.2020
6143 Clouds 0 1023 80 2816 6.2 230 06:34 24.03.2020
6144 Clouds 0 1023 80 16093 5.7 220 05:36 24.03.2020
6145 Clouds -1 1023 97 12874 7.7 210 04:50 24.03.2020
6146 Snow -1 1024 97 8047 6.7 210 03:19 24.03.2020
6147 Haze -1 1025 97 6437 8.7 220 02:25 24.03.2020
6148 Clouds -2 1026 92 16093 4.6 210 00:53 24.03.2020
6149 Clear -1 1026 89 16093 3.6 180 00:26 24.03.2020
6150 Clouds -1 1026 89 16093 1.5 180 23:55 23.03.2020
6151 Clouds -1 1026 89 16093 1.5 180 23:36 23.03.2020
6152 Clouds -1 1026 88 16093 1.5 180 23:18 23.03.2020
6153 Clouds 0 1027 74 16093 2.6 150 22:42 23.03.2020
6154 Clouds 0 1027 74 16093 2.6 150 22:22 23.03.2020
6155 Clouds 0 1028 74 16093 3.6 180 21:54 23.03.2020
6156 Clouds 0 1028 74 16093 3.6 180 21:36 23.03.2020
6157 Clouds 0 1028 74 16093 3.6 180 21:18 23.03.2020
6158 Mist -1 1028 88 14484 2.1 180 20:42 23.03.2020
6159 Mist -1 1028 88 14484 2.1 180 20:23 23.03.2020
6160 Mist -1 1028 95 8047 2.1 180 19:55 23.03.2020
6161 Mist -1 1028 95 8047 2.1 180 19:55 23.03.2020
6162 Mist -1 1028 95 8047 2.1 180 19:55 23.03.2020
6163 Mist -1 1028 95 8047 2.1 180 19:37 23.03.2020
6164 Mist -1 1028 95 8047 2.1 180 19:18 23.03.2020
6165 Mist -1 1029 92 9656 5.1 210 18:43 23.03.2020
6166 Mist -1 1029 92 9656 5.1 210 18:24 23.03.2020
6167 Mist -1 1029 92 9656 5.1 210 17:58 23.03.2020
6168 Clouds -1 1029 92 11265 2.1 250 17:39 23.03.2020
6169 Clouds -4 1028 95 0 4.36 238 17:19 23.03.2020
6170 Clouds -4 1028 95 0 4.36 238 16:43 23.03.2020
6171 Clouds -4 1028 95 0 4.36 238 16:25 23.03.2020
6172 Mist -1 1029 95 12874 6.2 240 15:44 23.03.2020
6173 Mist -1 1029 95 12874 6.2 240 15:21 23.03.2020
6174 Mist -1 1029 95 12874 10.8 250 14:57 23.03.2020
6175 Mist -1 1029 95 12874 10.8 250 14:37 23.03.2020
6176 Mist -1 1029 95 12874 10.8 250 14:18 23.03.2020
6177 Mist -1 1029 95 8047 10.3 240 13:54 23.03.2020
6178 Mist -1 1029 95 8047 10.3 240 13:54 23.03.2020
6179 Mist -1 1029 95 4023 10.8 240 13:36 23.03.2020
6180 Mist -1 1029 95 4023 10.8 240 13:36 23.03.2020
6181 Mist -1 1029 96 4023 10.8 240 13:18 23.03.2020
6182 Mist 0 1029 96 4828 11.3 250 12:41 23.03.2020
6183 Mist 0 1028 96 4828 11.3 240 12:22 23.03.2020
6184 Mist 0 1028 96 4828 11.3 240 12:22 23.03.2020
6185 Mist 0 1028 96 4023 12.9 240 11:55 23.03.2020
6186 Mist 0 1028 96 4023 13.4 250 11:37 23.03.2020
6187 Mist 0 1028 95 4023 13.4 250 11:18 23.03.2020
6188 Mist 0 1029 95 3219 11.8 250 10:41 23.03.2020
6189 Mist 0 1029 95 2816 10.8 250 10:23 23.03.2020
6190 Mist 0 1029 95 2816 10.3 240 09:59 23.03.2020
6191 Mist 0 1029 95 2816 10.3 240 09:40 23.03.2020
6192 Mist 0 1029 95 2816 10.3 240 09:19 23.03.2020
6193 Snow 1 1029 95 2816 9.3 240 08:38 23.03.2020
6194 Snow 2 1029 97 6437 6.2 240 08:20 23.03.2020
6195 Rain 2 1029 97 8047 5.7 240 07:51 23.03.2020
6196 Rain 2 1029 97 8047 5.7 240 07:33 23.03.2020
6197 Rain 2 1030 97 4828 5.1 220 06:55 23.03.2020
6198 Rain 2 1030 97 4828 5.1 220 06:33 23.03.2020
6199 Mist 1 1030 80 1609 6.7 230 05:44 23.03.2020
6200 Snow 1 1031 80 1609 4.6 250 03:54 23.03.2020
6201 Fog -1 1031 86 402 1.5 150 02:45 23.03.2020
6202 Mist -2 1031 86 2816 1.5 120 01:50 23.03.2020
6203 Snow -2 1030 86 4828 6.48 244 00:47 23.03.2020
6204 Snow -2 1030 86 4828 6.48 244 00:26 23.03.2020
6205 Snow -3 1030 79 2414 6.48 244 23:42 22.03.2020
6206 Snow -3 1030 79 2414 6.48 244 23:24 22.03.2020
6207 Snow -5 1030 85 2012 1.5 120 22:42 22.03.2020
6208 Snow -5 1030 85 2012 1.5 120 22:21 22.03.2020
6209 Snow -5 1030 85 1609 5.16 246 21:41 22.03.2020
6210 Snow -6 1030 85 2816 2.1 350 21:23 22.03.2020
6211 Snow -6 1030 85 2816 2.1 20 20:59 22.03.2020
6212 Snow -6 1030 85 2816 2.1 20 20:40 22.03.2020
6213 Snow -6 1030 85 2816 2.1 20 20:22 22.03.2020
6214 Snow -7 1030 92 1609 1.5 350 19:56 22.03.2020
6215 Snow -7 1030 92 1609 1.5 350 19:38 22.03.2020
6216 Snow -7 1030 92 2414 2.1 30 19:19 22.03.2020
6217 Snow -8 1030 85 1207 3.1 70 18:57 22.03.2020
6218 Snow -8 1030 85 1207 3.1 70 18:39 22.03.2020
6219 Snow -8 1030 85 1207 3.1 70 18:20 22.03.2020
6220 Snow -8 1030 85 1207 5.1 80 17:57 22.03.2020
6221 Snow -8 1031 85 1207 5.7 80 17:38 22.03.2020
6222 Snow -9 1031 85 1207 5.7 80 17:20 22.03.2020
6223 Rain -9 1031 97 2012 6.7 80 16:57 22.03.2020
6224 Rain -9 1031 97 2012 6.7 80 16:57 22.03.2020
6225 Rain -9 1031 97 2012 6.7 80 16:39 22.03.2020
6226 Rain -9 1031 97 2012 6.7 80 16:39 22.03.2020
6227 Snow -9 1032 85 1207 5.7 80 16:20 22.03.2020
6228 Rain -9 1033 97 4828 5.7 80 15:40 22.03.2020
6229 Rain -10 1033 97 3219 6.2 90 15:19 22.03.2020
6230 Rain -10 1034 97 1207 3.6 80 14:46 22.03.2020
6231 Rain -10 1034 97 1207 3.6 80 14:46 22.03.2020
6232 Clouds -14 1034 95 0 1.38 130 14:18 22.03.2020
6233 Rain -11 1034 95 2012 3.6 70 13:43 22.03.2020
6234 Snow -11 1035 95 4023 2.6 80 13:20 22.03.2020
6235 Snow -12 1035 95 6437 2.6 90 12:58 22.03.2020
6236 Snow -12 1035 95 6437 2.6 90 12:39 22.03.2020
6237 Snow -12 1035 95 4023 2.1 90 12:19 22.03.2020
6238 Clouds -13 1036 95 16093 1.24 126 11:43 22.03.2020
6239 Clouds -13 1036 95 16093 1.24 126 11:25 22.03.2020
6240 Clouds -17 1035 89 0 1.38 295 10:58 22.03.2020
6241 Clouds -17 1035 89 0 1.38 295 10:39 22.03.2020
6242 Clouds -17 1035 89 0 1.38 295 10:21 22.03.2020
6243 Clear -14 1035 89 16093 3.1 230 09:45 22.03.2020
6244 Clear -14 1035 89 16093 3.1 230 09:27 22.03.2020
6245 Clear -13 1034 72 16093 4.1 310 08:48 22.03.2020
6246 Clear -12 1034 72 16093 4.1 310 08:30 22.03.2020
6247 Clear -11 1033 66 16093 8.2 290 07:55 22.03.2020
6248 Clear -11 1033 66 16093 8.2 290 07:37 22.03.2020
6249 Clear -11 1033 72 16093 4.6 290 06:41 22.03.2020
6250 Clouds -11 1031 90 16093 5.7 270 05:47 22.03.2020
6251 Clouds -10 1031 87 16093 3.6 290 04:39 22.03.2020
6252 Clouds -9 1027 88 12874 9.3 280 01:45 22.03.2020
6253 Clouds -9 1026 90 4828 8.7 270 00:50 22.03.2020
6254 Clouds -9 1026 90 4828 8.7 270 00:31 22.03.2020
6255 Clouds -7 1025 79 6437 10.8 270 23:46 21.03.2020
6256 Snow -8 1024 92 6437 10.3 280 23:22 21.03.2020
6257 Mist -8 1023 92 4828 6.2 290 22:58 21.03.2020
6258 Mist -8 1023 92 4828 6.2 290 22:38 21.03.2020
6259 Mist -8 1023 92 4828 6.2 290 22:19 21.03.2020
6260 Clouds -7 1021 92 14484 9.3 280 21:57 21.03.2020
6261 Clouds -7 1021 92 14484 9.3 280 21:38 21.03.2020
6262 Clouds -7 1021 92 14484 9.3 280 21:19 21.03.2020
6263 Clouds -6 1021 94 16093 7.2 280 20:42 21.03.2020
6264 Clouds -6 1020 92 14484 6.2 270 20:22 21.03.2020
6265 Clouds -6 1020 92 12874 5.1 280 19:55 21.03.2020
6266 Clouds -6 1020 92 12874 5.1 280 19:36 21.03.2020
6267 Mist -6 1019 92 4828 7.2 270 19:18 21.03.2020
6268 Mist -6 1019 92 4828 7.2 270 19:18 21.03.2020
6269 Clouds -7 1018 92 16093 4.6 260 18:41 21.03.2020
6270 Clouds -7 1018 92 16093 4.6 260 18:20 21.03.2020
6271 Clouds -7 1018 92 16093 4.6 260 17:58 21.03.2020
6272 Clouds -7 1018 92 12874 5.7 270 17:40 21.03.2020
6273 Clouds -7 1018 92 12874 5.7 270 17:22 21.03.2020
6274 Clear -6 1016 92 16093 4.1 280 16:42 21.03.2020
6275 Clear -6 1016 92 16093 4.1 280 16:23 21.03.2020
6276 Clouds -4 1016 92 16093 5.7 290 15:59 21.03.2020
6277 Clouds -4 1016 92 16093 5.7 290 15:40 21.03.2020
6278 Clouds -4 1016 92 16093 5.7 290 15:22 21.03.2020
6279 Clouds -8 1016 92 0 3.45 277 14:57 21.03.2020
6280 Clouds -8 1016 92 0 3.45 277 14:38 21.03.2020
6281 Snow -2 1015 97 4828 4.6 260 14:19 21.03.2020
6282 Rain -3 1015 97 9656 4.6 260 13:57 21.03.2020
6283 Rain -3 1015 97 9656 4.6 260 13:39 21.03.2020
6284 Rain -2 1015 97 9656 4.6 260 13:21 21.03.2020
6285 Rain -2 1015 95 6437 4.1 250 12:55 21.03.2020
6286 Snow -2 1015 95 3219 3.6 250 12:36 21.03.2020
6287 Snow -2 1015 95 3219 3.6 250 12:18 21.03.2020
6288 Clouds -2 1015 95 14484 3.6 260 11:55 21.03.2020
6289 Clouds -2 1014 95 16093 4.6 270 11:37 21.03.2020
6290 Clouds -2 1014 98 16093 4.6 270 11:18 21.03.2020
6291 Clouds -2 1014 98 16093 6.2 250 10:55 21.03.2020
6292 Snow -1 1014 98 4828 5.1 250 10:37 21.03.2020
6293 Snow -1 1014 98 4828 5.1 250 10:18 21.03.2020
6294 Clouds -1 1014 98 16093 4.1 260 09:40 21.03.2020
6295 Rain -1 1014 98 14484 3.6 240 09:21 21.03.2020
6296 Rain -2 1014 98 4828 4.1 230 08:56 21.03.2020
6297 Rain -1 1014 98 4828 4.1 230 08:38 21.03.2020
6298 Rain -1 1014 98 4828 3.1 200 08:20 21.03.2020
6299 Snow 0 1014 98 4023 3.1 180 07:39 21.03.2020
6300 Snow 0 1014 98 2816 3.1 140 07:20 21.03.2020
6301 Snow 0 1014 98 2816 3.1 140 07:20 21.03.2020
6302 Snow 0 1015 98 1207 3.6 120 06:45 21.03.2020
6303 Snow 0 1015 98 1207 3.6 120 06:25 21.03.2020
6304 Snow 0 1016 98 2414 4.1 120 05:41 21.03.2020
6305 Snow 0 1017 98 2414 3.6 140 04:34 21.03.2020
6306 Clouds -1 1019 92 12874 6.2 190 02:39 21.03.2020
6307 Clouds -1 1020 92 12874 6.7 200 01:54 21.03.2020
6308 Clouds -1 1020 92 12874 6.7 200 01:28 21.03.2020
6309 Clouds -1 1020 92 16093 5.7 200 00:43 21.03.2020
6310 Clouds -1 1020 92 16093 5.7 200 00:43 21.03.2020
6311 Clouds -1 1020 92 16093 5.7 200 00:24 21.03.2020
6312 Clouds 0 1019 90 14484 7.7 210 23:45 20.03.2020
6313 Clouds 0 1019 90 14484 7.7 210 23:22 20.03.2020
6314 Clouds -1 1019 92 14484 8.7 210 22:44 20.03.2020
6315 Clouds -1 1019 92 14484 8.7 210 22:25 20.03.2020
6316 Clouds -1 1018 92 16093 10.3 210 21:59 20.03.2020
6317 Clouds -1 1018 92 16093 10.3 210 21:41 20.03.2020
6318 Clouds -2 1018 92 16093 10.3 210 21:20 20.03.2020
6319 Clouds -1 1018 92 14484 10.3 210 20:59 20.03.2020
6320 Clouds 0 1018 92 14484 10.3 210 20:41 20.03.2020
6321 Clouds -1 1017 93 16093 9.3 210 20:21 20.03.2020
6322 Clouds -1 1017 93 16093 8.7 210 19:58 20.03.2020
6323 Clouds -1 1017 93 16093 8.7 210 19:39 20.03.2020
6324 Clouds 0 1017 93 16093 8.7 210 19:18 20.03.2020
6325 Clouds -1 1015 93 14484 10.8 210 18:39 20.03.2020
6326 Clouds -1 1015 93 14484 10.8 210 18:39 20.03.2020
6327 Clouds 0 1015 93 14484 10.8 210 18:20 20.03.2020
6328 Clouds -1 1015 93 16093 9.3 210 17:57 20.03.2020
6329 Clouds -1 1015 93 16093 9.3 210 17:39 20.03.2020
6330 Clouds -1 1015 91 16093 9.3 210 17:19 20.03.2020
6331 Clouds -1 1014 92 16093 9.3 210 16:43 20.03.2020
6332 Clouds -1 1014 91 16093 9.8 210 16:21 20.03.2020
6333 Clouds 0 1014 91 16093 10.3 210 15:59 20.03.2020
6334 Clouds 0 1014 91 16093 10.3 210 15:41 20.03.2020
6335 Clouds -1 1014 91 16093 10.3 210 15:20 20.03.2020
6336 Clouds -1 1014 91 16093 9.3 210 14:42 20.03.2020
6337 Clouds -1 1013 91 16093 11.8 220 14:21 20.03.2020
6338 Clouds 0 1012 85 16093 12.3 210 13:55 20.03.2020
6339 Clouds 0 1012 85 16093 12.3 210 13:36 20.03.2020
6340 Clouds -1 1012 86 16093 12.3 210 13:18 20.03.2020
6341 Clouds 0 1011 86 16093 12.3 210 12:39 20.03.2020
6342 Clouds 0 1011 86 16093 12.3 210 12:20 20.03.2020
6343 Clouds -1 1010 86 16093 13.4 210 11:42 20.03.2020
6344 Clouds 0 1010 86 16093 13.4 210 11:22 20.03.2020
6345 Clouds 0 1009 86 16093 14.4 210 10:59 20.03.2020
6346 Clouds 0 1009 86 16093 14.4 210 10:41 20.03.2020
6347 Clouds 0 1009 86 16093 14.4 210 10:20 20.03.2020
6348 Clouds 0 1008 86 16093 13.4 210 09:47 20.03.2020
6349 Clouds 0 1008 86 16093 12.3 210 09:21 20.03.2020
6350 Clouds 1 1007 80 16093 11.8 210 08:59 20.03.2020
6351 Clouds 1 1007 80 16093 11.8 210 08:40 20.03.2020
6352 Clouds 1 1007 80 16093 11.8 210 08:19 20.03.2020
6353 Clouds 1 1007 80 16093 11.3 210 07:46 20.03.2020
6354 Clouds 1 1006 80 14484 11.8 210 07:26 20.03.2020
6355 Snow 1 1006 80 9656 12.3 210 06:49 20.03.2020
6356 Snow 1 1006 80 9656 12.3 210 06:31 20.03.2020
6357 Snow 2 1003 74 2012 11.3 200 04:49 20.03.2020
6358 Snow 1 1002 80 2012 11.8 210 03:19 20.03.2020
6359 Snow 1 1001 80 1609 9.8 180 01:51 20.03.2020
6360 Mist 1 1002 80 9656 10.8 180 00:46 20.03.2020
6361 Mist 1 1002 80 9656 10.8 180 00:26 20.03.2020
6362 Snow 2 1002 74 14484 11.8 170 23:45 19.03.2020
6363 Snow 2 1002 74 14484 11.8 170 23:26 19.03.2020
6364 Snow 2 1002 74 6437 9.3 170 22:56 19.03.2020
6365 Snow 2 1002 74 6437 9.3 170 22:38 19.03.2020
6366 Snow 2 1002 74 6437 9.3 170 22:18 19.03.2020
6367 Clouds 2 1003 74 16093 9.3 170 21:41 19.03.2020
6368 Clouds 2 1003 74 16093 9.3 170 21:20 19.03.2020
6369 Snow 1 1003 86 12874 9.3 160 20:58 19.03.2020
6370 Snow 1 1003 86 12874 9.3 160 20:39 19.03.2020
6371 Snow 1 1003 86 12874 9.3 160 20:20 19.03.2020
6372 Snow 1 1003 86 12874 9.8 160 19:55 19.03.2020
6373 Snow 1 1003 86 12874 9.8 160 19:37 19.03.2020
6374 Snow 1 1003 86 8047 9.3 160 19:18 19.03.2020
6375 Clouds 0 1003 93 12874 9.3 170 18:42 19.03.2020
6376 Clouds 0 1003 93 12874 9.3 170 18:22 19.03.2020
6377 Clouds 0 1003 93 12874 9.3 170 17:58 19.03.2020
6378 Clouds 1 1003 86 16093 10.3 170 17:39 19.03.2020
6379 Clouds 1 1003 86 16093 9.3 170 17:18 19.03.2020
6380 Clouds 1 1003 86 16093 9.3 170 16:43 19.03.2020
6381 Clouds 1 1004 87 16093 10.8 180 16:22 19.03.2020
6382 Clouds 1 1004 87 16093 9.8 180 15:45 19.03.2020
6383 Clouds 1 1004 87 16093 7.7 170 15:26 19.03.2020
6384 Snow 0 1004 87 4023 9.3 190 14:55 19.03.2020
6385 Snow 0 1004 87 4023 9.3 190 14:37 19.03.2020
6386 Rain 1 1004 96 11265 9.8 190 14:18 19.03.2020
6387 Clouds 1 1004 96 16093 9.3 170 13:39 19.03.2020
6388 Clouds 1 1004 96 16093 9.3 170 13:19 19.03.2020
6389 Snow 1 1004 97 4828 8.7 170 12:55 19.03.2020
6390 Snow 1 1004 97 4828 8.7 170 12:37 19.03.2020
6391 Snow 1 1004 97 4828 8.7 170 12:18 19.03.2020
6392 Snow 0 1005 97 2816 9.8 170 11:41 19.03.2020
6393 Snow 1 1005 97 2816 9.8 170 11:23 19.03.2020
6394 Rain 1 1005 99 4828 9.8 160 10:56 19.03.2020
6395 Rain 1 1006 99 2012 9.8 160 10:36 19.03.2020
6396 Rain 1 1006 99 2012 9.8 160 10:18 19.03.2020
6397 Snow 0 1006 99 2414 9.3 160 09:42 19.03.2020
6398 Snow 0 1006 99 2414 9.3 160 09:24 19.03.2020
6399 Snow 0 1007 99 2816 10.8 150 08:48 19.03.2020
6400 Snow 0 1007 99 2816 10.8 150 08:23 19.03.2020
6401 Snow 0 1008 98 4023 9.8 150 07:57 19.03.2020
6402 Snow 0 1008 98 4023 9.8 150 07:38 19.03.2020
6403 -273 0 0 0 0 0 07:18 19.03.2020
6404 Snow 0 1009 98 1609 10.8 140 06:23 19.03.2020
6405 Snow -1 1010 92 1207 8.7 130 05:24 19.03.2020
6406 Snow -1 1011 92 1207 9.3 140 04:46 19.03.2020
6407 Snow -2 1012 92 1207 8.7 140 03:44 19.03.2020
6408 Clouds -2 1015 86 16093 8.2 130 01:46 19.03.2020
6409 Clouds -2 1016 79 16093 9.3 110 00:42 19.03.2020
6410 Clouds -2 1016 79 16093 9.3 110 00:19 19.03.2020
6411 Clouds -2 1017 74 14484 10.8 100 23:42 18.03.2020
6412 Clouds -2 1017 74 14484 10.8 100 23:22 18.03.2020
6413 Clouds -2 1018 74 16093 8.7 100 22:43 18.03.2020
6414 Clouds -2 1018 74 16093 8.7 100 22:23 18.03.2020
6415 Clouds -2 1019 74 16093 7.7 120 21:55 18.03.2020
6416 Clouds -3 1019 74 16093 7.7 120 21:37 18.03.2020
6417 Clouds -3 1019 74 16093 7.7 120 21:19 18.03.2020
6418 Clouds -3 1019 74 16093 6.7 100 20:55 18.03.2020
6419 Clouds -3 1019 74 16093 6.7 100 20:37 18.03.2020
6420 Clouds -3 1019 74 16093 6.7 100 20:18 18.03.2020
6421 Clouds -4 1020 95 16093 5.1 110 19:40 18.03.2020
6422 Clouds -4 1020 95 16093 5.1 110 19:21 18.03.2020
6423 Clouds -3 1020 80 16093 3.6 150 18:56 18.03.2020
6424 Clouds -2 1020 80 16093 3.6 150 18:38 18.03.2020
6425 Clouds -2 1020 80 16093 3.6 150 18:19 18.03.2020
6426 Clouds -2 1020 80 16093 3.6 150 17:54 18.03.2020
6427 Clouds -3 1020 92 16093 3.6 170 17:36 18.03.2020
6428 Clouds -2 1020 92 16093 3.6 170 17:18 18.03.2020
6429 Clouds -7 1018 97 0 2.3 182 16:42 18.03.2020
6430 Clouds -3 1019 97 16093 3.6 190 16:20 18.03.2020
6431 Clouds -3 1019 97 16093 3.6 190 16:20 18.03.2020
6432 Clouds -2 1019 97 16093 3.1 210 15:57 18.03.2020
6433 Clouds -7 1018 97 0 2.3 182 15:38 18.03.2020
6434 Clouds -2 1019 97 16093 3.1 210 15:19 18.03.2020
6435 Clouds -2 1018 97 16093 3.6 220 14:42 18.03.2020
6436 Clouds -2 1018 97 16093 3.6 220 14:21 18.03.2020
6437 Clouds -2 1018 97 16093 3.6 220 14:21 18.03.2020
6438 Clouds -2 1018 92 16093 3.6 230 13:41 18.03.2020
6439 Clouds -2 1018 92 16093 3.6 230 13:19 18.03.2020
6440 Clouds -2 1017 92 16093 5.1 230 12:54 18.03.2020
6441 Clouds -2 1017 92 16093 5.1 230 12:36 18.03.2020
6442 Clouds -2 1016 92 16093 5.1 230 12:18 18.03.2020
6443 Clouds -2 1016 92 16093 5.1 230 12:18 18.03.2020
6444 Clouds -2 1016 92 16093 5.1 230 11:38 18.03.2020
6445 Clouds -2 1016 94 16093 5.1 230 11:19 18.03.2020
6446 Clouds -1 1015 94 16093 7.2 260 10:56 18.03.2020
6447 Clouds -1 1015 94 16093 7.2 260 10:37 18.03.2020
6448 Clouds -1 1015 94 16093 7.2 260 10:18 18.03.2020
6449 Clouds -1 1015 94 16093 7.2 260 10:18 18.03.2020
6450 Clouds -1 1013 94 14484 9.3 270 09:42 18.03.2020
6451 Clouds -1 1013 94 14484 9.3 270 09:23 18.03.2020
6452 Snow -1 1013 94 6437 8.7 270 08:55 18.03.2020
6453 Snow -2 1013 94 6437 8.7 270 08:37 18.03.2020
6454 Snow -2 1012 86 4828 8.2 260 08:19 18.03.2020
6455 Mist -2 1012 86 9656 7.7 260 07:41 18.03.2020
6456 Clouds -2 1011 86 16093 8.2 250 07:23 18.03.2020
6457 Clouds -2 1009 92 16093 6.7 260 06:43 18.03.2020
6458 Clouds -1 1009 92 16093 7.7 260 05:53 18.03.2020
6459 Clouds -1 1007 92 16093 6.2 270 05:19 18.03.2020
6460 Snow -1 1006 92 1609 5.7 260 03:53 18.03.2020
6461 Snow -1 1005 92 4828 1.55 218 02:37 18.03.2020
6462 Mist -1 1004 92 3219 3.6 90 01:46 18.03.2020
6463 Snow -1 1004 92 2414 4.6 80 01:20 18.03.2020
6464 Snow -1 1004 92 4023 5.7 90 00:23 18.03.2020
6465 Snow -1 1004 86 1609 6.2 80 23:43 17.03.2020
6466 Snow -1 1004 86 1609 6.7 80 23:23 17.03.2020
6467 Snow -1 1004 86 2012 6.7 90 22:47 17.03.2020
6468 Snow -1 1004 86 2012 6.7 90 22:28 17.03.2020
6469 Snow -2 1005 92 1609 6.7 90 21:57 17.03.2020
6470 Snow -3 1005 92 1609 6.7 90 21:37 17.03.2020
6471 Snow -3 1005 92 1609 7.7 90 21:19 17.03.2020
6472 Snow -3 1006 92 1207 7.2 90 20:38 17.03.2020
6473 Snow -3 1006 92 1207 7.2 90 20:20 17.03.2020
6474 Snow -3 1007 86 1207 8.2 90 19:54 17.03.2020
6475 Snow -3 1007 86 2012 8.2 90 19:36 17.03.2020
6476 Snow -3 1007 86 2012 8.2 90 19:18 17.03.2020
6477 Clouds -2 1008 74 16093 7.7 80 18:54 17.03.2020
6478 Clouds -2 1008 74 16093 7.7 80 18:36 17.03.2020
6479 Clouds -2 1008 74 16093 7.7 80 18:36 17.03.2020
6480 Clouds -2 1008 74 16093 7.7 80 18:18 17.03.2020
6481 Clouds -3 1010 79 16093 7.2 80 17:39 17.03.2020
6482 Clouds -3 1010 79 16093 7.2 80 17:20 17.03.2020
6483 Clouds -3 1011 92 16093 9.3 70 16:44 17.03.2020
6484 Clouds -3 1011 92 16093 9.3 70 16:20 17.03.2020
6485 Clouds -3 1013 92 16093 6.7 70 15:56 17.03.2020
6486 Clouds -3 1013 92 16093 6.7 70 15:38 17.03.2020
6487 Clouds -3 1013 92 16093 6.7 70 15:18 17.03.2020
6488 Clouds -3 1014 92 16093 7.7 80 14:41 17.03.2020
6489 Clouds -3 1014 93 16093 7.7 80 14:18 17.03.2020
6490 Clouds -3 1016 93 16093 7.7 90 13:43 17.03.2020
6491 Clouds -3 1016 93 16093 7.7 90 13:24 17.03.2020
6492 Clouds -3 1017 93 16093 7.2 80 12:48 17.03.2020
6493 Clouds -3 1017 93 16093 7.2 80 12:26 17.03.2020
6494 Clear -4 1018 93 16093 7.2 70 11:59 17.03.2020
6495 Clear -4 1018 93 16093 7.2 70 11:40 17.03.2020
6496 Clear -4 1018 93 16093 7.2 70 11:22 17.03.2020
6497 Clear -4 1019 93 16093 6.7 70 10:56 17.03.2020
6498 Clear -4 1019 93 16093 6.7 70 10:37 17.03.2020
6499 Clear -4 1019 95 16093 6.7 70 10:18 17.03.2020
6500 Clear -3 1020 95 16093 5.1 80 09:45 17.03.2020
6501 Clear -3 1020 95 16093 5.1 80 09:20 17.03.2020
6502 Clouds -2 1021 86 16093 5.1 80 08:58 17.03.2020
6503 Clouds -2 1021 86 16093 5.1 80 08:40 17.03.2020
6504 Clouds -2 1021 86 16093 5.1 80 08:18 17.03.2020
6505 Clouds -2 1022 86 16093 5.1 80 07:49 17.03.2020
6506 Clouds -2 1022 86 16093 5.1 80 07:21 17.03.2020
6507 Clouds -2 1023 86 16093 5.1 80 06:49 17.03.2020
6508 Clouds -2 1023 86 16093 5.1 80 06:25 17.03.2020
6509 Clouds -1 1024 86 16093 5.7 80 05:26 17.03.2020
6510 Clouds -1 1026 86 16093 5.7 90 03:34 17.03.2020
6511 Clouds -1 1027 92 14484 5.7 90 02:31 17.03.2020
6512 Clouds -1 1028 92 16093 4.6 80 01:38 17.03.2020
6513 Snow -1 1028 92 8047 5.1 80 00:54 17.03.2020
6514 Snow -1 1028 92 8047 5.1 80 00:19 17.03.2020
6515 Mist -2 1029 96 1609 4.6 90 23:38 16.03.2020
6516 Mist -2 1029 96 1609 4.6 90 23:19 16.03.2020
6517 Mist -1 1029 92 1207 3.6 90 22:38 16.03.2020
6518 Fog -2 1029 96 805 3.1 100 22:20 16.03.2020
6519 Fog -2 1029 96 402 2.6 80 21:45 16.03.2020
6520 Fog -2 1029 92 805 2.6 90 21:27 16.03.2020
6521 Fog -2 1029 92 805 2.6 100 20:59 16.03.2020
6522 Fog -2 1029 92 805 2.6 100 20:40 16.03.2020
6523 Mist -2 1029 92 1609 2.6 80 20:21 16.03.2020
6524 Mist -2 1029 92 1207 2.6 90 19:46 16.03.2020
6525 Clouds -3 1029 100 16093 2.1 100 19:25 16.03.2020
6526 Clouds -3 1029 100 14484 2.1 70 18:59 16.03.2020
6527 Clouds -3 1029 100 14484 2.1 70 18:39 16.03.2020
6528 Clouds -3 1029 100 14484 2.1 70 18:20 16.03.2020
6529 Snow -3 1029 92 4828 1.5 70 17:46 16.03.2020
6530 Fog 0 1029 69 805 1.49 134 17:25 16.03.2020
6531 Mist -2 1029 80 2414 1.99 164 16:57 16.03.2020
6532 Mist -2 1029 80 2414 1.99 164 16:39 16.03.2020
6533 Mist -2 1029 80 2414 1.99 164 16:39 16.03.2020
6534 Mist -4 1029 98 2012 1.99 164 16:20 16.03.2020
6535 Clouds -2 1029 98 0 1.99 164 15:43 16.03.2020
6536 Clouds -2 1029 98 0 1.99 164 15:23 16.03.2020
6537 Clouds -2 1029 98 0 1.99 164 14:47 16.03.2020
6538 Clouds -1 1029 98 0 1.26 178 14:23 16.03.2020
6539 Clouds -1 1029 98 0 1.26 178 13:48 16.03.2020
6540 Clouds -1 1029 98 0 1.64 219 13:28 16.03.2020
6541 Clouds -1 1029 98 0 1.64 219 12:58 16.03.2020
6542 Clouds -1 1029 98 0 1.64 219 12:39 16.03.2020
6543 Clouds -1 1029 98 0 1.64 219 12:20 16.03.2020
6544 Clouds -1 1029 98 0 1.64 219 11:43 16.03.2020
6545 Clouds -1 1029 98 0 1.64 219 11:25 16.03.2020
6546 Snow -1 1028 98 0 2.34 211 10:45 16.03.2020
6547 Snow -1 1028 98 0 2.34 211 10:24 16.03.2020
6548 Snow -1 1028 98 0 2.34 211 09:59 16.03.2020
6549 Snow -1 1028 98 0 2.34 211 09:38 16.03.2020
6550 Snow -1 1028 98 0 2.34 211 09:19 16.03.2020
6551 Snow -1 1028 98 0 2.34 211 08:43 16.03.2020
6552 Snow -1 1028 98 0 2.34 211 08:23 16.03.2020
6553 Snow -1 1027 98 0 2.11 207 07:43 16.03.2020
6554 Snow -1 1027 98 0 2.11 207 07:21 16.03.2020
6555 Snow -1 1027 98 0 2.11 207 06:41 16.03.2020
6556 Snow -1 1027 98 0 2.11 207 06:22 16.03.2020
6557 Snow -1 1025 98 0 3.47 193 04:26 16.03.2020
6558 Snow -2 1026 97 0 3.77 170 01:47 16.03.2020
6559 Snow -2 1025 96 0 3.19 161 00:45 16.03.2020
6560 Snow -2 1025 96 0 3.19 161 00:27 16.03.2020
6561 Snow -2 1027 92 2012 3.6 130 23:40 15.03.2020
6562 Snow -2 1027 92 2012 3.6 130 23:19 15.03.2020
6563 Snow -2 1027 92 2816 4.6 140 22:42 15.03.2020
6564 Snow -2 1027 92 2816 4.6 140 22:21 15.03.2020
6565 Snow -3 1027 100 2414 5.1 150 21:39 15.03.2020
6566 Snow -3 1027 100 2414 5.1 150 21:21 15.03.2020
6567 Snow -3 1027 100 2012 6.2 150 20:58 15.03.2020
6568 Snow -3 1027 100 2012 6.2 150 20:40 15.03.2020
6569 Snow -3 1027 100 2012 6.2 150 20:19 15.03.2020
6570 Snow -1 1027 92 2012 5.7 150 19:55 15.03.2020
6571 Snow -1 1027 92 2012 5.7 150 19:55 15.03.2020
6572 Snow -1 1027 92 2012 5.7 150 19:37 15.03.2020
6573 Snow -1 1027 92 2012 5.7 150 19:18 15.03.2020
6574 Snow -4 1026 97 0 2.57 140 18:55 15.03.2020
6575 Snow -4 1026 97 0 2.57 140 18:36 15.03.2020
6576 Snow -4 1026 97 0 2.57 140 18:18 15.03.2020
6577 Snow -2 1028 100 2012 6.7 150 17:40 15.03.2020
6578 Snow -2 1028 100 2012 6.7 150 17:20 15.03.2020
6579 Snow -3 1027 97 0 2.92 125 16:56 15.03.2020
6580 Snow -3 1027 97 0 2.92 125 16:37 15.03.2020
6581 Snow -3 1027 97 0 2.92 125 16:18 15.03.2020
6582 Snow -3 1027 97 0 2.92 125 15:43 15.03.2020
6583 Snow -3 1027 97 0 2.92 125 15:25 15.03.2020
6584 Snow -3 1027 97 0 2.92 125 14:47 15.03.2020
6585 Snow -3 1027 97 0 2.92 125 14:28 15.03.2020
6586 Snow -2 1029 97 0 3.47 126 13:59 15.03.2020
6587 Snow -2 1029 97 0 3.47 126 13:40 15.03.2020
6588 Snow -2 1028 97 0 3.76 128 13:21 15.03.2020
6589 Snow -2 1028 97 0 3.76 128 12:58 15.03.2020
6590 Snow -2 1028 97 0 3.76 128 12:38 15.03.2020
6591 Snow -2 1028 97 0 3.76 128 12:20 15.03.2020
6592 Snow -2 1028 97 0 3.76 128 11:42 15.03.2020
6593 Snow -2 1028 97 0 3.76 128 11:22 15.03.2020
6594 Snow -2 1030 97 0 5.14 117 10:57 15.03.2020
6595 Snow -2 1030 97 0 5.14 117 10:38 15.03.2020
6596 Snow -2 1030 97 0 5.14 117 10:20 15.03.2020
6597 Snow -2 1030 97 0 5.14 117 09:42 15.03.2020
6598 Snow -2 1030 97 0 5.14 117 09:22 15.03.2020
6599 Snow -2 1030 97 0 5.14 117 08:58 15.03.2020
6600 Snow -2 1030 97 0 5.14 117 08:39 15.03.2020
6601 Snow -1 1030 97 0 5.08 109 08:18 15.03.2020
6602 Snow -1 1030 97 0 5.08 109 07:44 15.03.2020
6603 Snow -1 1030 97 0 5.08 109 06:55 15.03.2020
6604 Snow -1 1030 97 0 5.08 109 06:34 15.03.2020
6605 Snow -1 1030 97 0 5.08 109 05:46 15.03.2020
6606 Snow -1 1032 92 1609 5.7 100 04:49 15.03.2020
6607 Snow -1 1032 92 1609 5.7 100 04:29 15.03.2020
6608 Snow 0 1031 98 0 4.16 96 03:55 15.03.2020
6609 Snow 0 1031 98 0 4.16 96 02:48 15.03.2020
6610 Snow 0 1033 99 0 2.01 113 01:50 15.03.2020
6611 Snow -1 1033 100 2012 4.6 90 00:51 15.03.2020
6612 Snow -1 1033 100 2012 4.6 90 00:51 15.03.2020
6613 Snow -1 1033 100 2012 4.6 90 00:28 15.03.2020
6614 Snow -1 1033 100 3219 4.6 90 23:58 14.03.2020
6615 Snow 0 1033 99 3219 4.1 80 23:37 14.03.2020
6616 Snow 0 1033 99 3219 4.1 80 23:19 14.03.2020
6617 Snow 0 1033 99 2012 2.6 80 22:44 14.03.2020
6618 Snow 0 1033 99 1207 2.6 80 22:26 14.03.2020
6619 Snow 1 1032 99 0 1.93 113 21:57 14.03.2020
6620 Snow 1 1032 99 0 1.93 113 21:37 14.03.2020
6621 Fog 0 1033 99 0 2.1 90 21:19 14.03.2020
6622 Fog 0 1033 99 0 2.1 90 21:19 14.03.2020
6623 Fog 0 1033 99 0 2.1 90 21:19 14.03.2020
6624 Fog 0 1033 99 402 2.1 100 20:59 14.03.2020
6625 Fog 0 1033 99 402 2.1 100 20:41 14.03.2020
6626 Fog -1 1032 100 402 0.32 327 20:20 14.03.2020
6627 Snow 0 1031 98 0 0.32 327 19:59 14.03.2020
6628 Snow 0 1031 98 0 0.32 327 19:40 14.03.2020
6629 Snow 0 1031 98 0 0.32 327 19:20 14.03.2020
6630 Fog 0 1031 98 805 0.32 327 18:39 14.03.2020
6631 Fog 0 1031 98 805 0.32 327 18:20 14.03.2020
6632 Snow 0 1031 98 0 0.32 327 17:41 14.03.2020
6633 Snow 0 1031 98 0 0.32 327 17:21 14.03.2020
6634 Snow 1 1028 98 0 3.77 214 16:58 14.03.2020
6635 Snow 1 1028 98 0 3.77 214 16:38 14.03.2020
6636 Snow 1 1028 98 0 3.77 214 16:18 14.03.2020
6637 Snow 1 1028 98 0 3.77 214 15:28 14.03.2020
6638 Snow 1 1028 98 0 3.77 214 14:59 14.03.2020
6639 Snow 1 1028 98 0 3.77 214 14:59 14.03.2020
6640 Snow 1 1028 98 0 3.77 214 14:39 14.03.2020
6641 Snow 0 1027 98 0 6.96 203 14:20 14.03.2020
6642 Snow 0 1027 98 0 6.96 203 13:56 14.03.2020
6643 Snow 0 1027 98 0 6.96 203 13:38 14.03.2020
6644 Snow 0 1027 98 0 6.96 203 13:19 14.03.2020
6645 Snow 1 1026 98 0 6.17 207 12:44 14.03.2020
6646 Snow 1 1026 98 0 6.17 207 12:25 14.03.2020
6647 Snow 1 1026 98 0 6.17 207 11:45 14.03.2020
6648 Snow 1 1026 98 0 6.17 207 11:26 14.03.2020
6649 Snow 0 1025 98 0 5.46 184 10:55 14.03.2020
6650 Snow 0 1025 98 0 5.46 184 10:36 14.03.2020
6651 Snow 0 1025 98 0 5.46 184 10:18 14.03.2020
6652 Snow 0 1025 98 0 5.46 184 09:41 14.03.2020
6653 Snow 0 1025 98 0 5.46 184 09:22 14.03.2020
6654 Snow 0 1025 98 0 5.46 184 08:47 14.03.2020
6655 Snow -1 1026 97 0 3.57 169 08:27 14.03.2020
6656 Rain 3 1026 86 3219 6.2 170 07:48 14.03.2020
6657 Snow 3 1027 86 2012 6.2 170 07:23 14.03.2020
6658 Rain 3 1026 97 805 5.1 160 06:59 14.03.2020
6659 Rain 1 1027 86 1207 5.7 150 06:39 14.03.2020
6660 Snow -1 1027 80 1207 6.7 150 04:57 14.03.2020
6661 Snow -3 1028 86 402 5.1 130 03:41 14.03.2020
6662 Snow -3 1028 86 402 5.1 130 03:20 14.03.2020
6663 Rain -4 1029 95 805 5.7 110 01:50 14.03.2020
6664 Snow -5 1029 85 1207 5.7 90 00:42 14.03.2020
6665 Mist -6 1030 95 16093 5.1 110 23:44 13.03.2020
6666 Mist -5 1030 85 9656 4.6 120 23:25 13.03.2020
6667 Mist -6 1030 92 4828 4.6 130 22:46 13.03.2020
6668 Mist -6 1030 92 8047 5.7 110 22:25 13.03.2020
6669 Clouds 2 1031 51 16093 4.1 110 21:42 13.03.2020
6670 Clouds 2 1031 51 16093 4.1 110 21:21 13.03.2020
6671 Clouds 0 1030 93 16093 8.7 190 20:57 13.03.2020
6672 Clouds 0 1030 93 16093 8.7 190 20:38 13.03.2020
6673 Clouds 0 1030 96 16093 8.7 190 20:19 13.03.2020
6674 Clouds 4 1030 41 16093 5.7 190 19:42 13.03.2020
6675 Clouds 4 1030 41 16093 5.7 190 19:23 13.03.2020
6676 Clouds 4 1030 41 16093 5.7 190 19:23 13.03.2020
6677 Clouds 3 1030 40 16093 2.6 170 18:44 13.03.2020
6678 Clouds 3 1030 40 16093 2.6 170 18:25 13.03.2020
6679 Clouds 1 1030 43 16093 3.1 160 17:55 13.03.2020
6680 Clouds 1 1030 43 16093 3.1 160 17:37 13.03.2020
6681 Clouds 1 1030 43 16093 3.1 160 17:18 13.03.2020
6682 Clouds -4 1029 46 16093 5.1 130 16:40 13.03.2020
6683 Clouds -3 1029 37 16093 3.6 110 16:22 13.03.2020
6684 Clouds -5 1029 92 16093 4.1 140 15:54 13.03.2020
6685 Clouds -4 1029 92 16093 4.1 140 15:36 13.03.2020
6686 Clouds -4 1029 92 16093 4.1 140 15:18 13.03.2020
6687 Clouds -3 1030 40 16093 3.6 120 14:40 13.03.2020
6688 Clouds -3 1030 40 16093 3.6 120 14:22 13.03.2020
6689 Clouds -3 1030 37 16093 3.1 150 13:55 13.03.2020
6690 Clouds -3 1030 43 16093 2.1 150 13:37 13.03.2020
6691 Clouds -3 1030 43 16093 2.1 150 13:18 13.03.2020
6692 Clouds -3 1030 43 16093 4.6 180 12:39 13.03.2020
6693 Clouds -3 1030 43 16093 4.6 180 12:21 13.03.2020
6694 Clear -4 1030 50 16093 6.7 170 11:57 13.03.2020
6695 Clear -4 1029 54 14484 10.8 170 11:37 13.03.2020
6696 Clear -6 1030 73 16093 8.7 180 11:19 13.03.2020
6697 Clear -6 1030 73 16093 8.7 180 10:47 13.03.2020
6698 Clear -6 1030 73 16093 8.7 180 10:26 13.03.2020
6699 Clear -6 1029 73 14484 10.3 170 09:56 13.03.2020
6700 Clear -6 1029 73 14484 10.3 170 09:38 13.03.2020
6701 Clear -6 1029 73 14484 10.3 170 09:20 13.03.2020
6702 Clear -5 1031 73 16093 8.2 170 08:42 13.03.2020
6703 Clear -5 1031 73 16093 8.2 170 08:22 13.03.2020
6704 Clear -5 1031 73 14484 9.3 170 07:47 13.03.2020
6705 Clear -5 1031 73 14484 9.3 170 07:27 13.03.2020
6706 Clouds -5 1031 79 11265 9.8 170 06:47 13.03.2020
6707 Clouds -6 1031 79 11265 9.8 170 06:26 13.03.2020
6708 Clouds -5 1031 85 11265 8.7 170 05:49 13.03.2020